<?xml version='1.0' encoding='UTF-8'?><gpx version="1.1" creator="JPX - https://github.com/jenetics/jpx" xmlns="http://www.topografix.com/GPX/1/1"><trk><trkseg><trkpt lat="45.71854229559137" lon="9.771027780463719"><ele>338.0</ele><time>2026-04-22T13:23:50Z</time></trkpt><trkpt lat="45.71845128842595" lon="9.77095593296205"><ele>337.0</ele><time>2026-04-22T13:23:52Z</time></trkpt><trkpt lat="45.718391667959935" lon="9.770908107816734"><ele>336.0</ele><time>2026-04-22T13:23:53Z</time></trkpt><trkpt lat="45.71832645769013" lon="9.770860823796811"><ele>335.0</ele><time>2026-04-22T13:23:54Z</time></trkpt><trkpt lat="45.71825559965257" lon="9.770812871204246"><ele>334.0</ele><time>2026-04-22T13:23:55Z</time></trkpt><trkpt lat="45.71818586240595" lon="9.770753155766435"><ele>333.0</ele><time>2026-04-22T13:23:56Z</time></trkpt><trkpt lat="45.71811783902812" lon="9.770697504130597"><ele>333.0</ele><time>2026-04-22T13:23:57Z</time></trkpt><trkpt lat="45.71805642971691" lon="9.770650927058082"><ele>333.0</ele><time>2026-04-22T13:23:58Z</time></trkpt><trkpt lat="45.717993659326964" lon="9.770614503131096"><ele>333.0</ele><time>2026-04-22T13:23:59Z</time></trkpt><trkpt lat="45.71790021520076" lon="9.770596876364259"><ele>333.0</ele><time>2026-04-22T13:24:01Z</time></trkpt><trkpt lat="45.717805507684915" lon="9.77060885753701"><ele>333.0</ele><time>2026-04-22T13:24:03Z</time></trkpt><trkpt lat="45.71773781336828" lon="9.770523557181804"><ele>333.0</ele><time>2026-04-22T13:24:05Z</time></trkpt><trkpt lat="45.71768160724365" lon="9.770461030606464"><ele>331.8333333333333</ele><time>2026-04-22T13:24:06Z</time></trkpt><trkpt lat="45.71762755332659" lon="9.77038640769133"><ele>330.6666666666667</ele><time>2026-04-22T13:24:07Z</time></trkpt><trkpt lat="45.71756696198318" lon="9.770325001607901"><ele>329.5</ele><time>2026-04-22T13:24:08Z</time></trkpt><trkpt lat="45.71749308284382" lon="9.770250422918519"><ele>328.33333333333337</ele><time>2026-04-22T13:24:10Z</time></trkpt><trkpt lat="45.71751836910984" lon="9.770167323478773"><ele>327.1666666666667</ele><time>2026-04-22T13:24:12Z</time></trkpt><trkpt lat="45.71759970100883" lon="9.770060848565997"><ele>326.0</ele><time>2026-04-22T13:24:14Z</time></trkpt><trkpt lat="45.71764549871479" lon="9.769993553850172"><ele>326.33333333333337</ele><time>2026-04-22T13:24:15Z</time></trkpt><trkpt lat="45.71769021883076" lon="9.769928788615502"><ele>326.6666666666667</ele><time>2026-04-22T13:24:16Z</time></trkpt><trkpt lat="45.71774065595533" lon="9.769854669900601"><ele>327.0</ele><time>2026-04-22T13:24:17Z</time></trkpt><trkpt lat="45.717792096413554" lon="9.76978383842153"><ele>327.3333333333333</ele><time>2026-04-22T13:24:18Z</time></trkpt><trkpt lat="45.71783477965341" lon="9.76970863693318"><ele>327.66666666666663</ele><time>2026-04-22T13:24:19Z</time></trkpt><trkpt lat="45.717878304695226" lon="9.769640166790099"><ele>328.0</ele><time>2026-04-22T13:24:20Z</time></trkpt><trkpt lat="45.71796527684434" lon="9.76951699556823"><ele>327.99999999999994</ele><time>2026-04-22T13:24:22Z</time></trkpt><trkpt lat="45.71800562709989" lon="9.769441335200742"><ele>328.0</ele><time>2026-04-22T13:24:23Z</time></trkpt><trkpt lat="45.71804782167331" lon="9.769368323140096"><ele>328.0</ele><time>2026-04-22T13:24:24Z</time></trkpt><trkpt lat="45.71809044027426" lon="9.769298322614272"><ele>328.0</ele><time>2026-04-22T13:24:25Z</time></trkpt><trkpt lat="45.71813802681571" lon="9.769229332000204"><ele>328.0</ele><time>2026-04-22T13:24:26Z</time></trkpt><trkpt lat="45.71818417214211" lon="9.769159210600419"><ele>327.99999999999994</ele><time>2026-04-22T13:24:27Z</time></trkpt><trkpt lat="45.71822941761868" lon="9.76909519472121"><ele>328.0</ele><time>2026-04-22T13:24:28Z</time></trkpt><trkpt lat="45.71828096656767" lon="9.769035312059973"><ele>327.85714285714283</ele><time>2026-04-22T13:24:29Z</time></trkpt><trkpt lat="45.718331271729184" lon="9.768979977064154"><ele>327.7142857142857</ele><time>2026-04-22T13:24:30Z</time></trkpt><trkpt lat="45.71838517921792" lon="9.768919721261224"><ele>327.57142857142856</ele><time>2026-04-22T13:24:31Z</time></trkpt><trkpt lat="45.71843955548278" lon="9.768863791526718"><ele>327.42857142857144</ele><time>2026-04-22T13:24:32Z</time></trkpt><trkpt lat="45.7184933363459" lon="9.768808190624831"><ele>327.2857142857143</ele><time>2026-04-22T13:24:33Z</time></trkpt><trkpt lat="45.718551514710114" lon="9.768757343711451"><ele>327.1428571428571</ele><time>2026-04-22T13:24:34Z</time></trkpt><trkpt lat="45.71860719761845" lon="9.768708361678733"><ele>327.0</ele><time>2026-04-22T13:24:35Z</time></trkpt><trkpt lat="45.71866253441775" lon="9.7686575765303"><ele>327.0</ele><time>2026-04-22T13:24:36Z</time></trkpt><trkpt lat="45.71871841901755" lon="9.768598816576292"><ele>327.0</ele><time>2026-04-22T13:24:37Z</time></trkpt><trkpt lat="45.71877508407132" lon="9.76854685834493"><ele>327.0</ele><time>2026-04-22T13:24:38Z</time></trkpt><trkpt lat="45.71883071569955" lon="9.768498960560478"><ele>327.0</ele><time>2026-04-22T13:24:39Z</time></trkpt><trkpt lat="45.71888459425116" lon="9.76844405704817"><ele>327.0</ele><time>2026-04-22T13:24:40Z</time></trkpt><trkpt lat="45.718937736438185" lon="9.768388069747715"><ele>327.0</ele><time>2026-04-22T13:24:41Z</time></trkpt><trkpt lat="45.718994973021964" lon="9.768339769245022"><ele>327.0</ele><time>2026-04-22T13:24:42Z</time></trkpt><trkpt lat="45.719046611064044" lon="9.768285046533384"><ele>327.6</ele><time>2026-04-22T13:24:43Z</time></trkpt><trkpt lat="45.719100151593096" lon="9.76822969031857"><ele>328.20000000000005</ele><time>2026-04-22T13:24:44Z</time></trkpt><trkpt lat="45.719155213661764" lon="9.768182354028095"><ele>328.8</ele><time>2026-04-22T13:24:45Z</time></trkpt><trkpt lat="45.719210864165774" lon="9.768136356690917"><ele>329.4</ele><time>2026-04-22T13:24:46Z</time></trkpt><trkpt lat="45.71931442782222" lon="9.768023732282511"><ele>330.0</ele><time>2026-04-22T13:24:48Z</time></trkpt><trkpt lat="45.71941754726278" lon="9.767918009901123"><ele>330.0</ele><time>2026-04-22T13:24:50Z</time></trkpt><trkpt lat="45.71947302659673" lon="9.767873666829402"><ele>330.0</ele><time>2026-04-22T13:24:51Z</time></trkpt><trkpt lat="45.71952595684532" lon="9.767806614431823"><ele>330.0</ele><time>2026-04-22T13:24:52Z</time></trkpt><trkpt lat="45.719634020888456" lon="9.767704838632852"><ele>330.0</ele><time>2026-04-22T13:24:54Z</time></trkpt><trkpt lat="45.71968996518898" lon="9.76765133153654"><ele>330.0</ele><time>2026-04-22T13:24:55Z</time></trkpt><trkpt lat="45.719744129706505" lon="9.767598810130544"><ele>330.0</ele><time>2026-04-22T13:24:56Z</time></trkpt><trkpt lat="45.719799371045234" lon="9.767544806677986"><ele>329.2</ele><time>2026-04-22T13:24:57Z</time></trkpt><trkpt lat="45.719851620850896" lon="9.767489354027312"><ele>328.4</ele><time>2026-04-22T13:24:58Z</time></trkpt><trkpt lat="45.71995720076319" lon="9.767380303797784"><ele>327.6</ele><time>2026-04-22T13:25:00Z</time></trkpt><trkpt lat="45.72001063033833" lon="9.767325023012138"><ele>326.8</ele><time>2026-04-22T13:25:01Z</time></trkpt><trkpt lat="45.72010904545534" lon="9.767221418205846"><ele>326.0</ele><time>2026-04-22T13:25:03Z</time></trkpt><trkpt lat="45.720167958950036" lon="9.767165063051099"><ele>325.20000000000005</ele><time>2026-04-22T13:25:04Z</time></trkpt><trkpt lat="45.72027058112157" lon="9.767056240894425"><ele>324.40000000000003</ele><time>2026-04-22T13:25:06Z</time></trkpt><trkpt lat="45.720377449802555" lon="9.766954172976087"><ele>323.6</ele><time>2026-04-22T13:25:08Z</time></trkpt><trkpt lat="45.72043039136043" lon="9.766899093826137"><ele>322.8</ele><time>2026-04-22T13:25:09Z</time></trkpt><trkpt lat="45.72048577018645" lon="9.7668480998044"><ele>322.0</ele><time>2026-04-22T13:25:10Z</time></trkpt><trkpt lat="45.72054019419518" lon="9.766800646678174"><ele>322.0</ele><time>2026-04-22T13:25:11Z</time></trkpt><trkpt lat="45.72059511054372" lon="9.766741847779464"><ele>322.0</ele><time>2026-04-22T13:25:12Z</time></trkpt><trkpt lat="45.72064590558461" lon="9.766681002342075"><ele>322.0</ele><time>2026-04-22T13:25:13Z</time></trkpt><trkpt lat="45.72073884824514" lon="9.76655804428266"><ele>322.0</ele><time>2026-04-22T13:25:15Z</time></trkpt><trkpt lat="45.7207865525105" lon="9.766489339077193"><ele>322.0</ele><time>2026-04-22T13:25:16Z</time></trkpt><trkpt lat="45.72083860590031" lon="9.766427172834623"><ele>322.0</ele><time>2026-04-22T13:25:17Z</time></trkpt><trkpt lat="45.720891503522665" lon="9.766367725366232"><ele>322.0</ele><time>2026-04-22T13:25:18Z</time></trkpt><trkpt lat="45.72093659895585" lon="9.766300118265391"><ele>322.0</ele><time>2026-04-22T13:25:19Z</time></trkpt><trkpt lat="45.721037014314106" lon="9.76617006056255"><ele>322.0</ele><time>2026-04-22T13:25:21Z</time></trkpt><trkpt lat="45.72113494969147" lon="9.766053046713736"><ele>322.0</ele><time>2026-04-22T13:25:23Z</time></trkpt><trkpt lat="45.72118621170718" lon="9.765986983685714"><ele>322.0</ele><time>2026-04-22T13:25:24Z</time></trkpt><trkpt lat="45.72129167957228" lon="9.7658745694699"><ele>321.40000000000003</ele><time>2026-04-22T13:25:26Z</time></trkpt><trkpt lat="45.721342959231166" lon="9.765815606700107"><ele>320.8</ele><time>2026-04-22T13:25:27Z</time></trkpt><trkpt lat="45.72144858503334" lon="9.765700060009353"><ele>320.2</ele><time>2026-04-22T13:25:29Z</time></trkpt><trkpt lat="45.72150093191015" lon="9.76563981554948"><ele>319.6</ele><time>2026-04-22T13:25:30Z</time></trkpt><trkpt lat="45.7215994671648" lon="9.765527042371028"><ele>319.0</ele><time>2026-04-22T13:25:32Z</time></trkpt><trkpt lat="45.7216508619504" lon="9.765473811091109"><ele>319.0</ele><time>2026-04-22T13:25:33Z</time></trkpt><trkpt lat="45.72175842520073" lon="9.765371990918192"><ele>319.0</ele><time>2026-04-22T13:25:35Z</time></trkpt><trkpt lat="45.72186512585327" lon="9.765272990453354"><ele>319.0</ele><time>2026-04-22T13:25:37Z</time></trkpt><trkpt lat="45.72191891269571" lon="9.765216644403028"><ele>319.0</ele><time>2026-04-22T13:25:38Z</time></trkpt><trkpt lat="45.72202839297731" lon="9.765116157713788"><ele>319.0</ele><time>2026-04-22T13:25:40Z</time></trkpt><trkpt lat="45.72208623991129" lon="9.765058417297375"><ele>319.0</ele><time>2026-04-22T13:25:41Z</time></trkpt><trkpt lat="45.7221472701209" lon="9.765001492986471"><ele>319.0</ele><time>2026-04-22T13:25:42Z</time></trkpt><trkpt lat="45.72219924005004" lon="9.76494687113078"><ele>319.0</ele><time>2026-04-22T13:25:43Z</time></trkpt><trkpt lat="45.722261776999595" lon="9.764891448401153"><ele>319.0</ele><time>2026-04-22T13:25:44Z</time></trkpt><trkpt lat="45.722325882676834" lon="9.7648284738407"><ele>319.0</ele><time>2026-04-22T13:25:45Z</time></trkpt><trkpt lat="45.722383520595415" lon="9.764775370665127"><ele>319.0</ele><time>2026-04-22T13:25:46Z</time></trkpt><trkpt lat="45.72244629213996" lon="9.764715219617916"><ele>319.0</ele><time>2026-04-22T13:25:47Z</time></trkpt><trkpt lat="45.722505342948665" lon="9.764647653197448"><ele>319.0</ele><time>2026-04-22T13:25:48Z</time></trkpt><trkpt lat="45.72257182131045" lon="9.7645929376248"><ele>319.0</ele><time>2026-04-22T13:25:49Z</time></trkpt><trkpt lat="45.72263271949474" lon="9.764527440462446"><ele>319.0</ele><time>2026-04-22T13:25:50Z</time></trkpt><trkpt lat="45.72269615950006" lon="9.764466060754783"><ele>319.0</ele><time>2026-04-22T13:25:51Z</time></trkpt><trkpt lat="45.72276046588067" lon="9.764409706059704"><ele>319.0</ele><time>2026-04-22T13:25:52Z</time></trkpt><trkpt lat="45.722823180950655" lon="9.764348627177107"><ele>318.16666666666663</ele><time>2026-04-22T13:25:53Z</time></trkpt><trkpt lat="45.72288143346716" lon="9.764280312830813"><ele>317.3333333333333</ele><time>2026-04-22T13:25:54Z</time></trkpt><trkpt lat="45.72294414664651" lon="9.764220779301017"><ele>316.5</ele><time>2026-04-22T13:25:55Z</time></trkpt><trkpt lat="45.723004980241946" lon="9.764155908661634"><ele>315.6666666666667</ele><time>2026-04-22T13:25:56Z</time></trkpt><trkpt lat="45.72306451769958" lon="9.764079978297021"><ele>314.83333333333337</ele><time>2026-04-22T13:25:57Z</time></trkpt><trkpt lat="45.723123302393105" lon="9.76401572738929"><ele>314.0</ele><time>2026-04-22T13:25:58Z</time></trkpt><trkpt lat="45.723174660982174" lon="9.763940249733304"><ele>314.0</ele><time>2026-04-22T13:25:59Z</time></trkpt><trkpt lat="45.72323118405722" lon="9.763870668692917"><ele>314.0</ele><time>2026-04-22T13:26:00Z</time></trkpt><trkpt lat="45.723289467506376" lon="9.76380491028339"><ele>314.0</ele><time>2026-04-22T13:26:01Z</time></trkpt><trkpt lat="45.723362997944626" lon="9.763737040465115"><ele>314.0</ele><time>2026-04-22T13:26:02Z</time></trkpt><trkpt lat="45.72341146650458" lon="9.763591917750071"><ele>314.0</ele><time>2026-04-22T13:26:04Z</time></trkpt><trkpt lat="45.723483292254926" lon="9.763519601063674"><ele>314.0</ele><time>2026-04-22T13:26:05Z</time></trkpt><trkpt lat="45.72353195687676" lon="9.763450731753114"><ele>314.5</ele><time>2026-04-22T13:26:06Z</time></trkpt><trkpt lat="45.723580583095945" lon="9.76338153583011"><ele>315.0</ele><time>2026-04-22T13:26:07Z</time></trkpt><trkpt lat="45.72362866187561" lon="9.763315058819286"><ele>315.5</ele><time>2026-04-22T13:26:08Z</time></trkpt><trkpt lat="45.723676905546334" lon="9.763254495645679"><ele>316.0</ele><time>2026-04-22T13:26:09Z</time></trkpt><trkpt lat="45.72373001249514" lon="9.763198228612195"><ele>316.5</ele><time>2026-04-22T13:26:10Z</time></trkpt><trkpt lat="45.723830156705695" lon="9.763092794091952"><ele>317.0</ele><time>2026-04-22T13:26:12Z</time></trkpt><trkpt lat="45.723899871633584" lon="9.762993320590859"><ele>317.0</ele><time>2026-04-22T13:26:14Z</time></trkpt><trkpt lat="45.72397367861104" lon="9.762930606972647"><ele>317.0</ele><time>2026-04-22T13:26:15Z</time></trkpt><trkpt lat="45.724022936072146" lon="9.762869116901731"><ele>317.0</ele><time>2026-04-22T13:26:16Z</time></trkpt><trkpt lat="45.724078856546114" lon="9.762808595150327"><ele>317.0</ele><time>2026-04-22T13:26:17Z</time></trkpt><trkpt lat="45.72413195487165" lon="9.762748171578156"><ele>317.0</ele><time>2026-04-22T13:26:18Z</time></trkpt><trkpt lat="45.72418140565248" lon="9.762686003495006"><ele>317.0</ele><time>2026-04-22T13:26:19Z</time></trkpt><trkpt lat="45.724226528890654" lon="9.762613248869684"><ele>317.0</ele><time>2026-04-22T13:26:20Z</time></trkpt><trkpt lat="45.72426997988269" lon="9.762540784297293"><ele>316.57142857142856</ele><time>2026-04-22T13:26:21Z</time></trkpt><trkpt lat="45.72431478829423" lon="9.762462334559885"><ele>316.1428571428571</ele><time>2026-04-22T13:26:22Z</time></trkpt><trkpt lat="45.72435545475805" lon="9.762384462586313"><ele>315.71428571428567</ele><time>2026-04-22T13:26:23Z</time></trkpt><trkpt lat="45.724393065334546" lon="9.762298796920584"><ele>315.2857142857143</ele><time>2026-04-22T13:26:24Z</time></trkpt><trkpt lat="45.724431502274314" lon="9.762212299997175"><ele>314.85714285714283</ele><time>2026-04-22T13:26:25Z</time></trkpt><trkpt lat="45.72446924161568" lon="9.762122101247034"><ele>314.4285714285714</ele><time>2026-04-22T13:26:26Z</time></trkpt><trkpt lat="45.72450260463774" lon="9.762030607559002"><ele>314.0</ele><time>2026-04-22T13:26:27Z</time></trkpt><trkpt lat="45.72454306655546" lon="9.76194234131429"><ele>314.1666666666667</ele><time>2026-04-22T13:26:28Z</time></trkpt><trkpt lat="45.72458444138272" lon="9.761846248743208"><ele>314.33333333333337</ele><time>2026-04-22T13:26:29Z</time></trkpt><trkpt lat="45.72462276201599" lon="9.761755805632774"><ele>314.5</ele><time>2026-04-22T13:26:30Z</time></trkpt><trkpt lat="45.72466466731142" lon="9.761663807867334"><ele>314.6666666666667</ele><time>2026-04-22T13:26:31Z</time></trkpt><trkpt lat="45.72471207673236" lon="9.76158261829981"><ele>314.8333333333333</ele><time>2026-04-22T13:26:32Z</time></trkpt><trkpt lat="45.72476205080782" lon="9.761501860713024"><ele>315.0</ele><time>2026-04-22T13:26:33Z</time></trkpt><trkpt lat="45.72481821446887" lon="9.76143536460922"><ele>315.0</ele><time>2026-04-22T13:26:34Z</time></trkpt><trkpt lat="45.72487922700609" lon="9.761371807562908"><ele>315.0</ele><time>2026-04-22T13:26:35Z</time></trkpt><trkpt lat="45.72494101226141" lon="9.761311515469863"><ele>315.0</ele><time>2026-04-22T13:26:36Z</time></trkpt><trkpt lat="45.725008455276296" lon="9.761260087960952"><ele>315.0</ele><time>2026-04-22T13:26:37Z</time></trkpt><trkpt lat="45.72507704505668" lon="9.761215356028394"><ele>315.0</ele><time>2026-04-22T13:26:38Z</time></trkpt><trkpt lat="45.72514638733827" lon="9.761169824167334"><ele>315.0</ele><time>2026-04-22T13:26:39Z</time></trkpt><trkpt lat="45.725216499070584" lon="9.761125833885007"><ele>315.2857142857143</ele><time>2026-04-22T13:26:40Z</time></trkpt><trkpt lat="45.72528515779337" lon="9.76108264429887"><ele>315.57142857142856</ele><time>2026-04-22T13:26:41Z</time></trkpt><trkpt lat="45.72535256945714" lon="9.761040725835407"><ele>315.8571428571429</ele><time>2026-04-22T13:26:42Z</time></trkpt><trkpt lat="45.725424394003966" lon="9.761013467930098"><ele>316.1428571428571</ele><time>2026-04-22T13:26:43Z</time></trkpt><trkpt lat="45.725494625518536" lon="9.760982154517276"><ele>316.42857142857144</ele><time>2026-04-22T13:26:44Z</time></trkpt><trkpt lat="45.72556395858088" lon="9.760950751683524"><ele>316.7142857142857</ele><time>2026-04-22T13:26:45Z</time></trkpt><trkpt lat="45.72563371739527" lon="9.760921716280482"><ele>317.0</ele><time>2026-04-22T13:26:46Z</time></trkpt><trkpt lat="45.7257033360563" lon="9.760894596129198"><ele>316.42857142857144</ele><time>2026-04-22T13:26:47Z</time></trkpt><trkpt lat="45.72577097860553" lon="9.760865428459862"><ele>315.85714285714283</ele><time>2026-04-22T13:26:48Z</time></trkpt><trkpt lat="45.72583852221454" lon="9.760839907700673"><ele>315.2857142857143</ele><time>2026-04-22T13:26:49Z</time></trkpt><trkpt lat="45.72590530683499" lon="9.760814280325667"><ele>314.7142857142857</ele><time>2026-04-22T13:26:50Z</time></trkpt><trkpt lat="45.725974143344374" lon="9.760787257069087"><ele>314.14285714285717</ele><time>2026-04-22T13:26:51Z</time></trkpt><trkpt lat="45.726041909103174" lon="9.76075954994144"><ele>313.57142857142856</ele><time>2026-04-22T13:26:52Z</time></trkpt><trkpt lat="45.72611023366718" lon="9.760731607778277"><ele>313.0</ele><time>2026-04-22T13:26:53Z</time></trkpt><trkpt lat="45.7261784255547" lon="9.760706326691563"><ele>313.0</ele><time>2026-04-22T13:26:54Z</time></trkpt><trkpt lat="45.72624476266259" lon="9.760677098526656"><ele>313.0</ele><time>2026-04-22T13:26:55Z</time></trkpt><trkpt lat="45.72631346093959" lon="9.76065050540541"><ele>313.0</ele><time>2026-04-22T13:26:56Z</time></trkpt><trkpt lat="45.72638019847141" lon="9.760621365131023"><ele>313.0</ele><time>2026-04-22T13:26:57Z</time></trkpt><trkpt lat="45.72644907281556" lon="9.76059205581256"><ele>313.0</ele><time>2026-04-22T13:26:58Z</time></trkpt><trkpt lat="45.72651718640177" lon="9.760565154958302"><ele>313.0</ele><time>2026-04-22T13:26:59Z</time></trkpt><trkpt lat="45.72658647067499" lon="9.760537823468033"><ele>313.0</ele><time>2026-04-22T13:27:00Z</time></trkpt><trkpt lat="45.72665587956686" lon="9.760510098543794"><ele>313.0</ele><time>2026-04-22T13:27:01Z</time></trkpt><trkpt lat="45.72672573814788" lon="9.760480835162106"><ele>313.0</ele><time>2026-04-22T13:27:02Z</time></trkpt><trkpt lat="45.72679596753916" lon="9.760455386847738"><ele>313.0</ele><time>2026-04-22T13:27:03Z</time></trkpt><trkpt lat="45.72686493904245" lon="9.760425382350217"><ele>313.0</ele><time>2026-04-22T13:27:04Z</time></trkpt><trkpt lat="45.72693865809496" lon="9.760410636535433"><ele>313.0</ele><time>2026-04-22T13:27:05Z</time></trkpt><trkpt lat="45.72701015547047" lon="9.760395580147605"><ele>313.0</ele><time>2026-04-22T13:27:06Z</time></trkpt><trkpt lat="45.72707828175232" lon="9.76038107501354"><ele>313.0</ele><time>2026-04-22T13:27:07Z</time></trkpt><trkpt lat="45.72715094934482" lon="9.76035753349788"><ele>312.57142857142856</ele><time>2026-04-22T13:27:08Z</time></trkpt><trkpt lat="45.727220623416855" lon="9.760344336480529"><ele>312.14285714285717</ele><time>2026-04-22T13:27:09Z</time></trkpt><trkpt lat="45.727292711604065" lon="9.760318361701012"><ele>311.7142857142857</ele><time>2026-04-22T13:27:10Z</time></trkpt><trkpt lat="45.727363698956836" lon="9.760295443153828"><ele>311.2857142857143</ele><time>2026-04-22T13:27:11Z</time></trkpt><trkpt lat="45.727434801515294" lon="9.76026524092456"><ele>310.85714285714283</ele><time>2026-04-22T13:27:12Z</time></trkpt><trkpt lat="45.72750294509057" lon="9.760234979398055"><ele>310.42857142857144</ele><time>2026-04-22T13:27:13Z</time></trkpt><trkpt lat="45.727571785232975" lon="9.760195885081044"><ele>310.0</ele><time>2026-04-22T13:27:14Z</time></trkpt><trkpt lat="45.72764200632413" lon="9.760157071399398"><ele>310.0</ele><time>2026-04-22T13:27:15Z</time></trkpt><trkpt lat="45.72770680157602" lon="9.760120392874708"><ele>310.0</ele><time>2026-04-22T13:27:16Z</time></trkpt><trkpt lat="45.72777272109599" lon="9.760086548693698"><ele>310.0</ele><time>2026-04-22T13:27:17Z</time></trkpt><trkpt lat="45.72784243950618" lon="9.760056146011689"><ele>310.0</ele><time>2026-04-22T13:27:18Z</time></trkpt><trkpt lat="45.727907954467575" lon="9.760017671121508"><ele>310.0</ele><time>2026-04-22T13:27:19Z</time></trkpt><trkpt lat="45.72797341237962" lon="9.759985264512288"><ele>310.0</ele><time>2026-04-22T13:27:20Z</time></trkpt><trkpt lat="45.72803736517326" lon="9.759951533853346"><ele>310.0</ele><time>2026-04-22T13:27:21Z</time></trkpt><trkpt lat="45.728102567011256" lon="9.759915039188092"><ele>310.0</ele><time>2026-04-22T13:27:22Z</time></trkpt><trkpt lat="45.728163993162724" lon="9.759882185391477"><ele>310.0</ele><time>2026-04-22T13:27:23Z</time></trkpt><trkpt lat="45.728229708631176" lon="9.759847137727384"><ele>310.0</ele><time>2026-04-22T13:27:24Z</time></trkpt><trkpt lat="45.728294092541255" lon="9.759816714099447"><ele>310.0</ele><time>2026-04-22T13:27:25Z</time></trkpt><trkpt lat="45.728421872910914" lon="9.75975242076591"><ele>310.0</ele><time>2026-04-22T13:27:27Z</time></trkpt><trkpt lat="45.72854379566192" lon="9.759680266909715"><ele>310.57142857142856</ele><time>2026-04-22T13:27:29Z</time></trkpt><trkpt lat="45.7286062051041" lon="9.759647865151004"><ele>311.1428571428571</ele><time>2026-04-22T13:27:30Z</time></trkpt><trkpt lat="45.72867029228264" lon="9.759619828217968"><ele>311.71428571428567</ele><time>2026-04-22T13:27:31Z</time></trkpt><trkpt lat="45.72872786779022" lon="9.75957989269624"><ele>312.2857142857143</ele><time>2026-04-22T13:27:32Z</time></trkpt><trkpt lat="45.72878769623082" lon="9.759548445647235"><ele>312.85714285714283</ele><time>2026-04-22T13:27:33Z</time></trkpt><trkpt lat="45.72884816909722" lon="9.75952205110706"><ele>313.4285714285714</ele><time>2026-04-22T13:27:34Z</time></trkpt><trkpt lat="45.72891161987488" lon="9.759488526705082"><ele>314.0</ele><time>2026-04-22T13:27:35Z</time></trkpt><trkpt lat="45.729035073517856" lon="9.759437190346588"><ele>313.99999999999994</ele><time>2026-04-22T13:27:37Z</time></trkpt><trkpt lat="45.729099012606866" lon="9.759431592417965"><ele>314.0</ele><time>2026-04-22T13:27:38Z</time></trkpt><trkpt lat="45.72916646807124" lon="9.759437661310303"><ele>314.0</ele><time>2026-04-22T13:27:39Z</time></trkpt><trkpt lat="45.72922839677685" lon="9.75937289477803"><ele>314.0</ele><time>2026-04-22T13:27:40Z</time></trkpt><trkpt lat="45.72929135012729" lon="9.759362443058372"><ele>314.0</ele><time>2026-04-22T13:27:41Z</time></trkpt><trkpt lat="45.72935977285405" lon="9.759357522863606"><ele>313.99999999999994</ele><time>2026-04-22T13:27:42Z</time></trkpt><trkpt lat="45.7294231279836" lon="9.759364429812011"><ele>314.0</ele><time>2026-04-22T13:27:43Z</time></trkpt><trkpt lat="45.72948805984306" lon="9.759376992655815"><ele>314.1666666666667</ele><time>2026-04-22T13:27:44Z</time></trkpt><trkpt lat="45.72955598430743" lon="9.75937315146405"><ele>314.33333333333337</ele><time>2026-04-22T13:27:45Z</time></trkpt><trkpt lat="45.72962342498038" lon="9.759375237129863"><ele>314.5</ele><time>2026-04-22T13:27:46Z</time></trkpt><trkpt lat="45.729691880213295" lon="9.759370121877042"><ele>314.6666666666667</ele><time>2026-04-22T13:27:47Z</time></trkpt><trkpt lat="45.729757450494425" lon="9.759355533582113"><ele>314.8333333333333</ele><time>2026-04-22T13:27:48Z</time></trkpt><trkpt lat="45.729826265619415" lon="9.759351214517313"><ele>315.0</ele><time>2026-04-22T13:27:49Z</time></trkpt><trkpt lat="45.729953313693024" lon="9.7593476449866"><ele>313.2</ele><time>2026-04-22T13:27:51Z</time></trkpt><trkpt lat="45.73007476600569" lon="9.759333166555384"><ele>311.4</ele><time>2026-04-22T13:27:53Z</time></trkpt><trkpt lat="45.73014052028715" lon="9.759318500476315"><ele>309.6</ele><time>2026-04-22T13:27:54Z</time></trkpt><trkpt lat="45.73026874529967" lon="9.759298603299303"><ele>307.8</ele><time>2026-04-22T13:27:56Z</time></trkpt><trkpt lat="45.7303345535405" lon="9.759286856134986"><ele>306.0</ele><time>2026-04-22T13:27:57Z</time></trkpt><trkpt lat="45.73040301988868" lon="9.759272378195297"><ele>306.0</ele><time>2026-04-22T13:27:58Z</time></trkpt><trkpt lat="45.73046898786985" lon="9.759266377461344"><ele>306.0</ele><time>2026-04-22T13:27:59Z</time></trkpt><trkpt lat="45.730535294132565" lon="9.759249188251664"><ele>306.0</ele><time>2026-04-22T13:28:00Z</time></trkpt><trkpt lat="45.730602246676604" lon="9.759229662500442"><ele>306.0</ele><time>2026-04-22T13:28:01Z</time></trkpt><trkpt lat="45.73066690109013" lon="9.75921402703152"><ele>306.0</ele><time>2026-04-22T13:28:02Z</time></trkpt><trkpt lat="45.73072870118665" lon="9.759188418841084"><ele>306.0</ele><time>2026-04-22T13:28:03Z</time></trkpt><trkpt lat="45.73079378677952" lon="9.759143930225715"><ele>306.0</ele><time>2026-04-22T13:28:04Z</time></trkpt><trkpt lat="45.73085544395073" lon="9.759103337435683"><ele>306.0</ele><time>2026-04-22T13:28:05Z</time></trkpt><trkpt lat="45.730921668411064" lon="9.759056551100779"><ele>306.0</ele><time>2026-04-22T13:28:06Z</time></trkpt><trkpt lat="45.730982753470485" lon="9.759009060080837"><ele>306.0</ele><time>2026-04-22T13:28:07Z</time></trkpt><trkpt lat="45.73104105921896" lon="9.758961988527469"><ele>306.0</ele><time>2026-04-22T13:28:08Z</time></trkpt><trkpt lat="45.731115566939884" lon="9.758933404068836"><ele>306.0</ele><time>2026-04-22T13:28:09Z</time></trkpt><trkpt lat="45.73119000075221" lon="9.758884136803806"><ele>306.0</ele><time>2026-04-22T13:28:10Z</time></trkpt><trkpt lat="45.731273025608665" lon="9.758860983990138"><ele>306.1666666666667</ele><time>2026-04-22T13:28:11Z</time></trkpt><trkpt lat="45.73135685884306" lon="9.758854382101266"><ele>306.3333333333333</ele><time>2026-04-22T13:28:12Z</time></trkpt><trkpt lat="45.73144060375828" lon="9.758845184738085"><ele>306.5</ele><time>2026-04-22T13:28:13Z</time></trkpt><trkpt lat="45.73152257152353" lon="9.75882709971693"><ele>306.66666666666663</ele><time>2026-04-22T13:28:14Z</time></trkpt><trkpt lat="45.73160493716595" lon="9.758808103267272"><ele>306.8333333333333</ele><time>2026-04-22T13:28:15Z</time></trkpt><trkpt lat="45.731687888359744" lon="9.758800879927659"><ele>307.0</ele><time>2026-04-22T13:28:16Z</time></trkpt><trkpt lat="45.73176249347338" lon="9.758800402277824"><ele>306.99999999999994</ele><time>2026-04-22T13:28:17Z</time></trkpt><trkpt lat="45.73183860738634" lon="9.758791503190048"><ele>307.0</ele><time>2026-04-22T13:28:18Z</time></trkpt><trkpt lat="45.731910636734135" lon="9.75876327046589"><ele>307.0</ele><time>2026-04-22T13:28:19Z</time></trkpt><trkpt lat="45.73197762327506" lon="9.758743710831064"><ele>307.0</ele><time>2026-04-22T13:28:20Z</time></trkpt><trkpt lat="45.73204629991043" lon="9.758713857823974"><ele>307.0</ele><time>2026-04-22T13:28:21Z</time></trkpt><trkpt lat="45.732113468346384" lon="9.7586795056675"><ele>306.99999999999994</ele><time>2026-04-22T13:28:22Z</time></trkpt><trkpt lat="45.73217590642527" lon="9.758648782117115"><ele>307.0</ele><time>2026-04-22T13:28:23Z</time></trkpt><trkpt lat="45.732245506649306" lon="9.75861734326117"><ele>306.85714285714283</ele><time>2026-04-22T13:28:24Z</time></trkpt><trkpt lat="45.732309160298634" lon="9.758583920922991"><ele>306.7142857142857</ele><time>2026-04-22T13:28:25Z</time></trkpt><trkpt lat="45.73237181283763" lon="9.758563276185974"><ele>306.57142857142856</ele><time>2026-04-22T13:28:26Z</time></trkpt><trkpt lat="45.732432281465954" lon="9.758531913161338"><ele>306.42857142857144</ele><time>2026-04-22T13:28:27Z</time></trkpt><trkpt lat="45.73254729651441" lon="9.758474257796259"><ele>306.2857142857143</ele><time>2026-04-22T13:28:29Z</time></trkpt><trkpt lat="45.73260914305236" lon="9.758445427677216"><ele>306.1428571428571</ele><time>2026-04-22T13:28:30Z</time></trkpt><trkpt lat="45.73266697810282" lon="9.758407306136082"><ele>306.0</ele><time>2026-04-22T13:28:31Z</time></trkpt><trkpt lat="45.73272541898067" lon="9.758365896468263"><ele>306.0</ele><time>2026-04-22T13:28:32Z</time></trkpt><trkpt lat="45.73278441120441" lon="9.758315470228807"><ele>306.0</ele><time>2026-04-22T13:28:33Z</time></trkpt><trkpt lat="45.73289665138666" lon="9.758229164686414"><ele>306.0</ele><time>2026-04-22T13:28:35Z</time></trkpt><trkpt lat="45.73301048072262" lon="9.75815089407727"><ele>306.0</ele><time>2026-04-22T13:28:37Z</time></trkpt><trkpt lat="45.73312209470435" lon="9.758065142716552"><ele>306.0</ele><time>2026-04-22T13:28:39Z</time></trkpt><trkpt lat="45.73323523052449" lon="9.75797662153319"><ele>306.0</ele><time>2026-04-22T13:28:41Z</time></trkpt><trkpt lat="45.73334741531568" lon="9.75790982076168"><ele>306.0</ele><time>2026-04-22T13:28:43Z</time></trkpt><trkpt lat="45.73341121556473" lon="9.75788050308525"><ele>306.0</ele><time>2026-04-22T13:28:44Z</time></trkpt><trkpt lat="45.73347617174065" lon="9.757852391025878"><ele>306.0</ele><time>2026-04-22T13:28:45Z</time></trkpt><trkpt lat="45.73359024802409" lon="9.75779227863482"><ele>306.0</ele><time>2026-04-22T13:28:47Z</time></trkpt><trkpt lat="45.733709388040516" lon="9.757736588440661"><ele>306.2</ele><time>2026-04-22T13:28:49Z</time></trkpt><trkpt lat="45.733768098372" lon="9.757704029206842"><ele>306.40000000000003</ele><time>2026-04-22T13:28:50Z</time></trkpt><trkpt lat="45.733886534935614" lon="9.757642261284108"><ele>306.6</ele><time>2026-04-22T13:28:52Z</time></trkpt><trkpt lat="45.733999813514984" lon="9.757559658990395"><ele>306.8</ele><time>2026-04-22T13:28:54Z</time></trkpt><trkpt lat="45.73410808082221" lon="9.75748057651142"><ele>307.0</ele><time>2026-04-22T13:28:56Z</time></trkpt><trkpt lat="45.734170263713665" lon="9.757441547981125"><ele>307.0</ele><time>2026-04-22T13:28:57Z</time></trkpt><trkpt lat="45.7342343986241" lon="9.757408948243642"><ele>307.0</ele><time>2026-04-22T13:28:58Z</time></trkpt><trkpt lat="45.73437102999117" lon="9.757352489076887"><ele>307.0</ele><time>2026-04-22T13:29:00Z</time></trkpt><trkpt lat="45.7344466421594" lon="9.757323362597162"><ele>307.0</ele><time>2026-04-22T13:29:01Z</time></trkpt><trkpt lat="45.734522334067265" lon="9.757336238071819"><ele>307.0</ele><time>2026-04-22T13:29:02Z</time></trkpt><trkpt lat="45.73460296960436" lon="9.757319980991403"><ele>307.0</ele><time>2026-04-22T13:29:03Z</time></trkpt><trkpt lat="45.734687997013864" lon="9.757320742300855"><ele>307.0</ele><time>2026-04-22T13:29:04Z</time></trkpt><trkpt lat="45.734776294557655" lon="9.757309278145938"><ele>307.0</ele><time>2026-04-22T13:29:05Z</time></trkpt><trkpt lat="45.73485769161364" lon="9.757305562207057"><ele>307.0</ele><time>2026-04-22T13:29:06Z</time></trkpt><trkpt lat="45.73494573412327" lon="9.757301153132374"><ele>307.0</ele><time>2026-04-22T13:29:07Z</time></trkpt><trkpt lat="45.73503658048665" lon="9.757295757595111"><ele>307.0</ele><time>2026-04-22T13:29:08Z</time></trkpt><trkpt lat="45.735128032000425" lon="9.757284117426678"><ele>307.0</ele><time>2026-04-22T13:29:09Z</time></trkpt><trkpt lat="45.735219960365974" lon="9.757279752606724"><ele>306.0</ele><time>2026-04-22T13:29:10Z</time></trkpt><trkpt lat="45.7353063686706" lon="9.75726849293238"><ele>305.0</ele><time>2026-04-22T13:29:11Z</time></trkpt><trkpt lat="45.735401114339844" lon="9.757256137780438"><ele>304.0</ele><time>2026-04-22T13:29:12Z</time></trkpt><trkpt lat="45.73548867895962" lon="9.75725672573971"><ele>303.0</ele><time>2026-04-22T13:29:13Z</time></trkpt><trkpt lat="45.735578858055945" lon="9.757249667106006"><ele>302.0</ele><time>2026-04-22T13:29:14Z</time></trkpt><trkpt lat="45.73566837729795" lon="9.757238801561446"><ele>302.0</ele><time>2026-04-22T13:29:15Z</time></trkpt><trkpt lat="45.73575974176921" lon="9.757228136648514"><ele>302.0</ele><time>2026-04-22T13:29:16Z</time></trkpt><trkpt lat="45.73584766960086" lon="9.75724450993791"><ele>302.0</ele><time>2026-04-22T13:29:17Z</time></trkpt><trkpt lat="45.73593723112399" lon="9.757264684434732"><ele>302.0</ele><time>2026-04-22T13:29:18Z</time></trkpt><trkpt lat="45.736028103971634" lon="9.757290086163104"><ele>302.0</ele><time>2026-04-22T13:29:19Z</time></trkpt><trkpt lat="45.7361100746227" lon="9.757323689458698"><ele>302.0</ele><time>2026-04-22T13:29:20Z</time></trkpt><trkpt lat="45.73618981279847" lon="9.757359327636905"><ele>301.83333333333337</ele><time>2026-04-22T13:29:21Z</time></trkpt><trkpt lat="45.736282308078756" lon="9.757380096566735"><ele>301.6666666666667</ele><time>2026-04-22T13:29:22Z</time></trkpt><trkpt lat="45.7363587483869" lon="9.757427341052892"><ele>301.5</ele><time>2026-04-22T13:29:23Z</time></trkpt><trkpt lat="45.736431086739536" lon="9.757482128978829"><ele>301.3333333333333</ele><time>2026-04-22T13:29:24Z</time></trkpt><trkpt lat="45.736488599046226" lon="9.757560951580908"><ele>301.16666666666663</ele><time>2026-04-22T13:29:25Z</time></trkpt><trkpt lat="45.73653641818558" lon="9.757644305262659"><ele>301.0</ele><time>2026-04-22T13:29:26Z</time></trkpt><trkpt lat="45.73658289957573" lon="9.757731066028137"><ele>301.0</ele><time>2026-04-22T13:29:27Z</time></trkpt><trkpt lat="45.73662006087906" lon="9.757818530253717"><ele>301.0</ele><time>2026-04-22T13:29:28Z</time></trkpt><trkpt lat="45.736658086439164" lon="9.757905136821277"><ele>301.0</ele><time>2026-04-22T13:29:29Z</time></trkpt><trkpt lat="45.73669335994918" lon="9.757989293643972"><ele>301.0</ele><time>2026-04-22T13:29:30Z</time></trkpt><trkpt lat="45.736730663007286" lon="9.758072894171324"><ele>301.0</ele><time>2026-04-22T13:29:31Z</time></trkpt><trkpt lat="45.73676889780863" lon="9.75815229410313"><ele>301.0</ele><time>2026-04-22T13:29:32Z</time></trkpt><trkpt lat="45.736803596387" lon="9.758231601874074"><ele>301.0</ele><time>2026-04-22T13:29:33Z</time></trkpt><trkpt lat="45.73683696066854" lon="9.758314128479835"><ele>301.0</ele><time>2026-04-22T13:29:34Z</time></trkpt><trkpt lat="45.73687370574846" lon="9.758393172109788"><ele>301.0</ele><time>2026-04-22T13:29:35Z</time></trkpt><trkpt lat="45.73690922567144" lon="9.758470982621038"><ele>301.0</ele><time>2026-04-22T13:29:36Z</time></trkpt><trkpt lat="45.73694443278176" lon="9.758551174308126"><ele>301.0</ele><time>2026-04-22T13:29:37Z</time></trkpt><trkpt lat="45.73698071086653" lon="9.75862798711695"><ele>301.0</ele><time>2026-04-22T13:29:38Z</time></trkpt><trkpt lat="45.73701495093297" lon="9.758707667574004"><ele>301.0</ele><time>2026-04-22T13:29:39Z</time></trkpt><trkpt lat="45.737046851573886" lon="9.75878687987481"><ele>301.0</ele><time>2026-04-22T13:29:40Z</time></trkpt><trkpt lat="45.73708325179656" lon="9.758864308449079"><ele>300.3333333333333</ele><time>2026-04-22T13:29:41Z</time></trkpt><trkpt lat="45.73715403594243" lon="9.759018407455695"><ele>299.66666666666663</ele><time>2026-04-22T13:29:43Z</time></trkpt><trkpt lat="45.73721205802753" lon="9.759180997037195"><ele>299.0</ele><time>2026-04-22T13:29:45Z</time></trkpt><trkpt lat="45.73723746567499" lon="9.759265372824345"><ele>298.3333333333333</ele><time>2026-04-22T13:29:46Z</time></trkpt><trkpt lat="45.73726297884633" lon="9.75934891449341"><ele>297.6666666666667</ele><time>2026-04-22T13:29:47Z</time></trkpt><trkpt lat="45.73729340780812" lon="9.75943017675067"><ele>297.0</ele><time>2026-04-22T13:29:48Z</time></trkpt><trkpt lat="45.7373186495832" lon="9.759514800209464"><ele>297.0</ele><time>2026-04-22T13:29:49Z</time></trkpt><trkpt lat="45.737340203690124" lon="9.759600896217062"><ele>297.0</ele><time>2026-04-22T13:29:50Z</time></trkpt><trkpt lat="45.73739101585809" lon="9.759770998087536"><ele>297.0</ele><time>2026-04-22T13:29:52Z</time></trkpt><trkpt lat="45.737438843450136" lon="9.75994166578282"><ele>297.0</ele><time>2026-04-22T13:29:54Z</time></trkpt><trkpt lat="45.737469449574505" lon="9.760027485798304"><ele>297.0</ele><time>2026-04-22T13:29:55Z</time></trkpt><trkpt lat="45.73749154544369" lon="9.760112385629547"><ele>297.5</ele><time>2026-04-22T13:29:56Z</time></trkpt><trkpt lat="45.737511721400615" lon="9.760202123322975"><ele>298.0</ele><time>2026-04-22T13:29:57Z</time></trkpt><trkpt lat="45.737532160966545" lon="9.76029204162786"><ele>298.5</ele><time>2026-04-22T13:29:58Z</time></trkpt><trkpt lat="45.737552139188544" lon="9.760378958116096"><ele>299.0</ele><time>2026-04-22T13:29:59Z</time></trkpt><trkpt lat="45.737564188260116" lon="9.760469804947164"><ele>299.5</ele><time>2026-04-22T13:30:00Z</time></trkpt><trkpt lat="45.73757192021564" lon="9.760564089312778"><ele>300.0</ele><time>2026-04-22T13:30:01Z</time></trkpt><trkpt lat="45.737625687007124" lon="9.760724213334784"><ele>300.0</ele><time>2026-04-22T13:30:03Z</time></trkpt><trkpt lat="45.737662789343695" lon="9.760894679598348"><ele>300.0</ele><time>2026-04-22T13:30:05Z</time></trkpt><trkpt lat="45.737683876505024" lon="9.76098394501897"><ele>300.0</ele><time>2026-04-22T13:30:06Z</time></trkpt><trkpt lat="45.73770242871874" lon="9.761073040009364"><ele>300.0</ele><time>2026-04-22T13:30:07Z</time></trkpt><trkpt lat="45.73771234232553" lon="9.76116395331392"><ele>300.0</ele><time>2026-04-22T13:30:08Z</time></trkpt><trkpt lat="45.737723897966376" lon="9.761253402483026"><ele>300.0</ele><time>2026-04-22T13:30:09Z</time></trkpt><trkpt lat="45.73773671554105" lon="9.761431128805052"><ele>298.4</ele><time>2026-04-22T13:30:11Z</time></trkpt><trkpt lat="45.73774481744266" lon="9.761523114950988"><ele>296.8</ele><time>2026-04-22T13:30:12Z</time></trkpt><trkpt lat="45.73778497413642" lon="9.761687186916646"><ele>295.2</ele><time>2026-04-22T13:30:14Z</time></trkpt><trkpt lat="45.73781102690232" lon="9.761771799025556"><ele>293.6</ele><time>2026-04-22T13:30:15Z</time></trkpt><trkpt lat="45.73783531457828" lon="9.761947309788424"><ele>292.0</ele><time>2026-04-22T13:30:17Z</time></trkpt><trkpt lat="45.73784301469821" lon="9.762121154955206"><ele>292.0</ele><time>2026-04-22T13:30:19Z</time></trkpt><trkpt lat="45.737858073780366" lon="9.76229947020448"><ele>292.0</ele><time>2026-04-22T13:30:21Z</time></trkpt><trkpt lat="45.737865620406446" lon="9.762389100590225"><ele>292.0</ele><time>2026-04-22T13:30:22Z</time></trkpt><trkpt lat="45.73787889353589" lon="9.762480701000062"><ele>292.0</ele><time>2026-04-22T13:30:23Z</time></trkpt><trkpt lat="45.73789792444721" lon="9.762568120998596"><ele>292.0</ele><time>2026-04-22T13:30:24Z</time></trkpt><trkpt lat="45.73791228553233" lon="9.762656546956178"><ele>292.0</ele><time>2026-04-22T13:30:25Z</time></trkpt><trkpt lat="45.73792219184001" lon="9.762747247774172"><ele>292.0</ele><time>2026-04-22T13:30:26Z</time></trkpt><trkpt lat="45.73795100282216" lon="9.76291837941143"><ele>292.3333333333333</ele><time>2026-04-22T13:30:28Z</time></trkpt><trkpt lat="45.737973686434174" lon="9.763004811798927"><ele>292.66666666666663</ele><time>2026-04-22T13:30:29Z</time></trkpt><trkpt lat="45.737994384812346" lon="9.763090153504985"><ele>293.0</ele><time>2026-04-22T13:30:30Z</time></trkpt><trkpt lat="45.738039726320814" lon="9.763256222623319"><ele>293.3333333333333</ele><time>2026-04-22T13:30:32Z</time></trkpt><trkpt lat="45.738082296173516" lon="9.763421955086063"><ele>293.6666666666667</ele><time>2026-04-22T13:30:34Z</time></trkpt><trkpt lat="45.738104521038906" lon="9.7635068137605"><ele>294.0</ele><time>2026-04-22T13:30:35Z</time></trkpt><trkpt lat="45.7381305898572" lon="9.76359032919892"><ele>295.0</ele><time>2026-04-22T13:30:36Z</time></trkpt><trkpt lat="45.73817286161779" lon="9.763734253486055"><ele>296.0</ele><time>2026-04-22T13:30:38Z</time></trkpt><trkpt lat="45.738225293820385" lon="9.76389868747894"><ele>297.0</ele><time>2026-04-22T13:30:40Z</time></trkpt><trkpt lat="45.7382819234132" lon="9.764058895560202"><ele>298.0</ele><time>2026-04-22T13:30:42Z</time></trkpt><trkpt lat="45.73830931921683" lon="9.764140401845646"><ele>299.0</ele><time>2026-04-22T13:30:43Z</time></trkpt><trkpt lat="45.73836882777474" lon="9.764298718706785"><ele>298.4</ele><time>2026-04-22T13:30:45Z</time></trkpt><trkpt lat="45.738398916000094" lon="9.76437977637618"><ele>297.79999999999995</ele><time>2026-04-22T13:30:46Z</time></trkpt><trkpt lat="45.738431409787225" lon="9.764546312339027"><ele>297.20000000000005</ele><time>2026-04-22T13:30:48Z</time></trkpt><trkpt lat="45.73847152551497" lon="9.764704556715524"><ele>296.6</ele><time>2026-04-22T13:30:50Z</time></trkpt><trkpt lat="45.738526847113164" lon="9.764857050453738"><ele>296.0</ele><time>2026-04-22T13:30:52Z</time></trkpt><trkpt lat="45.73857563871304" lon="9.765008182425797"><ele>296.0</ele><time>2026-04-22T13:30:54Z</time></trkpt><trkpt lat="45.73863502686023" lon="9.765095926664248"><ele>296.0</ele><time>2026-04-22T13:30:56Z</time></trkpt><trkpt lat="45.73876850283656" lon="9.765168220021627"><ele>296.0</ele><time>2026-04-22T13:30:58Z</time></trkpt><trkpt lat="45.73883893473444" lon="9.765152767834426"><ele>296.0</ele><time>2026-04-22T13:30:59Z</time></trkpt><trkpt lat="45.73890930154186" lon="9.765153622621137"><ele>296.0</ele><time>2026-04-22T13:31:00Z</time></trkpt><trkpt lat="45.73897628896778" lon="9.765163282020456"><ele>296.0</ele><time>2026-04-22T13:31:01Z</time></trkpt><trkpt lat="45.73904070779773" lon="9.765182640668824"><ele>296.33333333333337</ele><time>2026-04-22T13:31:02Z</time></trkpt><trkpt lat="45.73910248562545" lon="9.765216906001154"><ele>296.6666666666667</ele><time>2026-04-22T13:31:03Z</time></trkpt><trkpt lat="45.739161379377435" lon="9.765249997572978"><ele>297.0</ele><time>2026-04-22T13:31:04Z</time></trkpt><trkpt lat="45.739227260244064" lon="9.765266044598974"><ele>297.3333333333333</ele><time>2026-04-22T13:31:05Z</time></trkpt><trkpt lat="45.73929189245575" lon="9.76527851760925"><ele>297.66666666666663</ele><time>2026-04-22T13:31:06Z</time></trkpt><trkpt lat="45.73941550241235" lon="9.765292735889075"><ele>298.0</ele><time>2026-04-22T13:31:08Z</time></trkpt><trkpt lat="45.73953987162771" lon="9.765300395395126"><ele>298.0</ele><time>2026-04-22T13:31:10Z</time></trkpt><trkpt lat="45.73960240924485" lon="9.765313138357364"><ele>298.0</ele><time>2026-04-22T13:31:11Z</time></trkpt><trkpt lat="45.739665155469126" lon="9.765328730205013"><ele>298.0</ele><time>2026-04-22T13:31:12Z</time></trkpt><trkpt lat="45.739727276295035" lon="9.765348184944118"><ele>298.0</ele><time>2026-04-22T13:31:13Z</time></trkpt><trkpt lat="45.73983392408946" lon="9.765426906497"><ele>298.0</ele><time>2026-04-22T13:31:15Z</time></trkpt><trkpt lat="45.73995518144018" lon="9.765468305367461"><ele>298.0</ele><time>2026-04-22T13:31:17Z</time></trkpt><trkpt lat="45.74002426502986" lon="9.765476011298805"><ele>298.0</ele><time>2026-04-22T13:31:18Z</time></trkpt><trkpt lat="45.74015211803736" lon="9.765487481394423"><ele>298.0</ele><time>2026-04-22T13:31:20Z</time></trkpt><trkpt lat="45.740216365550836" lon="9.765501350582538"><ele>298.0</ele><time>2026-04-22T13:31:21Z</time></trkpt><trkpt lat="45.740280122503314" lon="9.76552177948951"><ele>298.0</ele><time>2026-04-22T13:31:22Z</time></trkpt><trkpt lat="45.740377080551454" lon="9.765597812876877"><ele>298.0</ele><time>2026-04-22T13:31:24Z</time></trkpt><trkpt lat="45.740438372705796" lon="9.765661268870838"><ele>298.0</ele><time>2026-04-22T13:31:25Z</time></trkpt><trkpt lat="45.740541720688654" lon="9.765764539685932"><ele>298.4</ele><time>2026-04-22T13:31:27Z</time></trkpt><trkpt lat="45.740643925619054" lon="9.765866177268892"><ele>298.8</ele><time>2026-04-22T13:31:29Z</time></trkpt><trkpt lat="45.740749120706994" lon="9.76596954566346"><ele>299.2</ele><time>2026-04-22T13:31:31Z</time></trkpt><trkpt lat="45.74080393552253" lon="9.766016110847623"><ele>299.6</ele><time>2026-04-22T13:31:32Z</time></trkpt><trkpt lat="45.74090700931038" lon="9.766118116704359"><ele>300.0</ele><time>2026-04-22T13:31:34Z</time></trkpt><trkpt lat="45.7410072304822" lon="9.766225277937167"><ele>300.0</ele><time>2026-04-22T13:31:36Z</time></trkpt><trkpt lat="45.74110392132824" lon="9.766340953948065"><ele>300.0</ele><time>2026-04-22T13:31:38Z</time></trkpt><trkpt lat="45.74120124754291" lon="9.766452128767984"><ele>300.0</ele><time>2026-04-22T13:31:40Z</time></trkpt><trkpt lat="45.74130362556271" lon="9.766553368023718"><ele>300.0</ele><time>2026-04-22T13:31:42Z</time></trkpt><trkpt lat="45.74135701655762" lon="9.766610232190072"><ele>300.0</ele><time>2026-04-22T13:31:43Z</time></trkpt><trkpt lat="45.74144896916427" lon="9.766729725942648"><ele>300.0</ele><time>2026-04-22T13:31:45Z</time></trkpt><trkpt lat="45.74154050946204" lon="9.76685143320493"><ele>300.0</ele><time>2026-04-22T13:31:47Z</time></trkpt><trkpt lat="45.741628778127996" lon="9.766970540716867"><ele>300.0</ele><time>2026-04-22T13:31:49Z</time></trkpt><trkpt lat="45.74170968372818" lon="9.767097248931508"><ele>300.0</ele><time>2026-04-22T13:31:51Z</time></trkpt><trkpt lat="45.74179487686092" lon="9.767219315042338"><ele>299.8</ele><time>2026-04-22T13:31:53Z</time></trkpt><trkpt lat="45.74187265699365" lon="9.76735901776034"><ele>299.6</ele><time>2026-04-22T13:31:55Z</time></trkpt><trkpt lat="45.741903945613316" lon="9.7674379853849"><ele>299.4</ele><time>2026-04-22T13:31:56Z</time></trkpt><trkpt lat="45.741930339982616" lon="9.76752144172567"><ele>299.2</ele><time>2026-04-22T13:31:57Z</time></trkpt><trkpt lat="45.74198254108417" lon="9.767686074525196"><ele>299.0</ele><time>2026-04-22T13:31:59Z</time></trkpt><trkpt lat="45.74203068128623" lon="9.767848881372723"><ele>299.4</ele><time>2026-04-22T13:32:01Z</time></trkpt><trkpt lat="45.74205957039217" lon="9.767936565539186"><ele>299.79999999999995</ele><time>2026-04-22T13:32:02Z</time></trkpt><trkpt lat="45.74210526124584" lon="9.768095048795844"><ele>300.20000000000005</ele><time>2026-04-22T13:32:04Z</time></trkpt><trkpt lat="45.74215518889311" lon="9.768255069417517"><ele>300.6</ele><time>2026-04-22T13:32:06Z</time></trkpt><trkpt lat="45.74220864181078" lon="9.768420436448988"><ele>301.0</ele><time>2026-04-22T13:32:08Z</time></trkpt><trkpt lat="45.74225082963215" lon="9.76858239914025"><ele>301.0</ele><time>2026-04-22T13:32:10Z</time></trkpt><trkpt lat="45.74226680925185" lon="9.768670120877852"><ele>301.0</ele><time>2026-04-22T13:32:11Z</time></trkpt><trkpt lat="45.742292277914586" lon="9.768832631669348"><ele>301.0</ele><time>2026-04-22T13:32:13Z</time></trkpt><trkpt lat="45.7423245057923" lon="9.768919802654235"><ele>301.0</ele><time>2026-04-22T13:32:14Z</time></trkpt><trkpt lat="45.74236081722617" lon="9.769089488992494"><ele>301.0</ele><time>2026-04-22T13:32:16Z</time></trkpt><trkpt lat="45.74235380371904" lon="9.769183803060466"><ele>301.0</ele><time>2026-04-22T13:32:17Z</time></trkpt><trkpt lat="45.742343141805804" lon="9.769273060262009"><ele>301.0</ele><time>2026-04-22T13:32:18Z</time></trkpt><trkpt lat="45.742332793983294" lon="9.769368566023285"><ele>301.0</ele><time>2026-04-22T13:32:19Z</time></trkpt><trkpt lat="45.742316029769825" lon="9.769546826991933"><ele>301.0</ele><time>2026-04-22T13:32:21Z</time></trkpt><trkpt lat="45.74231723402259" lon="9.769642353503084"><ele>301.0</ele><time>2026-04-22T13:32:22Z</time></trkpt><trkpt lat="45.742334384903025" lon="9.769746396948722"><ele>301.0</ele><time>2026-04-22T13:32:23Z</time></trkpt><trkpt lat="45.742306748497505" lon="9.769910990106672"><ele>301.0</ele><time>2026-04-22T13:32:25Z</time></trkpt><trkpt lat="45.74230687566747" lon="9.770086958929198"><ele>301.0</ele><time>2026-04-22T13:32:27Z</time></trkpt><trkpt lat="45.74233614818197" lon="9.77026133090233"><ele>301.0</ele><time>2026-04-22T13:32:29Z</time></trkpt><trkpt lat="45.742367469148306" lon="9.770346768553175"><ele>301.0</ele><time>2026-04-22T13:32:30Z</time></trkpt><trkpt lat="45.742428242279665" lon="9.770502635620169"><ele>301.0</ele><time>2026-04-22T13:32:32Z</time></trkpt><trkpt lat="45.742465471167236" lon="9.770579968722801"><ele>300.66666666666663</ele><time>2026-04-22T13:32:33Z</time></trkpt><trkpt lat="45.742502543809856" lon="9.770653400304816"><ele>300.3333333333333</ele><time>2026-04-22T13:32:34Z</time></trkpt><trkpt lat="45.742547536404" lon="9.770722044149606"><ele>300.0</ele><time>2026-04-22T13:32:35Z</time></trkpt><trkpt lat="45.742592592448105" lon="9.770789789783793"><ele>299.6666666666667</ele><time>2026-04-22T13:32:36Z</time></trkpt><trkpt lat="45.742696266353775" lon="9.770893017825271"><ele>299.33333333333337</ele><time>2026-04-22T13:32:38Z</time></trkpt><trkpt lat="45.742753247512695" lon="9.770935365387912"><ele>299.0</ele><time>2026-04-22T13:32:39Z</time></trkpt><trkpt lat="45.74286908968118" lon="9.771014933351355"><ele>299.4</ele><time>2026-04-22T13:32:41Z</time></trkpt><trkpt lat="45.74297912604013" lon="9.771085506905541"><ele>299.79999999999995</ele><time>2026-04-22T13:32:43Z</time></trkpt><trkpt lat="45.74303535699237" lon="9.771131412948185"><ele>300.20000000000005</ele><time>2026-04-22T13:32:44Z</time></trkpt><trkpt lat="45.743132911141316" lon="9.77124818935915"><ele>300.6</ele><time>2026-04-22T13:32:46Z</time></trkpt><trkpt lat="45.7432283139153" lon="9.771357986784702"><ele>301.0</ele><time>2026-04-22T13:32:48Z</time></trkpt><trkpt lat="45.743316164188215" lon="9.771490657429805"><ele>301.0</ele><time>2026-04-22T13:32:50Z</time></trkpt><trkpt lat="45.74339843328315" lon="9.771623956271846"><ele>301.0</ele><time>2026-04-22T13:32:52Z</time></trkpt><trkpt lat="45.74344026904995" lon="9.77169806643843"><ele>301.0</ele><time>2026-04-22T13:32:53Z</time></trkpt><trkpt lat="45.743518292847945" lon="9.771830402234135"><ele>301.0</ele><time>2026-04-22T13:32:55Z</time></trkpt><trkpt lat="45.743562863117965" lon="9.77190562335441"><ele>301.0</ele><time>2026-04-22T13:32:56Z</time></trkpt><trkpt lat="45.74364283395017" lon="9.772039282785862"><ele>301.6</ele><time>2026-04-22T13:32:58Z</time></trkpt><trkpt lat="45.74373903578157" lon="9.772155730784025"><ele>302.20000000000005</ele><time>2026-04-22T13:33:00Z</time></trkpt><trkpt lat="45.74384954596041" lon="9.772246029842751"><ele>302.79999999999995</ele><time>2026-04-22T13:33:02Z</time></trkpt><trkpt lat="45.74394849699993" lon="9.772345185321845"><ele>303.4</ele><time>2026-04-22T13:33:04Z</time></trkpt><trkpt lat="45.74399299137902" lon="9.772410508791854"><ele>304.0</ele><time>2026-04-22T13:33:05Z</time></trkpt><trkpt lat="45.74407176677829" lon="9.772536008491315"><ele>304.0</ele><time>2026-04-22T13:33:07Z</time></trkpt><trkpt lat="45.74411520794431" lon="9.77260293435834"><ele>304.0</ele><time>2026-04-22T13:33:08Z</time></trkpt><trkpt lat="45.74416176258642" lon="9.772667029296503"><ele>304.0</ele><time>2026-04-22T13:33:09Z</time></trkpt><trkpt lat="45.74425400201923" lon="9.772781879450175"><ele>304.0</ele><time>2026-04-22T13:33:11Z</time></trkpt><trkpt lat="45.74431050104882" lon="9.772825541825881"><ele>304.0</ele><time>2026-04-22T13:33:12Z</time></trkpt><trkpt lat="45.744362370369906" lon="9.772878401341787"><ele>304.0</ele><time>2026-04-22T13:33:13Z</time></trkpt><trkpt lat="45.744418332862885" lon="9.77292488201203"><ele>304.0</ele><time>2026-04-22T13:33:14Z</time></trkpt><trkpt lat="45.74453223450161" lon="9.773005286287885"><ele>304.0</ele><time>2026-04-22T13:33:16Z</time></trkpt><trkpt lat="45.74458805587383" lon="9.773051801202575"><ele>304.0</ele><time>2026-04-22T13:33:17Z</time></trkpt><trkpt lat="45.74464227616928" lon="9.773099163452319"><ele>304.0</ele><time>2026-04-22T13:33:18Z</time></trkpt><trkpt lat="45.74474861068974" lon="9.773187588445328"><ele>304.0</ele><time>2026-04-22T13:33:20Z</time></trkpt><trkpt lat="45.744799997866615" lon="9.773242164336278"><ele>304.0</ele><time>2026-04-22T13:33:21Z</time></trkpt><trkpt lat="45.744901614118334" lon="9.773340195156528"><ele>304.0</ele><time>2026-04-22T13:33:23Z</time></trkpt><trkpt lat="45.74500444144512" lon="9.773432045686167"><ele>304.0</ele><time>2026-04-22T13:33:25Z</time></trkpt><trkpt lat="45.74506443658074" lon="9.773461444636974"><ele>304.0</ele><time>2026-04-22T13:33:26Z</time></trkpt><trkpt lat="45.74518573984348" lon="9.773489364242426"><ele>304.0</ele><time>2026-04-22T13:33:28Z</time></trkpt><trkpt lat="45.74530544228946" lon="9.77353329673811"><ele>304.0</ele><time>2026-04-22T13:33:30Z</time></trkpt><trkpt lat="45.74542068227003" lon="9.773602397815313"><ele>304.0</ele><time>2026-04-22T13:33:32Z</time></trkpt><trkpt lat="45.745534733129055" lon="9.773663654592546"><ele>304.2</ele><time>2026-04-22T13:33:34Z</time></trkpt><trkpt lat="45.745648111022426" lon="9.773740176057252"><ele>304.4</ele><time>2026-04-22T13:33:36Z</time></trkpt><trkpt lat="45.745753761117065" lon="9.773831398679274"><ele>304.6</ele><time>2026-04-22T13:33:38Z</time></trkpt><trkpt lat="45.74581222737279" lon="9.77387311540808"><ele>304.8</ele><time>2026-04-22T13:33:39Z</time></trkpt><trkpt lat="45.7458645809417" lon="9.773925126629116"><ele>305.0</ele><time>2026-04-22T13:33:40Z</time></trkpt><trkpt lat="45.74596358042563" lon="9.774025115951522"><ele>305.0</ele><time>2026-04-22T13:33:42Z</time></trkpt><trkpt lat="45.74606280114583" lon="9.774137156887273"><ele>305.0</ele><time>2026-04-22T13:33:44Z</time></trkpt><trkpt lat="45.74614788484703" lon="9.77425938414624"><ele>305.0</ele><time>2026-04-22T13:33:46Z</time></trkpt><trkpt lat="45.746231597034836" lon="9.77438983574962"><ele>305.0</ele><time>2026-04-22T13:33:48Z</time></trkpt><trkpt lat="45.74630697025256" lon="9.774528865103758"><ele>305.0</ele><time>2026-04-22T13:33:50Z</time></trkpt><trkpt lat="45.74638113828393" lon="9.774663947261825"><ele>305.0</ele><time>2026-04-22T13:33:52Z</time></trkpt><trkpt lat="45.746442164866586" lon="9.774782999947899"><ele>305.0</ele><time>2026-04-22T13:33:54Z</time></trkpt><trkpt lat="45.746527072368615" lon="9.774884276603295"><ele>305.0</ele><time>2026-04-22T13:33:56Z</time></trkpt><trkpt lat="45.746590373326136" lon="9.7749114212601"><ele>305.0</ele><time>2026-04-22T13:33:57Z</time></trkpt><trkpt lat="45.74664254569205" lon="9.774968343945078"><ele>305.0</ele><time>2026-04-22T13:33:58Z</time></trkpt><trkpt lat="45.74669026981516" lon="9.775030546441997"><ele>305.0</ele><time>2026-04-22T13:33:59Z</time></trkpt><trkpt lat="45.74673712697045" lon="9.775092470823804"><ele>305.0</ele><time>2026-04-22T13:34:00Z</time></trkpt><trkpt lat="45.74682763333375" lon="9.775215985961964"><ele>305.0</ele><time>2026-04-22T13:34:02Z</time></trkpt><trkpt lat="45.74690104850193" lon="9.775356849530763"><ele>305.0</ele><time>2026-04-22T13:34:04Z</time></trkpt><trkpt lat="45.746938663205476" lon="9.775431823572154"><ele>305.0</ele><time>2026-04-22T13:34:05Z</time></trkpt><trkpt lat="45.74697409819244" lon="9.775511343389704"><ele>305.2</ele><time>2026-04-22T13:34:06Z</time></trkpt><trkpt lat="45.74705024123816" lon="9.775660684712182"><ele>305.4</ele><time>2026-04-22T13:34:08Z</time></trkpt><trkpt lat="45.747112388234754" lon="9.775799355955483"><ele>305.6</ele><time>2026-04-22T13:34:10Z</time></trkpt><trkpt lat="45.74713487390359" lon="9.775888467314093"><ele>305.8</ele><time>2026-04-22T13:34:11Z</time></trkpt><trkpt lat="45.74716759348446" lon="9.77605390638444"><ele>306.0</ele><time>2026-04-22T13:34:13Z</time></trkpt><trkpt lat="45.74719205817587" lon="9.776141524996026"><ele>306.0</ele><time>2026-04-22T13:34:14Z</time></trkpt><trkpt lat="45.74721798813087" lon="9.776224280586403"><ele>306.0</ele><time>2026-04-22T13:34:15Z</time></trkpt><trkpt lat="45.74724369013906" lon="9.77630736171442"><ele>306.0</ele><time>2026-04-22T13:34:16Z</time></trkpt><trkpt lat="45.747284244511" lon="9.776472287314816"><ele>306.0</ele><time>2026-04-22T13:34:18Z</time></trkpt><trkpt lat="45.747304266608275" lon="9.776563093595696"><ele>306.0</ele><time>2026-04-22T13:34:19Z</time></trkpt><trkpt lat="45.74732707534349" lon="9.776737716573615"><ele>306.0</ele><time>2026-04-22T13:34:21Z</time></trkpt><trkpt lat="45.74734216135373" lon="9.776909922912877"><ele>305.8</ele><time>2026-04-22T13:34:23Z</time></trkpt><trkpt lat="45.74733452763386" lon="9.777006815988742"><ele>305.6</ele><time>2026-04-22T13:34:24Z</time></trkpt><trkpt lat="45.74730273179543" lon="9.777185132077918"><ele>305.4</ele><time>2026-04-22T13:34:26Z</time></trkpt><trkpt lat="45.747264780622054" lon="9.777355164114867"><ele>305.2</ele><time>2026-04-22T13:34:28Z</time></trkpt><trkpt lat="45.74724324710841" lon="9.777442626021909"><ele>305.0</ele><time>2026-04-22T13:34:29Z</time></trkpt><trkpt lat="45.74718819253948" lon="9.777604054922923"><ele>305.0</ele><time>2026-04-22T13:34:31Z</time></trkpt><trkpt lat="45.74715649315417" lon="9.777687569117914"><ele>305.0</ele><time>2026-04-22T13:34:32Z</time></trkpt><trkpt lat="45.74712656818098" lon="9.777777657787771"><ele>305.0</ele><time>2026-04-22T13:34:33Z</time></trkpt><trkpt lat="45.747079356005486" lon="9.777934000899329"><ele>305.0</ele><time>2026-04-22T13:34:35Z</time></trkpt><trkpt lat="45.747049256469666" lon="9.77801925660345"><ele>305.0</ele><time>2026-04-22T13:34:36Z</time></trkpt><trkpt lat="45.747014741690215" lon="9.778192066619393"><ele>305.0</ele><time>2026-04-22T13:34:38Z</time></trkpt><trkpt lat="45.747004971237025" lon="9.778289199246123"><ele>305.0</ele><time>2026-04-22T13:34:39Z</time></trkpt><trkpt lat="45.746995551895964" lon="9.778384159985894"><ele>305.0</ele><time>2026-04-22T13:34:40Z</time></trkpt><trkpt lat="45.746981030368474" lon="9.77847900088726"><ele>305.0</ele><time>2026-04-22T13:34:41Z</time></trkpt><trkpt lat="45.74696810595969" lon="9.77857506704466"><ele>305.0</ele><time>2026-04-22T13:34:42Z</time></trkpt><trkpt lat="45.74696245906198" lon="9.778671218118157"><ele>305.0</ele><time>2026-04-22T13:34:43Z</time></trkpt><trkpt lat="45.746955228599944" lon="9.778766896043006"><ele>305.0</ele><time>2026-04-22T13:34:44Z</time></trkpt><trkpt lat="45.74696279458194" lon="9.778944255073993"><ele>305.6</ele><time>2026-04-22T13:34:46Z</time></trkpt><trkpt lat="45.74697179889843" lon="9.779115066777518"><ele>306.2</ele><time>2026-04-22T13:34:48Z</time></trkpt><trkpt lat="45.746991097617574" lon="9.779284376130216"><ele>306.8</ele><time>2026-04-22T13:34:50Z</time></trkpt><trkpt lat="45.74700439585266" lon="9.779374287150883"><ele>307.4</ele><time>2026-04-22T13:34:51Z</time></trkpt><trkpt lat="45.74701770501843" lon="9.779552850583425"><ele>308.0</ele><time>2026-04-22T13:34:53Z</time></trkpt><trkpt lat="45.74701690486166" lon="9.779728544034313"><ele>308.1666666666667</ele><time>2026-04-22T13:34:55Z</time></trkpt><trkpt lat="45.747024579415566" lon="9.779907036809108"><ele>308.33333333333337</ele><time>2026-04-22T13:34:57Z</time></trkpt><trkpt lat="45.7470268867457" lon="9.7799989746142"><ele>308.5</ele><time>2026-04-22T13:34:58Z</time></trkpt><trkpt lat="45.74703982672592" lon="9.780089077210166"><ele>308.6666666666667</ele><time>2026-04-22T13:34:59Z</time></trkpt><trkpt lat="45.747062214676944" lon="9.78026352715167"><ele>308.8333333333333</ele><time>2026-04-22T13:35:01Z</time></trkpt><trkpt lat="45.74707961029185" lon="9.780357049454713"><ele>309.0</ele><time>2026-04-22T13:35:02Z</time></trkpt><trkpt lat="45.747092905650916" lon="9.780445681415543"><ele>309.2</ele><time>2026-04-22T13:35:03Z</time></trkpt><trkpt lat="45.74708010767867" lon="9.780609864138537"><ele>309.4</ele><time>2026-04-22T13:35:05Z</time></trkpt><trkpt lat="45.74702423837918" lon="9.780722503009308"><ele>309.6</ele><time>2026-04-22T13:35:07Z</time></trkpt><trkpt lat="45.747105388216816" lon="9.780826084971737"><ele>309.8</ele><time>2026-04-22T13:35:10Z</time></trkpt><trkpt lat="45.74716260773369" lon="9.780867925394038"><ele>310.0</ele><time>2026-04-22T13:35:11Z</time></trkpt><trkpt lat="45.7472416894156" lon="9.78099573176673"><ele>309.8333333333333</ele><time>2026-04-22T13:35:13Z</time></trkpt><trkpt lat="45.74728107469163" lon="9.781071208302283"><ele>309.66666666666663</ele><time>2026-04-22T13:35:14Z</time></trkpt><trkpt lat="45.74732416202346" lon="9.781223253953886"><ele>309.5</ele><time>2026-04-22T13:35:16Z</time></trkpt><trkpt lat="45.74735025338669" lon="9.781339030075406"><ele>309.3333333333333</ele><time>2026-04-22T13:35:18Z</time></trkpt><trkpt lat="45.74730005110206" lon="9.781470768641315"><ele>309.1666666666667</ele><time>2026-04-22T13:35:20Z</time></trkpt><trkpt lat="45.74726551800362" lon="9.781555296013686"><ele>309.0</ele><time>2026-04-22T13:35:21Z</time></trkpt><trkpt lat="45.747230311707916" lon="9.78163756476564"><ele>309.00000000000006</ele><time>2026-04-22T13:35:22Z</time></trkpt><trkpt lat="45.7471895056772" lon="9.781707008516575"><ele>309.0</ele><time>2026-04-22T13:35:23Z</time></trkpt><trkpt lat="45.7471521709693" lon="9.781780515138623"><ele>309.0</ele><time>2026-04-22T13:35:24Z</time></trkpt><trkpt lat="45.747098793213326" lon="9.781937119826944"><ele>309.0</ele><time>2026-04-22T13:35:26Z</time></trkpt><trkpt lat="45.747057330355126" lon="9.782012642196621"><ele>309.0</ele><time>2026-04-22T13:35:27Z</time></trkpt><trkpt lat="45.74705271769236" lon="9.782111916310484"><ele>309.00000000000006</ele><time>2026-04-22T13:35:28Z</time></trkpt><trkpt lat="45.74703028935387" lon="9.782197388813085"><ele>309.0</ele><time>2026-04-22T13:35:29Z</time></trkpt><trkpt lat="45.7470639465646" lon="9.782373855737497"><ele>309.75</ele><time>2026-04-22T13:35:31Z</time></trkpt><trkpt lat="45.74713577422569" lon="9.782513623322771"><ele>310.5</ele><time>2026-04-22T13:35:33Z</time></trkpt><trkpt lat="45.74718072231009" lon="9.782660243646315"><ele>311.25</ele><time>2026-04-22T13:35:35Z</time></trkpt><trkpt lat="45.747173173344926" lon="9.782818846988397"><ele>312.0</ele><time>2026-04-22T13:35:37Z</time></trkpt><trkpt lat="45.74714995279502" lon="9.782970718740671"><ele>312.8</ele><time>2026-04-22T13:35:39Z</time></trkpt><trkpt lat="45.74709839111501" lon="9.783103608803998"><ele>313.6</ele><time>2026-04-22T13:35:41Z</time></trkpt><trkpt lat="45.74703247822446" lon="9.783247381352389"><ele>314.40000000000003</ele><time>2026-04-22T13:35:43Z</time></trkpt><trkpt lat="45.74697639474902" lon="9.783388358685757"><ele>315.2</ele><time>2026-04-22T13:35:45Z</time></trkpt><trkpt lat="45.746937247709035" lon="9.783520582578777"><ele>316.0</ele><time>2026-04-22T13:35:47Z</time></trkpt><trkpt lat="45.7469023138857" lon="9.78362913031941"><ele>316.14285714285717</ele><time>2026-04-22T13:35:49Z</time></trkpt><trkpt lat="45.74691246706038" lon="9.783726187221188"><ele>316.2857142857143</ele><time>2026-04-22T13:35:51Z</time></trkpt><trkpt lat="45.74696764443948" lon="9.783842841241869"><ele>316.42857142857144</ele><time>2026-04-22T13:35:53Z</time></trkpt><trkpt lat="45.746990844624335" lon="9.783927155009271"><ele>316.57142857142856</ele><time>2026-04-22T13:35:54Z</time></trkpt><trkpt lat="45.74701229098826" lon="9.784018385136095"><ele>316.7142857142857</ele><time>2026-04-22T13:35:55Z</time></trkpt><trkpt lat="45.74703132215478" lon="9.784110620086047"><ele>316.8571428571429</ele><time>2026-04-22T13:35:56Z</time></trkpt><trkpt lat="45.74705217893881" lon="9.784199329300478"><ele>317.0</ele><time>2026-04-22T13:35:57Z</time></trkpt><trkpt lat="45.74708014463147" lon="9.78428592981141"><ele>317.5</ele><time>2026-04-22T13:35:58Z</time></trkpt><trkpt lat="45.74710649423761" lon="9.784371715024509"><ele>318.0</ele><time>2026-04-22T13:35:59Z</time></trkpt><trkpt lat="45.74713343801929" lon="9.784458052470773"><ele>318.5</ele><time>2026-04-22T13:36:00Z</time></trkpt><trkpt lat="45.74716615668497" lon="9.784535823341036"><ele>319.0</ele><time>2026-04-22T13:36:01Z</time></trkpt><trkpt lat="45.74719664371952" lon="9.784618566285072"><ele>319.5</ele><time>2026-04-22T13:36:02Z</time></trkpt><trkpt lat="45.74726060052571" lon="9.784777342850527"><ele>320.0</ele><time>2026-04-22T13:36:04Z</time></trkpt><trkpt lat="45.74728824913637" lon="9.784861418286992"><ele>320.0</ele><time>2026-04-22T13:36:05Z</time></trkpt><trkpt lat="45.747317996081044" lon="9.784942531809142"><ele>320.0</ele><time>2026-04-22T13:36:06Z</time></trkpt><trkpt lat="45.74734946012449" lon="9.785027050225489"><ele>320.0</ele><time>2026-04-22T13:36:07Z</time></trkpt><trkpt lat="45.74738178406786" lon="9.785108920518057"><ele>320.0</ele><time>2026-04-22T13:36:08Z</time></trkpt><trkpt lat="45.74740918931066" lon="9.785192113644406"><ele>320.0</ele><time>2026-04-22T13:36:09Z</time></trkpt><trkpt lat="45.74744016236844" lon="9.785274706889354"><ele>320.0</ele><time>2026-04-22T13:36:10Z</time></trkpt><trkpt lat="45.747496482202074" lon="9.785437698793954"><ele>320.4</ele><time>2026-04-22T13:36:12Z</time></trkpt><trkpt lat="45.747552138813525" lon="9.785596582233271"><ele>320.8</ele><time>2026-04-22T13:36:14Z</time></trkpt><trkpt lat="45.74757931034522" lon="9.7856801456016"><ele>321.20000000000005</ele><time>2026-04-22T13:36:15Z</time></trkpt><trkpt lat="45.747639941088146" lon="9.785836428513514"><ele>321.6</ele><time>2026-04-22T13:36:17Z</time></trkpt><trkpt lat="45.74769820043913" lon="9.785997910672664"><ele>322.0</ele><time>2026-04-22T13:36:19Z</time></trkpt><trkpt lat="45.74772679072711" lon="9.786080019723865"><ele>322.0</ele><time>2026-04-22T13:36:20Z</time></trkpt><trkpt lat="45.74775434745281" lon="9.78616165217378"><ele>322.0</ele><time>2026-04-22T13:36:21Z</time></trkpt><trkpt lat="45.7478122149087" lon="9.786320655773478"><ele>322.0</ele><time>2026-04-22T13:36:23Z</time></trkpt><trkpt lat="45.74784337131901" lon="9.786400897274367"><ele>322.0</ele><time>2026-04-22T13:36:24Z</time></trkpt><trkpt lat="45.74790897393609" lon="9.786558513565781"><ele>322.0</ele><time>2026-04-22T13:36:26Z</time></trkpt><trkpt lat="45.74794058093766" lon="9.786640016419554"><ele>322.0</ele><time>2026-04-22T13:36:27Z</time></trkpt><trkpt lat="45.74797239180971" lon="9.786721340143064"><ele>322.0</ele><time>2026-04-22T13:36:28Z</time></trkpt><trkpt lat="45.74800054135388" lon="9.786802515090434"><ele>322.0</ele><time>2026-04-22T13:36:29Z</time></trkpt><trkpt lat="45.7480615770353" lon="9.786957448754134"><ele>322.0</ele><time>2026-04-22T13:36:31Z</time></trkpt><trkpt lat="45.748132814124894" lon="9.787106481255929"><ele>322.0</ele><time>2026-04-22T13:36:33Z</time></trkpt><trkpt lat="45.748226337966166" lon="9.78722430558791"><ele>322.0</ele><time>2026-04-22T13:36:35Z</time></trkpt><trkpt lat="45.74828739446063" lon="9.787255025268202"><ele>322.85714285714283</ele><time>2026-04-22T13:36:36Z</time></trkpt><trkpt lat="45.74835218723477" lon="9.787262163141945"><ele>323.7142857142857</ele><time>2026-04-22T13:36:37Z</time></trkpt><trkpt lat="45.74841891428627" lon="9.787253351276911"><ele>324.57142857142856</ele><time>2026-04-22T13:36:38Z</time></trkpt><trkpt lat="45.74848186345952" lon="9.787244834952835"><ele>325.42857142857144</ele><time>2026-04-22T13:36:39Z</time></trkpt><trkpt lat="45.748547446881965" lon="9.7872435906007"><ele>326.2857142857143</ele><time>2026-04-22T13:36:40Z</time></trkpt><trkpt lat="45.74861330181002" lon="9.787245484523257"><ele>327.1428571428571</ele><time>2026-04-22T13:36:41Z</time></trkpt><trkpt lat="45.74868004661665" lon="9.787258884301815"><ele>328.0</ele><time>2026-04-22T13:36:42Z</time></trkpt><trkpt lat="45.7487449326701" lon="9.787254877802805"><ele>328.0</ele><time>2026-04-22T13:36:43Z</time></trkpt><trkpt lat="45.74887519371071" lon="9.787242170236054"><ele>328.0</ele><time>2026-04-22T13:36:45Z</time></trkpt><trkpt lat="45.748941683225304" lon="9.78724404171855"><ele>328.0</ele><time>2026-04-22T13:36:46Z</time></trkpt><trkpt lat="45.74900599182483" lon="9.787263202122631"><ele>328.0</ele><time>2026-04-22T13:36:47Z</time></trkpt><trkpt lat="45.749071673496395" lon="9.787267615608064"><ele>328.0</ele><time>2026-04-22T13:36:48Z</time></trkpt><trkpt lat="45.74919605511784" lon="9.787291834848846"><ele>328.0</ele><time>2026-04-22T13:36:50Z</time></trkpt><trkpt lat="45.749260620284616" lon="9.787309880855078"><ele>328.0</ele><time>2026-04-22T13:36:51Z</time></trkpt><trkpt lat="45.749369161413945" lon="9.787399670761179"><ele>328.0</ele><time>2026-04-22T13:36:53Z</time></trkpt><trkpt lat="45.74942316074344" lon="9.78745248598946"><ele>328.0</ele><time>2026-04-22T13:36:54Z</time></trkpt><trkpt lat="45.74947498538524" lon="9.787507271856585"><ele>328.0</ele><time>2026-04-22T13:36:55Z</time></trkpt><trkpt lat="45.749528574152684" lon="9.787560693944894"><ele>328.0</ele><time>2026-04-22T13:36:56Z</time></trkpt><trkpt lat="45.74958150053832" lon="9.787618817120974"><ele>328.4285714285714</ele><time>2026-04-22T13:36:57Z</time></trkpt><trkpt lat="45.74963237688689" lon="9.787680694901598"><ele>328.85714285714283</ele><time>2026-04-22T13:36:58Z</time></trkpt><trkpt lat="45.749682677039154" lon="9.78774084413921"><ele>329.2857142857143</ele><time>2026-04-22T13:36:59Z</time></trkpt><trkpt lat="45.74973349132594" lon="9.787794604280228"><ele>329.71428571428567</ele><time>2026-04-22T13:37:00Z</time></trkpt><trkpt lat="45.74978499437576" lon="9.787848177292183"><ele>330.1428571428571</ele><time>2026-04-22T13:37:01Z</time></trkpt><trkpt lat="45.74988188179127" lon="9.787958997577464"><ele>330.57142857142856</ele><time>2026-04-22T13:37:03Z</time></trkpt><trkpt lat="45.74993505784785" lon="9.788012031088206"><ele>331.0</ele><time>2026-04-22T13:37:04Z</time></trkpt><trkpt lat="45.74998854370343" lon="9.788068580418912"><ele>331.0</ele><time>2026-04-22T13:37:05Z</time></trkpt><trkpt lat="45.75008459313828" lon="9.788182962201358"><ele>331.0</ele><time>2026-04-22T13:37:07Z</time></trkpt><trkpt lat="45.75013415053167" lon="9.788239874402596"><ele>331.0</ele><time>2026-04-22T13:37:08Z</time></trkpt><trkpt lat="45.75018035193797" lon="9.788302383711297"><ele>331.0</ele><time>2026-04-22T13:37:09Z</time></trkpt><trkpt lat="45.750222465104805" lon="9.78837098409495"><ele>331.0</ele><time>2026-04-22T13:37:10Z</time></trkpt><trkpt lat="45.75028384552283" lon="9.788526190709891"><ele>331.0</ele><time>2026-04-22T13:37:12Z</time></trkpt><trkpt lat="45.75032169975334" lon="9.788599356971071"><ele>331.0</ele><time>2026-04-22T13:37:13Z</time></trkpt><trkpt lat="45.75039327565463" lon="9.78874819866666"><ele>331.0</ele><time>2026-04-22T13:37:15Z</time></trkpt><trkpt lat="45.75043198006343" lon="9.788822631804683"><ele>331.0</ele><time>2026-04-22T13:37:16Z</time></trkpt><trkpt lat="45.75047197730788" lon="9.788894511549163"><ele>331.0</ele><time>2026-04-22T13:37:17Z</time></trkpt><trkpt lat="45.750520351710655" lon="9.788958646197855"><ele>331.0</ele><time>2026-04-22T13:37:18Z</time></trkpt><trkpt lat="45.75057179885618" lon="9.789016355436457"><ele>331.0</ele><time>2026-04-22T13:37:19Z</time></trkpt><trkpt lat="45.75062461164837" lon="9.789077054470216"><ele>331.0</ele><time>2026-04-22T13:37:20Z</time></trkpt><trkpt lat="45.75068118509342" lon="9.789124219502545"><ele>331.0</ele><time>2026-04-22T13:37:21Z</time></trkpt><trkpt lat="45.7507921629378" lon="9.789219749904705"><ele>331.0</ele><time>2026-04-22T13:37:23Z</time></trkpt><trkpt lat="45.75084371868696" lon="9.789277217829692"><ele>331.0</ele><time>2026-04-22T13:37:24Z</time></trkpt><trkpt lat="45.75089595004821" lon="9.789328112326228"><ele>331.0</ele><time>2026-04-22T13:37:25Z</time></trkpt><trkpt lat="45.75095087840492" lon="9.78937613049292"><ele>331.0</ele><time>2026-04-22T13:37:26Z</time></trkpt><trkpt lat="45.75100623211" lon="9.789425436851626"><ele>331.5</ele><time>2026-04-22T13:37:27Z</time></trkpt><trkpt lat="45.75107137904482" lon="9.789450873644872"><ele>332.0</ele><time>2026-04-22T13:37:28Z</time></trkpt><trkpt lat="45.751134507499614" lon="9.789483678568836"><ele>332.5</ele><time>2026-04-22T13:37:29Z</time></trkpt><trkpt lat="45.751197093137186" lon="9.789511206297508"><ele>333.0</ele><time>2026-04-22T13:37:30Z</time></trkpt><trkpt lat="45.75131920255114" lon="9.789571824628439"><ele>333.5</ele><time>2026-04-22T13:37:32Z</time></trkpt><trkpt lat="45.75138234297485" lon="9.789603437906997"><ele>334.0</ele><time>2026-04-22T13:37:33Z</time></trkpt><trkpt lat="45.751445552988166" lon="9.78963252123254"><ele>334.0</ele><time>2026-04-22T13:37:34Z</time></trkpt><trkpt lat="45.7515079882002" lon="9.789667995530644"><ele>334.0</ele><time>2026-04-22T13:37:35Z</time></trkpt><trkpt lat="45.75156866102708" lon="9.789704686406361"><ele>334.0</ele><time>2026-04-22T13:37:36Z</time></trkpt><trkpt lat="45.75163010865926" lon="9.78973967747282"><ele>334.0</ele><time>2026-04-22T13:37:37Z</time></trkpt><trkpt lat="45.75169092380632" lon="9.789780285351497"><ele>334.0</ele><time>2026-04-22T13:37:38Z</time></trkpt><trkpt lat="45.75174702265798" lon="9.789830789447612"><ele>334.0</ele><time>2026-04-22T13:37:39Z</time></trkpt><trkpt lat="45.75180892277463" lon="9.789859763358457"><ele>334.0</ele><time>2026-04-22T13:37:40Z</time></trkpt><trkpt lat="45.75186860556147" lon="9.78990604861551"><ele>332.8333333333333</ele><time>2026-04-22T13:37:41Z</time></trkpt><trkpt lat="45.75198843563907" lon="9.78997745339728"><ele>331.66666666666663</ele><time>2026-04-22T13:37:43Z</time></trkpt><trkpt lat="45.75204628358139" lon="9.790015276381668"><ele>330.5</ele><time>2026-04-22T13:37:44Z</time></trkpt><trkpt lat="45.752102710841534" lon="9.79005697151532"><ele>329.3333333333333</ele><time>2026-04-22T13:37:45Z</time></trkpt><trkpt lat="45.75216072008504" lon="9.790104459231156"><ele>328.1666666666667</ele><time>2026-04-22T13:37:46Z</time></trkpt><trkpt lat="45.75220864419876" lon="9.790168060986023"><ele>327.0</ele><time>2026-04-22T13:37:47Z</time></trkpt><trkpt lat="45.75224507644571" lon="9.790242698583853"><ele>327.0</ele><time>2026-04-22T13:37:48Z</time></trkpt><trkpt lat="45.7522723819598" lon="9.790326348002564"><ele>327.0</ele><time>2026-04-22T13:37:49Z</time></trkpt><trkpt lat="45.75230280961209" lon="9.79041659656049"><ele>327.0</ele><time>2026-04-22T13:37:50Z</time></trkpt><trkpt lat="45.75233211061348" lon="9.790507741020445"><ele>327.0</ele><time>2026-04-22T13:37:51Z</time></trkpt><trkpt lat="45.752369195575575" lon="9.790680652395041"><ele>327.0</ele><time>2026-04-22T13:37:53Z</time></trkpt><trkpt lat="45.75239115970702" lon="9.790774140433458"><ele>327.0</ele><time>2026-04-22T13:37:54Z</time></trkpt><trkpt lat="45.75240966474003" lon="9.790865066382384"><ele>327.0</ele><time>2026-04-22T13:37:55Z</time></trkpt><trkpt lat="45.752417975849404" lon="9.790970704756115"><ele>327.0</ele><time>2026-04-22T13:37:56Z</time></trkpt><trkpt lat="45.75246545050545" lon="9.791130786475442"><ele>327.0</ele><time>2026-04-22T13:37:58Z</time></trkpt><trkpt lat="45.75248014542026" lon="9.791229855251856"><ele>327.0</ele><time>2026-04-22T13:37:59Z</time></trkpt><trkpt lat="45.75255307280733" lon="9.791379303583572"><ele>327.0</ele><time>2026-04-22T13:38:01Z</time></trkpt><trkpt lat="45.75259446369264" lon="9.791451310021197"><ele>327.0</ele><time>2026-04-22T13:38:02Z</time></trkpt><trkpt lat="45.75266738621479" lon="9.791606545536329"><ele>327.0</ele><time>2026-04-22T13:38:04Z</time></trkpt><trkpt lat="45.7527207906557" lon="9.791664713023772"><ele>327.0</ele><time>2026-04-22T13:38:05Z</time></trkpt><trkpt lat="45.75280675035331" lon="9.79178768632685"><ele>327.0</ele><time>2026-04-22T13:38:07Z</time></trkpt><trkpt lat="45.752854327180884" lon="9.791848389831568"><ele>327.0</ele><time>2026-04-22T13:38:08Z</time></trkpt><trkpt lat="45.752902219490494" lon="9.791907833969633"><ele>327.0</ele><time>2026-04-22T13:38:09Z</time></trkpt><trkpt lat="45.75294823885818" lon="9.791976215487669"><ele>327.0</ele><time>2026-04-22T13:38:10Z</time></trkpt><trkpt lat="45.753045661714594" lon="9.792083770139417"><ele>327.0</ele><time>2026-04-22T13:38:12Z</time></trkpt><trkpt lat="45.7530945881545" lon="9.792149582333698"><ele>327.0</ele><time>2026-04-22T13:38:13Z</time></trkpt><trkpt lat="45.75314133553856" lon="9.792212598620932"><ele>327.0</ele><time>2026-04-22T13:38:14Z</time></trkpt><trkpt lat="45.75323781728454" lon="9.792327252975525"><ele>327.0</ele><time>2026-04-22T13:38:16Z</time></trkpt><trkpt lat="45.75333458594751" lon="9.792442513019129"><ele>327.0</ele><time>2026-04-22T13:38:18Z</time></trkpt><trkpt lat="45.75342976230823" lon="9.792560436328303"><ele>327.0</ele><time>2026-04-22T13:38:20Z</time></trkpt><trkpt lat="45.7534788790006" lon="9.792622505504808"><ele>327.0</ele><time>2026-04-22T13:38:21Z</time></trkpt><trkpt lat="45.753571199285616" lon="9.792756551457497"><ele>327.0</ele><time>2026-04-22T13:38:23Z</time></trkpt><trkpt lat="45.75365792273088" lon="9.792880018592003"><ele>327.0</ele><time>2026-04-22T13:38:25Z</time></trkpt><trkpt lat="45.75370052413925" lon="9.792969606217545"><ele>326.20000000000005</ele><time>2026-04-22T13:38:26Z</time></trkpt><trkpt lat="45.75375017830187" lon="9.793050771289534"><ele>325.4</ele><time>2026-04-22T13:38:27Z</time></trkpt><trkpt lat="45.753824046855485" lon="9.793175838350532"><ele>324.6</ele><time>2026-04-22T13:38:29Z</time></trkpt><trkpt lat="45.753892270792065" lon="9.79333742645172"><ele>323.79999999999995</ele><time>2026-04-22T13:38:31Z</time></trkpt><trkpt lat="45.75397190397525" lon="9.793479310440636"><ele>323.0</ele><time>2026-04-22T13:38:33Z</time></trkpt><trkpt lat="45.754014770185925" lon="9.79355304193964"><ele>325.1666666666667</ele><time>2026-04-22T13:38:34Z</time></trkpt><trkpt lat="45.75406088889657" lon="9.793617144412353"><ele>327.33333333333337</ele><time>2026-04-22T13:38:35Z</time></trkpt><trkpt lat="45.75411210680732" lon="9.793687143502755"><ele>329.5</ele><time>2026-04-22T13:38:36Z</time></trkpt><trkpt lat="45.754197111155534" lon="9.79381873560835"><ele>331.6666666666667</ele><time>2026-04-22T13:38:38Z</time></trkpt><trkpt lat="45.75424146293495" lon="9.793884147933964"><ele>333.8333333333333</ele><time>2026-04-22T13:38:39Z</time></trkpt><trkpt lat="45.75428497054683" lon="9.793952256474656"><ele>336.0</ele><time>2026-04-22T13:38:40Z</time></trkpt><trkpt lat="45.754333980909024" lon="9.794017084300178"><ele>333.8</ele><time>2026-04-22T13:38:41Z</time></trkpt><trkpt lat="45.75441221053175" lon="9.794149970618104"><ele>331.6</ele><time>2026-04-22T13:38:43Z</time></trkpt><trkpt lat="45.7544514036468" lon="9.794235749123514"><ele>329.4</ele><time>2026-04-22T13:38:44Z</time></trkpt><trkpt lat="45.75450623800163" lon="9.794396071658191"><ele>327.2</ele><time>2026-04-22T13:38:46Z</time></trkpt><trkpt lat="45.754538013809146" lon="9.794475617997367"><ele>325.0</ele><time>2026-04-22T13:38:47Z</time></trkpt><trkpt lat="45.75460246664111" lon="9.794628386952708"><ele>325.0</ele><time>2026-04-22T13:38:49Z</time></trkpt><trkpt lat="45.75463366857771" lon="9.794707930097037"><ele>325.0</ele><time>2026-04-22T13:38:50Z</time></trkpt><trkpt lat="45.75466931191355" lon="9.794784611125031"><ele>325.0</ele><time>2026-04-22T13:38:51Z</time></trkpt><trkpt lat="45.754706784607066" lon="9.794860914484975"><ele>325.0</ele><time>2026-04-22T13:38:52Z</time></trkpt><trkpt lat="45.75478555882452" lon="9.795002827486332"><ele>325.0</ele><time>2026-04-22T13:38:54Z</time></trkpt><trkpt lat="45.75482825485912" lon="9.795075942328806"><ele>325.0</ele><time>2026-04-22T13:38:55Z</time></trkpt><trkpt lat="45.754864038554196" lon="9.795157514794422"><ele>325.6</ele><time>2026-04-22T13:38:56Z</time></trkpt><trkpt lat="45.75490198939717" lon="9.79523002429889"><ele>326.2</ele><time>2026-04-22T13:38:57Z</time></trkpt><trkpt lat="45.75494049433421" lon="9.795302930224144"><ele>326.79999999999995</ele><time>2026-04-22T13:38:58Z</time></trkpt><trkpt lat="45.754970412047406" lon="9.795385966030526"><ele>327.4</ele><time>2026-04-22T13:38:59Z</time></trkpt><trkpt lat="45.75503508322673" lon="9.795547019770193"><ele>328.0</ele><time>2026-04-22T13:39:01Z</time></trkpt><trkpt lat="45.755080840806244" lon="9.79572104992179"><ele>328.0</ele><time>2026-04-22T13:39:03Z</time></trkpt><trkpt lat="45.75513182385329" lon="9.795891337123475"><ele>328.0</ele><time>2026-04-22T13:39:05Z</time></trkpt><trkpt lat="45.75515915781701" lon="9.795975177407167"><ele>328.0</ele><time>2026-04-22T13:39:06Z</time></trkpt><trkpt lat="45.75518691047221" lon="9.796057409189023"><ele>328.0</ele><time>2026-04-22T13:39:07Z</time></trkpt><trkpt lat="45.75521166054708" lon="9.796143580446557"><ele>328.0</ele><time>2026-04-22T13:39:08Z</time></trkpt><trkpt lat="45.7552648043718" lon="9.796308979124854"><ele>327.4</ele><time>2026-04-22T13:39:10Z</time></trkpt><trkpt lat="45.75530575125376" lon="9.796474266505864"><ele>326.79999999999995</ele><time>2026-04-22T13:39:12Z</time></trkpt><trkpt lat="45.75533478906445" lon="9.796558736485348"><ele>326.2</ele><time>2026-04-22T13:39:13Z</time></trkpt><trkpt lat="45.75538231310509" lon="9.796725111450312"><ele>325.6</ele><time>2026-04-22T13:39:15Z</time></trkpt><trkpt lat="45.7554325186809" lon="9.796883847199048"><ele>325.0</ele><time>2026-04-22T13:39:17Z</time></trkpt><trkpt lat="45.755455188628545" lon="9.796968809728428"><ele>325.0</ele><time>2026-04-22T13:39:18Z</time></trkpt><trkpt lat="45.75550567316123" lon="9.797135518863278"><ele>325.0</ele><time>2026-04-22T13:39:20Z</time></trkpt><trkpt lat="45.75553635683536" lon="9.797215027205626"><ele>325.0</ele><time>2026-04-22T13:39:21Z</time></trkpt><trkpt lat="45.75557964137778" lon="9.79738280054138"><ele>325.0</ele><time>2026-04-22T13:39:23Z</time></trkpt><trkpt lat="45.755634606124424" lon="9.797541057020009"><ele>325.0</ele><time>2026-04-22T13:39:25Z</time></trkpt><trkpt lat="45.75567904975057" lon="9.797691167191676"><ele>325.4</ele><time>2026-04-22T13:39:27Z</time></trkpt><trkpt lat="45.755722353254306" lon="9.797829459998072"><ele>325.8</ele><time>2026-04-22T13:39:29Z</time></trkpt><trkpt lat="45.75577375139825" lon="9.797947497053299"><ele>326.20000000000005</ele><time>2026-04-22T13:39:31Z</time></trkpt><trkpt lat="45.75579179843361" lon="9.79807840737072"><ele>326.6</ele><time>2026-04-22T13:39:33Z</time></trkpt><trkpt lat="45.75575036549094" lon="9.798175193140553"><ele>327.0</ele><time>2026-04-22T13:39:35Z</time></trkpt><trkpt lat="45.755859171830394" lon="9.79813691955442"><ele>327.0</ele><time>2026-04-22T13:39:39Z</time></trkpt><trkpt lat="45.755912437066996" lon="9.798080782268235"><ele>327.0</ele><time>2026-04-22T13:39:40Z</time></trkpt><trkpt lat="45.755970244935114" lon="9.798036102345304"><ele>327.0</ele><time>2026-04-22T13:39:41Z</time></trkpt><trkpt lat="45.75602791162846" lon="9.79798844271912"><ele>327.0</ele><time>2026-04-22T13:39:42Z</time></trkpt><trkpt lat="45.75608232480657" lon="9.797935953321266"><ele>327.0</ele><time>2026-04-22T13:39:43Z</time></trkpt><trkpt lat="45.75614034412077" lon="9.797889325212015"><ele>327.0</ele><time>2026-04-22T13:39:44Z</time></trkpt><trkpt lat="45.756244766423706" lon="9.79778564631041"><ele>326.7142857142857</ele><time>2026-04-22T13:39:46Z</time></trkpt><trkpt lat="45.75629795178297" lon="9.797732976538658"><ele>326.42857142857144</ele><time>2026-04-22T13:39:47Z</time></trkpt><trkpt lat="45.756355822204796" lon="9.797688395592955"><ele>326.1428571428571</ele><time>2026-04-22T13:39:48Z</time></trkpt><trkpt lat="45.75641030398931" lon="9.797640510921706"><ele>325.8571428571429</ele><time>2026-04-22T13:39:49Z</time></trkpt><trkpt lat="45.75646540280568" lon="9.797594088454185"><ele>325.5714285714286</ele><time>2026-04-22T13:39:50Z</time></trkpt><trkpt lat="45.756520821581994" lon="9.797547565253188"><ele>325.2857142857143</ele><time>2026-04-22T13:39:51Z</time></trkpt><trkpt lat="45.75657638826707" lon="9.797502663089066"><ele>325.0</ele><time>2026-04-22T13:39:52Z</time></trkpt><trkpt lat="45.75663117880721" lon="9.797456722625004"><ele>325.0</ele><time>2026-04-22T13:39:53Z</time></trkpt><trkpt lat="45.75670784000511" lon="9.79736333800087"><ele>325.0</ele><time>2026-04-22T13:39:55Z</time></trkpt><trkpt lat="45.75679049384263" lon="9.79734298591072"><ele>325.0</ele><time>2026-04-22T13:39:58Z</time></trkpt><trkpt lat="45.75686816536444" lon="9.797264527155058"><ele>325.0</ele><time>2026-04-22T13:40:00Z</time></trkpt><trkpt lat="45.75697222808003" lon="9.797159264303879"><ele>325.0</ele><time>2026-04-22T13:40:02Z</time></trkpt><trkpt lat="45.75702690543789" lon="9.797104423303155"><ele>325.4</ele><time>2026-04-22T13:40:03Z</time></trkpt><trkpt lat="45.7570801610615" lon="9.797055360697385"><ele>325.8</ele><time>2026-04-22T13:40:04Z</time></trkpt><trkpt lat="45.757184821887186" lon="9.796974171949495"><ele>326.20000000000005</ele><time>2026-04-22T13:40:06Z</time></trkpt><trkpt lat="45.75729319695997" lon="9.796890841424943"><ele>326.6</ele><time>2026-04-22T13:40:08Z</time></trkpt><trkpt lat="45.757394871182264" lon="9.796918840974183"><ele>327.0</ele><time>2026-04-22T13:40:10Z</time></trkpt><trkpt lat="45.75747376740134" lon="9.797066352805972"><ele>327.0</ele><time>2026-04-22T13:40:12Z</time></trkpt><trkpt lat="45.75751718392991" lon="9.79714430987877"><ele>327.0</ele><time>2026-04-22T13:40:13Z</time></trkpt><trkpt lat="45.75756620743641" lon="9.7972125588408"><ele>327.0</ele><time>2026-04-22T13:40:14Z</time></trkpt><trkpt lat="45.757608196967944" lon="9.7972858223523"><ele>327.0</ele><time>2026-04-22T13:40:15Z</time></trkpt><trkpt lat="45.75764565918777" lon="9.797359579196444"><ele>327.0</ele><time>2026-04-22T13:40:16Z</time></trkpt><trkpt lat="45.757685370095615" lon="9.797431756102245"><ele>327.0</ele><time>2026-04-22T13:40:17Z</time></trkpt><trkpt lat="45.75772118030419" lon="9.797507370273447"><ele>327.0</ele><time>2026-04-22T13:40:18Z</time></trkpt><trkpt lat="45.7578006814572" lon="9.79764771751219"><ele>327.5</ele><time>2026-04-22T13:40:20Z</time></trkpt><trkpt lat="45.75784668651274" lon="9.797713241531303"><ele>328.0</ele><time>2026-04-22T13:40:21Z</time></trkpt><trkpt lat="45.75794648534332" lon="9.797823320166755"><ele>328.5</ele><time>2026-04-22T13:40:23Z</time></trkpt><trkpt lat="45.7580057131178" lon="9.797863079323884"><ele>329.0</ele><time>2026-04-22T13:40:24Z</time></trkpt><trkpt lat="45.75807267636792" lon="9.797866856148921"><ele>329.5</ele><time>2026-04-22T13:40:25Z</time></trkpt><trkpt lat="45.75813552743415" lon="9.797846620259469"><ele>330.0</ele><time>2026-04-22T13:40:26Z</time></trkpt><trkpt lat="45.7581973805015" lon="9.79781626007388"><ele>330.0</ele><time>2026-04-22T13:40:27Z</time></trkpt><trkpt lat="45.75830975877361" lon="9.797744654131261"><ele>330.0</ele><time>2026-04-22T13:40:29Z</time></trkpt><trkpt lat="45.75841343029492" lon="9.797747871338098"><ele>330.0</ele><time>2026-04-22T13:40:31Z</time></trkpt><trkpt lat="45.75846866889904" lon="9.797807327693535"><ele>330.0</ele><time>2026-04-22T13:40:32Z</time></trkpt><trkpt lat="45.75850925466709" lon="9.79788652002687"><ele>330.0</ele><time>2026-04-22T13:40:33Z</time></trkpt><trkpt lat="45.758543330252515" lon="9.79796548711554"><ele>330.0</ele><time>2026-04-22T13:40:34Z</time></trkpt><trkpt lat="45.75862187111403" lon="9.798110385788553"><ele>330.28571428571433</ele><time>2026-04-22T13:40:36Z</time></trkpt><trkpt lat="45.758665311117554" lon="9.798182199565098"><ele>330.57142857142856</ele><time>2026-04-22T13:40:37Z</time></trkpt><trkpt lat="45.75870981355673" lon="9.798252229175615"><ele>330.8571428571429</ele><time>2026-04-22T13:40:38Z</time></trkpt><trkpt lat="45.75874895674102" lon="9.798327625022694"><ele>331.14285714285717</ele><time>2026-04-22T13:40:39Z</time></trkpt><trkpt lat="45.75879285242823" lon="9.798399043185768"><ele>331.42857142857144</ele><time>2026-04-22T13:40:40Z</time></trkpt><trkpt lat="45.75883673964451" lon="9.798472389220723"><ele>331.7142857142857</ele><time>2026-04-22T13:40:41Z</time></trkpt><trkpt lat="45.758877362613525" lon="9.79854813185106"><ele>332.0</ele><time>2026-04-22T13:40:42Z</time></trkpt><trkpt lat="45.75891941029029" lon="9.798620843374199"><ele>332.0</ele><time>2026-04-22T13:40:43Z</time></trkpt><trkpt lat="45.758961610689546" lon="9.798694606072862"><ele>332.0</ele><time>2026-04-22T13:40:44Z</time></trkpt><trkpt lat="45.75900641051889" lon="9.798768209334026"><ele>332.0</ele><time>2026-04-22T13:40:45Z</time></trkpt><trkpt lat="45.759050070311766" lon="9.798838890389142"><ele>332.0</ele><time>2026-04-22T13:40:46Z</time></trkpt><trkpt lat="45.75909045505432" lon="9.7989123037467"><ele>332.0</ele><time>2026-04-22T13:40:47Z</time></trkpt><trkpt lat="45.75913241629523" lon="9.79898638280012"><ele>332.0</ele><time>2026-04-22T13:40:48Z</time></trkpt><trkpt lat="45.759173668153714" lon="9.79905523766363"><ele>332.0</ele><time>2026-04-22T13:40:49Z</time></trkpt><trkpt lat="45.75925939253503" lon="9.799195701698633"><ele>332.0</ele><time>2026-04-22T13:40:51Z</time></trkpt><trkpt lat="45.759302102386535" lon="9.79926526085604"><ele>332.0</ele><time>2026-04-22T13:40:52Z</time></trkpt><trkpt lat="45.75934439731862" lon="9.799334882699156"><ele>332.0</ele><time>2026-04-22T13:40:53Z</time></trkpt><trkpt lat="45.75938461571501" lon="9.799408504715304"><ele>332.0</ele><time>2026-04-22T13:40:54Z</time></trkpt><trkpt lat="45.75946861456268" lon="9.79955162036996"><ele>332.0</ele><time>2026-04-22T13:40:56Z</time></trkpt><trkpt lat="45.75950900034194" lon="9.799624007474263"><ele>332.0</ele><time>2026-04-22T13:40:57Z</time></trkpt><trkpt lat="45.759551345486855" lon="9.799694288228848"><ele>331.85714285714283</ele><time>2026-04-22T13:40:58Z</time></trkpt><trkpt lat="45.75959312507854" lon="9.799769675665514"><ele>331.7142857142857</ele><time>2026-04-22T13:40:59Z</time></trkpt><trkpt lat="45.75963369177797" lon="9.799843247697359"><ele>331.57142857142856</ele><time>2026-04-22T13:41:00Z</time></trkpt><trkpt lat="45.75967676439377" lon="9.799912984011856"><ele>331.42857142857144</ele><time>2026-04-22T13:41:01Z</time></trkpt><trkpt lat="45.759718675619155" lon="9.799980569006697"><ele>331.2857142857143</ele><time>2026-04-22T13:41:02Z</time></trkpt><trkpt lat="45.75976170046247" lon="9.800056868881828"><ele>331.14285714285717</ele><time>2026-04-22T13:41:03Z</time></trkpt><trkpt lat="45.75980473640177" lon="9.800125389527063"><ele>331.0</ele><time>2026-04-22T13:41:04Z</time></trkpt><trkpt lat="45.75984564010068" lon="9.800195707358245"><ele>331.0</ele><time>2026-04-22T13:41:05Z</time></trkpt><trkpt lat="45.759891908727134" lon="9.800268400173385"><ele>331.0</ele><time>2026-04-22T13:41:06Z</time></trkpt><trkpt lat="45.75997500692531" lon="9.800407479605653"><ele>331.0</ele><time>2026-04-22T13:41:08Z</time></trkpt><trkpt lat="45.7600156027849" lon="9.800479212561697"><ele>331.0</ele><time>2026-04-22T13:41:09Z</time></trkpt><trkpt lat="45.760055410503476" lon="9.80055083256313"><ele>331.0</ele><time>2026-04-22T13:41:10Z</time></trkpt><trkpt lat="45.76009998788293" lon="9.800624104625728"><ele>331.0</ele><time>2026-04-22T13:41:11Z</time></trkpt><trkpt lat="45.760143398297274" lon="9.800700391315821"><ele>331.0</ele><time>2026-04-22T13:41:12Z</time></trkpt><trkpt lat="45.760224011771726" lon="9.800834669331797"><ele>331.0</ele><time>2026-04-22T13:41:14Z</time></trkpt><trkpt lat="45.76026258777713" lon="9.800908636514398"><ele>331.0</ele><time>2026-04-22T13:41:15Z</time></trkpt><trkpt lat="45.76030333395784" lon="9.800979758181596"><ele>331.0</ele><time>2026-04-22T13:41:16Z</time></trkpt><trkpt lat="45.760386108830765" lon="9.801123449731927"><ele>331.0</ele><time>2026-04-22T13:41:18Z</time></trkpt><trkpt lat="45.76046810431657" lon="9.801264009725509"><ele>331.0</ele><time>2026-04-22T13:41:20Z</time></trkpt><trkpt lat="45.760550187254886" lon="9.801401080591434"><ele>331.0</ele><time>2026-04-22T13:41:22Z</time></trkpt><trkpt lat="45.76063165184985" lon="9.801542320939344"><ele>331.0</ele><time>2026-04-22T13:41:24Z</time></trkpt><trkpt lat="45.760670917752336" lon="9.801612924787833"><ele>331.0</ele><time>2026-04-22T13:41:25Z</time></trkpt><trkpt lat="45.76074912839087" lon="9.80174261495155"><ele>331.0</ele><time>2026-04-22T13:41:27Z</time></trkpt><trkpt lat="45.76081466484959" lon="9.801875034026782"><ele>330.66666666666663</ele><time>2026-04-22T13:41:29Z</time></trkpt><trkpt lat="45.760896972669215" lon="9.802008078574765"><ele>330.3333333333333</ele><time>2026-04-22T13:41:31Z</time></trkpt><trkpt lat="45.76094099333023" lon="9.80207829768552"><ele>330.0</ele><time>2026-04-22T13:41:32Z</time></trkpt><trkpt lat="45.76102351866402" lon="9.802214031262237"><ele>329.6666666666667</ele><time>2026-04-22T13:41:34Z</time></trkpt><trkpt lat="45.761063670936856" lon="9.802284508457134"><ele>329.33333333333337</ele><time>2026-04-22T13:41:35Z</time></trkpt><trkpt lat="45.7611036118053" lon="9.802361397282015"><ele>329.0</ele><time>2026-04-22T13:41:36Z</time></trkpt><trkpt lat="45.7611458285506" lon="9.802428654958206"><ele>329.6666666666667</ele><time>2026-04-22T13:41:37Z</time></trkpt><trkpt lat="45.761186278533565" lon="9.802511937837819"><ele>330.33333333333337</ele><time>2026-04-22T13:41:38Z</time></trkpt><trkpt lat="45.761271195870364" lon="9.802642884990664"><ele>331.0</ele><time>2026-04-22T13:41:40Z</time></trkpt><trkpt lat="45.76135328465026" lon="9.802779543178541"><ele>331.6666666666667</ele><time>2026-04-22T13:41:42Z</time></trkpt><trkpt lat="45.76139547248494" lon="9.80284865722056"><ele>332.3333333333333</ele><time>2026-04-22T13:41:43Z</time></trkpt><trkpt lat="45.76143613194248" lon="9.802918471652685"><ele>333.0</ele><time>2026-04-22T13:41:44Z</time></trkpt><trkpt lat="45.761520897395464" lon="9.803054720052039"><ele>333.0</ele><time>2026-04-22T13:41:46Z</time></trkpt><trkpt lat="45.76156397268753" lon="9.803127600999598"><ele>333.0</ele><time>2026-04-22T13:41:47Z</time></trkpt><trkpt lat="45.76164054307735" lon="9.80326868056687"><ele>333.0</ele><time>2026-04-22T13:41:49Z</time></trkpt><trkpt lat="45.76172172070821" lon="9.803408168426268"><ele>333.0</ele><time>2026-04-22T13:41:51Z</time></trkpt><trkpt lat="45.76176281343904" lon="9.803478058873614"><ele>333.0</ele><time>2026-04-22T13:41:52Z</time></trkpt><trkpt lat="45.76180128542576" lon="9.803552545237572"><ele>333.0</ele><time>2026-04-22T13:41:53Z</time></trkpt><trkpt lat="45.76184417708725" lon="9.803624798874862"><ele>333.8333333333333</ele><time>2026-04-22T13:41:54Z</time></trkpt><trkpt lat="45.76188466165364" lon="9.803696238208692"><ele>334.6666666666667</ele><time>2026-04-22T13:41:55Z</time></trkpt><trkpt lat="45.76192672540369" lon="9.803766151877841"><ele>335.5</ele><time>2026-04-22T13:41:56Z</time></trkpt><trkpt lat="45.76197072205981" lon="9.803836429393149"><ele>336.33333333333337</ele><time>2026-04-22T13:41:57Z</time></trkpt><trkpt lat="45.762052660969495" lon="9.80397376318399"><ele>337.1666666666667</ele><time>2026-04-22T13:41:59Z</time></trkpt><trkpt lat="45.76213667942236" lon="9.804107776046706"><ele>338.0</ele><time>2026-04-22T13:42:01Z</time></trkpt><trkpt lat="45.76217808065763" lon="9.804179050057298"><ele>338.0</ele><time>2026-04-22T13:42:02Z</time></trkpt><trkpt lat="45.7622233968731" lon="9.804244592863563"><ele>338.0</ele><time>2026-04-22T13:42:03Z</time></trkpt><trkpt lat="45.76226058018541" lon="9.804321052107058"><ele>338.0</ele><time>2026-04-22T13:42:04Z</time></trkpt><trkpt lat="45.762302484147504" lon="9.804390179878242"><ele>338.0</ele><time>2026-04-22T13:42:05Z</time></trkpt><trkpt lat="45.76234224906979" lon="9.804462567543753"><ele>338.0</ele><time>2026-04-22T13:42:06Z</time></trkpt><trkpt lat="45.76238173605362" lon="9.804533849332971"><ele>338.0</ele><time>2026-04-22T13:42:07Z</time></trkpt><trkpt lat="45.762422190301656" lon="9.804605783283225"><ele>338.0</ele><time>2026-04-22T13:42:08Z</time></trkpt><trkpt lat="45.76246876584965" lon="9.804674560199771"><ele>338.0</ele><time>2026-04-22T13:42:09Z</time></trkpt><trkpt lat="45.762548836124864" lon="9.804813511655276"><ele>338.0</ele><time>2026-04-22T13:42:11Z</time></trkpt><trkpt lat="45.76258461796735" lon="9.804887938368406"><ele>338.0</ele><time>2026-04-22T13:42:12Z</time></trkpt><trkpt lat="45.76266464060488" lon="9.805027435880508"><ele>338.0</ele><time>2026-04-22T13:42:14Z</time></trkpt><trkpt lat="45.762750428931" lon="9.805162129268183"><ele>338.0</ele><time>2026-04-22T13:42:16Z</time></trkpt><trkpt lat="45.76281988465325" lon="9.80531258805695"><ele>337.79999999999995</ele><time>2026-04-22T13:42:18Z</time></trkpt><trkpt lat="45.762907235007596" lon="9.805443919224807"><ele>337.6</ele><time>2026-04-22T13:42:20Z</time></trkpt><trkpt lat="45.762986000605075" lon="9.805580943843303"><ele>337.4</ele><time>2026-04-22T13:42:22Z</time></trkpt><trkpt lat="45.763029147060756" lon="9.805650751016904"><ele>337.20000000000005</ele><time>2026-04-22T13:42:23Z</time></trkpt><trkpt lat="45.76310954269894" lon="9.805786894265585"><ele>337.0</ele><time>2026-04-22T13:42:25Z</time></trkpt><trkpt lat="45.763150668285995" lon="9.805858849001556"><ele>337.0</ele><time>2026-04-22T13:42:26Z</time></trkpt><trkpt lat="45.76323333869448" lon="9.805994994485408"><ele>337.0</ele><time>2026-04-22T13:42:28Z</time></trkpt><trkpt lat="45.76331344919288" lon="9.806133024994201"><ele>337.0</ele><time>2026-04-22T13:42:30Z</time></trkpt><trkpt lat="45.76335421472177" lon="9.806202135555331"><ele>337.0</ele><time>2026-04-22T13:42:31Z</time></trkpt><trkpt lat="45.76339763151457" lon="9.806273758969889"><ele>337.0</ele><time>2026-04-22T13:42:32Z</time></trkpt><trkpt lat="45.763477160663165" lon="9.806409150103667"><ele>337.8</ele><time>2026-04-22T13:42:34Z</time></trkpt><trkpt lat="45.76355335275512" lon="9.806541849473401"><ele>338.6</ele><time>2026-04-22T13:42:36Z</time></trkpt><trkpt lat="45.76359761246544" lon="9.806613451046847"><ele>339.40000000000003</ele><time>2026-04-22T13:42:37Z</time></trkpt><trkpt lat="45.76367648516191" lon="9.80674895033695"><ele>340.20000000000005</ele><time>2026-04-22T13:42:39Z</time></trkpt><trkpt lat="45.76375486020977" lon="9.806889888079535"><ele>341.0</ele><time>2026-04-22T13:42:41Z</time></trkpt><trkpt lat="45.763835478955265" lon="9.807026452800326"><ele>341.0</ele><time>2026-04-22T13:42:43Z</time></trkpt><trkpt lat="45.76391325931462" lon="9.807164260242212"><ele>341.0</ele><time>2026-04-22T13:42:45Z</time></trkpt><trkpt lat="45.76399362104251" lon="9.807300731880192"><ele>341.0</ele><time>2026-04-22T13:42:47Z</time></trkpt><trkpt lat="45.76407380630783" lon="9.807434038016053"><ele>341.0</ele><time>2026-04-22T13:42:49Z</time></trkpt><trkpt lat="45.76415710859219" lon="9.807564177240854"><ele>341.33333333333337</ele><time>2026-04-22T13:42:51Z</time></trkpt><trkpt lat="45.76425063064163" lon="9.80767612474176"><ele>341.6666666666667</ele><time>2026-04-22T13:42:53Z</time></trkpt><trkpt lat="45.76429923459863" lon="9.807735786880366"><ele>342.0</ele><time>2026-04-22T13:42:54Z</time></trkpt><trkpt lat="45.76439162104609" lon="9.807847564151256"><ele>342.3333333333333</ele><time>2026-04-22T13:42:56Z</time></trkpt><trkpt lat="45.76444336978196" lon="9.80789988745966"><ele>342.66666666666663</ele><time>2026-04-22T13:42:57Z</time></trkpt><trkpt lat="45.76449901487413" lon="9.807954362314183"><ele>343.0</ele><time>2026-04-22T13:42:58Z</time></trkpt><trkpt lat="45.764603739910555" lon="9.808039209246662"><ele>343.0</ele><time>2026-04-22T13:43:00Z</time></trkpt><trkpt lat="45.764660727402834" lon="9.808088354192769"><ele>343.0</ele><time>2026-04-22T13:43:01Z</time></trkpt><trkpt lat="45.764773954622044" lon="9.808164283337366"><ele>343.0</ele><time>2026-04-22T13:43:03Z</time></trkpt><trkpt lat="45.76483389136262" lon="9.808199359003346"><ele>343.0</ele><time>2026-04-22T13:43:04Z</time></trkpt><trkpt lat="45.764946194214644" lon="9.808268604676528"><ele>343.0</ele><time>2026-04-22T13:43:06Z</time></trkpt><trkpt lat="45.7650648890287" lon="9.808330607539245"><ele>343.0</ele><time>2026-04-22T13:43:08Z</time></trkpt><trkpt lat="45.765176939051486" lon="9.808390064981738"><ele>343.0</ele><time>2026-04-22T13:43:10Z</time></trkpt><trkpt lat="45.765241276736035" lon="9.808416866098892"><ele>343.0</ele><time>2026-04-22T13:43:11Z</time></trkpt><trkpt lat="45.765360531824435" lon="9.808475723224205"><ele>343.0</ele><time>2026-04-22T13:43:13Z</time></trkpt><trkpt lat="45.765417338026396" lon="9.808516148053533"><ele>343.0</ele><time>2026-04-22T13:43:14Z</time></trkpt><trkpt lat="45.7655331345109" lon="9.808569718856498"><ele>342.4</ele><time>2026-04-22T13:43:16Z</time></trkpt><trkpt lat="45.765650597482825" lon="9.808631016180021"><ele>341.79999999999995</ele><time>2026-04-22T13:43:18Z</time></trkpt><trkpt lat="45.765766533313545" lon="9.80869157540909"><ele>341.2</ele><time>2026-04-22T13:43:20Z</time></trkpt><trkpt lat="45.76588051341974" lon="9.808754992585275"><ele>340.6</ele><time>2026-04-22T13:43:22Z</time></trkpt><trkpt lat="45.76594256535313" lon="9.808786101916187"><ele>340.0</ele><time>2026-04-22T13:43:23Z</time></trkpt><trkpt lat="45.76605698134496" lon="9.808849176914094"><ele>341.0</ele><time>2026-04-22T13:43:25Z</time></trkpt><trkpt lat="45.76612331990932" lon="9.808884662924962"><ele>342.0</ele><time>2026-04-22T13:43:26Z</time></trkpt><trkpt lat="45.76623829347444" lon="9.80893965790887"><ele>343.0</ele><time>2026-04-22T13:43:28Z</time></trkpt><trkpt lat="45.76629791177718" lon="9.808969396529337"><ele>344.0</ele><time>2026-04-22T13:43:29Z</time></trkpt><trkpt lat="45.76641483941574" lon="9.809032714962695"><ele>345.0</ele><time>2026-04-22T13:43:31Z</time></trkpt><trkpt lat="45.766474496549456" lon="9.809062386639306"><ele>346.0</ele><time>2026-04-22T13:43:32Z</time></trkpt><trkpt lat="45.76653576017302" lon="9.809092424040731"><ele>346.0</ele><time>2026-04-22T13:43:33Z</time></trkpt><trkpt lat="45.766655040908" lon="9.809150912079232"><ele>346.0</ele><time>2026-04-22T13:43:35Z</time></trkpt><trkpt lat="45.76671362824677" lon="9.80918422329184"><ele>346.0</ele><time>2026-04-22T13:43:36Z</time></trkpt><trkpt lat="45.766774965083904" lon="9.809216313906528"><ele>346.0</ele><time>2026-04-22T13:43:37Z</time></trkpt><trkpt lat="45.7668951899626" lon="9.809280255946293"><ele>346.0</ele><time>2026-04-22T13:43:39Z</time></trkpt><trkpt lat="45.76701170942724" lon="9.809340850315834"><ele>346.0</ele><time>2026-04-22T13:43:41Z</time></trkpt><trkpt lat="45.7670707669393" lon="9.809374219118745"><ele>346.0</ele><time>2026-04-22T13:43:42Z</time></trkpt><trkpt lat="45.767132284818096" lon="9.80940563310794"><ele>346.0</ele><time>2026-04-22T13:43:43Z</time></trkpt><trkpt lat="45.7672465797855" lon="9.80946267710562"><ele>346.0</ele><time>2026-04-22T13:43:45Z</time></trkpt><trkpt lat="45.76730816721683" lon="9.809502035247375"><ele>346.0</ele><time>2026-04-22T13:43:46Z</time></trkpt><trkpt lat="45.76741763511548" lon="9.809561086939286"><ele>346.0</ele><time>2026-04-22T13:43:48Z</time></trkpt><trkpt lat="45.767478041771554" lon="9.809589168510946"><ele>346.0</ele><time>2026-04-22T13:43:49Z</time></trkpt><trkpt lat="45.76753873918641" lon="9.80962148116713"><ele>346.0</ele><time>2026-04-22T13:43:50Z</time></trkpt><trkpt lat="45.76765240723784" lon="9.809681283935435"><ele>346.0</ele><time>2026-04-22T13:43:52Z</time></trkpt><trkpt lat="45.76777170871236" lon="9.80974929501617"><ele>346.0</ele><time>2026-04-22T13:43:54Z</time></trkpt><trkpt lat="45.76788637859737" lon="9.80980607275091"><ele>346.0</ele><time>2026-04-22T13:43:56Z</time></trkpt><trkpt lat="45.768002948740765" lon="9.809868890492623"><ele>346.8333333333333</ele><time>2026-04-22T13:43:58Z</time></trkpt><trkpt lat="45.76806145781964" lon="9.809902224532186"><ele>347.66666666666663</ele><time>2026-04-22T13:43:59Z</time></trkpt><trkpt lat="45.76812151372402" lon="9.80993092339713"><ele>348.5</ele><time>2026-04-22T13:44:00Z</time></trkpt><trkpt lat="45.76823759107147" lon="9.80999004550253"><ele>349.3333333333333</ele><time>2026-04-22T13:44:02Z</time></trkpt><trkpt lat="45.768299174729336" lon="9.810022444191825"><ele>350.1666666666667</ele><time>2026-04-22T13:44:03Z</time></trkpt><trkpt lat="45.768414895658495" lon="9.810081772415638"><ele>351.0</ele><time>2026-04-22T13:44:05Z</time></trkpt><trkpt lat="45.76847898474803" lon="9.810115764037906"><ele>350.5</ele><time>2026-04-22T13:44:06Z</time></trkpt><trkpt lat="45.76858635518439" lon="9.810177245830591"><ele>350.0</ele><time>2026-04-22T13:44:08Z</time></trkpt><trkpt lat="45.768697749733846" lon="9.810237277727099"><ele>349.5</ele><time>2026-04-22T13:44:10Z</time></trkpt><trkpt lat="45.76880738873352" lon="9.810292018682727"><ele>349.0</ele><time>2026-04-22T13:44:12Z</time></trkpt><trkpt lat="45.76890529492489" lon="9.810346951091105"><ele>349.0</ele><time>2026-04-22T13:44:14Z</time></trkpt><trkpt lat="45.76900566238668" lon="9.81040303748908"><ele>349.0</ele><time>2026-04-22T13:44:16Z</time></trkpt><trkpt lat="45.76910753124608" lon="9.810465503816795"><ele>349.0</ele><time>2026-04-22T13:44:18Z</time></trkpt><trkpt lat="45.769206794058725" lon="9.810525777721848"><ele>349.0</ele><time>2026-04-22T13:44:20Z</time></trkpt><trkpt lat="45.76931421868237" lon="9.81058950099397"><ele>349.0</ele><time>2026-04-22T13:44:22Z</time></trkpt><trkpt lat="45.76937605135224" lon="9.810616561452694"><ele>349.0</ele><time>2026-04-22T13:44:23Z</time></trkpt><trkpt lat="45.76948213994733" lon="9.810671696175328"><ele>349.0</ele><time>2026-04-22T13:44:25Z</time></trkpt><trkpt lat="45.769546897553916" lon="9.810699350264095"><ele>349.0</ele><time>2026-04-22T13:44:26Z</time></trkpt><trkpt lat="45.769609854691325" lon="9.810730697893042"><ele>349.0</ele><time>2026-04-22T13:44:27Z</time></trkpt><trkpt lat="45.769671514701606" lon="9.810770540958618"><ele>349.0</ele><time>2026-04-22T13:44:28Z</time></trkpt><trkpt lat="45.76973178492542" lon="9.810807105903066"><ele>349.0</ele><time>2026-04-22T13:44:29Z</time></trkpt><trkpt lat="45.769795796501164" lon="9.810845972372665"><ele>349.0</ele><time>2026-04-22T13:44:30Z</time></trkpt><trkpt lat="45.76985576292435" lon="9.810879835154"><ele>349.0</ele><time>2026-04-22T13:44:31Z</time></trkpt><trkpt lat="45.769919686902654" lon="9.810909507584737"><ele>349.0</ele><time>2026-04-22T13:44:32Z</time></trkpt><trkpt lat="45.76997887631879" lon="9.810943342679227"><ele>349.0</ele><time>2026-04-22T13:44:33Z</time></trkpt><trkpt lat="45.770097759442734" lon="9.811013382618073"><ele>349.0</ele><time>2026-04-22T13:44:35Z</time></trkpt><trkpt lat="45.770157514886" lon="9.811050305045006"><ele>349.0</ele><time>2026-04-22T13:44:36Z</time></trkpt><trkpt lat="45.77021947879245" lon="9.811084266650823"><ele>349.0</ele><time>2026-04-22T13:44:37Z</time></trkpt><trkpt lat="45.770333683371646" lon="9.811146825066494"><ele>349.0</ele><time>2026-04-22T13:44:39Z</time></trkpt><trkpt lat="45.77039898943192" lon="9.811180544850213"><ele>349.0</ele><time>2026-04-22T13:44:40Z</time></trkpt><trkpt lat="45.77051312117838" lon="9.811248036216831"><ele>349.0</ele><time>2026-04-22T13:44:42Z</time></trkpt><trkpt lat="45.77057254918848" lon="9.811285511350373"><ele>349.0</ele><time>2026-04-22T13:44:43Z</time></trkpt><trkpt lat="45.77068629028295" lon="9.811367363622757"><ele>349.0</ele><time>2026-04-22T13:44:45Z</time></trkpt><trkpt lat="45.7707436461449" lon="9.811408044456273"><ele>349.0</ele><time>2026-04-22T13:44:46Z</time></trkpt><trkpt lat="45.770800308085136" lon="9.811447598437113"><ele>349.0</ele><time>2026-04-22T13:44:47Z</time></trkpt><trkpt lat="45.77085845350883" lon="9.811487934795764"><ele>349.0</ele><time>2026-04-22T13:44:48Z</time></trkpt><trkpt lat="45.77091556482592" lon="9.811529390947664"><ele>349.0</ele><time>2026-04-22T13:44:49Z</time></trkpt><trkpt lat="45.77097210107097" lon="9.81157115721237"><ele>349.0</ele><time>2026-04-22T13:44:50Z</time></trkpt><trkpt lat="45.771028600940824" lon="9.811615595362076"><ele>349.0</ele><time>2026-04-22T13:44:51Z</time></trkpt><trkpt lat="45.77108598424071" lon="9.81165956780432"><ele>349.0</ele><time>2026-04-22T13:44:52Z</time></trkpt><trkpt lat="45.771140262230034" lon="9.811705442397207"><ele>348.99999999999994</ele><time>2026-04-22T13:44:53Z</time></trkpt><trkpt lat="45.77119814956259" lon="9.811749089290721"><ele>349.0</ele><time>2026-04-22T13:44:54Z</time></trkpt><trkpt lat="45.77125421815475" lon="9.811796661414352"><ele>349.0</ele><time>2026-04-22T13:44:55Z</time></trkpt><trkpt lat="45.771311578882646" lon="9.811837723469488"><ele>349.0</ele><time>2026-04-22T13:44:56Z</time></trkpt><trkpt lat="45.77136603486381" lon="9.811889560167232"><ele>349.0</ele><time>2026-04-22T13:44:57Z</time></trkpt><trkpt lat="45.77142327362471" lon="9.811935647138391"><ele>348.99999999999994</ele><time>2026-04-22T13:44:58Z</time></trkpt><trkpt lat="45.77147801904853" lon="9.811982831155218"><ele>349.0</ele><time>2026-04-22T13:44:59Z</time></trkpt><trkpt lat="45.771587545183785" lon="9.812075075357342"><ele>349.0</ele><time>2026-04-22T13:45:01Z</time></trkpt><trkpt lat="45.771698338309655" lon="9.812166114140918"><ele>349.0</ele><time>2026-04-22T13:45:03Z</time></trkpt><trkpt lat="45.77175326040493" lon="9.81221302468656"><ele>349.0</ele><time>2026-04-22T13:45:04Z</time></trkpt><trkpt lat="45.77180848800944" lon="9.812257872776565"><ele>349.0</ele><time>2026-04-22T13:45:05Z</time></trkpt><trkpt lat="45.77186374613838" lon="9.812304511101203"><ele>349.0</ele><time>2026-04-22T13:45:06Z</time></trkpt><trkpt lat="45.77196854045049" lon="9.812402591336742"><ele>349.0</ele><time>2026-04-22T13:45:08Z</time></trkpt><trkpt lat="45.77202495206095" lon="9.812450707257096"><ele>349.4</ele><time>2026-04-22T13:45:09Z</time></trkpt><trkpt lat="45.77213383792331" lon="9.812543281432095"><ele>349.79999999999995</ele><time>2026-04-22T13:45:11Z</time></trkpt><trkpt lat="45.7722475002527" lon="9.812631750385593"><ele>350.20000000000005</ele><time>2026-04-22T13:45:13Z</time></trkpt><trkpt lat="45.772299885490426" lon="9.812682290319438"><ele>350.6</ele><time>2026-04-22T13:45:14Z</time></trkpt><trkpt lat="45.772356612444405" lon="9.812726611978318"><ele>351.0</ele><time>2026-04-22T13:45:15Z</time></trkpt><trkpt lat="45.77246549191326" lon="9.812821938427838"><ele>351.0</ele><time>2026-04-22T13:45:17Z</time></trkpt><trkpt lat="45.77252063960903" lon="9.81286714354798"><ele>351.0</ele><time>2026-04-22T13:45:18Z</time></trkpt><trkpt lat="45.772574230304684" lon="9.81291646760536"><ele>351.0</ele><time>2026-04-22T13:45:19Z</time></trkpt><trkpt lat="45.77267637057371" lon="9.813004062532736"><ele>351.0</ele><time>2026-04-22T13:45:21Z</time></trkpt><trkpt lat="45.772774019824254" lon="9.813090220496518"><ele>351.0</ele><time>2026-04-22T13:45:23Z</time></trkpt><trkpt lat="45.77286754656686" lon="9.813163817230025"><ele>351.0</ele><time>2026-04-22T13:45:25Z</time></trkpt><trkpt lat="45.77297301032238" lon="9.813256836415714"><ele>351.0</ele><time>2026-04-22T13:45:27Z</time></trkpt><trkpt lat="45.773082052309235" lon="9.813346637567781"><ele>351.0</ele><time>2026-04-22T13:45:29Z</time></trkpt><trkpt lat="45.77319270951801" lon="9.81344282433381"><ele>351.0</ele><time>2026-04-22T13:45:31Z</time></trkpt><trkpt lat="45.773248950607986" lon="9.813487019743553"><ele>351.0</ele><time>2026-04-22T13:45:32Z</time></trkpt><trkpt lat="45.773303761426824" lon="9.813534271876094"><ele>351.00000000000006</ele><time>2026-04-22T13:45:33Z</time></trkpt><trkpt lat="45.773357702733186" lon="9.813586161801409"><ele>351.0</ele><time>2026-04-22T13:45:34Z</time></trkpt><trkpt lat="45.77341401073017" lon="9.813628830733167"><ele>351.0</ele><time>2026-04-22T13:45:35Z</time></trkpt><trkpt lat="45.77346989593629" lon="9.813674259760633"><ele>351.0</ele><time>2026-04-22T13:45:36Z</time></trkpt><trkpt lat="45.77352786295903" lon="9.813721333804043"><ele>351.0</ele><time>2026-04-22T13:45:37Z</time></trkpt><trkpt lat="45.77358234900431" lon="9.81376817747203"><ele>351.00000000000006</ele><time>2026-04-22T13:45:38Z</time></trkpt><trkpt lat="45.773639535068064" lon="9.813811188433743"><ele>351.0</ele><time>2026-04-22T13:45:39Z</time></trkpt><trkpt lat="45.77369350373588" lon="9.813857808597811"><ele>351.6</ele><time>2026-04-22T13:45:40Z</time></trkpt><trkpt lat="45.773801273737405" lon="9.81395923027831"><ele>352.20000000000005</ele><time>2026-04-22T13:45:42Z</time></trkpt><trkpt lat="45.773907856773434" lon="9.814048563475835"><ele>352.79999999999995</ele><time>2026-04-22T13:45:44Z</time></trkpt><trkpt lat="45.77401462402114" lon="9.81414016836533"><ele>353.4</ele><time>2026-04-22T13:45:46Z</time></trkpt><trkpt lat="45.77406881426164" lon="9.814187578010667"><ele>354.0</ele><time>2026-04-22T13:45:47Z</time></trkpt><trkpt lat="45.7741770707209" lon="9.814280433991987"><ele>353.25</ele><time>2026-04-22T13:45:49Z</time></trkpt><trkpt lat="45.77428229286676" lon="9.814373970997098"><ele>352.5</ele><time>2026-04-22T13:45:51Z</time></trkpt><trkpt lat="45.77438915752912" lon="9.814464462335904"><ele>351.75</ele><time>2026-04-22T13:45:53Z</time></trkpt><trkpt lat="45.774496891626775" lon="9.81455491150399"><ele>351.0</ele><time>2026-04-22T13:45:55Z</time></trkpt><trkpt lat="45.77460451065396" lon="9.81465195487425"><ele>353.0</ele><time>2026-04-22T13:45:57Z</time></trkpt><trkpt lat="45.77465840870896" lon="9.814698685045933"><ele>355.0</ele><time>2026-04-22T13:45:58Z</time></trkpt><trkpt lat="45.77476839448719" lon="9.814793199207104"><ele>357.0</ele><time>2026-04-22T13:46:00Z</time></trkpt><trkpt lat="45.77482496595234" lon="9.814833199632876"><ele>359.0</ele><time>2026-04-22T13:46:01Z</time></trkpt><trkpt lat="45.774880566817636" lon="9.814883905785752"><ele>361.0</ele><time>2026-04-22T13:46:02Z</time></trkpt><trkpt lat="45.77493712131046" lon="9.814933586864894"><ele>363.0</ele><time>2026-04-22T13:46:03Z</time></trkpt><trkpt lat="45.77499772911727" lon="9.814986509630474"><ele>363.0</ele><time>2026-04-22T13:46:04Z</time></trkpt><trkpt lat="45.775107746490136" lon="9.815080670878919"><ele>363.0</ele><time>2026-04-22T13:46:06Z</time></trkpt><trkpt lat="45.77516544908157" lon="9.81512822994592"><ele>363.0</ele><time>2026-04-22T13:46:07Z</time></trkpt><trkpt lat="45.77522328219709" lon="9.815177217415165"><ele>363.0</ele><time>2026-04-22T13:46:08Z</time></trkpt><trkpt lat="45.77533260584743" lon="9.81526817022865"><ele>363.0</ele><time>2026-04-22T13:46:10Z</time></trkpt><trkpt lat="45.775388597408295" lon="9.81532548371327"><ele>362.1666666666667</ele><time>2026-04-22T13:46:11Z</time></trkpt><trkpt lat="45.7754899229394" lon="9.815435186041954"><ele>361.3333333333333</ele><time>2026-04-22T13:46:13Z</time></trkpt><trkpt lat="45.77554844743668" lon="9.815484456405214"><ele>360.5</ele><time>2026-04-22T13:46:14Z</time></trkpt><trkpt lat="45.77559664733328" lon="9.81554389027816"><ele>359.66666666666663</ele><time>2026-04-22T13:46:15Z</time></trkpt><trkpt lat="45.775649900228615" lon="9.815602779476356"><ele>358.8333333333333</ele><time>2026-04-22T13:46:16Z</time></trkpt><trkpt lat="45.775701500250854" lon="9.815655785278514"><ele>358.0</ele><time>2026-04-22T13:46:17Z</time></trkpt><trkpt lat="45.77574916309346" lon="9.815719637716445"><ele>358.0</ele><time>2026-04-22T13:46:18Z</time></trkpt><trkpt lat="45.77580337035637" lon="9.81577372605515"><ele>358.0</ele><time>2026-04-22T13:46:19Z</time></trkpt><trkpt lat="45.775855113526234" lon="9.81582885899736"><ele>358.0</ele><time>2026-04-22T13:46:20Z</time></trkpt><trkpt lat="45.77590232078176" lon="9.815891841750435"><ele>358.0</ele><time>2026-04-22T13:46:21Z</time></trkpt><trkpt lat="45.775958234700255" lon="9.815949678670473"><ele>358.0</ele><time>2026-04-22T13:46:22Z</time></trkpt><trkpt lat="45.77604976853139" lon="9.816066834996933"><ele>358.0</ele><time>2026-04-22T13:46:24Z</time></trkpt><trkpt lat="45.77610163587825" lon="9.816127158716744"><ele>358.3333333333333</ele><time>2026-04-22T13:46:25Z</time></trkpt><trkpt lat="45.77615163042553" lon="9.8161856016316"><ele>358.66666666666663</ele><time>2026-04-22T13:46:26Z</time></trkpt><trkpt lat="45.776200287675714" lon="9.816243914395061"><ele>359.0</ele><time>2026-04-22T13:46:27Z</time></trkpt><trkpt lat="45.776250410044376" lon="9.816305782357446"><ele>359.3333333333333</ele><time>2026-04-22T13:46:28Z</time></trkpt><trkpt lat="45.77634704969759" lon="9.816424347341371"><ele>359.6666666666667</ele><time>2026-04-22T13:46:30Z</time></trkpt><trkpt lat="45.77639523643275" lon="9.81648583226165"><ele>360.0</ele><time>2026-04-22T13:46:31Z</time></trkpt><trkpt lat="45.776443918664505" lon="9.816546336048937"><ele>360.0</ele><time>2026-04-22T13:46:32Z</time></trkpt><trkpt lat="45.776494704415505" lon="9.816605892468553"><ele>360.0</ele><time>2026-04-22T13:46:33Z</time></trkpt><trkpt lat="45.77654331518831" lon="9.816665495084823"><ele>360.0</ele><time>2026-04-22T13:46:34Z</time></trkpt><trkpt lat="45.7765960801157" lon="9.81672364946417"><ele>360.0</ele><time>2026-04-22T13:46:35Z</time></trkpt><trkpt lat="45.77664655367702" lon="9.816783028822735"><ele>360.0</ele><time>2026-04-22T13:46:36Z</time></trkpt><trkpt lat="45.77669340723235" lon="9.816843710949284"><ele>360.0</ele><time>2026-04-22T13:46:37Z</time></trkpt><trkpt lat="45.7767432613445" lon="9.81690315644558"><ele>360.0</ele><time>2026-04-22T13:46:38Z</time></trkpt><trkpt lat="45.776792844087566" lon="9.816963328347398"><ele>360.5</ele><time>2026-04-22T13:46:39Z</time></trkpt><trkpt lat="45.776841355399306" lon="9.817024117289561"><ele>361.0</ele><time>2026-04-22T13:46:40Z</time></trkpt><trkpt lat="45.77693845212273" lon="9.817146110085487"><ele>361.5</ele><time>2026-04-22T13:46:42Z</time></trkpt><trkpt lat="45.77703499421611" lon="9.817264239708333"><ele>362.0</ele><time>2026-04-22T13:46:44Z</time></trkpt><trkpt lat="45.777085303004895" lon="9.817320997460534"><ele>362.5</ele><time>2026-04-22T13:46:45Z</time></trkpt><trkpt lat="45.777135911219155" lon="9.817374705461381"><ele>363.0</ele><time>2026-04-22T13:46:46Z</time></trkpt><trkpt lat="45.77718694719206" lon="9.817433874002464"><ele>363.0</ele><time>2026-04-22T13:46:47Z</time></trkpt><trkpt lat="45.77729165228774" lon="9.817533193936685"><ele>363.0</ele><time>2026-04-22T13:46:49Z</time></trkpt><trkpt lat="45.77734391858215" lon="9.8175851878333"><ele>363.0</ele><time>2026-04-22T13:46:50Z</time></trkpt><trkpt lat="45.77739556471712" lon="9.817637699648532"><ele>363.0</ele><time>2026-04-22T13:46:51Z</time></trkpt><trkpt lat="45.77744946841833" lon="9.817689653136592"><ele>363.0</ele><time>2026-04-22T13:46:52Z</time></trkpt><trkpt lat="45.77750303258399" lon="9.81774197656235"><ele>363.0</ele><time>2026-04-22T13:46:53Z</time></trkpt><trkpt lat="45.77761739550529" lon="9.817810501196181"><ele>362.2</ele><time>2026-04-22T13:46:55Z</time></trkpt><trkpt lat="45.77767768884234" lon="9.81783943532053"><ele>361.4</ele><time>2026-04-22T13:46:56Z</time></trkpt><trkpt lat="45.777736438201835" lon="9.817872105559719"><ele>360.59999999999997</ele><time>2026-04-22T13:46:57Z</time></trkpt><trkpt lat="45.777852006053365" lon="9.817928138594443"><ele>359.79999999999995</ele><time>2026-04-22T13:46:59Z</time></trkpt><trkpt lat="45.77796936692583" lon="9.817976731574195"><ele>359.0</ele><time>2026-04-22T13:47:01Z</time></trkpt><trkpt lat="45.778086301959604" lon="9.818023633353397"><ele>359.0</ele><time>2026-04-22T13:47:03Z</time></trkpt><trkpt lat="45.77820988685675" lon="9.818067517594098"><ele>359.0</ele><time>2026-04-22T13:47:05Z</time></trkpt><trkpt lat="45.77832690403601" lon="9.81812241303489"><ele>359.0</ele><time>2026-04-22T13:47:07Z</time></trkpt><trkpt lat="45.77844059236109" lon="9.818204781781104"><ele>359.0</ele><time>2026-04-22T13:47:09Z</time></trkpt><trkpt lat="45.778551952699274" lon="9.81828909665061"><ele>358.0</ele><time>2026-04-22T13:47:11Z</time></trkpt><trkpt lat="45.7786056389349" lon="9.81834025330612"><ele>357.0</ele><time>2026-04-22T13:47:12Z</time></trkpt><trkpt lat="45.778719284900745" lon="9.818436333395328"><ele>356.0</ele><time>2026-04-22T13:47:14Z</time></trkpt><trkpt lat="45.778774233228134" lon="9.818486462998155"><ele>355.0</ele><time>2026-04-22T13:47:15Z</time></trkpt><trkpt lat="45.7788836320394" lon="9.818582350875472"><ele>354.0</ele><time>2026-04-22T13:47:17Z</time></trkpt><trkpt lat="45.77893795142087" lon="9.818636350031193"><ele>354.0</ele><time>2026-04-22T13:47:18Z</time></trkpt><trkpt lat="45.77899316985244" lon="9.818680308917896"><ele>354.0</ele><time>2026-04-22T13:47:19Z</time></trkpt><trkpt lat="45.77904706777381" lon="9.818730819870343"><ele>354.0</ele><time>2026-04-22T13:47:20Z</time></trkpt><trkpt lat="45.77910235630593" lon="9.818780815436677"><ele>354.0</ele><time>2026-04-22T13:47:21Z</time></trkpt><trkpt lat="45.77915596289269" lon="9.818831308226375"><ele>354.0</ele><time>2026-04-22T13:47:22Z</time></trkpt><trkpt lat="45.779210851847324" lon="9.818876561517701"><ele>354.0</ele><time>2026-04-22T13:47:23Z</time></trkpt><trkpt lat="45.77926344788943" lon="9.818929585703858"><ele>354.0</ele><time>2026-04-22T13:47:24Z</time></trkpt><trkpt lat="45.77932129123927" lon="9.818969649434266"><ele>354.0</ele><time>2026-04-22T13:47:25Z</time></trkpt><trkpt lat="45.7794273990434" lon="9.819068742484614"><ele>354.5714285714286</ele><time>2026-04-22T13:47:27Z</time></trkpt><trkpt lat="45.77948181570746" lon="9.819114785156161"><ele>355.1428571428571</ele><time>2026-04-22T13:47:28Z</time></trkpt><trkpt lat="45.779536503116795" lon="9.819166996754278"><ele>355.7142857142857</ele><time>2026-04-22T13:47:29Z</time></trkpt><trkpt lat="45.77959076056107" lon="9.8192145083705"><ele>356.28571428571433</ele><time>2026-04-22T13:47:30Z</time></trkpt><trkpt lat="45.77964565834323" lon="9.819261918415359"><ele>356.8571428571429</ele><time>2026-04-22T13:47:31Z</time></trkpt><trkpt lat="45.77970164682902" lon="9.819308765412075"><ele>357.42857142857144</ele><time>2026-04-22T13:47:32Z</time></trkpt><trkpt lat="45.77980930956521" lon="9.81940166835883"><ele>358.0</ele><time>2026-04-22T13:47:34Z</time></trkpt><trkpt lat="45.77986755091227" lon="9.819445932842195"><ele>358.00000000000006</ele><time>2026-04-22T13:47:35Z</time></trkpt><trkpt lat="45.77991820822251" lon="9.81950198319273"><ele>358.0</ele><time>2026-04-22T13:47:36Z</time></trkpt><trkpt lat="45.77997674719001" lon="9.819543091237767"><ele>358.0</ele><time>2026-04-22T13:47:37Z</time></trkpt><trkpt lat="45.7800296444671" lon="9.819592876785586"><ele>358.0</ele><time>2026-04-22T13:47:38Z</time></trkpt><trkpt lat="45.780084470889015" lon="9.81963984303055"><ele>358.0</ele><time>2026-04-22T13:47:39Z</time></trkpt><trkpt lat="45.780141759089155" lon="9.819683818351097"><ele>358.00000000000006</ele><time>2026-04-22T13:47:40Z</time></trkpt><trkpt lat="45.78019983786071" lon="9.819726781758261"><ele>358.0</ele><time>2026-04-22T13:47:41Z</time></trkpt><trkpt lat="45.78025594968139" lon="9.819771165934142"><ele>359.16666666666663</ele><time>2026-04-22T13:47:42Z</time></trkpt><trkpt lat="45.78031433127109" lon="9.819814643663559"><ele>360.3333333333333</ele><time>2026-04-22T13:47:43Z</time></trkpt><trkpt lat="45.78037236506148" lon="9.81985593083239"><ele>361.5</ele><time>2026-04-22T13:47:44Z</time></trkpt><trkpt lat="45.780431071504374" lon="9.819901577802437"><ele>362.6666666666667</ele><time>2026-04-22T13:47:45Z</time></trkpt><trkpt lat="45.780545441998825" lon="9.819981854683899"><ele>363.83333333333337</ele><time>2026-04-22T13:47:47Z</time></trkpt><trkpt lat="45.78060533634328" lon="9.82002297081364"><ele>365.0</ele><time>2026-04-22T13:47:48Z</time></trkpt><trkpt lat="45.78071711361363" lon="9.820113554336846"><ele>363.8</ele><time>2026-04-22T13:47:50Z</time></trkpt><trkpt lat="45.78083138046516" lon="9.820195325097863"><ele>362.6</ele><time>2026-04-22T13:47:52Z</time></trkpt><trkpt lat="45.78094358823082" lon="9.820294773517917"><ele>361.4</ele><time>2026-04-22T13:47:54Z</time></trkpt><trkpt lat="45.78104167200264" lon="9.820390831787241"><ele>360.2</ele><time>2026-04-22T13:47:56Z</time></trkpt><trkpt lat="45.78109759466756" lon="9.820442194405105"><ele>359.0</ele><time>2026-04-22T13:47:57Z</time></trkpt><trkpt lat="45.78115383476417" lon="9.820490586883084"><ele>359.0</ele><time>2026-04-22T13:47:58Z</time></trkpt><trkpt lat="45.78120845096802" lon="9.820538344123134"><ele>359.0</ele><time>2026-04-22T13:47:59Z</time></trkpt><trkpt lat="45.781269444642696" lon="9.82058994545162"><ele>359.0</ele><time>2026-04-22T13:48:00Z</time></trkpt><trkpt lat="45.781324337487845" lon="9.82063985321534"><ele>359.0</ele><time>2026-04-22T13:48:01Z</time></trkpt><trkpt lat="45.78138240533504" lon="9.820689565486706"><ele>359.0</ele><time>2026-04-22T13:48:02Z</time></trkpt><trkpt lat="45.78144638918116" lon="9.820743319586422"><ele>359.0</ele><time>2026-04-22T13:48:03Z</time></trkpt><trkpt lat="45.78150942132355" lon="9.820800029197281"><ele>359.0</ele><time>2026-04-22T13:48:04Z</time></trkpt><trkpt lat="45.781575211633935" lon="9.820854977574458"><ele>359.0</ele><time>2026-04-22T13:48:05Z</time></trkpt><trkpt lat="45.78164500163017" lon="9.820909879341945"><ele>359.0</ele><time>2026-04-22T13:48:06Z</time></trkpt><trkpt lat="45.781713988488875" lon="9.820951340792766"><ele>359.0</ele><time>2026-04-22T13:48:07Z</time></trkpt><trkpt lat="45.781794632689426" lon="9.82101573529438"><ele>359.0</ele><time>2026-04-22T13:48:08Z</time></trkpt><trkpt lat="45.78187856368963" lon="9.82108645875532"><ele>359.0</ele><time>2026-04-22T13:48:09Z</time></trkpt><trkpt lat="45.781958471295205" lon="9.821153492569586"><ele>359.0</ele><time>2026-04-22T13:48:10Z</time></trkpt><trkpt lat="45.78204110162508" lon="9.821219245417007"><ele>358.2</ele><time>2026-04-22T13:48:11Z</time></trkpt><trkpt lat="45.78212316112622" lon="9.821283007394443"><ele>357.4</ele><time>2026-04-22T13:48:12Z</time></trkpt><trkpt lat="45.782204911670796" lon="9.821338749719487"><ele>356.6</ele><time>2026-04-22T13:48:13Z</time></trkpt><trkpt lat="45.7821810357618" lon="9.821225371850028"><ele>355.8</ele><time>2026-04-22T13:48:14Z</time></trkpt><trkpt lat="45.7822717517338" lon="9.821242672657732"><ele>355.0</ele><time>2026-04-22T13:48:16Z</time></trkpt><trkpt lat="45.782386607095454" lon="9.821236128828959"><ele>355.0</ele><time>2026-04-22T13:48:18Z</time></trkpt><trkpt lat="45.78250948000471" lon="9.821230515592575"><ele>355.0</ele><time>2026-04-22T13:48:20Z</time></trkpt><trkpt lat="45.78263028818489" lon="9.821223780076327"><ele>355.0</ele><time>2026-04-22T13:48:22Z</time></trkpt><trkpt lat="45.78275254404268" lon="9.82120587500518"><ele>355.0</ele><time>2026-04-22T13:48:24Z</time></trkpt><trkpt lat="45.78282298339031" lon="9.821207966148044"><ele>355.0</ele><time>2026-04-22T13:48:25Z</time></trkpt><trkpt lat="45.782887852076584" lon="9.821205860449385"><ele>355.8</ele><time>2026-04-22T13:48:26Z</time></trkpt><trkpt lat="45.782953755288595" lon="9.821194741074127"><ele>356.6</ele><time>2026-04-22T13:48:27Z</time></trkpt><trkpt lat="45.7830855169564" lon="9.821185591298804"><ele>357.4</ele><time>2026-04-22T13:48:29Z</time></trkpt><trkpt lat="45.78321247709666" lon="9.821190098576864"><ele>358.2</ele><time>2026-04-22T13:48:31Z</time></trkpt><trkpt lat="45.78327663883823" lon="9.821191935619789"><ele>359.0</ele><time>2026-04-22T13:48:32Z</time></trkpt><trkpt lat="45.783401107124796" lon="9.82120714466591"><ele>359.0</ele><time>2026-04-22T13:48:34Z</time></trkpt><trkpt lat="45.78346544900351" lon="9.821215258136398"><ele>359.0</ele><time>2026-04-22T13:48:35Z</time></trkpt><trkpt lat="45.78358695794356" lon="9.821228974012614"><ele>359.0</ele><time>2026-04-22T13:48:37Z</time></trkpt><trkpt lat="45.783708186700885" lon="9.821233291518613"><ele>359.0</ele><time>2026-04-22T13:48:39Z</time></trkpt><trkpt lat="45.78377449638877" lon="9.821244702043554"><ele>359.0</ele><time>2026-04-22T13:48:40Z</time></trkpt><trkpt lat="45.783897585113834" lon="9.821275248101072"><ele>359.2</ele><time>2026-04-22T13:48:42Z</time></trkpt><trkpt lat="45.783960026799484" lon="9.821295281172826"><ele>359.4</ele><time>2026-04-22T13:48:43Z</time></trkpt><trkpt lat="45.784068925638124" lon="9.821350604071158"><ele>359.6</ele><time>2026-04-22T13:48:45Z</time></trkpt><trkpt lat="45.78419969641344" lon="9.821386236022505"><ele>359.8</ele><time>2026-04-22T13:48:47Z</time></trkpt><trkpt lat="45.78432026626754" lon="9.821431661926015"><ele>360.0</ele><time>2026-04-22T13:48:49Z</time></trkpt><trkpt lat="45.78438436198346" lon="9.82145134017098"><ele>360.6666666666667</ele><time>2026-04-22T13:48:50Z</time></trkpt><trkpt lat="45.78444573507968" lon="9.82147340711341"><ele>361.3333333333333</ele><time>2026-04-22T13:48:51Z</time></trkpt><trkpt lat="45.78450912128578" lon="9.821497944090655"><ele>362.0</ele><time>2026-04-22T13:48:52Z</time></trkpt><trkpt lat="45.784571019427624" lon="9.821518724658604"><ele>362.66666666666663</ele><time>2026-04-22T13:48:53Z</time></trkpt><trkpt lat="45.78469373517742" lon="9.821565497913202"><ele>363.3333333333333</ele><time>2026-04-22T13:48:55Z</time></trkpt><trkpt lat="45.78481744488734" lon="9.821607599139202"><ele>364.0</ele><time>2026-04-22T13:48:57Z</time></trkpt><trkpt lat="45.78487849315809" lon="9.821632216222111"><ele>364.0</ele><time>2026-04-22T13:48:58Z</time></trkpt><trkpt lat="45.784941041846174" lon="9.82165328155337"><ele>364.0</ele><time>2026-04-22T13:48:59Z</time></trkpt><trkpt lat="45.78500496694944" lon="9.821674098560926"><ele>364.0</ele><time>2026-04-22T13:49:00Z</time></trkpt><trkpt lat="45.78506644235504" lon="9.821695865191076"><ele>364.0</ele><time>2026-04-22T13:49:01Z</time></trkpt><trkpt lat="45.78513066259649" lon="9.821716523477283"><ele>364.0</ele><time>2026-04-22T13:49:02Z</time></trkpt><trkpt lat="45.78519287760134" lon="9.821736166735027"><ele>364.0</ele><time>2026-04-22T13:49:03Z</time></trkpt><trkpt lat="45.785255653920956" lon="9.821755454689903"><ele>364.0</ele><time>2026-04-22T13:49:04Z</time></trkpt><trkpt lat="45.78531769552411" lon="9.821777373592727"><ele>363.57142857142856</ele><time>2026-04-22T13:49:05Z</time></trkpt><trkpt lat="45.7853784911843" lon="9.82180176011301"><ele>363.1428571428571</ele><time>2026-04-22T13:49:06Z</time></trkpt><trkpt lat="45.785441972267826" lon="9.821820777752457"><ele>362.7142857142857</ele><time>2026-04-22T13:49:07Z</time></trkpt><trkpt lat="45.7855038447319" lon="9.821842793866914"><ele>362.2857142857143</ele><time>2026-04-22T13:49:08Z</time></trkpt><trkpt lat="45.78556490556469" lon="9.821866855963004"><ele>361.85714285714283</ele><time>2026-04-22T13:49:09Z</time></trkpt><trkpt lat="45.785628686760084" lon="9.821893164692863"><ele>361.42857142857144</ele><time>2026-04-22T13:49:10Z</time></trkpt><trkpt lat="45.78568889150564" lon="9.821919888606235"><ele>361.0</ele><time>2026-04-22T13:49:11Z</time></trkpt><trkpt lat="45.785754493176654" lon="9.821954972263399"><ele>361.0</ele><time>2026-04-22T13:49:12Z</time></trkpt><trkpt lat="45.78581498306676" lon="9.821980571226332"><ele>361.0</ele><time>2026-04-22T13:49:13Z</time></trkpt><trkpt lat="45.78593190542904" lon="9.822052794890359"><ele>361.0</ele><time>2026-04-22T13:49:15Z</time></trkpt><trkpt lat="45.78599188825821" lon="9.822087227414146"><ele>361.0</ele><time>2026-04-22T13:49:16Z</time></trkpt><trkpt lat="45.78605453481057" lon="9.822126469649366"><ele>361.0</ele><time>2026-04-22T13:49:17Z</time></trkpt><trkpt lat="45.78617159144064" lon="9.822196874739237"><ele>362.5</ele><time>2026-04-22T13:49:19Z</time></trkpt><trkpt lat="45.786237741853235" lon="9.822228119863043"><ele>364.0</ele><time>2026-04-22T13:49:20Z</time></trkpt><trkpt lat="45.78635967235988" lon="9.822311323342662"><ele>365.5</ele><time>2026-04-22T13:49:22Z</time></trkpt><trkpt lat="45.786475253203434" lon="9.822388774429601"><ele>367.0</ele><time>2026-04-22T13:49:24Z</time></trkpt><trkpt lat="45.7865968621737" lon="9.822466481898486"><ele>367.0</ele><time>2026-04-22T13:49:26Z</time></trkpt><trkpt lat="45.78670926224981" lon="9.822550027279034"><ele>367.0</ele><time>2026-04-22T13:49:28Z</time></trkpt><trkpt lat="45.78676875531493" lon="9.822591269040647"><ele>367.0</ele><time>2026-04-22T13:49:29Z</time></trkpt><trkpt lat="45.786826684065" lon="9.822634442523722"><ele>367.0</ele><time>2026-04-22T13:49:30Z</time></trkpt><trkpt lat="45.78688372283714" lon="9.822684736379806"><ele>367.0</ele><time>2026-04-22T13:49:31Z</time></trkpt><trkpt lat="45.78693939015866" lon="9.822727637229018"><ele>367.0</ele><time>2026-04-22T13:49:32Z</time></trkpt><trkpt lat="45.78699603616721" lon="9.822774154837948"><ele>366.4285714285714</ele><time>2026-04-22T13:49:33Z</time></trkpt><trkpt lat="45.787053220489234" lon="9.822828123037118"><ele>365.8571428571429</ele><time>2026-04-22T13:49:34Z</time></trkpt><trkpt lat="45.78710478154466" lon="9.822882979839697"><ele>365.2857142857143</ele><time>2026-04-22T13:49:35Z</time></trkpt><trkpt lat="45.78715953013373" lon="9.822938573218897"><ele>364.71428571428567</ele><time>2026-04-22T13:49:36Z</time></trkpt><trkpt lat="45.78721234948252" lon="9.822996064265611"><ele>364.1428571428571</ele><time>2026-04-22T13:49:37Z</time></trkpt><trkpt lat="45.787264111448415" lon="9.823053876003666"><ele>363.57142857142856</ele><time>2026-04-22T13:49:38Z</time></trkpt><trkpt lat="45.78731591381572" lon="9.823115699506689"><ele>363.0</ele><time>2026-04-22T13:49:39Z</time></trkpt><trkpt lat="45.78736143450631" lon="9.823180116121044"><ele>362.99999999999994</ele><time>2026-04-22T13:49:40Z</time></trkpt><trkpt lat="45.787411034884975" lon="9.823246137512616"><ele>363.0</ele><time>2026-04-22T13:49:41Z</time></trkpt><trkpt lat="45.7874594755453" lon="9.823311657121103"><ele>363.0</ele><time>2026-04-22T13:49:42Z</time></trkpt><trkpt lat="45.78750566160141" lon="9.823379393694605"><ele>363.0</ele><time>2026-04-22T13:49:43Z</time></trkpt><trkpt lat="45.787552396972046" lon="9.823448138911626"><ele>363.0</ele><time>2026-04-22T13:49:44Z</time></trkpt><trkpt lat="45.78759616065614" lon="9.823521429194745"><ele>362.99999999999994</ele><time>2026-04-22T13:49:45Z</time></trkpt><trkpt lat="45.78763804999237" lon="9.823590001702547"><ele>363.0</ele><time>2026-04-22T13:49:46Z</time></trkpt><trkpt lat="45.787682059106174" lon="9.823660730127667"><ele>363.2857142857143</ele><time>2026-04-22T13:49:47Z</time></trkpt><trkpt lat="45.78772480347467" lon="9.823736324284146"><ele>363.57142857142856</ele><time>2026-04-22T13:49:48Z</time></trkpt><trkpt lat="45.78776813900262" lon="9.82380769541142"><ele>363.8571428571429</ele><time>2026-04-22T13:49:49Z</time></trkpt><trkpt lat="45.78780333906879" lon="9.82388426216306"><ele>364.1428571428571</ele><time>2026-04-22T13:49:50Z</time></trkpt><trkpt lat="45.78784358282615" lon="9.823958168016025"><ele>364.42857142857144</ele><time>2026-04-22T13:49:51Z</time></trkpt><trkpt lat="45.78788419164649" lon="9.82403258210464"><ele>364.7142857142857</ele><time>2026-04-22T13:49:52Z</time></trkpt><trkpt lat="45.78792536581316" lon="9.82410914683585"><ele>365.0</ele><time>2026-04-22T13:49:53Z</time></trkpt><trkpt lat="45.787968926104725" lon="9.824180630606412"><ele>365.00000000000006</ele><time>2026-04-22T13:49:54Z</time></trkpt><trkpt lat="45.78800777646496" lon="9.824258093973283"><ele>365.0</ele><time>2026-04-22T13:49:55Z</time></trkpt><trkpt lat="45.78804523365422" lon="9.824332029008694"><ele>365.0</ele><time>2026-04-22T13:49:56Z</time></trkpt><trkpt lat="45.78808612483052" lon="9.82440973135954"><ele>365.0</ele><time>2026-04-22T13:49:57Z</time></trkpt><trkpt lat="45.78812482511095" lon="9.82448529478425"><ele>365.0</ele><time>2026-04-22T13:49:58Z</time></trkpt><trkpt lat="45.788165364511535" lon="9.824562169741357"><ele>365.00000000000006</ele><time>2026-04-22T13:49:59Z</time></trkpt><trkpt lat="45.788205125180305" lon="9.824635787970026"><ele>365.0</ele><time>2026-04-22T13:50:00Z</time></trkpt><trkpt lat="45.78824572928967" lon="9.824712715916826"><ele>365.0</ele><time>2026-04-22T13:50:01Z</time></trkpt><trkpt lat="45.78828547394693" lon="9.824789493526373"><ele>365.0</ele><time>2026-04-22T13:50:02Z</time></trkpt><trkpt lat="45.78832540406252" lon="9.82486182510306"><ele>365.0</ele><time>2026-04-22T13:50:03Z</time></trkpt><trkpt lat="45.78836607989882" lon="9.824938977782347"><ele>365.0</ele><time>2026-04-22T13:50:04Z</time></trkpt><trkpt lat="45.788405336289124" lon="9.825012481750965"><ele>365.0</ele><time>2026-04-22T13:50:05Z</time></trkpt><trkpt lat="45.78848275195105" lon="9.825156396169831"><ele>365.0</ele><time>2026-04-22T13:50:07Z</time></trkpt><trkpt lat="45.78852177614556" lon="9.825230645307256"><ele>365.0</ele><time>2026-04-22T13:50:08Z</time></trkpt><trkpt lat="45.788596160863506" lon="9.825374354662772"><ele>365.0</ele><time>2026-04-22T13:50:10Z</time></trkpt><trkpt lat="45.78863519832855" lon="9.825446461255886"><ele>365.0</ele><time>2026-04-22T13:50:11Z</time></trkpt><trkpt lat="45.788671825136426" lon="9.825520056441835"><ele>365.0</ele><time>2026-04-22T13:50:12Z</time></trkpt><trkpt lat="45.78871031863106" lon="9.825593748868034"><ele>365.0</ele><time>2026-04-22T13:50:13Z</time></trkpt><trkpt lat="45.78878772232744" lon="9.8257367699993"><ele>365.0</ele><time>2026-04-22T13:50:15Z</time></trkpt><trkpt lat="45.78882851929271" lon="9.825807357564978"><ele>365.0</ele><time>2026-04-22T13:50:16Z</time></trkpt><trkpt lat="45.78886451487294" lon="9.825882718296114"><ele>365.0</ele><time>2026-04-22T13:50:17Z</time></trkpt><trkpt lat="45.78890424498457" lon="9.82595545646637"><ele>365.0</ele><time>2026-04-22T13:50:18Z</time></trkpt><trkpt lat="45.788942606965044" lon="9.826029690741558"><ele>365.0</ele><time>2026-04-22T13:50:19Z</time></trkpt><trkpt lat="45.78898065445922" lon="9.82610531734338"><ele>365.0</ele><time>2026-04-22T13:50:20Z</time></trkpt><trkpt lat="45.789057372306225" lon="9.826249337430996"><ele>365.0</ele><time>2026-04-22T13:50:22Z</time></trkpt><trkpt lat="45.78913264865433" lon="9.826393675482167"><ele>365.2</ele><time>2026-04-22T13:50:24Z</time></trkpt><trkpt lat="45.789172793190424" lon="9.826463674824849"><ele>365.4</ele><time>2026-04-22T13:50:25Z</time></trkpt><trkpt lat="45.78924350537426" lon="9.82661064713795"><ele>365.6</ele><time>2026-04-22T13:50:27Z</time></trkpt><trkpt lat="45.789288241174795" lon="9.826679404018996"><ele>365.8</ele><time>2026-04-22T13:50:28Z</time></trkpt><trkpt lat="45.789360642017996" lon="9.826822508958456"><ele>366.0</ele><time>2026-04-22T13:50:30Z</time></trkpt><trkpt lat="45.789435881205115" lon="9.826964100242702"><ele>366.0</ele><time>2026-04-22T13:50:32Z</time></trkpt><trkpt lat="45.78947415565774" lon="9.827036123212816"><ele>366.0</ele><time>2026-04-22T13:50:33Z</time></trkpt><trkpt lat="45.78951385929046" lon="9.827108669561134"><ele>366.0</ele><time>2026-04-22T13:50:34Z</time></trkpt><trkpt lat="45.78958795059469" lon="9.827246655151397"><ele>366.0</ele><time>2026-04-22T13:50:36Z</time></trkpt><trkpt lat="45.78965763700848" lon="9.827393757548272"><ele>366.0</ele><time>2026-04-22T13:50:38Z</time></trkpt><trkpt lat="45.78969323248148" lon="9.827468823660098"><ele>366.0</ele><time>2026-04-22T13:50:39Z</time></trkpt><trkpt lat="45.78976592731825" lon="9.827612395150467"><ele>366.0</ele><time>2026-04-22T13:50:41Z</time></trkpt><trkpt lat="45.789839103070285" lon="9.827756287490248"><ele>366.0</ele><time>2026-04-22T13:50:43Z</time></trkpt><trkpt lat="45.7898757823797" lon="9.827832153647652"><ele>366.0</ele><time>2026-04-22T13:50:44Z</time></trkpt><trkpt lat="45.78995204831296" lon="9.827975727955868"><ele>366.0</ele><time>2026-04-22T13:50:46Z</time></trkpt><trkpt lat="45.79002129855201" lon="9.828119917590165"><ele>366.0</ele><time>2026-04-22T13:50:48Z</time></trkpt><trkpt lat="45.79009379205613" lon="9.828260340759103"><ele>366.0</ele><time>2026-04-22T13:50:50Z</time></trkpt><trkpt lat="45.79013112523338" lon="9.828333282999626"><ele>366.0</ele><time>2026-04-22T13:50:51Z</time></trkpt><trkpt lat="45.79020413605154" lon="9.828484382830863"><ele>366.0</ele><time>2026-04-22T13:50:53Z</time></trkpt><trkpt lat="45.790276560433924" lon="9.828630811600997"><ele>366.0</ele><time>2026-04-22T13:50:55Z</time></trkpt><trkpt lat="45.79031118383774" lon="9.828707494570168"><ele>366.0</ele><time>2026-04-22T13:50:56Z</time></trkpt><trkpt lat="45.79038330789853" lon="9.828852945112109"><ele>366.1666666666667</ele><time>2026-04-22T13:50:58Z</time></trkpt><trkpt lat="45.79041991706302" lon="9.828926871193328"><ele>366.3333333333333</ele><time>2026-04-22T13:50:59Z</time></trkpt><trkpt lat="45.790458479209896" lon="9.82900390452568"><ele>366.5</ele><time>2026-04-22T13:51:00Z</time></trkpt><trkpt lat="45.790531944304384" lon="9.82915318160687"><ele>366.66666666666663</ele><time>2026-04-22T13:51:02Z</time></trkpt><trkpt lat="45.79057006239121" lon="9.82922851900791"><ele>366.8333333333333</ele><time>2026-04-22T13:51:03Z</time></trkpt><trkpt lat="45.79060719882856" lon="9.829302561719745"><ele>367.0</ele><time>2026-04-22T13:51:04Z</time></trkpt><trkpt lat="45.790644537130746" lon="9.82937960457167"><ele>367.0</ele><time>2026-04-22T13:51:05Z</time></trkpt><trkpt lat="45.79068223033303" lon="9.829453240812624"><ele>367.0</ele><time>2026-04-22T13:51:06Z</time></trkpt><trkpt lat="45.790721335445234" lon="9.829531240021694"><ele>367.0</ele><time>2026-04-22T13:51:07Z</time></trkpt><trkpt lat="45.790799296888615" lon="9.829679123378003"><ele>367.0</ele><time>2026-04-22T13:51:09Z</time></trkpt><trkpt lat="45.79083683731496" lon="9.829753821366683"><ele>367.0</ele><time>2026-04-22T13:51:10Z</time></trkpt><trkpt lat="45.79087097315845" lon="9.82983066874563"><ele>367.0</ele><time>2026-04-22T13:51:11Z</time></trkpt><trkpt lat="45.790910014047775" lon="9.829905656473084"><ele>367.0</ele><time>2026-04-22T13:51:12Z</time></trkpt><trkpt lat="45.790946050185404" lon="9.8299814121504"><ele>367.0</ele><time>2026-04-22T13:51:13Z</time></trkpt><trkpt lat="45.790982860149235" lon="9.830055168571151"><ele>367.0</ele><time>2026-04-22T13:51:14Z</time></trkpt><trkpt lat="45.791023373731946" lon="9.830130617839194"><ele>367.0</ele><time>2026-04-22T13:51:15Z</time></trkpt><trkpt lat="45.791063910735" lon="9.830200155149054"><ele>367.0</ele><time>2026-04-22T13:51:16Z</time></trkpt><trkpt lat="45.79109978172077" lon="9.830274981978613"><ele>367.0</ele><time>2026-04-22T13:51:17Z</time></trkpt><trkpt lat="45.791138807132654" lon="9.830346947253386"><ele>367.0</ele><time>2026-04-22T13:51:18Z</time></trkpt><trkpt lat="45.791176527262074" lon="9.830419796104627"><ele>367.0</ele><time>2026-04-22T13:51:19Z</time></trkpt><trkpt lat="45.79121349970171" lon="9.830493344158773"><ele>366.8333333333333</ele><time>2026-04-22T13:51:20Z</time></trkpt><trkpt lat="45.79125152387937" lon="9.830565440692451"><ele>366.66666666666663</ele><time>2026-04-22T13:51:21Z</time></trkpt><trkpt lat="45.791293818116884" lon="9.830636456419542"><ele>366.5</ele><time>2026-04-22T13:51:22Z</time></trkpt><trkpt lat="45.79133463228033" lon="9.830708985862804"><ele>366.3333333333333</ele><time>2026-04-22T13:51:23Z</time></trkpt><trkpt lat="45.79141922558098" lon="9.83084785204558"><ele>366.1666666666667</ele><time>2026-04-22T13:51:25Z</time></trkpt><trkpt lat="45.791461971874995" lon="9.830916134050977"><ele>366.0</ele><time>2026-04-22T13:51:26Z</time></trkpt><trkpt lat="45.79150623191042" lon="9.830985139171968"><ele>365.8571428571429</ele><time>2026-04-22T13:51:27Z</time></trkpt><trkpt lat="45.791553103210525" lon="9.831052856581175"><ele>365.7142857142857</ele><time>2026-04-22T13:51:28Z</time></trkpt><trkpt lat="45.791599156165226" lon="9.831119185682127"><ele>365.57142857142856</ele><time>2026-04-22T13:51:29Z</time></trkpt><trkpt lat="45.79164397123064" lon="9.831186204793385"><ele>365.42857142857144</ele><time>2026-04-22T13:51:30Z</time></trkpt><trkpt lat="45.79168870216945" lon="9.831249965836587"><ele>365.2857142857143</ele><time>2026-04-22T13:51:31Z</time></trkpt><trkpt lat="45.79173774558052" lon="9.831316392933994"><ele>365.14285714285717</ele><time>2026-04-22T13:51:32Z</time></trkpt><trkpt lat="45.79178405877443" lon="9.831382879319994"><ele>365.0</ele><time>2026-04-22T13:51:33Z</time></trkpt><trkpt lat="45.79183648576832" lon="9.83144631120546"><ele>365.42857142857144</ele><time>2026-04-22T13:51:34Z</time></trkpt><trkpt lat="45.791881271801394" lon="9.83151082273627"><ele>365.8571428571429</ele><time>2026-04-22T13:51:35Z</time></trkpt><trkpt lat="45.79193422465933" lon="9.831569079912384"><ele>366.28571428571433</ele><time>2026-04-22T13:51:36Z</time></trkpt><trkpt lat="45.791983431401874" lon="9.831628352748252"><ele>366.7142857142857</ele><time>2026-04-22T13:51:37Z</time></trkpt><trkpt lat="45.79203346867848" lon="9.831688933132027"><ele>367.1428571428571</ele><time>2026-04-22T13:51:38Z</time></trkpt><trkpt lat="45.79208359848564" lon="9.831750787556853"><ele>367.5714285714286</ele><time>2026-04-22T13:51:39Z</time></trkpt><trkpt lat="45.7921365379552" lon="9.831807776435204"><ele>368.0</ele><time>2026-04-22T13:51:40Z</time></trkpt><trkpt lat="45.792192102016976" lon="9.831858642150122"><ele>368.1666666666667</ele><time>2026-04-22T13:51:41Z</time></trkpt><trkpt lat="45.79224811132748" lon="9.831903836548076"><ele>368.33333333333337</ele><time>2026-04-22T13:51:42Z</time></trkpt><trkpt lat="45.79230777914214" lon="9.831957552444553"><ele>368.5</ele><time>2026-04-22T13:51:43Z</time></trkpt><trkpt lat="45.792416890806834" lon="9.832052361258656"><ele>368.6666666666667</ele><time>2026-04-22T13:51:45Z</time></trkpt><trkpt lat="45.79247279938298" lon="9.832099423127577"><ele>368.8333333333333</ele><time>2026-04-22T13:51:46Z</time></trkpt><trkpt lat="45.7925285256058" lon="9.832147317596938"><ele>369.0</ele><time>2026-04-22T13:51:47Z</time></trkpt><trkpt lat="45.792584306811634" lon="9.83219978971652"><ele>369.0</ele><time>2026-04-22T13:51:48Z</time></trkpt><trkpt lat="45.79263592323464" lon="9.832251931253955"><ele>369.0</ele><time>2026-04-22T13:51:49Z</time></trkpt><trkpt lat="45.79269089907714" lon="9.832305865530344"><ele>369.0</ele><time>2026-04-22T13:51:50Z</time></trkpt><trkpt lat="45.79274145800336" lon="9.832362154521295"><ele>369.0</ele><time>2026-04-22T13:51:51Z</time></trkpt><trkpt lat="45.79279212953083" lon="9.832418897535208"><ele>369.0</ele><time>2026-04-22T13:51:52Z</time></trkpt><trkpt lat="45.792848265577625" lon="9.832471389127003"><ele>369.0</ele><time>2026-04-22T13:51:53Z</time></trkpt><trkpt lat="45.7929444590619" lon="9.832591373737822"><ele>369.3333333333333</ele><time>2026-04-22T13:51:55Z</time></trkpt><trkpt lat="45.7929906807109" lon="9.832653082797014"><ele>369.6666666666667</ele><time>2026-04-22T13:51:56Z</time></trkpt><trkpt lat="45.79304006158783" lon="9.832714424692217"><ele>370.0</ele><time>2026-04-22T13:51:57Z</time></trkpt><trkpt lat="45.79308496669823" lon="9.832783162758705"><ele>370.33333333333337</ele><time>2026-04-22T13:51:58Z</time></trkpt><trkpt lat="45.79313090936577" lon="9.832844976958338"><ele>370.6666666666667</ele><time>2026-04-22T13:51:59Z</time></trkpt><trkpt lat="45.79317714535156" lon="9.832913701937164"><ele>371.0</ele><time>2026-04-22T13:52:00Z</time></trkpt><trkpt lat="45.793259711418905" lon="9.833050299033973"><ele>371.0</ele><time>2026-04-22T13:52:02Z</time></trkpt><trkpt lat="45.79330099737186" lon="9.833126025220393"><ele>371.0</ele><time>2026-04-22T13:52:03Z</time></trkpt><trkpt lat="45.793376366882754" lon="9.83327224438929"><ele>371.0</ele><time>2026-04-22T13:52:05Z</time></trkpt><trkpt lat="45.79345408587306" lon="9.833416248752664"><ele>371.0</ele><time>2026-04-22T13:52:07Z</time></trkpt><trkpt lat="45.79352857996958" lon="9.833560844672359"><ele>371.0</ele><time>2026-04-22T13:52:09Z</time></trkpt><trkpt lat="45.79359975615592" lon="9.833706105176823"><ele>371.4</ele><time>2026-04-22T13:52:11Z</time></trkpt><trkpt lat="45.79363548993098" lon="9.83378420249462"><ele>371.8</ele><time>2026-04-22T13:52:12Z</time></trkpt><trkpt lat="45.79370374093338" lon="9.83393233534755"><ele>372.2</ele><time>2026-04-22T13:52:14Z</time></trkpt><trkpt lat="45.793766970535266" lon="9.834080742566764"><ele>372.59999999999997</ele><time>2026-04-22T13:52:16Z</time></trkpt><trkpt lat="45.793801984333754" lon="9.834156726222366"><ele>373.0</ele><time>2026-04-22T13:52:17Z</time></trkpt><trkpt lat="45.793871401789204" lon="9.834303026807026"><ele>373.2</ele><time>2026-04-22T13:52:19Z</time></trkpt><trkpt lat="45.79393533410723" lon="9.834453231703277"><ele>373.4</ele><time>2026-04-22T13:52:21Z</time></trkpt><trkpt lat="45.79396364435052" lon="9.83453421011638"><ele>373.59999999999997</ele><time>2026-04-22T13:52:22Z</time></trkpt><trkpt lat="45.79402883209033" lon="9.834683387581894"><ele>373.79999999999995</ele><time>2026-04-22T13:52:24Z</time></trkpt><trkpt lat="45.79409013021973" lon="9.834832224414892"><ele>374.0</ele><time>2026-04-22T13:52:26Z</time></trkpt><trkpt lat="45.79412711003686" lon="9.834906445776435"><ele>374.0</ele><time>2026-04-22T13:52:27Z</time></trkpt><trkpt lat="45.794187749826364" lon="9.835059123518908"><ele>374.0</ele><time>2026-04-22T13:52:29Z</time></trkpt><trkpt lat="45.79426129262416" lon="9.835205019382155"><ele>374.0</ele><time>2026-04-22T13:52:31Z</time></trkpt><trkpt lat="45.794294937219725" lon="9.83536431537706"><ele>374.0</ele><time>2026-04-22T13:52:33Z</time></trkpt><trkpt lat="45.794331217754134" lon="9.835450424210801"><ele>374.0</ele><time>2026-04-22T13:52:34Z</time></trkpt><trkpt lat="45.79441004954472" lon="9.835587341100496"><ele>374.25</ele><time>2026-04-22T13:52:36Z</time></trkpt><trkpt lat="45.794471605974564" lon="9.835738069205192"><ele>374.5</ele><time>2026-04-22T13:52:38Z</time></trkpt><trkpt lat="45.794536075828425" lon="9.835889182313792"><ele>374.75</ele><time>2026-04-22T13:52:40Z</time></trkpt><trkpt lat="45.79459329217128" lon="9.836041998644793"><ele>375.0</ele><time>2026-04-22T13:52:42Z</time></trkpt><trkpt lat="45.79465556944505" lon="9.836195969702679"><ele>375.0</ele><time>2026-04-22T13:52:44Z</time></trkpt><trkpt lat="45.79470972191122" lon="9.836354133879372"><ele>375.0</ele><time>2026-04-22T13:52:46Z</time></trkpt><trkpt lat="45.794761980844086" lon="9.836513470733628"><ele>375.0</ele><time>2026-04-22T13:52:48Z</time></trkpt><trkpt lat="45.7947865377366" lon="9.836597784138723"><ele>375.0</ele><time>2026-04-22T13:52:49Z</time></trkpt><trkpt lat="45.79483304225235" lon="9.836766358934641"><ele>375.0</ele><time>2026-04-22T13:52:51Z</time></trkpt><trkpt lat="45.79486094405344" lon="9.836850697071787"><ele>374.8333333333333</ele><time>2026-04-22T13:52:52Z</time></trkpt><trkpt lat="45.79487754257881" lon="9.8369410922058"><ele>374.6666666666667</ele><time>2026-04-22T13:52:53Z</time></trkpt><trkpt lat="45.794900577231" lon="9.83702553962039"><ele>374.5</ele><time>2026-04-22T13:52:54Z</time></trkpt><trkpt lat="45.794919896224506" lon="9.837114435573342"><ele>374.33333333333337</ele><time>2026-04-22T13:52:55Z</time></trkpt><trkpt lat="45.79493923923875" lon="9.83720250747007"><ele>374.1666666666667</ele><time>2026-04-22T13:52:56Z</time></trkpt><trkpt lat="45.79495552880388" lon="9.837290056140954"><ele>374.0</ele><time>2026-04-22T13:52:57Z</time></trkpt><trkpt lat="45.79498688334654" lon="9.83747053235369"><ele>374.0</ele><time>2026-04-22T13:52:59Z</time></trkpt><trkpt lat="45.7950059929767" lon="9.837559269358607"><ele>374.0</ele><time>2026-04-22T13:53:00Z</time></trkpt><trkpt lat="45.79503001604608" lon="9.837739360413543"><ele>374.0</ele><time>2026-04-22T13:53:02Z</time></trkpt><trkpt lat="45.795040886974334" lon="9.837829284147773"><ele>374.0</ele><time>2026-04-22T13:53:03Z</time></trkpt><trkpt lat="45.795051078242416" lon="9.83792084024992"><ele>374.0</ele><time>2026-04-22T13:53:04Z</time></trkpt><trkpt lat="45.795060124084905" lon="9.838010218693482"><ele>374.0</ele><time>2026-04-22T13:53:05Z</time></trkpt><trkpt lat="45.7950709556552" lon="9.838099780749817"><ele>374.0</ele><time>2026-04-22T13:53:06Z</time></trkpt><trkpt lat="45.795079650319046" lon="9.83819072017064"><ele>374.0</ele><time>2026-04-22T13:53:07Z</time></trkpt><trkpt lat="45.795091416390804" lon="9.838280684314466"><ele>374.0</ele><time>2026-04-22T13:53:08Z</time></trkpt><trkpt lat="45.79510082373172" lon="9.838372024709322"><ele>374.0</ele><time>2026-04-22T13:53:09Z</time></trkpt><trkpt lat="45.79511210152692" lon="9.838463634376996"><ele>374.0</ele><time>2026-04-22T13:53:10Z</time></trkpt><trkpt lat="45.79511805362428" lon="9.838553686711316"><ele>374.0</ele><time>2026-04-22T13:53:11Z</time></trkpt><trkpt lat="45.79513004367594" lon="9.838649748351587"><ele>374.0</ele><time>2026-04-22T13:53:12Z</time></trkpt><trkpt lat="45.79513539070098" lon="9.838741401256945"><ele>374.0</ele><time>2026-04-22T13:53:13Z</time></trkpt><trkpt lat="45.79515802834541" lon="9.838922836590788"><ele>374.0</ele><time>2026-04-22T13:53:15Z</time></trkpt><trkpt lat="45.79516713649337" lon="9.839015236679115"><ele>374.0</ele><time>2026-04-22T13:53:16Z</time></trkpt><trkpt lat="45.79518913946414" lon="9.839196548196915"><ele>374.0</ele><time>2026-04-22T13:53:18Z</time></trkpt><trkpt lat="45.79519998173999" lon="9.839287246371704"><ele>374.0</ele><time>2026-04-22T13:53:19Z</time></trkpt><trkpt lat="45.79522028649311" lon="9.839467937208125"><ele>374.0</ele><time>2026-04-22T13:53:21Z</time></trkpt><trkpt lat="45.79524650711073" lon="9.839642947394603"><ele>374.5</ele><time>2026-04-22T13:53:23Z</time></trkpt><trkpt lat="45.79525154157777" lon="9.839734768774642"><ele>375.0</ele><time>2026-04-22T13:53:24Z</time></trkpt><trkpt lat="45.795263003014036" lon="9.839826742194184"><ele>375.5</ele><time>2026-04-22T13:53:25Z</time></trkpt><trkpt lat="45.795282581848944" lon="9.840007524871726"><ele>376.0</ele><time>2026-04-22T13:53:27Z</time></trkpt><trkpt lat="45.795295926791965" lon="9.840097224172606"><ele>376.5</ele><time>2026-04-22T13:53:28Z</time></trkpt><trkpt lat="45.79530224831002" lon="9.840189821681328"><ele>377.0</ele><time>2026-04-22T13:53:29Z</time></trkpt><trkpt lat="45.79532668591503" lon="9.840365780228732"><ele>377.0</ele><time>2026-04-22T13:53:31Z</time></trkpt><trkpt lat="45.79533799394195" lon="9.840456349465708"><ele>377.0</ele><time>2026-04-22T13:53:32Z</time></trkpt><trkpt lat="45.795351145594545" lon="9.840550711668124"><ele>377.0</ele><time>2026-04-22T13:53:33Z</time></trkpt><trkpt lat="45.79536908760215" lon="9.840641206365857"><ele>377.0</ele><time>2026-04-22T13:53:34Z</time></trkpt><trkpt lat="45.795409207604145" lon="9.840816336537877"><ele>377.0</ele><time>2026-04-22T13:53:36Z</time></trkpt><trkpt lat="45.795430736381086" lon="9.840906497116597"><ele>377.0</ele><time>2026-04-22T13:53:37Z</time></trkpt><trkpt lat="45.79544647560282" lon="9.840994571400849"><ele>376.83333333333337</ele><time>2026-04-22T13:53:38Z</time></trkpt><trkpt lat="45.79547064613708" lon="9.841082208602216"><ele>376.6666666666667</ele><time>2026-04-22T13:53:39Z</time></trkpt><trkpt lat="45.795493873645235" lon="9.841167790022702"><ele>376.5</ele><time>2026-04-22T13:53:40Z</time></trkpt><trkpt lat="45.795520545657595" lon="9.841252917832653"><ele>376.3333333333333</ele><time>2026-04-22T13:53:41Z</time></trkpt><trkpt lat="45.79554956378487" lon="9.841335778520037"><ele>376.16666666666663</ele><time>2026-04-22T13:53:42Z</time></trkpt><trkpt lat="45.79558232068897" lon="9.841420578220099"><ele>376.0</ele><time>2026-04-22T13:53:43Z</time></trkpt><trkpt lat="45.79563536926348" lon="9.841584538540799"><ele>376.0</ele><time>2026-04-22T13:53:45Z</time></trkpt><trkpt lat="45.79569307304732" lon="9.841744510504505"><ele>376.0</ele><time>2026-04-22T13:53:47Z</time></trkpt><trkpt lat="45.79573040405515" lon="9.841827891259754"><ele>376.0</ele><time>2026-04-22T13:53:48Z</time></trkpt><trkpt lat="45.79576647309728" lon="9.84190774727283"><ele>376.0</ele><time>2026-04-22T13:53:49Z</time></trkpt><trkpt lat="45.795799171038304" lon="9.841987919378717"><ele>376.0</ele><time>2026-04-22T13:53:50Z</time></trkpt><trkpt lat="45.79583501278414" lon="9.842070152576431"><ele>376.0</ele><time>2026-04-22T13:53:51Z</time></trkpt><trkpt lat="45.79587362666349" lon="9.842146128165801"><ele>375.85714285714283</ele><time>2026-04-22T13:53:52Z</time></trkpt><trkpt lat="45.79591059329797" lon="9.842223936759106"><ele>375.71428571428567</ele><time>2026-04-22T13:53:53Z</time></trkpt><trkpt lat="45.795953445960464" lon="9.842298818753557"><ele>375.57142857142856</ele><time>2026-04-22T13:53:54Z</time></trkpt><trkpt lat="45.79598816179009" lon="9.842383135482033"><ele>375.42857142857144</ele><time>2026-04-22T13:53:55Z</time></trkpt><trkpt lat="45.79602159363117" lon="9.84246487761885"><ele>375.2857142857143</ele><time>2026-04-22T13:53:56Z</time></trkpt><trkpt lat="45.79606751112663" lon="9.842532302172504"><ele>375.14285714285717</ele><time>2026-04-22T13:53:57Z</time></trkpt><trkpt lat="45.79610359726721" lon="9.842615407776236"><ele>375.0</ele><time>2026-04-22T13:53:58Z</time></trkpt><trkpt lat="45.79614378467948" lon="9.842687033479018"><ele>376.0</ele><time>2026-04-22T13:53:59Z</time></trkpt><trkpt lat="45.7961870362439" lon="9.84276185085389"><ele>377.0</ele><time>2026-04-22T13:54:00Z</time></trkpt><trkpt lat="45.79622762485426" lon="9.842835176138344"><ele>378.0</ele><time>2026-04-22T13:54:01Z</time></trkpt><trkpt lat="45.79626618055455" lon="9.842909390330322"><ele>379.0</ele><time>2026-04-22T13:54:02Z</time></trkpt><trkpt lat="45.79630608723162" lon="9.842981638760287"><ele>380.0</ele><time>2026-04-22T13:54:03Z</time></trkpt><trkpt lat="45.79634261840514" lon="9.843059714564916"><ele>381.0</ele><time>2026-04-22T13:54:04Z</time></trkpt><trkpt lat="45.79641447195233" lon="9.843216349117947"><ele>381.0</ele><time>2026-04-22T13:54:06Z</time></trkpt><trkpt lat="45.79644475628784" lon="9.84329672862633"><ele>381.0</ele><time>2026-04-22T13:54:07Z</time></trkpt><trkpt lat="45.796475843001204" lon="9.843376870733087"><ele>381.0</ele><time>2026-04-22T13:54:08Z</time></trkpt><trkpt lat="45.79650713965773" lon="9.843459565347183"><ele>381.0</ele><time>2026-04-22T13:54:09Z</time></trkpt><trkpt lat="45.79654292077662" lon="9.843539741295741"><ele>381.0</ele><time>2026-04-22T13:54:10Z</time></trkpt><trkpt lat="45.79656414215787" lon="9.843626031598081"><ele>381.0</ele><time>2026-04-22T13:54:11Z</time></trkpt><trkpt lat="45.796593956695425" lon="9.84370991110175"><ele>381.0</ele><time>2026-04-22T13:54:12Z</time></trkpt><trkpt lat="45.796618695044366" lon="9.84379556090105"><ele>380.85714285714283</ele><time>2026-04-22T13:54:13Z</time></trkpt><trkpt lat="45.79664212900229" lon="9.843882213584058"><ele>380.7142857142857</ele><time>2026-04-22T13:54:14Z</time></trkpt><trkpt lat="45.7966726214354" lon="9.843967071578676"><ele>380.57142857142856</ele><time>2026-04-22T13:54:15Z</time></trkpt><trkpt lat="45.796693263388995" lon="9.844053534103004"><ele>380.42857142857144</ele><time>2026-04-22T13:54:16Z</time></trkpt><trkpt lat="45.796717570996925" lon="9.844137900954143"><ele>380.28571428571433</ele><time>2026-04-22T13:54:17Z</time></trkpt><trkpt lat="45.79675317502902" lon="9.844225212120092"><ele>380.14285714285717</ele><time>2026-04-22T13:54:18Z</time></trkpt><trkpt lat="45.79676693079616" lon="9.84431565061917"><ele>380.0</ele><time>2026-04-22T13:54:19Z</time></trkpt><trkpt lat="45.796813846233036" lon="9.844480930618351"><ele>380.1666666666667</ele><time>2026-04-22T13:54:21Z</time></trkpt><trkpt lat="45.79684156779115" lon="9.844567023167665"><ele>380.33333333333337</ele><time>2026-04-22T13:54:22Z</time></trkpt><trkpt lat="45.796888528844086" lon="9.844736395763611"><ele>380.5</ele><time>2026-04-22T13:54:24Z</time></trkpt><trkpt lat="45.7969346817149" lon="9.844904915637493"><ele>380.6666666666667</ele><time>2026-04-22T13:54:26Z</time></trkpt><trkpt lat="45.796960050005886" lon="9.84498862612323"><ele>380.8333333333333</ele><time>2026-04-22T13:54:27Z</time></trkpt><trkpt lat="45.796984298465766" lon="9.845074597546551"><ele>381.0</ele><time>2026-04-22T13:54:28Z</time></trkpt><trkpt lat="45.797032436496586" lon="9.845241516065439"><ele>381.0</ele><time>2026-04-22T13:54:30Z</time></trkpt><trkpt lat="45.79705370060205" lon="9.845328202456146"><ele>381.0</ele><time>2026-04-22T13:54:31Z</time></trkpt><trkpt lat="45.79707952271895" lon="9.845412248949495"><ele>381.0</ele><time>2026-04-22T13:54:32Z</time></trkpt><trkpt lat="45.797130369211786" lon="9.845581717237806"><ele>381.0</ele><time>2026-04-22T13:54:34Z</time></trkpt><trkpt lat="45.797176842559566" lon="9.845750964282722"><ele>381.0</ele><time>2026-04-22T13:54:36Z</time></trkpt><trkpt lat="45.797224686768104" lon="9.845917511428791"><ele>380.6666666666667</ele><time>2026-04-22T13:54:38Z</time></trkpt><trkpt lat="45.797254179706165" lon="9.845999212932067"><ele>380.3333333333333</ele><time>2026-04-22T13:54:39Z</time></trkpt><trkpt lat="45.79728565111083" lon="9.846078373180672"><ele>380.0</ele><time>2026-04-22T13:54:40Z</time></trkpt><trkpt lat="45.79731450555251" lon="9.846159114660537"><ele>379.66666666666663</ele><time>2026-04-22T13:54:41Z</time></trkpt><trkpt lat="45.79737719959651" lon="9.846315737042042"><ele>379.3333333333333</ele><time>2026-04-22T13:54:43Z</time></trkpt><trkpt lat="45.79740864439356" lon="9.846395740835593"><ele>379.0</ele><time>2026-04-22T13:54:44Z</time></trkpt><trkpt lat="45.79747979071696" lon="9.846548633155853"><ele>379.0</ele><time>2026-04-22T13:54:46Z</time></trkpt><trkpt lat="45.79755188717162" lon="9.846694315350042"><ele>379.0</ele><time>2026-04-22T13:54:48Z</time></trkpt><trkpt lat="45.79759120406608" lon="9.846767573066279"><ele>379.0</ele><time>2026-04-22T13:54:49Z</time></trkpt><trkpt lat="45.79763153636323" lon="9.846840121685632"><ele>379.0</ele><time>2026-04-22T13:54:50Z</time></trkpt><trkpt lat="45.79771008078154" lon="9.846986745775563"><ele>379.0</ele><time>2026-04-22T13:54:52Z</time></trkpt><trkpt lat="45.797794941064346" lon="9.84712334064888"><ele>379.2</ele><time>2026-04-22T13:54:54Z</time></trkpt><trkpt lat="45.797839979266946" lon="9.847208497274607"><ele>379.4</ele><time>2026-04-22T13:54:55Z</time></trkpt><trkpt lat="45.79792541140631" lon="9.847318548861965"><ele>379.6</ele><time>2026-04-22T13:54:57Z</time></trkpt><trkpt lat="45.798014889651945" lon="9.847445279882566"><ele>379.8</ele><time>2026-04-22T13:54:59Z</time></trkpt><trkpt lat="45.79810686052268" lon="9.847566079843336"><ele>380.0</ele><time>2026-04-22T13:55:01Z</time></trkpt><trkpt lat="45.79815490597824" lon="9.847625432328053"><ele>380.33333333333337</ele><time>2026-04-22T13:55:02Z</time></trkpt><trkpt lat="45.79820648993357" lon="9.847680815178476"><ele>380.6666666666667</ele><time>2026-04-22T13:55:03Z</time></trkpt><trkpt lat="45.798307644561575" lon="9.84779126706364"><ele>381.0</ele><time>2026-04-22T13:55:05Z</time></trkpt><trkpt lat="45.798358939055895" lon="9.847844519840136"><ele>381.3333333333333</ele><time>2026-04-22T13:55:06Z</time></trkpt><trkpt lat="45.79841244250985" lon="9.847901195232037"><ele>381.66666666666663</ele><time>2026-04-22T13:55:07Z</time></trkpt><trkpt lat="45.7985169135163" lon="9.847998488561188"><ele>382.0</ele><time>2026-04-22T13:55:09Z</time></trkpt><trkpt lat="45.7985726617703" lon="9.848043076022057"><ele>382.0</ele><time>2026-04-22T13:55:10Z</time></trkpt><trkpt lat="45.798681908588875" lon="9.848127711537872"><ele>382.0</ele><time>2026-04-22T13:55:12Z</time></trkpt><trkpt lat="45.79877714084468" lon="9.848198553298284"><ele>382.0</ele><time>2026-04-22T13:55:14Z</time></trkpt><trkpt lat="45.79884467391164" lon="9.84822994981577"><ele>382.0</ele><time>2026-04-22T13:55:15Z</time></trkpt><trkpt lat="45.798947508255324" lon="9.848327592305187"><ele>382.0</ele><time>2026-04-22T13:55:17Z</time></trkpt><trkpt lat="45.79900819478186" lon="9.848362078638786"><ele>382.0</ele><time>2026-04-22T13:55:18Z</time></trkpt><trkpt lat="45.79906698037127" lon="9.84840481936839"><ele>382.0</ele><time>2026-04-22T13:55:19Z</time></trkpt><trkpt lat="45.79912981061124" lon="9.848437971786192"><ele>382.0</ele><time>2026-04-22T13:55:20Z</time></trkpt><trkpt lat="45.7992421193389" lon="9.848522519436804"><ele>382.0</ele><time>2026-04-22T13:55:22Z</time></trkpt><trkpt lat="45.79934977438682" lon="9.848598952331493"><ele>382.0</ele><time>2026-04-22T13:55:24Z</time></trkpt><trkpt lat="45.7994078231745" lon="9.848637694810428"><ele>382.0</ele><time>2026-04-22T13:55:25Z</time></trkpt><trkpt lat="45.79946475864538" lon="9.84868533174336"><ele>381.40000000000003</ele><time>2026-04-22T13:55:26Z</time></trkpt><trkpt lat="45.79958521356568" lon="9.84875934394915"><ele>380.8</ele><time>2026-04-22T13:55:28Z</time></trkpt><trkpt lat="45.79968719905553" lon="9.848844120693483"><ele>380.2</ele><time>2026-04-22T13:55:30Z</time></trkpt><trkpt lat="45.79975434318283" lon="9.848877552212064"><ele>379.6</ele><time>2026-04-22T13:55:31Z</time></trkpt><trkpt lat="45.79986762213205" lon="9.848952705159288"><ele>379.0</ele><time>2026-04-22T13:55:33Z</time></trkpt><trkpt lat="45.79992546626862" lon="9.84899267042805"><ele>379.0</ele><time>2026-04-22T13:55:34Z</time></trkpt><trkpt lat="45.80004168179615" lon="9.849067781144285"><ele>379.0</ele><time>2026-04-22T13:55:36Z</time></trkpt><trkpt lat="45.80010262640657" lon="9.849104081887317"><ele>379.0</ele><time>2026-04-22T13:55:37Z</time></trkpt><trkpt lat="45.800162010302316" lon="9.849141186049353"><ele>379.0</ele><time>2026-04-22T13:55:38Z</time></trkpt><trkpt lat="45.80021880826602" lon="9.849182799200431"><ele>379.0</ele><time>2026-04-22T13:55:39Z</time></trkpt><trkpt lat="45.800274843584944" lon="9.849229417099718"><ele>379.0</ele><time>2026-04-22T13:55:40Z</time></trkpt><trkpt lat="45.800329855873834" lon="9.849279010152571"><ele>380.25</ele><time>2026-04-22T13:55:41Z</time></trkpt><trkpt lat="45.800422620288224" lon="9.84938839023634"><ele>381.5</ele><time>2026-04-22T13:55:43Z</time></trkpt><trkpt lat="45.800502618115026" lon="9.84951033038008"><ele>382.75</ele><time>2026-04-22T13:55:45Z</time></trkpt><trkpt lat="45.80056857469832" lon="9.849641620727564"><ele>384.0</ele><time>2026-04-22T13:55:47Z</time></trkpt><trkpt lat="45.800623879167304" lon="9.849782463233225"><ele>384.0</ele><time>2026-04-22T13:55:49Z</time></trkpt><trkpt lat="45.80066072565064" lon="9.849946316891163"><ele>384.0</ele><time>2026-04-22T13:55:51Z</time></trkpt><trkpt lat="45.80067451563724" lon="9.8501239683198"><ele>384.0</ele><time>2026-04-22T13:55:53Z</time></trkpt><trkpt lat="45.80065776866687" lon="9.850303371248087"><ele>384.0</ele><time>2026-04-22T13:55:55Z</time></trkpt><trkpt lat="45.80065041369965" lon="9.850394838264478"><ele>384.0</ele><time>2026-04-22T13:55:56Z</time></trkpt><trkpt lat="45.80062711382589" lon="9.850570402700434"><ele>384.4</ele><time>2026-04-22T13:55:58Z</time></trkpt><trkpt lat="45.80061600488958" lon="9.85065965293013"><ele>384.79999999999995</ele><time>2026-04-22T13:55:59Z</time></trkpt><trkpt lat="45.800594809189434" lon="9.85083055346076"><ele>385.20000000000005</ele><time>2026-04-22T13:56:01Z</time></trkpt><trkpt lat="45.800573323503336" lon="9.851000706600528"><ele>385.6</ele><time>2026-04-22T13:56:03Z</time></trkpt><trkpt lat="45.800551380494646" lon="9.851169238438855"><ele>386.0</ele><time>2026-04-22T13:56:05Z</time></trkpt><trkpt lat="45.80051830341634" lon="9.851333600588966"><ele>387.5</ele><time>2026-04-22T13:56:07Z</time></trkpt><trkpt lat="45.800498184574046" lon="9.851501131941129"><ele>389.0</ele><time>2026-04-22T13:56:09Z</time></trkpt><trkpt lat="45.80049128663058" lon="9.851670809696017"><ele>390.5</ele><time>2026-04-22T13:56:11Z</time></trkpt><trkpt lat="45.80049810100469" lon="9.85183933219049"><ele>392.0</ele><time>2026-04-22T13:56:13Z</time></trkpt><trkpt lat="45.80051457456908" lon="9.852009421966624"><ele>392.49999999999994</ele><time>2026-04-22T13:56:15Z</time></trkpt><trkpt lat="45.80053046422577" lon="9.852187241393512"><ele>393.0</ele><time>2026-04-22T13:56:17Z</time></trkpt><trkpt lat="45.80054976935574" lon="9.852274917839164"><ele>393.5</ele><time>2026-04-22T13:56:18Z</time></trkpt><trkpt lat="45.80055972108388" lon="9.852368007581598"><ele>394.0</ele><time>2026-04-22T13:56:19Z</time></trkpt><trkpt lat="45.80058511520732" lon="9.85254565739315"><ele>394.49999999999994</ele><time>2026-04-22T13:56:21Z</time></trkpt><trkpt lat="45.80059840031994" lon="9.852634360953367"><ele>395.0</ele><time>2026-04-22T13:56:22Z</time></trkpt><trkpt lat="45.800626053357455" lon="9.85281097552671"><ele>396.16666666666663</ele><time>2026-04-22T13:56:24Z</time></trkpt><trkpt lat="45.80064474807162" lon="9.852898758048648"><ele>397.3333333333333</ele><time>2026-04-22T13:56:25Z</time></trkpt><trkpt lat="45.80066803430108" lon="9.853075792486662"><ele>398.5</ele><time>2026-04-22T13:56:27Z</time></trkpt><trkpt lat="45.80068297351116" lon="9.853163708884361"><ele>399.66666666666663</ele><time>2026-04-22T13:56:28Z</time></trkpt><trkpt lat="45.80069748971231" lon="9.853253570947608"><ele>400.8333333333333</ele><time>2026-04-22T13:56:29Z</time></trkpt><trkpt lat="45.80072754584615" lon="9.8534311764762"><ele>402.0</ele><time>2026-04-22T13:56:31Z</time></trkpt><trkpt lat="45.80075140810595" lon="9.853601678719711"><ele>402.0</ele><time>2026-04-22T13:56:33Z</time></trkpt><trkpt lat="45.80078623505464" lon="9.853774592803104"><ele>402.0</ele><time>2026-04-22T13:56:35Z</time></trkpt><trkpt lat="45.80079389369657" lon="9.853865603368611"><ele>402.0</ele><time>2026-04-22T13:56:36Z</time></trkpt><trkpt lat="45.8008172810986" lon="9.854040226067168"><ele>402.0</ele><time>2026-04-22T13:56:38Z</time></trkpt><trkpt lat="45.800828647433406" lon="9.854129140760058"><ele>402.0</ele><time>2026-04-22T13:56:39Z</time></trkpt><trkpt lat="45.80084932606942" lon="9.854307067371979"><ele>402.0</ele><time>2026-04-22T13:56:41Z</time></trkpt><trkpt lat="45.80087040544853" lon="9.854482524849237"><ele>402.0</ele><time>2026-04-22T13:56:43Z</time></trkpt><trkpt lat="45.80088246711612" lon="9.854573020908846"><ele>402.0</ele><time>2026-04-22T13:56:44Z</time></trkpt><trkpt lat="45.800894277214596" lon="9.854661883928495"><ele>402.0</ele><time>2026-04-22T13:56:45Z</time></trkpt><trkpt lat="45.80090632751435" lon="9.8547511803052"><ele>402.0</ele><time>2026-04-22T13:56:46Z</time></trkpt><trkpt lat="45.8009190115673" lon="9.854839745701513"><ele>402.0</ele><time>2026-04-22T13:56:47Z</time></trkpt><trkpt lat="45.80092990344791" lon="9.85492893841997"><ele>402.0</ele><time>2026-04-22T13:56:48Z</time></trkpt><trkpt lat="45.800957479195574" lon="9.855105114095426"><ele>402.40000000000003</ele><time>2026-04-22T13:56:50Z</time></trkpt><trkpt lat="45.80097802442381" lon="9.85528384451266"><ele>402.8</ele><time>2026-04-22T13:56:52Z</time></trkpt><trkpt lat="45.800990008330274" lon="9.855373248109517"><ele>403.2</ele><time>2026-04-22T13:56:53Z</time></trkpt><trkpt lat="45.801012732029385" lon="9.855550672263933"><ele>403.6</ele><time>2026-04-22T13:56:55Z</time></trkpt><trkpt lat="45.801023509629914" lon="9.855641396934528"><ele>404.0</ele><time>2026-04-22T13:56:56Z</time></trkpt><trkpt lat="45.80104483038404" lon="9.85581847677747"><ele>404.6</ele><time>2026-04-22T13:56:58Z</time></trkpt><trkpt lat="45.80105848159884" lon="9.85590725645113"><ele>405.2</ele><time>2026-04-22T13:56:59Z</time></trkpt><trkpt lat="45.80108079477964" lon="9.856084469242735"><ele>405.8</ele><time>2026-04-22T13:57:01Z</time></trkpt><trkpt lat="45.801101587046325" lon="9.85626395175355"><ele>406.40000000000003</ele><time>2026-04-22T13:57:03Z</time></trkpt><trkpt lat="45.80111426048115" lon="9.856353091888428"><ele>407.0</ele><time>2026-04-22T13:57:04Z</time></trkpt><trkpt lat="45.80113971760919" lon="9.856525117767868"><ele>406.99999999999994</ele><time>2026-04-22T13:57:06Z</time></trkpt><trkpt lat="45.80115053947808" lon="9.856615032185795"><ele>407.0</ele><time>2026-04-22T13:57:07Z</time></trkpt><trkpt lat="45.80115826239948" lon="9.856704760826501"><ele>407.0</ele><time>2026-04-22T13:57:08Z</time></trkpt><trkpt lat="45.80117396727712" lon="9.856792595742377"><ele>407.0</ele><time>2026-04-22T13:57:09Z</time></trkpt><trkpt lat="45.801202169189736" lon="9.856971623839016"><ele>406.99999999999994</ele><time>2026-04-22T13:57:11Z</time></trkpt><trkpt lat="45.801217707858804" lon="9.857059694546454"><ele>407.0</ele><time>2026-04-22T13:57:12Z</time></trkpt><trkpt lat="45.801252681610244" lon="9.85723230198358"><ele>405.5</ele><time>2026-04-22T13:57:14Z</time></trkpt><trkpt lat="45.80129946639216" lon="9.85739898889986"><ele>404.0</ele><time>2026-04-22T13:57:16Z</time></trkpt><trkpt lat="45.80134383731172" lon="9.857565726542267"><ele>402.5</ele><time>2026-04-22T13:57:18Z</time></trkpt><trkpt lat="45.80139368097427" lon="9.857726584340318"><ele>401.0</ele><time>2026-04-22T13:57:20Z</time></trkpt><trkpt lat="45.80144753035313" lon="9.85788089200929"><ele>401.0</ele><time>2026-04-22T13:57:22Z</time></trkpt><trkpt lat="45.801471268964185" lon="9.857968676267454"><ele>401.0</ele><time>2026-04-22T13:57:23Z</time></trkpt><trkpt lat="45.80152346653678" lon="9.85811981524007"><ele>401.0</ele><time>2026-04-22T13:57:25Z</time></trkpt><trkpt lat="45.801573913113685" lon="9.85827947385557"><ele>401.0</ele><time>2026-04-22T13:57:27Z</time></trkpt><trkpt lat="45.80162703744335" lon="9.858438447858331"><ele>401.0</ele><time>2026-04-22T13:57:29Z</time></trkpt><trkpt lat="45.801681808104654" lon="9.85860334924452"><ele>401.66666666666663</ele><time>2026-04-22T13:57:31Z</time></trkpt><trkpt lat="45.80172869252991" lon="9.858762525144234"><ele>402.3333333333333</ele><time>2026-04-22T13:57:33Z</time></trkpt><trkpt lat="45.801764826320216" lon="9.858841444432976"><ele>403.0</ele><time>2026-04-22T13:57:34Z</time></trkpt><trkpt lat="45.80182005473417" lon="9.859005667862716"><ele>403.66666666666663</ele><time>2026-04-22T13:57:36Z</time></trkpt><trkpt lat="45.80185400244869" lon="9.859082022129249"><ele>404.3333333333333</ele><time>2026-04-22T13:57:37Z</time></trkpt><trkpt lat="45.80188405343159" lon="9.85916259689274"><ele>405.0</ele><time>2026-04-22T13:57:38Z</time></trkpt><trkpt lat="45.80191265500261" lon="9.8592438074307"><ele>405.8</ele><time>2026-04-22T13:57:39Z</time></trkpt><trkpt lat="45.80197705356944" lon="9.859398522445717"><ele>406.6</ele><time>2026-04-22T13:57:41Z</time></trkpt><trkpt lat="45.802040186261635" lon="9.859552140172832"><ele>407.4</ele><time>2026-04-22T13:57:43Z</time></trkpt><trkpt lat="45.80207587065452" lon="9.859627030393197"><ele>408.2</ele><time>2026-04-22T13:57:44Z</time></trkpt><trkpt lat="45.80210999221507" lon="9.859704150194439"><ele>409.0</ele><time>2026-04-22T13:57:45Z</time></trkpt><trkpt lat="45.802175405424386" lon="9.859856994485341"><ele>409.0</ele><time>2026-04-22T13:57:47Z</time></trkpt><trkpt lat="45.80221003497844" lon="9.859933949170207"><ele>409.0</ele><time>2026-04-22T13:57:48Z</time></trkpt><trkpt lat="45.802275902432065" lon="9.86008798013421"><ele>409.0</ele><time>2026-04-22T13:57:50Z</time></trkpt><trkpt lat="45.80234306987045" lon="9.860240701492888"><ele>409.0</ele><time>2026-04-22T13:57:52Z</time></trkpt><trkpt lat="45.80241264559687" lon="9.860391710929493"><ele>409.0</ele><time>2026-04-22T13:57:54Z</time></trkpt><trkpt lat="45.802475882543845" lon="9.86053967638616"><ele>409.75</ele><time>2026-04-22T13:57:56Z</time></trkpt><trkpt lat="45.80254577273085" lon="9.860691326033606"><ele>410.5</ele><time>2026-04-22T13:57:58Z</time></trkpt><trkpt lat="45.80261009645158" lon="9.860838580104515"><ele>411.25</ele><time>2026-04-22T13:58:00Z</time></trkpt><trkpt lat="45.80267637793934" lon="9.860989285643553"><ele>412.0</ele><time>2026-04-22T13:58:02Z</time></trkpt><trkpt lat="45.80274908509133" lon="9.861137088914264"><ele>416.25</ele><time>2026-04-22T13:58:04Z</time></trkpt><trkpt lat="45.80281229660891" lon="9.86128873488951"><ele>420.5</ele><time>2026-04-22T13:58:06Z</time></trkpt><trkpt lat="45.80287976935252" lon="9.86144138219723"><ele>424.75</ele><time>2026-04-22T13:58:08Z</time></trkpt><trkpt lat="45.802937093010485" lon="9.861600877326405"><ele>429.0</ele><time>2026-04-22T13:58:10Z</time></trkpt><trkpt lat="45.80298754882618" lon="9.861763062036777"><ele>426.25</ele><time>2026-04-22T13:58:12Z</time></trkpt><trkpt lat="45.803041278140505" lon="9.861921074091903"><ele>423.5</ele><time>2026-04-22T13:58:14Z</time></trkpt><trkpt lat="45.80309886896367" lon="9.862079002728922"><ele>420.75</ele><time>2026-04-22T13:58:16Z</time></trkpt><trkpt lat="45.80315459470568" lon="9.862240310616642"><ele>418.0</ele><time>2026-04-22T13:58:18Z</time></trkpt><trkpt lat="45.80320196992917" lon="9.862404365124366"><ele>418.0</ele><time>2026-04-22T13:58:20Z</time></trkpt><trkpt lat="45.803249099513145" lon="9.86256642167244"><ele>418.0</ele><time>2026-04-22T13:58:22Z</time></trkpt><trkpt lat="45.803275344364636" lon="9.862651664113674"><ele>418.0</ele><time>2026-04-22T13:58:23Z</time></trkpt><trkpt lat="45.803323808234744" lon="9.862816582924355"><ele>418.0</ele><time>2026-04-22T13:58:25Z</time></trkpt><trkpt lat="45.80334838285264" lon="9.862901524980817"><ele>418.0</ele><time>2026-04-22T13:58:26Z</time></trkpt><trkpt lat="45.80340041789166" lon="9.863061336694201"><ele>417.2</ele><time>2026-04-22T13:58:28Z</time></trkpt><trkpt lat="45.80343474217784" lon="9.863138364392377"><ele>416.4</ele><time>2026-04-22T13:58:29Z</time></trkpt><trkpt lat="45.803489308177184" lon="9.86329603064522"><ele>415.59999999999997</ele><time>2026-04-22T13:58:31Z</time></trkpt><trkpt lat="45.803521144205874" lon="9.863373968968364"><ele>414.79999999999995</ele><time>2026-04-22T13:58:32Z</time></trkpt><trkpt lat="45.80357754344107" lon="9.863534270865268"><ele>414.0</ele><time>2026-04-22T13:58:34Z</time></trkpt><trkpt lat="45.80363128268045" lon="9.863685668369607"><ele>416.0</ele><time>2026-04-22T13:58:36Z</time></trkpt><trkpt lat="45.80368631819141" lon="9.863843498897054"><ele>418.0</ele><time>2026-04-22T13:58:38Z</time></trkpt><trkpt lat="45.80373769781113" lon="9.864003470761457"><ele>420.0</ele><time>2026-04-22T13:58:40Z</time></trkpt><trkpt lat="45.80379545855466" lon="9.86415604088681"><ele>422.0</ele><time>2026-04-22T13:58:42Z</time></trkpt><trkpt lat="45.80385299970496" lon="9.864314618464118"><ele>422.0</ele><time>2026-04-22T13:58:44Z</time></trkpt><trkpt lat="45.80390867062159" lon="9.864473826139752"><ele>422.0</ele><time>2026-04-22T13:58:46Z</time></trkpt><trkpt lat="45.80396186432452" lon="9.864628561613694"><ele>422.0</ele><time>2026-04-22T13:58:48Z</time></trkpt><trkpt lat="45.80401577037799" lon="9.864782673732881"><ele>422.0</ele><time>2026-04-22T13:58:50Z</time></trkpt><trkpt lat="45.80406742359357" lon="9.864940001786088"><ele>422.0</ele><time>2026-04-22T13:58:52Z</time></trkpt><trkpt lat="45.804121675859584" lon="9.865092093361126"><ele>422.0</ele><time>2026-04-22T13:58:54Z</time></trkpt><trkpt lat="45.8041740918354" lon="9.865248348713534"><ele>422.0</ele><time>2026-04-22T13:58:56Z</time></trkpt><trkpt lat="45.80422546864717" lon="9.865402676092316"><ele>422.0</ele><time>2026-04-22T13:58:58Z</time></trkpt><trkpt lat="45.804280019501654" lon="9.865556832947126"><ele>423.6</ele><time>2026-04-22T13:59:00Z</time></trkpt><trkpt lat="45.80433096983665" lon="9.8657128474676"><ele>425.20000000000005</ele><time>2026-04-22T13:59:02Z</time></trkpt><trkpt lat="45.80438435612212" lon="9.865865991587187"><ele>426.8</ele><time>2026-04-22T13:59:04Z</time></trkpt><trkpt lat="45.80443662784029" lon="9.866019725852867"><ele>428.4</ele><time>2026-04-22T13:59:06Z</time></trkpt><trkpt lat="45.804467619143" lon="9.866098576313789"><ele>430.0</ele><time>2026-04-22T13:59:07Z</time></trkpt><trkpt lat="45.80451687943728" lon="9.86625603188587"><ele>430.0</ele><time>2026-04-22T13:59:09Z</time></trkpt><trkpt lat="45.80456944121459" lon="9.866408451494594"><ele>430.0</ele><time>2026-04-22T13:59:11Z</time></trkpt><trkpt lat="45.80461959747608" lon="9.866560449488746"><ele>430.0</ele><time>2026-04-22T13:59:13Z</time></trkpt><trkpt lat="45.80467115857927" lon="9.866716334098747"><ele>430.0</ele><time>2026-04-22T13:59:15Z</time></trkpt><trkpt lat="45.804718500979675" lon="9.866868267054546"><ele>430.0</ele><time>2026-04-22T13:59:17Z</time></trkpt><trkpt lat="45.80477107992894" lon="9.867019933862798"><ele>430.0</ele><time>2026-04-22T13:59:19Z</time></trkpt><trkpt lat="45.80482059884584" lon="9.867171056653296"><ele>430.0</ele><time>2026-04-22T13:59:21Z</time></trkpt><trkpt lat="45.80487406213787" lon="9.867324051102575"><ele>430.0</ele><time>2026-04-22T13:59:23Z</time></trkpt><trkpt lat="45.80492947707399" lon="9.867475778319939"><ele>428.5</ele><time>2026-04-22T13:59:25Z</time></trkpt><trkpt lat="45.80498138427779" lon="9.867630166884789"><ele>427.0</ele><time>2026-04-22T13:59:27Z</time></trkpt><trkpt lat="45.80503080056119" lon="9.867786479068513"><ele>425.5</ele><time>2026-04-22T13:59:29Z</time></trkpt><trkpt lat="45.80508551627619" lon="9.867941098440212"><ele>424.0</ele><time>2026-04-22T13:59:31Z</time></trkpt><trkpt lat="45.80515139846392" lon="9.868094363380054"><ele>431.5</ele><time>2026-04-22T13:59:33Z</time></trkpt><trkpt lat="45.8051856663044" lon="9.868254435079193"><ele>439.0</ele><time>2026-04-22T13:59:35Z</time></trkpt><trkpt lat="45.80522765845448" lon="9.868411609429094"><ele>446.5</ele><time>2026-04-22T13:59:37Z</time></trkpt><trkpt lat="45.80525933559557" lon="9.868578265404732"><ele>454.0</ele><time>2026-04-22T13:59:39Z</time></trkpt><trkpt lat="45.80528734972623" lon="9.868737407995502"><ele>454.00000000000006</ele><time>2026-04-22T13:59:41Z</time></trkpt><trkpt lat="45.80530449912197" lon="9.8688816945159"><ele>454.0</ele><time>2026-04-22T13:59:43Z</time></trkpt><trkpt lat="45.80531835452236" lon="9.869016701655944"><ele>454.0</ele><time>2026-04-22T13:59:45Z</time></trkpt><trkpt lat="45.805325655955876" lon="9.869190850276777"><ele>454.0</ele><time>2026-04-22T13:59:47Z</time></trkpt><trkpt lat="45.805328759139535" lon="9.869281462029488"><ele>454.00000000000006</ele><time>2026-04-22T13:59:48Z</time></trkpt><trkpt lat="45.80533181192403" lon="9.869372072558955"><ele>454.0</ele><time>2026-04-22T13:59:49Z</time></trkpt><trkpt lat="45.80534188840411" lon="9.869550439566632"><ele>452.7142857142857</ele><time>2026-04-22T13:59:51Z</time></trkpt><trkpt lat="45.805342118632204" lon="9.869643672474362"><ele>451.42857142857144</ele><time>2026-04-22T13:59:52Z</time></trkpt><trkpt lat="45.80534645937373" lon="9.869733868536889"><ele>450.14285714285717</ele><time>2026-04-22T13:59:53Z</time></trkpt><trkpt lat="45.80534187635472" lon="9.869827459907485"><ele>448.8571428571429</ele><time>2026-04-22T13:59:54Z</time></trkpt><trkpt lat="45.80534984013461" lon="9.869918999272995"><ele>447.57142857142856</ele><time>2026-04-22T13:59:55Z</time></trkpt><trkpt lat="45.80534928059832" lon="9.870012169264358"><ele>446.28571428571433</ele><time>2026-04-22T13:59:56Z</time></trkpt><trkpt lat="45.80535295200025" lon="9.870105513392522"><ele>445.0</ele><time>2026-04-22T13:59:57Z</time></trkpt><trkpt lat="45.80535790937065" lon="9.870201993168727"><ele>443.50000000000006</ele><time>2026-04-22T13:59:58Z</time></trkpt><trkpt lat="45.80536599517374" lon="9.87038654225463"><ele>442.0</ele><time>2026-04-22T14:00:00Z</time></trkpt><trkpt lat="45.80536478307311" lon="9.87048314004023"><ele>440.5</ele><time>2026-04-22T14:00:01Z</time></trkpt><trkpt lat="45.805363013887906" lon="9.870577730387701"><ele>439.0</ele><time>2026-04-22T14:00:02Z</time></trkpt><trkpt lat="45.80536111978452" lon="9.870675324870867"><ele>437.50000000000006</ele><time>2026-04-22T14:00:03Z</time></trkpt><trkpt lat="45.80536032390524" lon="9.870774453962428"><ele>436.0</ele><time>2026-04-22T14:00:04Z</time></trkpt><trkpt lat="45.80535642331159" lon="9.870872775255014"><ele>434.50000000000006</ele><time>2026-04-22T14:00:05Z</time></trkpt><trkpt lat="45.80535350339866" lon="9.870972093336427"><ele>433.0</ele><time>2026-04-22T14:00:06Z</time></trkpt><trkpt lat="45.80534673042109" lon="9.871075124830156"><ele>431.5</ele><time>2026-04-22T14:00:07Z</time></trkpt><trkpt lat="45.80533947209449" lon="9.871167243531637"><ele>430.0</ele><time>2026-04-22T14:00:08Z</time></trkpt><trkpt lat="45.80532575120801" lon="9.871266651316295"><ele>428.50000000000006</ele><time>2026-04-22T14:00:09Z</time></trkpt><trkpt lat="45.80530006231683" lon="9.871393133994854"><ele>427.0</ele><time>2026-04-22T14:00:10Z</time></trkpt><trkpt lat="45.805261364387405" lon="9.87151458623861"><ele>427.0</ele><time>2026-04-22T14:00:11Z</time></trkpt><trkpt lat="45.80527739536339" lon="9.871673779935337"><ele>427.0</ele><time>2026-04-22T14:00:13Z</time></trkpt><trkpt lat="45.805268754999226" lon="9.871771233562523"><ele>427.0</ele><time>2026-04-22T14:00:14Z</time></trkpt><trkpt lat="45.805259161350875" lon="9.871867245003273"><ele>427.0</ele><time>2026-04-22T14:00:15Z</time></trkpt><trkpt lat="45.80524345577557" lon="9.87196164474599"><ele>427.0</ele><time>2026-04-22T14:00:16Z</time></trkpt><trkpt lat="45.80523515242239" lon="9.872057175190879"><ele>427.0</ele><time>2026-04-22T14:00:17Z</time></trkpt><trkpt lat="45.8052242822061" lon="9.872151175588881"><ele>427.0</ele><time>2026-04-22T14:00:18Z</time></trkpt><trkpt lat="45.80521330652262" lon="9.872246965762265"><ele>426.2857142857143</ele><time>2026-04-22T14:00:19Z</time></trkpt><trkpt lat="45.80520373460187" lon="9.872342371148608"><ele>425.57142857142856</ele><time>2026-04-22T14:00:20Z</time></trkpt><trkpt lat="45.80519445594307" lon="9.872435461280702"><ele>424.8571428571429</ele><time>2026-04-22T14:00:21Z</time></trkpt><trkpt lat="45.805184374810544" lon="9.872529476404342"><ele>424.1428571428571</ele><time>2026-04-22T14:00:22Z</time></trkpt><trkpt lat="45.80517164279292" lon="9.872621405899846"><ele>423.42857142857144</ele><time>2026-04-22T14:00:23Z</time></trkpt><trkpt lat="45.805161971512305" lon="9.872717239635016"><ele>422.7142857142857</ele><time>2026-04-22T14:00:24Z</time></trkpt><trkpt lat="45.805149123845844" lon="9.872807700285849"><ele>422.0</ele><time>2026-04-22T14:00:25Z</time></trkpt><trkpt lat="45.80514178177454" lon="9.872899638948788"><ele>421.8</ele><time>2026-04-22T14:00:26Z</time></trkpt><trkpt lat="45.80513123487385" lon="9.872991810241937"><ele>421.6</ele><time>2026-04-22T14:00:27Z</time></trkpt><trkpt lat="45.805112324989956" lon="9.873172376573743"><ele>421.40000000000003</ele><time>2026-04-22T14:00:29Z</time></trkpt><trkpt lat="45.80509180117031" lon="9.873346922731331"><ele>421.20000000000005</ele><time>2026-04-22T14:00:31Z</time></trkpt><trkpt lat="45.805059725489684" lon="9.873519327310245"><ele>421.0</ele><time>2026-04-22T14:00:33Z</time></trkpt><trkpt lat="45.805010606562014" lon="9.87367805380953"><ele>421.0</ele><time>2026-04-22T14:00:35Z</time></trkpt><trkpt lat="45.804954290143016" lon="9.873825898924958"><ele>421.0</ele><time>2026-04-22T14:00:37Z</time></trkpt><trkpt lat="45.80489119825704" lon="9.87397126086985"><ele>421.0</ele><time>2026-04-22T14:00:39Z</time></trkpt><trkpt lat="45.80483150749323" lon="9.874114268265195"><ele>421.0</ele><time>2026-04-22T14:00:41Z</time></trkpt><trkpt lat="45.80477137734847" lon="9.874261996669908"><ele>423.5</ele><time>2026-04-22T14:00:43Z</time></trkpt><trkpt lat="45.804711397331516" lon="9.87440881612461"><ele>426.0</ele><time>2026-04-22T14:00:45Z</time></trkpt><trkpt lat="45.80464462283501" lon="9.874547935772913"><ele>428.5</ele><time>2026-04-22T14:00:47Z</time></trkpt><trkpt lat="45.80458274008697" lon="9.874692939847876"><ele>431.0</ele><time>2026-04-22T14:00:49Z</time></trkpt><trkpt lat="45.804506067296025" lon="9.874818470637958"><ele>431.0</ele><time>2026-04-22T14:00:51Z</time></trkpt><trkpt lat="45.80440800613123" lon="9.874916753037995"><ele>431.0</ele><time>2026-04-22T14:00:53Z</time></trkpt><trkpt lat="45.804305458652635" lon="9.87500057436728"><ele>431.0</ele><time>2026-04-22T14:00:55Z</time></trkpt><trkpt lat="45.80419665982989" lon="9.875048015557507"><ele>431.0</ele><time>2026-04-22T14:00:57Z</time></trkpt><trkpt lat="45.80409044116194" lon="9.875119044204308"><ele>431.75</ele><time>2026-04-22T14:00:59Z</time></trkpt><trkpt lat="45.80398942265242" lon="9.875194088665008"><ele>432.5</ele><time>2026-04-22T14:01:01Z</time></trkpt><trkpt lat="45.803894730387746" lon="9.875283458427926"><ele>433.25</ele><time>2026-04-22T14:01:03Z</time></trkpt><trkpt lat="45.803807578822" lon="9.87540246318549"><ele>434.0</ele><time>2026-04-22T14:01:05Z</time></trkpt><trkpt lat="45.80375713278985" lon="9.875545949605359"><ele>434.0</ele><time>2026-04-22T14:01:07Z</time></trkpt><trkpt lat="45.80371827678137" lon="9.875700682210386"><ele>434.0</ele><time>2026-04-22T14:01:09Z</time></trkpt><trkpt lat="45.80371218248849" lon="9.875870119238636"><ele>434.0</ele><time>2026-04-22T14:01:11Z</time></trkpt><trkpt lat="45.80372754754977" lon="9.876040442963067"><ele>434.0</ele><time>2026-04-22T14:01:13Z</time></trkpt><trkpt lat="45.80374795085709" lon="9.876215546503222"><ele>435.5</ele><time>2026-04-22T14:01:15Z</time></trkpt><trkpt lat="45.80376536261876" lon="9.876386201575796"><ele>437.0</ele><time>2026-04-22T14:01:17Z</time></trkpt><trkpt lat="45.80377977161537" lon="9.876559240556666"><ele>438.5</ele><time>2026-04-22T14:01:19Z</time></trkpt><trkpt lat="45.803777272503126" lon="9.876732150070277"><ele>440.0</ele><time>2026-04-22T14:01:21Z</time></trkpt><trkpt lat="45.80376734690061" lon="9.876904859540877"><ele>441.0</ele><time>2026-04-22T14:01:23Z</time></trkpt><trkpt lat="45.80374314967698" lon="9.877069324400118"><ele>442.0</ele><time>2026-04-22T14:01:25Z</time></trkpt><trkpt lat="45.80370834387952" lon="9.877226759070414"><ele>443.0</ele><time>2026-04-22T14:01:27Z</time></trkpt><trkpt lat="45.80366267015398" lon="9.877386276611926"><ele>444.0</ele><time>2026-04-22T14:01:29Z</time></trkpt><trkpt lat="45.80362258462608" lon="9.877548104993975"><ele>445.25</ele><time>2026-04-22T14:01:31Z</time></trkpt><trkpt lat="45.803578650950385" lon="9.877707549744729"><ele>446.5</ele><time>2026-04-22T14:01:33Z</time></trkpt><trkpt lat="45.803536210498365" lon="9.8778694697701"><ele>447.75</ele><time>2026-04-22T14:01:35Z</time></trkpt><trkpt lat="45.80349110925199" lon="9.878028615227088"><ele>449.0</ele><time>2026-04-22T14:01:37Z</time></trkpt><trkpt lat="45.80344297257271" lon="9.878187419054166"><ele>446.5</ele><time>2026-04-22T14:01:39Z</time></trkpt><trkpt lat="45.803397116139934" lon="9.878344200201836"><ele>444.0</ele><time>2026-04-22T14:01:41Z</time></trkpt><trkpt lat="45.8033526637745" lon="9.878503659400815"><ele>441.5</ele><time>2026-04-22T14:01:43Z</time></trkpt><trkpt lat="45.803303112517106" lon="9.878655635350219"><ele>439.0</ele><time>2026-04-22T14:01:45Z</time></trkpt><trkpt lat="45.803245422483315" lon="9.878808809530415"><ele>439.0</ele><time>2026-04-22T14:01:47Z</time></trkpt><trkpt lat="45.803188724475646" lon="9.878960163987369"><ele>439.0</ele><time>2026-04-22T14:01:49Z</time></trkpt><trkpt lat="45.803125143344445" lon="9.87910243086121"><ele>439.0</ele><time>2026-04-22T14:01:51Z</time></trkpt><trkpt lat="45.80305902386546" lon="9.879248953930453"><ele>439.0</ele><time>2026-04-22T14:01:53Z</time></trkpt><trkpt lat="45.802990837194905" lon="9.879379283428293"><ele>440.6</ele><time>2026-04-22T14:01:55Z</time></trkpt><trkpt lat="45.80293079761134" lon="9.879524825109153"><ele>442.2</ele><time>2026-04-22T14:01:57Z</time></trkpt><trkpt lat="45.80289585370526" lon="9.879614863307571"><ele>443.80000000000007</ele><time>2026-04-22T14:01:58Z</time></trkpt><trkpt lat="45.802830148803004" lon="9.87973643433026"><ele>445.40000000000003</ele><time>2026-04-22T14:02:00Z</time></trkpt><trkpt lat="45.80275895754854" lon="9.879857524481945"><ele>447.0</ele><time>2026-04-22T14:02:02Z</time></trkpt><trkpt lat="45.802701756307" lon="9.87995743877537"><ele>446.20000000000005</ele><time>2026-04-22T14:02:04Z</time></trkpt><trkpt lat="45.802630407984815" lon="9.880072681541874"><ele>445.40000000000003</ele><time>2026-04-22T14:02:06Z</time></trkpt><trkpt lat="45.80254265026252" lon="9.880163271406854"><ele>444.59999999999997</ele><time>2026-04-22T14:02:08Z</time></trkpt><trkpt lat="45.80245869451923" lon="9.880249757411647"><ele>443.79999999999995</ele><time>2026-04-22T14:02:10Z</time></trkpt><trkpt lat="45.80236148049136" lon="9.88035122083772"><ele>443.0</ele><time>2026-04-22T14:02:12Z</time></trkpt><trkpt lat="45.80225491776026" lon="9.880459676909082"><ele>442.99999999999994</ele><time>2026-04-22T14:02:14Z</time></trkpt><trkpt lat="45.80220220889507" lon="9.880518991997457"><ele>443.0</ele><time>2026-04-22T14:02:15Z</time></trkpt><trkpt lat="45.802154830259354" lon="9.880588748810498"><ele>443.0</ele><time>2026-04-22T14:02:16Z</time></trkpt><trkpt lat="45.80209330167409" lon="9.880645154120783"><ele>443.0</ele><time>2026-04-22T14:02:17Z</time></trkpt><trkpt lat="45.80201450573683" lon="9.880787506587707"><ele>442.99999999999994</ele><time>2026-04-22T14:02:19Z</time></trkpt><trkpt lat="45.80196572876355" lon="9.880855584839297"><ele>443.0</ele><time>2026-04-22T14:02:20Z</time></trkpt><trkpt lat="45.80191416921057" lon="9.880915927843361"><ele>443.42857142857144</ele><time>2026-04-22T14:02:21Z</time></trkpt><trkpt lat="45.801860846046786" lon="9.880966241131244"><ele>443.8571428571429</ele><time>2026-04-22T14:02:22Z</time></trkpt><trkpt lat="45.801799037209754" lon="9.881008204168069"><ele>444.2857142857143</ele><time>2026-04-22T14:02:23Z</time></trkpt><trkpt lat="45.8017361947152" lon="9.881034913384731"><ele>444.7142857142857</ele><time>2026-04-22T14:02:24Z</time></trkpt><trkpt lat="45.80167145959036" lon="9.881056071867452"><ele>445.1428571428571</ele><time>2026-04-22T14:02:25Z</time></trkpt><trkpt lat="45.80160521472464" lon="9.881069125947972"><ele>445.57142857142856</ele><time>2026-04-22T14:02:26Z</time></trkpt><trkpt lat="45.80154166724903" lon="9.881054699750106"><ele>446.0</ele><time>2026-04-22T14:02:27Z</time></trkpt><trkpt lat="45.801480251938266" lon="9.881029932244559"><ele>445.99999999999994</ele><time>2026-04-22T14:02:28Z</time></trkpt><trkpt lat="45.80141962462166" lon="9.881003775792532"><ele>446.0</ele><time>2026-04-22T14:02:29Z</time></trkpt><trkpt lat="45.8013585188147" lon="9.880978337168028"><ele>446.0</ele><time>2026-04-22T14:02:30Z</time></trkpt><trkpt lat="45.80123627459868" lon="9.880940663466719"><ele>446.0</ele><time>2026-04-22T14:02:32Z</time></trkpt><trkpt lat="45.801174633932824" lon="9.880921958111706"><ele>445.99999999999994</ele><time>2026-04-22T14:02:33Z</time></trkpt><trkpt lat="45.80105668782303" lon="9.880885501361314"><ele>446.0</ele><time>2026-04-22T14:02:35Z</time></trkpt><trkpt lat="45.80093530403152" lon="9.88086394244026"><ele>445.57142857142856</ele><time>2026-04-22T14:02:37Z</time></trkpt><trkpt lat="45.80087139158939" lon="9.880863412818945"><ele>445.1428571428571</ele><time>2026-04-22T14:02:38Z</time></trkpt><trkpt lat="45.800806777007914" lon="9.880868934602164"><ele>444.7142857142857</ele><time>2026-04-22T14:02:39Z</time></trkpt><trkpt lat="45.80077374148115" lon="9.88077925442193"><ele>444.2857142857143</ele><time>2026-04-22T14:02:40Z</time></trkpt><trkpt lat="45.8007456560939" lon="9.880692437988467"><ele>443.8571428571429</ele><time>2026-04-22T14:02:41Z</time></trkpt><trkpt lat="45.80073998625369" lon="9.88059543296303"><ele>443.42857142857144</ele><time>2026-04-22T14:02:42Z</time></trkpt><trkpt lat="45.80074239703256" lon="9.880488955036581"><ele>443.0</ele><time>2026-04-22T14:02:43Z</time></trkpt><trkpt lat="45.80075918117099" lon="9.880361220084056"><ele>442.99999999999994</ele><time>2026-04-22T14:02:44Z</time></trkpt><trkpt lat="45.800788309480474" lon="9.880221915273832"><ele>443.0</ele><time>2026-04-22T14:02:45Z</time></trkpt><trkpt lat="45.8007713380293" lon="9.880090201944007"><ele>443.0</ele><time>2026-04-22T14:02:47Z</time></trkpt><trkpt lat="45.80077257343744" lon="9.879988370490022"><ele>443.0</ele><time>2026-04-22T14:02:48Z</time></trkpt><trkpt lat="45.80077785972325" lon="9.879893713641762"><ele>442.99999999999994</ele><time>2026-04-22T14:02:49Z</time></trkpt><trkpt lat="45.80077726869244" lon="9.879792001717334"><ele>443.0</ele><time>2026-04-22T14:02:50Z</time></trkpt><trkpt lat="45.800781195636176" lon="9.8796917919433"><ele>442.8571428571429</ele><time>2026-04-22T14:02:51Z</time></trkpt><trkpt lat="45.80079110332581" lon="9.879597852238646"><ele>442.7142857142857</ele><time>2026-04-22T14:02:52Z</time></trkpt><trkpt lat="45.80079278052546" lon="9.879497631741575"><ele>442.57142857142856</ele><time>2026-04-22T14:02:53Z</time></trkpt><trkpt lat="45.80079258825809" lon="9.879393403867084"><ele>442.42857142857144</ele><time>2026-04-22T14:02:54Z</time></trkpt><trkpt lat="45.80080023059594" lon="9.879293016347205"><ele>442.2857142857143</ele><time>2026-04-22T14:02:55Z</time></trkpt><trkpt lat="45.80080584826994" lon="9.87918997380405"><ele>442.14285714285717</ele><time>2026-04-22T14:02:56Z</time></trkpt><trkpt lat="45.80080976900913" lon="9.87908808855162"><ele>442.0</ele><time>2026-04-22T14:02:57Z</time></trkpt><trkpt lat="45.80081056352806" lon="9.878985461038944"><ele>441.7142857142857</ele><time>2026-04-22T14:02:58Z</time></trkpt><trkpt lat="45.80081169680606" lon="9.878882323665014"><ele>441.42857142857144</ele><time>2026-04-22T14:02:59Z</time></trkpt><trkpt lat="45.80081294891103" lon="9.878780476542142"><ele>441.1428571428571</ele><time>2026-04-22T14:03:00Z</time></trkpt><trkpt lat="45.80081130639635" lon="9.878677529066877"><ele>440.8571428571429</ele><time>2026-04-22T14:03:01Z</time></trkpt><trkpt lat="45.800800252360226" lon="9.878574701459284"><ele>440.57142857142856</ele><time>2026-04-22T14:03:02Z</time></trkpt><trkpt lat="45.80078212255999" lon="9.878474224046444"><ele>440.2857142857143</ele><time>2026-04-22T14:03:03Z</time></trkpt><trkpt lat="45.80075919947409" lon="9.87837200866615"><ele>440.0</ele><time>2026-04-22T14:03:04Z</time></trkpt><trkpt lat="45.80073769838461" lon="9.87826768056564"><ele>439.3333333333333</ele><time>2026-04-22T14:03:05Z</time></trkpt><trkpt lat="45.80071592325066" lon="9.87816615916306"><ele>438.66666666666663</ele><time>2026-04-22T14:03:06Z</time></trkpt><trkpt lat="45.80069530911172" lon="9.87806080675446"><ele>438.0</ele><time>2026-04-22T14:03:07Z</time></trkpt><trkpt lat="45.800674988011764" lon="9.877953579429434"><ele>437.33333333333337</ele><time>2026-04-22T14:03:08Z</time></trkpt><trkpt lat="45.80064989442756" lon="9.877852294482032"><ele>436.6666666666667</ele><time>2026-04-22T14:03:09Z</time></trkpt><trkpt lat="45.80061024744672" lon="9.877759243409827"><ele>436.0</ele><time>2026-04-22T14:03:10Z</time></trkpt><trkpt lat="45.80055830453723" lon="9.877681816184497"><ele>436.0</ele><time>2026-04-22T14:03:11Z</time></trkpt><trkpt lat="45.80049602577666" lon="9.877624637900421"><ele>436.0</ele><time>2026-04-22T14:03:12Z</time></trkpt><trkpt lat="45.80042885908601" lon="9.877576616913524"><ele>436.0</ele><time>2026-04-22T14:03:13Z</time></trkpt><trkpt lat="45.80035759510437" lon="9.877542761934944"><ele>436.0</ele><time>2026-04-22T14:03:14Z</time></trkpt><trkpt lat="45.800289397594746" lon="9.877512658595297"><ele>436.0</ele><time>2026-04-22T14:03:15Z</time></trkpt><trkpt lat="45.800219085373776" lon="9.877475647803601"><ele>436.0</ele><time>2026-04-22T14:03:16Z</time></trkpt><trkpt lat="45.80014908022839" lon="9.877438686294346"><ele>436.0</ele><time>2026-04-22T14:03:17Z</time></trkpt><trkpt lat="45.80007624541699" lon="9.877412556828594"><ele>436.00000000000006</ele><time>2026-04-22T14:03:18Z</time></trkpt><trkpt lat="45.800000465179956" lon="9.877393705532539"><ele>436.0</ele><time>2026-04-22T14:03:19Z</time></trkpt><trkpt lat="45.799923370442826" lon="9.877376794666478"><ele>436.0</ele><time>2026-04-22T14:03:20Z</time></trkpt><trkpt lat="45.799846437601914" lon="9.877370391807728"><ele>436.0</ele><time>2026-04-22T14:03:21Z</time></trkpt><trkpt lat="45.79976650758846" lon="9.877367523665123"><ele>436.00000000000006</ele><time>2026-04-22T14:03:22Z</time></trkpt><trkpt lat="45.79968815397326" lon="9.877366326785625"><ele>436.0</ele><time>2026-04-22T14:03:23Z</time></trkpt><trkpt lat="45.79960815218363" lon="9.877357130781265"><ele>436.00000000000006</ele><time>2026-04-22T14:03:24Z</time></trkpt><trkpt lat="45.79952711876328" lon="9.877342632412129"><ele>436.0</ele><time>2026-04-22T14:03:25Z</time></trkpt><trkpt lat="45.799453193054546" lon="9.877326011320527"><ele>436.0</ele><time>2026-04-22T14:03:26Z</time></trkpt><trkpt lat="45.79937575723445" lon="9.877303063893535"><ele>436.0</ele><time>2026-04-22T14:03:27Z</time></trkpt><trkpt lat="45.79930411831611" lon="9.877273122958238"><ele>436.00000000000006</ele><time>2026-04-22T14:03:28Z</time></trkpt><trkpt lat="45.799235475825334" lon="9.877242098431708"><ele>436.0</ele><time>2026-04-22T14:03:29Z</time></trkpt><trkpt lat="45.7991671981402" lon="9.87720666691908"><ele>436.00000000000006</ele><time>2026-04-22T14:03:30Z</time></trkpt><trkpt lat="45.7991032737711" lon="9.87715959642362"><ele>436.0</ele><time>2026-04-22T14:03:31Z</time></trkpt><trkpt lat="45.79904500060191" lon="9.877102399148342"><ele>436.0</ele><time>2026-04-22T14:03:32Z</time></trkpt><trkpt lat="45.79899594003606" lon="9.877029229734823"><ele>436.0</ele><time>2026-04-22T14:03:33Z</time></trkpt><trkpt lat="45.79895658684034" lon="9.8769534718289"><ele>436.00000000000006</ele><time>2026-04-22T14:03:34Z</time></trkpt><trkpt lat="45.79891789967362" lon="9.876881435636077"><ele>436.0</ele><time>2026-04-22T14:03:35Z</time></trkpt><trkpt lat="45.79884979090093" lon="9.876752193303437"><ele>436.0</ele><time>2026-04-22T14:03:37Z</time></trkpt><trkpt lat="45.79884764680515" lon="9.876584260466755"><ele>436.0</ele><time>2026-04-22T14:03:39Z</time></trkpt><trkpt lat="45.79891199178485" lon="9.876436045031765"><ele>436.0</ele><time>2026-04-22T14:03:41Z</time></trkpt><trkpt lat="45.799007969828025" lon="9.876328410235699"><ele>436.0</ele><time>2026-04-22T14:03:43Z</time></trkpt><trkpt lat="45.799063324427934" lon="9.876283436337895"><ele>436.0</ele><time>2026-04-22T14:03:44Z</time></trkpt><trkpt lat="45.799164700621056" lon="9.876183178723867"><ele>436.0</ele><time>2026-04-22T14:03:46Z</time></trkpt><trkpt lat="45.79926449478681" lon="9.876077976881017"><ele>436.0</ele><time>2026-04-22T14:03:48Z</time></trkpt><trkpt lat="45.799357586417734" lon="9.875991526100345"><ele>436.0</ele><time>2026-04-22T14:03:50Z</time></trkpt><trkpt lat="45.79944284379267" lon="9.87590472365207"><ele>436.0</ele><time>2026-04-22T14:03:52Z</time></trkpt><trkpt lat="45.79949930953059" lon="9.875863337285535"><ele>436.0</ele><time>2026-04-22T14:03:53Z</time></trkpt><trkpt lat="45.79961784720741" lon="9.875812968832884"><ele>437.0</ele><time>2026-04-22T14:03:55Z</time></trkpt><trkpt lat="45.799732749569934" lon="9.87580948584117"><ele>438.0</ele><time>2026-04-22T14:03:57Z</time></trkpt><trkpt lat="45.799855719370164" lon="9.87584110583317"><ele>439.0</ele><time>2026-04-22T14:03:59Z</time></trkpt><trkpt lat="45.7999763542866" lon="9.87585841250875"><ele>440.0</ele><time>2026-04-22T14:04:01Z</time></trkpt><trkpt lat="45.80009785359907" lon="9.875873382921506"><ele>440.0</ele><time>2026-04-22T14:04:03Z</time></trkpt><trkpt lat="45.80016110385676" lon="9.875866773610323"><ele>440.0</ele><time>2026-04-22T14:04:04Z</time></trkpt><trkpt lat="45.800281898784114" lon="9.875870474946034"><ele>440.0</ele><time>2026-04-22T14:04:06Z</time></trkpt><trkpt lat="45.80038402208438" lon="9.875795279924162"><ele>440.0</ele><time>2026-04-22T14:04:08Z</time></trkpt><trkpt lat="45.800389256092465" lon="9.875690639243347"><ele>440.0</ele><time>2026-04-22T14:04:09Z</time></trkpt><trkpt lat="45.800305712991126" lon="9.875572795609717"><ele>440.0</ele><time>2026-04-22T14:04:11Z</time></trkpt><trkpt lat="45.80024024182889" lon="9.875582988510093"><ele>440.0</ele><time>2026-04-22T14:04:12Z</time></trkpt><trkpt lat="45.80018463667428" lon="9.875635252361358"><ele>440.0</ele><time>2026-04-22T14:04:13Z</time></trkpt><trkpt lat="45.80007667050301" lon="9.875708348107947"><ele>440.0</ele><time>2026-04-22T14:04:15Z</time></trkpt><trkpt lat="45.799959236482785" lon="9.875709491062175"><ele>440.0</ele><time>2026-04-22T14:04:17Z</time></trkpt><trkpt lat="45.799844526302564" lon="9.875687928763915"><ele>440.0</ele><time>2026-04-22T14:04:19Z</time></trkpt><trkpt lat="45.79973114659274" lon="9.875662826152416"><ele>440.0</ele><time>2026-04-22T14:04:21Z</time></trkpt><trkpt lat="45.79961942520559" lon="9.875644490680383"><ele>440.0</ele><time>2026-04-22T14:04:23Z</time></trkpt><trkpt lat="45.79950777633491" lon="9.875625191276125"><ele>440.0</ele><time>2026-04-22T14:04:25Z</time></trkpt><trkpt lat="45.79939786298365" lon="9.875636646034494"><ele>439.2</ele><time>2026-04-22T14:04:27Z</time></trkpt><trkpt lat="45.79928658187103" lon="9.875680134062076"><ele>438.4</ele><time>2026-04-22T14:04:29Z</time></trkpt><trkpt lat="45.799183177158994" lon="9.875741718450433"><ele>437.6</ele><time>2026-04-22T14:04:31Z</time></trkpt><trkpt lat="45.79909006742771" lon="9.875808812980814"><ele>436.8</ele><time>2026-04-22T14:04:33Z</time></trkpt><trkpt lat="45.798991582890615" lon="9.875886734831615"><ele>436.0</ele><time>2026-04-22T14:04:35Z</time></trkpt><trkpt lat="45.79889742781937" lon="9.875954900313188"><ele>436.0</ele><time>2026-04-22T14:04:37Z</time></trkpt><trkpt lat="45.798784189700534" lon="9.87596098505815"><ele>436.0</ele><time>2026-04-22T14:04:39Z</time></trkpt><trkpt lat="45.79867629305329" lon="9.87590938893391"><ele>436.0</ele><time>2026-04-22T14:04:41Z</time></trkpt><trkpt lat="45.798576995159095" lon="9.875830879664953"><ele>436.0</ele><time>2026-04-22T14:04:43Z</time></trkpt><trkpt lat="45.798487353571126" lon="9.875731140889135"><ele>440.0</ele><time>2026-04-22T14:04:45Z</time></trkpt><trkpt lat="45.79842120860668" lon="9.875595910429587"><ele>444.0</ele><time>2026-04-22T14:04:47Z</time></trkpt><trkpt lat="45.79839536396462" lon="9.875445704217704"><ele>448.0</ele><time>2026-04-22T14:04:49Z</time></trkpt><trkpt lat="45.798397977241734" lon="9.87527713814495"><ele>452.0</ele><time>2026-04-22T14:04:51Z</time></trkpt><trkpt lat="45.79837490941546" lon="9.87512120345203"><ele>455.75</ele><time>2026-04-22T14:04:53Z</time></trkpt><trkpt lat="45.798317389927554" lon="9.87498240264734"><ele>459.5</ele><time>2026-04-22T14:04:55Z</time></trkpt><trkpt lat="45.79823288334654" lon="9.874877598395727"><ele>463.25</ele><time>2026-04-22T14:04:57Z</time></trkpt><trkpt lat="45.7981200655732" lon="9.87484435968431"><ele>467.0</ele><time>2026-04-22T14:04:59Z</time></trkpt><trkpt lat="45.798006832950364" lon="9.87487730194139"><ele>467.0</ele><time>2026-04-22T14:05:01Z</time></trkpt><trkpt lat="45.797921155630824" lon="9.874986345286686"><ele>467.0</ele><time>2026-04-22T14:05:03Z</time></trkpt><trkpt lat="45.797859997086626" lon="9.87512488940416"><ele>467.0</ele><time>2026-04-22T14:05:05Z</time></trkpt><trkpt lat="45.7978259865057" lon="9.875279852198142"><ele>467.0</ele><time>2026-04-22T14:05:07Z</time></trkpt><trkpt lat="45.79778423873827" lon="9.875423730116678"><ele>465.25</ele><time>2026-04-22T14:05:09Z</time></trkpt><trkpt lat="45.79770000746814" lon="9.875532207395876"><ele>463.5</ele><time>2026-04-22T14:05:11Z</time></trkpt><trkpt lat="45.79758930314476" lon="9.875571125343306"><ele>461.75</ele><time>2026-04-22T14:05:13Z</time></trkpt><trkpt lat="45.797475625151414" lon="9.875554079306156"><ele>460.0</ele><time>2026-04-22T14:05:15Z</time></trkpt><trkpt lat="45.79736150077896" lon="9.875529570725476"><ele>460.0</ele><time>2026-04-22T14:05:17Z</time></trkpt><trkpt lat="45.797250007560166" lon="9.87550544397034"><ele>460.0</ele><time>2026-04-22T14:05:19Z</time></trkpt><trkpt lat="45.797135381077794" lon="9.875504010922274"><ele>460.0</ele><time>2026-04-22T14:05:21Z</time></trkpt><trkpt lat="45.797025636620944" lon="9.875553873248684"><ele>460.0</ele><time>2026-04-22T14:05:23Z</time></trkpt><trkpt lat="45.796926815524806" lon="9.87565378343595"><ele>460.0</ele><time>2026-04-22T14:05:25Z</time></trkpt><trkpt lat="45.79684964823907" lon="9.875766070536162"><ele>460.0</ele><time>2026-04-22T14:05:27Z</time></trkpt><trkpt lat="45.796764394107385" lon="9.87587416449014"><ele>460.0</ele><time>2026-04-22T14:05:29Z</time></trkpt><trkpt lat="45.79665915410717" lon="9.875932762213319"><ele>460.0</ele><time>2026-04-22T14:05:31Z</time></trkpt><trkpt lat="45.79654464672582" lon="9.875944086003836"><ele>464.25</ele><time>2026-04-22T14:05:33Z</time></trkpt><trkpt lat="45.79643122876121" lon="9.875914913501049"><ele>468.5</ele><time>2026-04-22T14:05:35Z</time></trkpt><trkpt lat="45.796328377078034" lon="9.875825277285077"><ele>472.75</ele><time>2026-04-22T14:05:37Z</time></trkpt><trkpt lat="45.79622805687932" lon="9.875749758479618"><ele>477.0</ele><time>2026-04-22T14:05:39Z</time></trkpt><trkpt lat="45.79612781145683" lon="9.875667147611955"><ele>477.0</ele><time>2026-04-22T14:05:41Z</time></trkpt><trkpt lat="45.7960268126361" lon="9.875598579414287"><ele>477.0</ele><time>2026-04-22T14:05:43Z</time></trkpt><trkpt lat="45.795910689012125" lon="9.875578355504686"><ele>477.0</ele><time>2026-04-22T14:05:45Z</time></trkpt><trkpt lat="45.79579926898853" lon="9.875602019427484"><ele>477.0</ele><time>2026-04-22T14:05:47Z</time></trkpt><trkpt lat="45.79570023113465" lon="9.875688350508959"><ele>475.25</ele><time>2026-04-22T14:05:49Z</time></trkpt><trkpt lat="45.79562366012627" lon="9.875810674907466"><ele>473.5</ele><time>2026-04-22T14:05:51Z</time></trkpt><trkpt lat="45.79555902320487" lon="9.875940768361266"><ele>471.75</ele><time>2026-04-22T14:05:53Z</time></trkpt><trkpt lat="45.795486793223716" lon="9.876068441361397"><ele>470.0</ele><time>2026-04-22T14:05:55Z</time></trkpt><trkpt lat="45.79539872892635" lon="9.876166859033193"><ele>470.0</ele><time>2026-04-22T14:05:57Z</time></trkpt><trkpt lat="45.79530478592009" lon="9.876266446325182"><ele>470.0</ele><time>2026-04-22T14:05:59Z</time></trkpt><trkpt lat="45.79521509673086" lon="9.87636832894046"><ele>470.0</ele><time>2026-04-22T14:06:01Z</time></trkpt><trkpt lat="45.79512892961289" lon="9.876467436479565"><ele>470.0</ele><time>2026-04-22T14:06:03Z</time></trkpt><trkpt lat="45.79505192789259" lon="9.876581414704722"><ele>476.0</ele><time>2026-04-22T14:06:05Z</time></trkpt><trkpt lat="45.79499600546717" lon="9.876727303888917"><ele>482.0</ele><time>2026-04-22T14:06:07Z</time></trkpt><trkpt lat="45.79495508219815" lon="9.876872584469123"><ele>488.0</ele><time>2026-04-22T14:06:09Z</time></trkpt><trkpt lat="45.79491237174621" lon="9.877025346856515"><ele>494.0</ele><time>2026-04-22T14:06:11Z</time></trkpt><trkpt lat="45.79487374795222" lon="9.877176428607251"><ele>494.0</ele><time>2026-04-22T14:06:13Z</time></trkpt><trkpt lat="45.79483880056044" lon="9.877328359775424"><ele>494.0</ele><time>2026-04-22T14:06:15Z</time></trkpt><trkpt lat="45.79480309927664" lon="9.877484705335183"><ele>494.0</ele><time>2026-04-22T14:06:17Z</time></trkpt><trkpt lat="45.79476048905096" lon="9.87763028571015"><ele>494.0</ele><time>2026-04-22T14:06:19Z</time></trkpt><trkpt lat="45.79470869744814" lon="9.877770238279368"><ele>494.0</ele><time>2026-04-22T14:06:21Z</time></trkpt><trkpt lat="45.79462685892413" lon="9.877877411896371"><ele>493.25</ele><time>2026-04-22T14:06:23Z</time></trkpt><trkpt lat="45.79452198677021" lon="9.877946211842058"><ele>492.5</ele><time>2026-04-22T14:06:25Z</time></trkpt><trkpt lat="45.79440830841691" lon="9.877954671494354"><ele>491.75</ele><time>2026-04-22T14:06:27Z</time></trkpt><trkpt lat="45.79429289949883" lon="9.877950775995982"><ele>491.0</ele><time>2026-04-22T14:06:29Z</time></trkpt><trkpt lat="45.79417936096911" lon="9.877962904550216"><ele>494.25</ele><time>2026-04-22T14:06:31Z</time></trkpt><trkpt lat="45.794067591852766" lon="9.878013063428929"><ele>497.5</ele><time>2026-04-22T14:06:33Z</time></trkpt><trkpt lat="45.79397553528307" lon="9.878109806039603"><ele>500.75</ele><time>2026-04-22T14:06:35Z</time></trkpt><trkpt lat="45.79392980056141" lon="9.878257333706273"><ele>504.0</ele><time>2026-04-22T14:06:37Z</time></trkpt><trkpt lat="45.79391567755356" lon="9.87841849650274"><ele>504.25</ele><time>2026-04-22T14:06:39Z</time></trkpt><trkpt lat="45.79390513281563" lon="9.878570325393722"><ele>504.5</ele><time>2026-04-22T14:06:41Z</time></trkpt><trkpt lat="45.79391759384904" lon="9.87873759435904"><ele>504.75</ele><time>2026-04-22T14:06:43Z</time></trkpt><trkpt lat="45.79389793503813" lon="9.878898570373059"><ele>505.0</ele><time>2026-04-22T14:06:45Z</time></trkpt><trkpt lat="45.793836607578875" lon="9.879038307154607"><ele>505.0</ele><time>2026-04-22T14:06:47Z</time></trkpt><trkpt lat="45.79375001782944" lon="9.879149213539007"><ele>505.0</ele><time>2026-04-22T14:06:49Z</time></trkpt><trkpt lat="45.79366941750709" lon="9.879266436577815"><ele>505.0</ele><time>2026-04-22T14:06:51Z</time></trkpt><trkpt lat="45.7936136273323" lon="9.879408508248337"><ele>505.0</ele><time>2026-04-22T14:06:53Z</time></trkpt><trkpt lat="45.79359344881682" lon="9.879572392536364"><ele>506.25</ele><time>2026-04-22T14:06:55Z</time></trkpt><trkpt lat="45.79359487697823" lon="9.879738002183348"><ele>507.5</ele><time>2026-04-22T14:06:57Z</time></trkpt><trkpt lat="45.793584673577456" lon="9.879902511312117"><ele>508.75</ele><time>2026-04-22T14:06:59Z</time></trkpt><trkpt lat="45.79357894984523" lon="9.880068527209271"><ele>510.0</ele><time>2026-04-22T14:07:01Z</time></trkpt><trkpt lat="45.793576176199984" lon="9.88022945457562"><ele>510.6</ele><time>2026-04-22T14:07:03Z</time></trkpt><trkpt lat="45.7935789591071" lon="9.880387883843275"><ele>511.2</ele><time>2026-04-22T14:07:05Z</time></trkpt><trkpt lat="45.79358046759079" lon="9.880548794104682"><ele>511.79999999999995</ele><time>2026-04-22T14:07:07Z</time></trkpt><trkpt lat="45.79357069023662" lon="9.88070995813557"><ele>512.4</ele><time>2026-04-22T14:07:09Z</time></trkpt><trkpt lat="45.79355940151063" lon="9.880867158450659"><ele>513.0</ele><time>2026-04-22T14:07:11Z</time></trkpt><trkpt lat="45.79353471237498" lon="9.881028054269391"><ele>516.5</ele><time>2026-04-22T14:07:13Z</time></trkpt><trkpt lat="45.79349195438714" lon="9.881170221614518"><ele>520.0</ele><time>2026-04-22T14:07:15Z</time></trkpt><trkpt lat="45.79343272058717" lon="9.8813154191667"><ele>523.5</ele><time>2026-04-22T14:07:17Z</time></trkpt><trkpt lat="45.79336204669715" lon="9.881440195720293"><ele>527.0</ele><time>2026-04-22T14:07:19Z</time></trkpt><trkpt lat="45.79330435844523" lon="9.881592577509354"><ele>527.0</ele><time>2026-04-22T14:07:21Z</time></trkpt><trkpt lat="45.793241216772266" lon="9.881721036931214"><ele>527.0</ele><time>2026-04-22T14:07:23Z</time></trkpt><trkpt lat="45.793179066153584" lon="9.881861179977761"><ele>527.0</ele><time>2026-04-22T14:07:25Z</time></trkpt><trkpt lat="45.7931136297311" lon="9.881993675635275"><ele>527.0</ele><time>2026-04-22T14:07:27Z</time></trkpt><trkpt lat="45.79302565429108" lon="9.88209766755741"><ele>527.75</ele><time>2026-04-22T14:07:29Z</time></trkpt><trkpt lat="45.792911477930005" lon="9.882147947907427"><ele>528.5</ele><time>2026-04-22T14:07:31Z</time></trkpt><trkpt lat="45.79279536052401" lon="9.882170498681443"><ele>529.25</ele><time>2026-04-22T14:07:33Z</time></trkpt><trkpt lat="45.79266783596451" lon="9.882191631507208"><ele>530.0</ele><time>2026-04-22T14:07:35Z</time></trkpt><trkpt lat="45.79255551429815" lon="9.882137736748852"><ele>530.0</ele><time>2026-04-22T14:07:37Z</time></trkpt><trkpt lat="45.79250491548368" lon="9.882080719464758"><ele>530.0</ele><time>2026-04-22T14:07:38Z</time></trkpt><trkpt lat="45.7924756871626" lon="9.881996984146854"><ele>530.0</ele><time>2026-04-22T14:07:39Z</time></trkpt><trkpt lat="45.79246517650101" lon="9.88190231620053"><ele>530.0</ele><time>2026-04-22T14:07:40Z</time></trkpt><trkpt lat="45.7924633675759" lon="9.88180923548767"><ele>530.0</ele><time>2026-04-22T14:07:41Z</time></trkpt><trkpt lat="45.79245021289351" lon="9.88163215543028"><ele>530.0</ele><time>2026-04-22T14:07:43Z</time></trkpt><trkpt lat="45.79242418982867" lon="9.881456333936113"><ele>530.75</ele><time>2026-04-22T14:07:45Z</time></trkpt><trkpt lat="45.79239550405437" lon="9.881288516634147"><ele>531.5</ele><time>2026-04-22T14:07:47Z</time></trkpt><trkpt lat="45.79237224716092" lon="9.881117803927475"><ele>532.25</ele><time>2026-04-22T14:07:49Z</time></trkpt><trkpt lat="45.79234851393697" lon="9.880942848084388"><ele>533.0</ele><time>2026-04-22T14:07:51Z</time></trkpt><trkpt lat="45.79232362108195" lon="9.880764166991089"><ele>534.5</ele><time>2026-04-22T14:07:53Z</time></trkpt><trkpt lat="45.7923092757647" lon="9.880590885890909"><ele>536.0</ele><time>2026-04-22T14:07:55Z</time></trkpt><trkpt lat="45.79228607456721" lon="9.88041739125228"><ele>537.5</ele><time>2026-04-22T14:07:57Z</time></trkpt><trkpt lat="45.792263457662536" lon="9.880242602243726"><ele>539.0</ele><time>2026-04-22T14:07:59Z</time></trkpt><trkpt lat="45.79223463406279" lon="9.880065807367107"><ele>539.75</ele><time>2026-04-22T14:08:01Z</time></trkpt><trkpt lat="45.79219736988852" lon="9.87990258600451"><ele>540.5</ele><time>2026-04-22T14:08:03Z</time></trkpt><trkpt lat="45.792146646665785" lon="9.879740878929109"><ele>541.25</ele><time>2026-04-22T14:08:05Z</time></trkpt><trkpt lat="45.79208768724736" lon="9.8795838249926"><ele>542.0</ele><time>2026-04-22T14:08:07Z</time></trkpt><trkpt lat="45.792032199763604" lon="9.879425125524913"><ele>542.0</ele><time>2026-04-22T14:08:09Z</time></trkpt><trkpt lat="45.791970306341156" lon="9.879273810672538"><ele>542.0</ele><time>2026-04-22T14:08:11Z</time></trkpt><trkpt lat="45.79191583180992" lon="9.879114792529368"><ele>542.0</ele><time>2026-04-22T14:08:13Z</time></trkpt><trkpt lat="45.791882852095874" lon="9.879033307977828"><ele>542.0</ele><time>2026-04-22T14:08:14Z</time></trkpt><trkpt lat="45.791825891766145" lon="9.878879059543067"><ele>542.0</ele><time>2026-04-22T14:08:16Z</time></trkpt><trkpt lat="45.79179639941655" lon="9.878797616780824"><ele>542.3333333333333</ele><time>2026-04-22T14:08:17Z</time></trkpt><trkpt lat="45.79176289024128" lon="9.87871898311279"><ele>542.6666666666666</ele><time>2026-04-22T14:08:18Z</time></trkpt><trkpt lat="45.79168783256046" lon="9.878567168168416"><ele>543.0</ele><time>2026-04-22T14:08:20Z</time></trkpt><trkpt lat="45.79164084466193" lon="9.878492821215943"><ele>543.3333333333334</ele><time>2026-04-22T14:08:21Z</time></trkpt><trkpt lat="45.7915956775776" lon="9.878424802185092"><ele>543.6666666666667</ele><time>2026-04-22T14:08:22Z</time></trkpt><trkpt lat="45.79154054668396" lon="9.87835430527819"><ele>544.0</ele><time>2026-04-22T14:08:23Z</time></trkpt><trkpt lat="45.791480865827026" lon="9.878295709243032"><ele>544.0</ele><time>2026-04-22T14:08:24Z</time></trkpt><trkpt lat="45.79141291570962" lon="9.878238408991741"><ele>544.0</ele><time>2026-04-22T14:08:25Z</time></trkpt><trkpt lat="45.79134750068115" lon="9.878186344595484"><ele>544.0</ele><time>2026-04-22T14:08:26Z</time></trkpt><trkpt lat="45.7912741418984" lon="9.878131356607891"><ele>544.0</ele><time>2026-04-22T14:08:27Z</time></trkpt><trkpt lat="45.79120076182071" lon="9.878071404512255"><ele>544.0</ele><time>2026-04-22T14:08:28Z</time></trkpt><trkpt lat="45.79112038036549" lon="9.878010611897393"><ele>544.0</ele><time>2026-04-22T14:08:29Z</time></trkpt><trkpt lat="45.79103579915653" lon="9.877953783456617"><ele>542.4</ele><time>2026-04-22T14:08:30Z</time></trkpt><trkpt lat="45.79095830545074" lon="9.877880156141659"><ele>540.8</ele><time>2026-04-22T14:08:31Z</time></trkpt><trkpt lat="45.79087764868955" lon="9.877800193566985"><ele>539.2</ele><time>2026-04-22T14:08:32Z</time></trkpt><trkpt lat="45.79080538373701" lon="9.877708381802702"><ele>537.6</ele><time>2026-04-22T14:08:33Z</time></trkpt><trkpt lat="45.79073783092547" lon="9.877600850165388"><ele>536.0</ele><time>2026-04-22T14:08:34Z</time></trkpt><trkpt lat="45.79067762476963" lon="9.877485549190528"><ele>536.0</ele><time>2026-04-22T14:08:35Z</time></trkpt><trkpt lat="45.79061874872782" lon="9.87737132532255"><ele>536.0</ele><time>2026-04-22T14:08:36Z</time></trkpt><trkpt lat="45.79056057821078" lon="9.877251289955286"><ele>536.0</ele><time>2026-04-22T14:08:37Z</time></trkpt><trkpt lat="45.79050405783671" lon="9.877130794642586"><ele>536.0</ele><time>2026-04-22T14:08:38Z</time></trkpt><trkpt lat="45.79044695152117" lon="9.87701347300664"><ele>536.0</ele><time>2026-04-22T14:08:39Z</time></trkpt><trkpt lat="45.79038761019794" lon="9.876896209075342"><ele>536.0</ele><time>2026-04-22T14:08:40Z</time></trkpt><trkpt lat="45.790326026632435" lon="9.876783212580298"><ele>536.0</ele><time>2026-04-22T14:08:41Z</time></trkpt><trkpt lat="45.79026606053121" lon="9.87667447920876"><ele>536.0</ele><time>2026-04-22T14:08:42Z</time></trkpt><trkpt lat="45.79020115195207" lon="9.876571860442171"><ele>536.0</ele><time>2026-04-22T14:08:43Z</time></trkpt><trkpt lat="45.790133184839334" lon="9.876486656578171"><ele>536.0</ele><time>2026-04-22T14:08:44Z</time></trkpt><trkpt lat="45.79006220096014" lon="9.876407800997953"><ele>535.0</ele><time>2026-04-22T14:08:45Z</time></trkpt><trkpt lat="45.79000104115087" lon="9.876336322701974"><ele>534.0</ele><time>2026-04-22T14:08:46Z</time></trkpt><trkpt lat="45.78993519118268" lon="9.876272438452231"><ele>533.0</ele><time>2026-04-22T14:08:47Z</time></trkpt><trkpt lat="45.789873415303504" lon="9.876211517661886"><ele>532.0</ele><time>2026-04-22T14:08:48Z</time></trkpt><trkpt lat="45.78981566781502" lon="9.87615286426039"><ele>531.0</ele><time>2026-04-22T14:08:49Z</time></trkpt><trkpt lat="45.789763462329255" lon="9.876095496755864"><ele>530.0</ele><time>2026-04-22T14:08:50Z</time></trkpt><trkpt lat="45.78965986800268" lon="9.875994292652502"><ele>530.25</ele><time>2026-04-22T14:08:52Z</time></trkpt><trkpt lat="45.78955736920006" lon="9.875894469375698"><ele>530.5</ele><time>2026-04-22T14:08:54Z</time></trkpt><trkpt lat="45.7894565307861" lon="9.875789754570764"><ele>530.75</ele><time>2026-04-22T14:08:56Z</time></trkpt><trkpt lat="45.789360348053016" lon="9.875673821697472"><ele>531.0</ele><time>2026-04-22T14:08:58Z</time></trkpt><trkpt lat="45.7892651056502" lon="9.875560895544012"><ele>531.0</ele><time>2026-04-22T14:09:00Z</time></trkpt><trkpt lat="45.7891701619344" lon="9.875446897175449"><ele>531.0</ele><time>2026-04-22T14:09:02Z</time></trkpt><trkpt lat="45.789078100429634" lon="9.87532981652997"><ele>531.0</ele><time>2026-04-22T14:09:04Z</time></trkpt><trkpt lat="45.788983978493995" lon="9.875216759498707"><ele>531.0</ele><time>2026-04-22T14:09:06Z</time></trkpt><trkpt lat="45.78889353225344" lon="9.875099764107249"><ele>532.0</ele><time>2026-04-22T14:09:08Z</time></trkpt><trkpt lat="45.78880156632541" lon="9.874984553615985"><ele>533.0</ele><time>2026-04-22T14:09:10Z</time></trkpt><trkpt lat="45.78871285875709" lon="9.874865738369298"><ele>534.0</ele><time>2026-04-22T14:09:12Z</time></trkpt><trkpt lat="45.788622688243926" lon="9.874749278096365"><ele>535.0</ele><time>2026-04-22T14:09:14Z</time></trkpt><trkpt lat="45.78853088691897" lon="9.87463595360633"><ele>538.75</ele><time>2026-04-22T14:09:16Z</time></trkpt><trkpt lat="45.78843612466893" lon="9.874527011627315"><ele>542.5</ele><time>2026-04-22T14:09:18Z</time></trkpt><trkpt lat="45.78834547207376" lon="9.874411980054841"><ele>546.25</ele><time>2026-04-22T14:09:20Z</time></trkpt><trkpt lat="45.78825490762922" lon="9.874294103629493"><ele>550.0</ele><time>2026-04-22T14:09:22Z</time></trkpt><trkpt lat="45.788168669639674" lon="9.874174901039714"><ele>550.0</ele><time>2026-04-22T14:09:24Z</time></trkpt><trkpt lat="45.78808966542905" lon="9.874046965603242"><ele>550.0</ele><time>2026-04-22T14:09:26Z</time></trkpt><trkpt lat="45.788013243175925" lon="9.873916129582982"><ele>550.0</ele><time>2026-04-22T14:09:28Z</time></trkpt><trkpt lat="45.78794263847224" lon="9.873778301940247"><ele>550.0</ele><time>2026-04-22T14:09:30Z</time></trkpt><trkpt lat="45.78786920725113" lon="9.87364108409943"><ele>550.0</ele><time>2026-04-22T14:09:32Z</time></trkpt><trkpt lat="45.7878020785145" lon="9.873498368428066"><ele>550.0</ele><time>2026-04-22T14:09:34Z</time></trkpt><trkpt lat="45.78775800885996" lon="9.87333273540476"><ele>550.0</ele><time>2026-04-22T14:09:36Z</time></trkpt><trkpt lat="45.787734789316104" lon="9.873167827666204"><ele>550.0</ele><time>2026-04-22T14:09:38Z</time></trkpt><trkpt lat="45.787715897462114" lon="9.872998277171876"><ele>550.5</ele><time>2026-04-22T14:09:40Z</time></trkpt><trkpt lat="45.78768785079838" lon="9.872830822756153"><ele>551.0</ele><time>2026-04-22T14:09:42Z</time></trkpt><trkpt lat="45.787666104246064" lon="9.872652924865523"><ele>551.5</ele><time>2026-04-22T14:09:44Z</time></trkpt><trkpt lat="45.78763155905885" lon="9.872494602924164"><ele>552.0</ele><time>2026-04-22T14:09:46Z</time></trkpt><trkpt lat="45.7875596610595" lon="9.872365766533827"><ele>552.2</ele><time>2026-04-22T14:09:48Z</time></trkpt><trkpt lat="45.78745429011173" lon="9.872272022218198"><ele>552.4000000000001</ele><time>2026-04-22T14:09:50Z</time></trkpt><trkpt lat="45.787393232720504" lon="9.872239680851925"><ele>552.5999999999999</ele><time>2026-04-22T14:09:51Z</time></trkpt><trkpt lat="45.787290683255854" lon="9.872155418494744"><ele>552.8</ele><time>2026-04-22T14:09:53Z</time></trkpt><trkpt lat="45.78718782518101" lon="9.872077940189058"><ele>553.0</ele><time>2026-04-22T14:09:55Z</time></trkpt><trkpt lat="45.78708507006691" lon="9.871998447358985"><ele>553.0</ele><time>2026-04-22T14:09:57Z</time></trkpt><trkpt lat="45.7869886560618" lon="9.871910237086702"><ele>553.0</ele><time>2026-04-22T14:09:59Z</time></trkpt><trkpt lat="45.78689142849699" lon="9.87181808988697"><ele>553.0</ele><time>2026-04-22T14:10:01Z</time></trkpt><trkpt lat="45.78679365593089" lon="9.871725706575765"><ele>553.0</ele><time>2026-04-22T14:10:03Z</time></trkpt><trkpt lat="45.786698687169434" lon="9.87162550908019"><ele>556.5</ele><time>2026-04-22T14:10:05Z</time></trkpt><trkpt lat="45.78660842046663" lon="9.871526442481859"><ele>560.0</ele><time>2026-04-22T14:10:07Z</time></trkpt><trkpt lat="45.78651885623865" lon="9.87142432959875"><ele>563.5</ele><time>2026-04-22T14:10:09Z</time></trkpt><trkpt lat="45.78642895312732" lon="9.871326996966987"><ele>567.0</ele><time>2026-04-22T14:10:11Z</time></trkpt><trkpt lat="45.78633110745519" lon="9.871231423652514"><ele>567.0</ele><time>2026-04-22T14:10:13Z</time></trkpt><trkpt lat="45.78623496515556" lon="9.871127899956578"><ele>567.0</ele><time>2026-04-22T14:10:15Z</time></trkpt><trkpt lat="45.786139419610876" lon="9.87103134287412"><ele>567.0</ele><time>2026-04-22T14:10:17Z</time></trkpt><trkpt lat="45.78605057318033" lon="9.870949739410785"><ele>567.0</ele><time>2026-04-22T14:10:19Z</time></trkpt><trkpt lat="45.78595331851223" lon="9.870841521653238"><ele>568.6</ele><time>2026-04-22T14:10:21Z</time></trkpt><trkpt lat="45.785852871790766" lon="9.870726979197725"><ele>570.2</ele><time>2026-04-22T14:10:23Z</time></trkpt><trkpt lat="45.785801939521434" lon="9.870673693177194"><ele>571.8</ele><time>2026-04-22T14:10:24Z</time></trkpt><trkpt lat="45.78574904740662" lon="9.870621144674796"><ele>573.4</ele><time>2026-04-22T14:10:25Z</time></trkpt><trkpt lat="45.785696771712786" lon="9.870566875820044"><ele>575.0</ele><time>2026-04-22T14:10:26Z</time></trkpt><trkpt lat="45.785593128666186" lon="9.870455418847806"><ele>575.0</ele><time>2026-04-22T14:10:28Z</time></trkpt><trkpt lat="45.78548953028223" lon="9.870345560130373"><ele>575.0</ele><time>2026-04-22T14:10:30Z</time></trkpt><trkpt lat="45.7854386959737" lon="9.870290125646402"><ele>575.0</ele><time>2026-04-22T14:10:31Z</time></trkpt><trkpt lat="45.7853869353696" lon="9.870234693112529"><ele>575.0</ele><time>2026-04-22T14:10:32Z</time></trkpt><trkpt lat="45.785336834052146" lon="9.87017836777039"><ele>575.0</ele><time>2026-04-22T14:10:33Z</time></trkpt><trkpt lat="45.78528562196255" lon="9.870122258340214"><ele>575.0</ele><time>2026-04-22T14:10:34Z</time></trkpt><trkpt lat="45.78524083119038" lon="9.870058439250332"><ele>575.0</ele><time>2026-04-22T14:10:35Z</time></trkpt><trkpt lat="45.78515615459549" lon="9.869927417008103"><ele>574.8</ele><time>2026-04-22T14:10:37Z</time></trkpt><trkpt lat="45.78507220263387" lon="9.869797676167579"><ele>574.6</ele><time>2026-04-22T14:10:39Z</time></trkpt><trkpt lat="45.785030864748926" lon="9.869725050174644"><ele>574.4</ele><time>2026-04-22T14:10:40Z</time></trkpt><trkpt lat="45.78495283899058" lon="9.86960627058798"><ele>574.2</ele><time>2026-04-22T14:10:42Z</time></trkpt><trkpt lat="45.784910674730625" lon="9.869532155407812"><ele>574.0</ele><time>2026-04-22T14:10:43Z</time></trkpt><trkpt lat="45.78482275177765" lon="9.869407182876577"><ele>574.0</ele><time>2026-04-22T14:10:45Z</time></trkpt><trkpt lat="45.784733384160575" lon="9.869292513226137"><ele>574.0</ele><time>2026-04-22T14:10:47Z</time></trkpt><trkpt lat="45.78463028881321" lon="9.86920564878393"><ele>574.0</ele><time>2026-04-22T14:10:49Z</time></trkpt><trkpt lat="45.78452012303092" lon="9.86913329747032"><ele>574.0</ele><time>2026-04-22T14:10:51Z</time></trkpt><trkpt lat="45.784409919920726" lon="9.869056671466968"><ele>572.6</ele><time>2026-04-22T14:10:53Z</time></trkpt><trkpt lat="45.7843016880179" lon="9.868984119270033"><ele>571.2</ele><time>2026-04-22T14:10:55Z</time></trkpt><trkpt lat="45.78419285376329" lon="9.868916276229287"><ele>569.8000000000001</ele><time>2026-04-22T14:10:57Z</time></trkpt><trkpt lat="45.784077421322266" lon="9.86884986493365"><ele>568.4</ele><time>2026-04-22T14:10:59Z</time></trkpt><trkpt lat="45.784017075272764" lon="9.868819253068862"><ele>567.0</ele><time>2026-04-22T14:11:00Z</time></trkpt><trkpt lat="45.78389887013134" lon="9.86876843742924"><ele>567.0</ele><time>2026-04-22T14:11:02Z</time></trkpt><trkpt lat="45.7837790463289" lon="9.868724648142809"><ele>567.0</ele><time>2026-04-22T14:11:04Z</time></trkpt><trkpt lat="45.783657976385854" lon="9.868685558297718"><ele>567.0</ele><time>2026-04-22T14:11:06Z</time></trkpt><trkpt lat="45.78354084311634" lon="9.868677063851194"><ele>567.0</ele><time>2026-04-22T14:11:08Z</time></trkpt><trkpt lat="45.78347725359036" lon="9.868693308958125"><ele>567.0</ele><time>2026-04-22T14:11:09Z</time></trkpt><trkpt lat="45.78336568212853" lon="9.868772891620232"><ele>567.4285714285714</ele><time>2026-04-22T14:11:11Z</time></trkpt><trkpt lat="45.783266441051296" lon="9.868884932565301"><ele>567.8571428571429</ele><time>2026-04-22T14:11:13Z</time></trkpt><trkpt lat="45.78321624755683" lon="9.868941661346973"><ele>568.2857142857142</ele><time>2026-04-22T14:11:14Z</time></trkpt><trkpt lat="45.78316601297673" lon="9.8689974097521"><ele>568.7142857142858</ele><time>2026-04-22T14:11:15Z</time></trkpt><trkpt lat="45.78311522650795" lon="9.869050845631502"><ele>569.1428571428571</ele><time>2026-04-22T14:11:16Z</time></trkpt><trkpt lat="45.78306518764972" lon="9.869108212510692"><ele>569.5714285714286</ele><time>2026-04-22T14:11:17Z</time></trkpt><trkpt lat="45.78301138466617" lon="9.869156935876322"><ele>570.0</ele><time>2026-04-22T14:11:18Z</time></trkpt><trkpt lat="45.782950509443744" lon="9.8691836161186"><ele>570.0</ele><time>2026-04-22T14:11:19Z</time></trkpt><trkpt lat="45.7828838221286" lon="9.86919414397819"><ele>570.0</ele><time>2026-04-22T14:11:20Z</time></trkpt><trkpt lat="45.78281185206585" lon="9.869170446075584"><ele>570.0</ele><time>2026-04-22T14:11:21Z</time></trkpt><trkpt lat="45.78271371118351" lon="9.869060676562293"><ele>570.0</ele><time>2026-04-22T14:11:23Z</time></trkpt><trkpt lat="45.782686702557314" lon="9.868970577423308"><ele>570.0</ele><time>2026-04-22T14:11:24Z</time></trkpt><trkpt lat="45.782681398019086" lon="9.868880449796245"><ele>570.0</ele><time>2026-04-22T14:11:25Z</time></trkpt><trkpt lat="45.78268882776246" lon="9.868786980209462"><ele>570.0</ele><time>2026-04-22T14:11:26Z</time></trkpt><trkpt lat="45.782699506443" lon="9.868694478406908"><ele>570.0</ele><time>2026-04-22T14:11:27Z</time></trkpt><trkpt lat="45.782715406143446" lon="9.868517132335002"><ele>570.0</ele><time>2026-04-22T14:11:29Z</time></trkpt><trkpt lat="45.78272573897536" lon="9.868340213994687"><ele>570.0</ele><time>2026-04-22T14:11:31Z</time></trkpt><trkpt lat="45.78272352939121" lon="9.86816515064962"><ele>570.0</ele><time>2026-04-22T14:11:33Z</time></trkpt><trkpt lat="45.78268715713356" lon="9.867995264145316"><ele>570.75</ele><time>2026-04-22T14:11:35Z</time></trkpt><trkpt lat="45.782615128848335" lon="9.867851921425473"><ele>571.5</ele><time>2026-04-22T14:11:37Z</time></trkpt><trkpt lat="45.782540962644845" lon="9.867722692204401"><ele>572.25</ele><time>2026-04-22T14:11:39Z</time></trkpt><trkpt lat="45.782455409113304" lon="9.86760882011417"><ele>573.0</ele><time>2026-04-22T14:11:41Z</time></trkpt><trkpt lat="45.78234630577472" lon="9.867542609392459"><ele>571.5</ele><time>2026-04-22T14:11:43Z</time></trkpt><trkpt lat="45.78222537085173" lon="9.86751832225113"><ele>570.0</ele><time>2026-04-22T14:11:45Z</time></trkpt><trkpt lat="45.782109845402545" lon="9.867486213216687"><ele>568.5</ele><time>2026-04-22T14:11:47Z</time></trkpt><trkpt lat="45.781991499047564" lon="9.867458214216633"><ele>567.0</ele><time>2026-04-22T14:11:49Z</time></trkpt><trkpt lat="45.78187718886951" lon="9.867432073852589"><ele>569.75</ele><time>2026-04-22T14:11:51Z</time></trkpt><trkpt lat="45.78175643500827" lon="9.867405549242342"><ele>572.5</ele><time>2026-04-22T14:11:53Z</time></trkpt><trkpt lat="45.78163491846671" lon="9.867372187899667"><ele>575.25</ele><time>2026-04-22T14:11:55Z</time></trkpt><trkpt lat="45.78151678644552" lon="9.867335844017125"><ele>578.0</ele><time>2026-04-22T14:11:57Z</time></trkpt><trkpt lat="45.78140933164569" lon="9.86728953989613"><ele>578.0</ele><time>2026-04-22T14:11:59Z</time></trkpt><trkpt lat="45.781311239613814" lon="9.867239268167541"><ele>578.0</ele><time>2026-04-22T14:12:01Z</time></trkpt><trkpt lat="45.78122463204275" lon="9.867191635472416"><ele>578.0</ele><time>2026-04-22T14:12:03Z</time></trkpt><trkpt lat="45.78112700490416" lon="9.867147689404526"><ele>578.0</ele><time>2026-04-22T14:12:05Z</time></trkpt><trkpt lat="45.781009212426966" lon="9.867101474101485"><ele>578.0</ele><time>2026-04-22T14:12:07Z</time></trkpt><trkpt lat="45.780946508758475" lon="9.867088191312327"><ele>578.3333333333333</ele><time>2026-04-22T14:12:08Z</time></trkpt><trkpt lat="45.780822710822314" lon="9.867099200052209"><ele>578.6666666666666</ele><time>2026-04-22T14:12:10Z</time></trkpt><trkpt lat="45.7807599720715" lon="9.867108122019948"><ele>579.0</ele><time>2026-04-22T14:12:11Z</time></trkpt><trkpt lat="45.78069574322481" lon="9.867126394120582"><ele>579.3333333333334</ele><time>2026-04-22T14:12:12Z</time></trkpt><trkpt lat="45.78063052326798" lon="9.86714387215147"><ele>579.6666666666667</ele><time>2026-04-22T14:12:13Z</time></trkpt><trkpt lat="45.780565532775746" lon="9.867162014911132"><ele>580.0</ele><time>2026-04-22T14:12:14Z</time></trkpt><trkpt lat="45.780501223587784" lon="9.86717964250231"><ele>580.0</ele><time>2026-04-22T14:12:15Z</time></trkpt><trkpt lat="45.78043730107174" lon="9.867198783610563"><ele>580.0</ele><time>2026-04-22T14:12:16Z</time></trkpt><trkpt lat="45.780373342319464" lon="9.867214007709736"><ele>580.0</ele><time>2026-04-22T14:12:17Z</time></trkpt><trkpt lat="45.78031202505506" lon="9.867238873565476"><ele>580.0</ele><time>2026-04-22T14:12:18Z</time></trkpt><trkpt lat="45.78024623579179" lon="9.867257683419988"><ele>580.0</ele><time>2026-04-22T14:12:19Z</time></trkpt><trkpt lat="45.780185334093304" lon="9.867286942281874"><ele>580.0</ele><time>2026-04-22T14:12:20Z</time></trkpt><trkpt lat="45.78012818907432" lon="9.8673321221412"><ele>580.0</ele><time>2026-04-22T14:12:21Z</time></trkpt><trkpt lat="45.780081291770635" lon="9.867395252379868"><ele>578.2857142857143</ele><time>2026-04-22T14:12:22Z</time></trkpt><trkpt lat="45.78003291555466" lon="9.867467921612255"><ele>576.5714285714287</ele><time>2026-04-22T14:12:23Z</time></trkpt><trkpt lat="45.780005657481404" lon="9.867550164237185"><ele>574.8571428571429</ele><time>2026-04-22T14:12:24Z</time></trkpt><trkpt lat="45.77998144446783" lon="9.867641365036315"><ele>573.1428571428571</ele><time>2026-04-22T14:12:25Z</time></trkpt><trkpt lat="45.77996167214732" lon="9.867745328656891"><ele>571.4285714285713</ele><time>2026-04-22T14:12:26Z</time></trkpt><trkpt lat="45.77995876916756" lon="9.867851633541475"><ele>569.7142857142857</ele><time>2026-04-22T14:12:27Z</time></trkpt><trkpt lat="45.77995103689491" lon="9.86795777208814"><ele>568.0</ele><time>2026-04-22T14:12:28Z</time></trkpt><trkpt lat="45.77994457606788" lon="9.868066386435597"><ele>568.0</ele><time>2026-04-22T14:12:29Z</time></trkpt><trkpt lat="45.779932852965025" lon="9.868178818882367"><ele>568.0</ele><time>2026-04-22T14:12:30Z</time></trkpt><trkpt lat="45.779926027357426" lon="9.868287188367017"><ele>568.0</ele><time>2026-04-22T14:12:31Z</time></trkpt><trkpt lat="45.77992251055384" lon="9.868401943717814"><ele>568.0</ele><time>2026-04-22T14:12:32Z</time></trkpt><trkpt lat="45.77992079616812" lon="9.868523163433089"><ele>568.0</ele><time>2026-04-22T14:12:33Z</time></trkpt><trkpt lat="45.77991300448807" lon="9.8686353320432"><ele>568.0</ele><time>2026-04-22T14:12:34Z</time></trkpt><trkpt lat="45.779909465612896" lon="9.868749916636045"><ele>568.1666666666667</ele><time>2026-04-22T14:12:35Z</time></trkpt><trkpt lat="45.779906252210104" lon="9.86886733535217"><ele>568.3333333333334</ele><time>2026-04-22T14:12:36Z</time></trkpt><trkpt lat="45.779893038424895" lon="9.868986965023492"><ele>568.5</ele><time>2026-04-22T14:12:37Z</time></trkpt><trkpt lat="45.77987195409216" lon="9.869101478050057"><ele>568.6666666666666</ele><time>2026-04-22T14:12:38Z</time></trkpt><trkpt lat="45.77984219871043" lon="9.869216762905978"><ele>568.8333333333333</ele><time>2026-04-22T14:12:39Z</time></trkpt><trkpt lat="45.77980390441891" lon="9.869323794976625"><ele>569.0</ele><time>2026-04-22T14:12:40Z</time></trkpt><trkpt lat="45.77976213753582" lon="9.869430152046744"><ele>570.6666666666666</ele><time>2026-04-22T14:12:41Z</time></trkpt><trkpt lat="45.77971094390199" lon="9.869522524797755"><ele>572.3333333333333</ele><time>2026-04-22T14:12:42Z</time></trkpt><trkpt lat="45.77965944114853" lon="9.86961852015657"><ele>574.0</ele><time>2026-04-22T14:12:43Z</time></trkpt><trkpt lat="45.77961140912191" lon="9.869716149523459"><ele>575.6666666666666</ele><time>2026-04-22T14:12:44Z</time></trkpt><trkpt lat="45.77956465521231" lon="9.869810174907576"><ele>577.3333333333334</ele><time>2026-04-22T14:12:45Z</time></trkpt><trkpt lat="45.779517319144205" lon="9.869908243809734"><ele>579.0</ele><time>2026-04-22T14:12:46Z</time></trkpt><trkpt lat="45.779469874397286" lon="9.870004029844422"><ele>579.0</ele><time>2026-04-22T14:12:47Z</time></trkpt><trkpt lat="45.77941843556799" lon="9.870099040042614"><ele>579.0</ele><time>2026-04-22T14:12:48Z</time></trkpt><trkpt lat="45.77937306972046" lon="9.870195040313874"><ele>579.0</ele><time>2026-04-22T14:12:49Z</time></trkpt><trkpt lat="45.7793307579034" lon="9.870299235312176"><ele>579.0</ele><time>2026-04-22T14:12:50Z</time></trkpt><trkpt lat="45.7792883244426" lon="9.870401040020475"><ele>579.0</ele><time>2026-04-22T14:12:51Z</time></trkpt><trkpt lat="45.77925305920126" lon="9.870506984135755"><ele>579.0</ele><time>2026-04-22T14:12:52Z</time></trkpt><trkpt lat="45.77922183465037" lon="9.870620151956457"><ele>575.0</ele><time>2026-04-22T14:12:53Z</time></trkpt><trkpt lat="45.77921212753061" lon="9.870739903506815"><ele>571.0</ele><time>2026-04-22T14:12:54Z</time></trkpt><trkpt lat="45.77919639324574" lon="9.870862152524836"><ele>567.0</ele><time>2026-04-22T14:12:55Z</time></trkpt><trkpt lat="45.77920647463508" lon="9.87098012342521"><ele>563.0</ele><time>2026-04-22T14:12:56Z</time></trkpt><trkpt lat="45.779210563934676" lon="9.871110398042033"><ele>559.0</ele><time>2026-04-22T14:12:57Z</time></trkpt><trkpt lat="45.77921676567467" lon="9.871231636046788"><ele>555.0</ele><time>2026-04-22T14:12:58Z</time></trkpt><trkpt lat="45.779207024231354" lon="9.871361847218624"><ele>555.0</ele><time>2026-04-22T14:12:59Z</time></trkpt><trkpt lat="45.779188259730276" lon="9.871490075568914"><ele>555.0</ele><time>2026-04-22T14:13:00Z</time></trkpt><trkpt lat="45.77922465369727" lon="9.871605764261655"><ele>555.0</ele><time>2026-04-22T14:13:01Z</time></trkpt><trkpt lat="45.779262286107006" lon="9.87172525072952"><ele>555.0</ele><time>2026-04-22T14:13:02Z</time></trkpt><trkpt lat="45.77928761300681" lon="9.871847613073765"><ele>555.0</ele><time>2026-04-22T14:13:03Z</time></trkpt><trkpt lat="45.7793272561768" lon="9.871966749243535"><ele>560.8333333333334</ele><time>2026-04-22T14:13:04Z</time></trkpt><trkpt lat="45.77935804881143" lon="9.872096519364314"><ele>566.6666666666666</ele><time>2026-04-22T14:13:05Z</time></trkpt><trkpt lat="45.77938417696732" lon="9.872232423730026"><ele>572.5</ele><time>2026-04-22T14:13:06Z</time></trkpt><trkpt lat="45.779445007773205" lon="9.872311764571258"><ele>578.3333333333333</ele><time>2026-04-22T14:13:07Z</time></trkpt><trkpt lat="45.779475403722685" lon="9.872423459029186"><ele>584.1666666666666</ele><time>2026-04-22T14:13:08Z</time></trkpt><trkpt lat="45.779465012767965" lon="9.872524644625756"><ele>590.0</ele><time>2026-04-22T14:13:09Z</time></trkpt><trkpt lat="45.77939186647247" lon="9.872654755644893"><ele>588.2</ele><time>2026-04-22T14:13:10Z</time></trkpt><trkpt lat="45.77929307339914" lon="9.872700363433555"><ele>586.4</ele><time>2026-04-22T14:13:11Z</time></trkpt><trkpt lat="45.77921516694507" lon="9.872738985981396"><ele>584.6</ele><time>2026-04-22T14:13:12Z</time></trkpt><trkpt lat="45.779124856699774" lon="9.872749918368761"><ele>582.8</ele><time>2026-04-22T14:13:13Z</time></trkpt><trkpt lat="45.779038861126665" lon="9.872750179637057"><ele>581.0</ele><time>2026-04-22T14:13:14Z</time></trkpt><trkpt lat="45.77894772728664" lon="9.872758064913233"><ele>581.0</ele><time>2026-04-22T14:13:15Z</time></trkpt><trkpt lat="45.7788556620478" lon="9.8727665744985"><ele>581.0</ele><time>2026-04-22T14:13:16Z</time></trkpt><trkpt lat="45.77876323182786" lon="9.872779343342646"><ele>581.0</ele><time>2026-04-22T14:13:17Z</time></trkpt><trkpt lat="45.77867346132487" lon="9.872792971895432"><ele>581.0</ele><time>2026-04-22T14:13:18Z</time></trkpt><trkpt lat="45.77857683538948" lon="9.872814698018109"><ele>581.0</ele><time>2026-04-22T14:13:19Z</time></trkpt><trkpt lat="45.778483212656866" lon="9.872849099057309"><ele>575.2</ele><time>2026-04-22T14:13:20Z</time></trkpt><trkpt lat="45.77839240449231" lon="9.872903477378362"><ele>569.4000000000001</ele><time>2026-04-22T14:13:21Z</time></trkpt><trkpt lat="45.778305675907696" lon="9.872977349751421"><ele>563.6</ele><time>2026-04-22T14:13:22Z</time></trkpt><trkpt lat="45.77822672990134" lon="9.873063303000066"><ele>557.8000000000001</ele><time>2026-04-22T14:13:23Z</time></trkpt><trkpt lat="45.77814585351072" lon="9.87315884054353"><ele>552.0</ele><time>2026-04-22T14:13:24Z</time></trkpt><trkpt lat="45.77807306992345" lon="9.873269483513754"><ele>552.0</ele><time>2026-04-22T14:13:25Z</time></trkpt><trkpt lat="45.77801125110097" lon="9.873394169460184"><ele>552.0</ele><time>2026-04-22T14:13:26Z</time></trkpt><trkpt lat="45.77796762569137" lon="9.873533201068133"><ele>552.0</ele><time>2026-04-22T14:13:27Z</time></trkpt><trkpt lat="45.77793835557526" lon="9.873680997579019"><ele>552.0</ele><time>2026-04-22T14:13:28Z</time></trkpt><trkpt lat="45.77791008454662" lon="9.873831937458226"><ele>552.0</ele><time>2026-04-22T14:13:29Z</time></trkpt><trkpt lat="45.777879909216786" lon="9.873982534758632"><ele>555.25</ele><time>2026-04-22T14:13:30Z</time></trkpt><trkpt lat="45.77784948474282" lon="9.874135989789508"><ele>558.5</ele><time>2026-04-22T14:13:31Z</time></trkpt><trkpt lat="45.77781295336332" lon="9.874289675591408"><ele>561.75</ele><time>2026-04-22T14:13:32Z</time></trkpt><trkpt lat="45.77777833693062" lon="9.874446024721056"><ele>565.0</ele><time>2026-04-22T14:13:33Z</time></trkpt><trkpt lat="45.77774320002052" lon="9.874603968086625"><ele>567.5</ele><time>2026-04-22T14:13:34Z</time></trkpt><trkpt lat="45.7777112958752" lon="9.874764121271067"><ele>570.0</ele><time>2026-04-22T14:13:35Z</time></trkpt><trkpt lat="45.777684244264194" lon="9.87492825827241"><ele>572.5</ele><time>2026-04-22T14:13:36Z</time></trkpt><trkpt lat="45.77765226860124" lon="9.875093145028542"><ele>575.0</ele><time>2026-04-22T14:13:37Z</time></trkpt><trkpt lat="45.777614751204545" lon="9.875256744624284"><ele>564.0</ele><time>2026-04-22T14:13:38Z</time></trkpt><trkpt lat="45.77757793815598" lon="9.875424068927485"><ele>553.0</ele><time>2026-04-22T14:13:39Z</time></trkpt><trkpt lat="45.777540100868634" lon="9.875592409969771"><ele>542.0</ele><time>2026-04-22T14:13:40Z</time></trkpt><trkpt lat="45.777499459742764" lon="9.8757624224664"><ele>531.0</ele><time>2026-04-22T14:13:41Z</time></trkpt><trkpt lat="45.77746014444279" lon="9.875931966222353"><ele>530.0</ele><time>2026-04-22T14:13:42Z</time></trkpt><trkpt lat="45.77742778279547" lon="9.876107218429633"><ele>529.0</ele><time>2026-04-22T14:13:43Z</time></trkpt><trkpt lat="45.77740651037053" lon="9.87628642912559"><ele>528.0</ele><time>2026-04-22T14:13:44Z</time></trkpt><trkpt lat="45.777398635203056" lon="9.87647100744513"><ele>527.0</ele><time>2026-04-22T14:13:45Z</time></trkpt><trkpt lat="45.77740925384203" lon="9.876657715712229"><ele>526.75</ele><time>2026-04-22T14:13:46Z</time></trkpt><trkpt lat="45.77742921249838" lon="9.876842804273796"><ele>526.5</ele><time>2026-04-22T14:13:47Z</time></trkpt><trkpt lat="45.7774412148769" lon="9.877026398319392"><ele>526.25</ele><time>2026-04-22T14:13:48Z</time></trkpt><trkpt lat="45.77744021830708" lon="9.877200465256978"><ele>526.0</ele><time>2026-04-22T14:13:49Z</time></trkpt><trkpt lat="45.777402448256694" lon="9.87736612995655"><ele>526.0</ele><time>2026-04-22T14:13:50Z</time></trkpt><trkpt lat="45.77734306857369" lon="9.87751369190033"><ele>526.0</ele><time>2026-04-22T14:13:51Z</time></trkpt><trkpt lat="45.77726254223418" lon="9.877631734872244"><ele>526.0</ele><time>2026-04-22T14:13:52Z</time></trkpt><trkpt lat="45.77714994875564" lon="9.877686907115804"><ele>526.0</ele><time>2026-04-22T14:13:53Z</time></trkpt><trkpt lat="45.77704907485919" lon="9.877745195453517"><ele>523.6</ele><time>2026-04-22T14:13:54Z</time></trkpt><trkpt lat="45.776948281682465" lon="9.87779054166489"><ele>521.2</ele><time>2026-04-22T14:13:55Z</time></trkpt><trkpt lat="45.776857550427394" lon="9.877876247820272"><ele>518.8</ele><time>2026-04-22T14:13:56Z</time></trkpt><trkpt lat="45.77678844634006" lon="9.877987281224312"><ele>516.4</ele><time>2026-04-22T14:13:57Z</time></trkpt><trkpt lat="45.77674399116103" lon="9.878119695212334"><ele>514.0</ele><time>2026-04-22T14:13:58Z</time></trkpt><trkpt lat="45.77672325704762" lon="9.878257581000772"><ele>514.75</ele><time>2026-04-22T14:13:59Z</time></trkpt><trkpt lat="45.77670036275692" lon="9.878461489874738"><ele>515.5</ele><time>2026-04-22T14:14:00Z</time></trkpt><trkpt lat="45.77669413704067" lon="9.878615276903574"><ele>516.25</ele><time>2026-04-22T14:14:01Z</time></trkpt><trkpt lat="45.77668737085295" lon="9.878780970467613"><ele>517.0</ele><time>2026-04-22T14:14:02Z</time></trkpt><trkpt lat="45.77666677726483" lon="9.878941703010277"><ele>517.0</ele><time>2026-04-22T14:14:03Z</time></trkpt><trkpt lat="45.77663727214514" lon="9.879093066682998"><ele>517.0</ele><time>2026-04-22T14:14:04Z</time></trkpt><trkpt lat="45.776598788529704" lon="9.879239319295316"><ele>517.0</ele><time>2026-04-22T14:14:05Z</time></trkpt><trkpt lat="45.77655279688256" lon="9.879372896101678"><ele>517.0</ele><time>2026-04-22T14:14:06Z</time></trkpt><trkpt lat="45.7764996231419" lon="9.87949772242776"><ele>517.0</ele><time>2026-04-22T14:14:07Z</time></trkpt><trkpt lat="45.77643661809484" lon="9.879611959654053"><ele>517.8000000000001</ele><time>2026-04-22T14:14:08Z</time></trkpt><trkpt lat="45.77634939983635" lon="9.879691285080508"><ele>518.6</ele><time>2026-04-22T14:14:09Z</time></trkpt><trkpt lat="45.77625098697748" lon="9.87973622908902"><ele>519.4000000000001</ele><time>2026-04-22T14:14:10Z</time></trkpt><trkpt lat="45.776162787935796" lon="9.879757858147713"><ele>520.2</ele><time>2026-04-22T14:14:11Z</time></trkpt><trkpt lat="45.77610312462366" lon="9.879786705574602"><ele>521.0</ele><time>2026-04-22T14:14:12Z</time></trkpt><trkpt lat="45.776028291334626" lon="9.87993163858774"><ele>520.6</ele><time>2026-04-22T14:14:14Z</time></trkpt><trkpt lat="45.775986740839606" lon="9.88009232556757"><ele>520.2</ele><time>2026-04-22T14:14:16Z</time></trkpt><trkpt lat="45.775947656890544" lon="9.880260375691508"><ele>519.8</ele><time>2026-04-22T14:14:18Z</time></trkpt><trkpt lat="45.775934443528165" lon="9.880352757550828"><ele>519.4</ele><time>2026-04-22T14:14:19Z</time></trkpt><trkpt lat="45.77590568277662" lon="9.880521184750938"><ele>519.0</ele><time>2026-04-22T14:14:21Z</time></trkpt><trkpt lat="45.77585449781715" lon="9.880677771254161"><ele>519.0</ele><time>2026-04-22T14:14:23Z</time></trkpt><trkpt lat="45.775815590098084" lon="9.880849408235441"><ele>519.0</ele><time>2026-04-22T14:14:25Z</time></trkpt><trkpt lat="45.775772258501036" lon="9.881011523116628"><ele>519.0</ele><time>2026-04-22T14:14:27Z</time></trkpt><trkpt lat="45.775729070478484" lon="9.881173402283196"><ele>519.0</ele><time>2026-04-22T14:14:29Z</time></trkpt><trkpt lat="45.77568390872226" lon="9.8813385626988"><ele>520.0</ele><time>2026-04-22T14:14:31Z</time></trkpt><trkpt lat="45.77563886086094" lon="9.881501524940438"><ele>521.0</ele><time>2026-04-22T14:14:33Z</time></trkpt><trkpt lat="45.77559287463624" lon="9.881661555325195"><ele>522.0</ele><time>2026-04-22T14:14:35Z</time></trkpt><trkpt lat="45.77555820822838" lon="9.881830537492126"><ele>523.0</ele><time>2026-04-22T14:14:37Z</time></trkpt><trkpt lat="45.775520220216634" lon="9.88199191949225"><ele>524.25</ele><time>2026-04-22T14:14:39Z</time></trkpt><trkpt lat="45.7755010855455" lon="9.882158965598617"><ele>525.5</ele><time>2026-04-22T14:14:41Z</time></trkpt><trkpt lat="45.775496162411386" lon="9.882330175467978"><ele>526.75</ele><time>2026-04-22T14:14:43Z</time></trkpt><trkpt lat="45.77551151315607" lon="9.882500274696062"><ele>528.0</ele><time>2026-04-22T14:14:45Z</time></trkpt><trkpt lat="45.77552868452123" lon="9.882662483320662"><ele>529.25</ele><time>2026-04-22T14:14:47Z</time></trkpt><trkpt lat="45.77554877893567" lon="9.882827969599"><ele>530.5</ele><time>2026-04-22T14:14:49Z</time></trkpt><trkpt lat="45.77556561530035" lon="9.882988938430653"><ele>531.75</ele><time>2026-04-22T14:14:51Z</time></trkpt><trkpt lat="45.775582237004386" lon="9.883147364618702"><ele>533.0</ele><time>2026-04-22T14:14:53Z</time></trkpt><trkpt lat="45.77560245927968" lon="9.8833033942902"><ele>533.8</ele><time>2026-04-22T14:14:55Z</time></trkpt><trkpt lat="45.77562442385475" lon="9.883459232846564"><ele>534.5999999999999</ele><time>2026-04-22T14:14:57Z</time></trkpt><trkpt lat="45.775652158445055" lon="9.88361055560221"><ele>535.4000000000001</ele><time>2026-04-22T14:14:59Z</time></trkpt><trkpt lat="45.77568971251013" lon="9.883760431745202"><ele>536.2</ele><time>2026-04-22T14:15:01Z</time></trkpt><trkpt lat="45.77572659364579" lon="9.883906206885575"><ele>537.0</ele><time>2026-04-22T14:15:03Z</time></trkpt><trkpt lat="45.77576608529266" lon="9.884059592142577"><ele>537.0</ele><time>2026-04-22T14:15:05Z</time></trkpt><trkpt lat="45.77580377914237" lon="9.884206735503147"><ele>537.0</ele><time>2026-04-22T14:15:07Z</time></trkpt><trkpt lat="45.775838084502254" lon="9.884358033693172"><ele>537.0</ele><time>2026-04-22T14:15:09Z</time></trkpt><trkpt lat="45.775862982512265" lon="9.88450977905628"><ele>537.0</ele><time>2026-04-22T14:15:11Z</time></trkpt><trkpt lat="45.77588706128666" lon="9.884658988051791"><ele>537.0</ele><time>2026-04-22T14:15:13Z</time></trkpt><trkpt lat="45.775903210071405" lon="9.884806625875527"><ele>537.0</ele><time>2026-04-22T14:15:15Z</time></trkpt><trkpt lat="45.77589937477426" lon="9.884948750388686"><ele>537.0</ele><time>2026-04-22T14:15:17Z</time></trkpt><trkpt lat="45.77589275454136" lon="9.885100761679585"><ele>537.0</ele><time>2026-04-22T14:15:19Z</time></trkpt><trkpt lat="45.77588066839474" lon="9.885251852965796"><ele>537.0</ele><time>2026-04-22T14:15:21Z</time></trkpt><trkpt lat="45.77587588761165" lon="9.885397815570753"><ele>537.0</ele><time>2026-04-22T14:15:23Z</time></trkpt><trkpt lat="45.77586311742661" lon="9.885544585395857"><ele>538.0</ele><time>2026-04-22T14:15:25Z</time></trkpt><trkpt lat="45.77585706581277" lon="9.885693333755322"><ele>539.0</ele><time>2026-04-22T14:15:27Z</time></trkpt><trkpt lat="45.775837392659234" lon="9.8858385930163"><ele>540.0</ele><time>2026-04-22T14:15:29Z</time></trkpt><trkpt lat="45.77580826810837" lon="9.885989230565984"><ele>541.0</ele><time>2026-04-22T14:15:31Z</time></trkpt><trkpt lat="45.77577999720716" lon="9.886139648682798"><ele>542.0</ele><time>2026-04-22T14:15:33Z</time></trkpt><trkpt lat="45.77575000866416" lon="9.886287512466572"><ele>543.8000000000001</ele><time>2026-04-22T14:15:35Z</time></trkpt><trkpt lat="45.77571580545185" lon="9.886437193194235"><ele>545.6</ele><time>2026-04-22T14:15:37Z</time></trkpt><trkpt lat="45.775680520319895" lon="9.886586600897276"><ele>547.4000000000001</ele><time>2026-04-22T14:15:39Z</time></trkpt><trkpt lat="45.77564941010321" lon="9.886737689721299"><ele>549.2</ele><time>2026-04-22T14:15:41Z</time></trkpt><trkpt lat="45.77561894355757" lon="9.886887244600821"><ele>551.0</ele><time>2026-04-22T14:15:43Z</time></trkpt><trkpt lat="45.77558447428449" lon="9.88703747654741"><ele>553.4</ele><time>2026-04-22T14:15:45Z</time></trkpt><trkpt lat="45.77555378709977" lon="9.887186392716975"><ele>555.8</ele><time>2026-04-22T14:15:47Z</time></trkpt><trkpt lat="45.775526348156355" lon="9.887342769277208"><ele>558.1999999999999</ele><time>2026-04-22T14:15:49Z</time></trkpt><trkpt lat="45.77549448158368" lon="9.887486186132223"><ele>560.6</ele><time>2026-04-22T14:15:51Z</time></trkpt><trkpt lat="45.775461256330566" lon="9.887627880206136"><ele>563.0</ele><time>2026-04-22T14:15:53Z</time></trkpt><trkpt lat="45.77542883041169" lon="9.88776857589538"><ele>564.8</ele><time>2026-04-22T14:15:55Z</time></trkpt><trkpt lat="45.77540245314163" lon="9.887910734735653"><ele>566.5999999999999</ele><time>2026-04-22T14:15:57Z</time></trkpt><trkpt lat="45.775372093454926" lon="9.888053836959209"><ele>568.4000000000001</ele><time>2026-04-22T14:15:59Z</time></trkpt><trkpt lat="45.77534142852028" lon="9.888197593960781"><ele>570.2</ele><time>2026-04-22T14:16:01Z</time></trkpt><trkpt lat="45.775313638204295" lon="9.88833241631259"><ele>572.0</ele><time>2026-04-22T14:16:03Z</time></trkpt><trkpt lat="45.77528581931083" lon="9.888471988611096"><ele>572.8000000000001</ele><time>2026-04-22T14:16:05Z</time></trkpt><trkpt lat="45.77526801876945" lon="9.888616256105653"><ele>573.6</ele><time>2026-04-22T14:16:07Z</time></trkpt><trkpt lat="45.77526294683821" lon="9.888763548876527"><ele>574.4000000000001</ele><time>2026-04-22T14:16:09Z</time></trkpt><trkpt lat="45.77526854155383" lon="9.88892314120327"><ele>575.2</ele><time>2026-04-22T14:16:11Z</time></trkpt><trkpt lat="45.775278650564765" lon="9.88907758637275"><ele>576.0</ele><time>2026-04-22T14:16:13Z</time></trkpt><trkpt lat="45.77529989712622" lon="9.889236138040342"><ele>578.0</ele><time>2026-04-22T14:16:15Z</time></trkpt><trkpt lat="45.77531297637082" lon="9.8893920367493"><ele>580.0</ele><time>2026-04-22T14:16:17Z</time></trkpt><trkpt lat="45.77532333962286" lon="9.889544908760076"><ele>582.0</ele><time>2026-04-22T14:16:19Z</time></trkpt><trkpt lat="45.775330751824484" lon="9.88970620881475"><ele>584.0</ele><time>2026-04-22T14:16:21Z</time></trkpt><trkpt lat="45.775323736606815" lon="9.889863038602506"><ele>586.0</ele><time>2026-04-22T14:16:23Z</time></trkpt><trkpt lat="45.775301037500654" lon="9.890014852521524"><ele>582.6</ele><time>2026-04-22T14:16:25Z</time></trkpt><trkpt lat="45.775270603017" lon="9.890166814455133"><ele>579.2</ele><time>2026-04-22T14:16:27Z</time></trkpt><trkpt lat="45.77523513165325" lon="9.890313146646577"><ele>575.8</ele><time>2026-04-22T14:16:29Z</time></trkpt><trkpt lat="45.775203889917066" lon="9.89046034392725"><ele>572.4</ele><time>2026-04-22T14:16:31Z</time></trkpt><trkpt lat="45.775161746615794" lon="9.890604041426217"><ele>569.0</ele><time>2026-04-22T14:16:33Z</time></trkpt><trkpt lat="45.77512248074841" lon="9.890744867856254"><ele>569.0</ele><time>2026-04-22T14:16:35Z</time></trkpt><trkpt lat="45.77508712391243" lon="9.890885577161841"><ele>569.0</ele><time>2026-04-22T14:16:37Z</time></trkpt><trkpt lat="45.77504464526458" lon="9.891019877404855"><ele>569.0</ele><time>2026-04-22T14:16:39Z</time></trkpt><trkpt lat="45.774996874939134" lon="9.89115857316059"><ele>569.0</ele><time>2026-04-22T14:16:41Z</time></trkpt><trkpt lat="45.774946069803455" lon="9.891298514922076"><ele>569.0</ele><time>2026-04-22T14:16:43Z</time></trkpt><trkpt lat="45.77488956715369" lon="9.891438993762904"><ele>574.25</ele><time>2026-04-22T14:16:45Z</time></trkpt><trkpt lat="45.77482983901687" lon="9.891584466559916"><ele>579.5</ele><time>2026-04-22T14:16:47Z</time></trkpt><trkpt lat="45.774761188220076" lon="9.89172479430063"><ele>584.75</ele><time>2026-04-22T14:16:49Z</time></trkpt><trkpt lat="45.77468426788815" lon="9.891857975168687"><ele>590.0</ele><time>2026-04-22T14:16:51Z</time></trkpt><trkpt lat="45.77460348418287" lon="9.891987287841689"><ele>587.0</ele><time>2026-04-22T14:16:53Z</time></trkpt><trkpt lat="45.77451877048374" lon="9.892107792490096"><ele>584.0</ele><time>2026-04-22T14:16:55Z</time></trkpt><trkpt lat="45.77444420732833" lon="9.892235383678896"><ele>581.0</ele><time>2026-04-22T14:16:57Z</time></trkpt><trkpt lat="45.77436018612888" lon="9.8923587599519"><ele>578.0</ele><time>2026-04-22T14:16:59Z</time></trkpt><trkpt lat="45.774279878504814" lon="9.892481500572652"><ele>582.5</ele><time>2026-04-22T14:17:01Z</time></trkpt><trkpt lat="45.77420195408942" lon="9.892604882157022"><ele>587.0</ele><time>2026-04-22T14:17:03Z</time></trkpt><trkpt lat="45.774123154944625" lon="9.892731499566885"><ele>591.5</ele><time>2026-04-22T14:17:05Z</time></trkpt><trkpt lat="45.77404470305575" lon="9.892854402106444"><ele>596.0</ele><time>2026-04-22T14:17:07Z</time></trkpt><trkpt lat="45.77395822230031" lon="9.892974196822083"><ele>596.0</ele><time>2026-04-22T14:17:09Z</time></trkpt><trkpt lat="45.77387895599694" lon="9.893097612800867"><ele>596.0</ele><time>2026-04-22T14:17:11Z</time></trkpt><trkpt lat="45.77380218651983" lon="9.893228035517966"><ele>596.0</ele><time>2026-04-22T14:17:13Z</time></trkpt><trkpt lat="45.77376108903033" lon="9.89329842347831"><ele>596.0</ele><time>2026-04-22T14:17:14Z</time></trkpt><trkpt lat="45.77367594407582" lon="9.893421965899444"><ele>596.0</ele><time>2026-04-22T14:17:16Z</time></trkpt><trkpt lat="45.77358894823442" lon="9.893544134002354"><ele>595.5</ele><time>2026-04-22T14:17:18Z</time></trkpt><trkpt lat="45.77350844324643" lon="9.893666461680155"><ele>595.0</ele><time>2026-04-22T14:17:20Z</time></trkpt><trkpt lat="45.773424693516255" lon="9.893784643013024"><ele>594.5</ele><time>2026-04-22T14:17:22Z</time></trkpt><trkpt lat="45.77334397426492" lon="9.893906293740836"><ele>594.0</ele><time>2026-04-22T14:17:24Z</time></trkpt><trkpt lat="45.77325330814646" lon="9.89401164407423"><ele>594.0</ele><time>2026-04-22T14:17:26Z</time></trkpt><trkpt lat="45.77316235205884" lon="9.894112292544676"><ele>594.0</ele><time>2026-04-22T14:17:28Z</time></trkpt><trkpt lat="45.77306532261465" lon="9.894196946137445"><ele>594.0</ele><time>2026-04-22T14:17:30Z</time></trkpt><trkpt lat="45.773010790323966" lon="9.894271191695278"><ele>594.0</ele><time>2026-04-22T14:17:31Z</time></trkpt><trkpt lat="45.77293002607865" lon="9.894372745440863"><ele>594.0</ele><time>2026-04-22T14:17:33Z</time></trkpt><trkpt lat="45.77283900060577" lon="9.894479801108456"><ele>593.75</ele><time>2026-04-22T14:17:35Z</time></trkpt><trkpt lat="45.77274707574804" lon="9.894587706841453"><ele>593.5</ele><time>2026-04-22T14:17:37Z</time></trkpt><trkpt lat="45.77265288055431" lon="9.894693842827753"><ele>593.25</ele><time>2026-04-22T14:17:39Z</time></trkpt><trkpt lat="45.772553364938275" lon="9.89480052511917"><ele>593.0</ele><time>2026-04-22T14:17:41Z</time></trkpt><trkpt lat="45.77244448877875" lon="9.894909902813756"><ele>593.0</ele><time>2026-04-22T14:17:43Z</time></trkpt><trkpt lat="45.772357386250555" lon="9.89501666654228"><ele>593.0</ele><time>2026-04-22T14:17:45Z</time></trkpt><trkpt lat="45.77226645511938" lon="9.895128426135399"><ele>593.0</ele><time>2026-04-22T14:17:47Z</time></trkpt><trkpt lat="45.77217045063583" lon="9.89522797642511"><ele>593.0</ele><time>2026-04-22T14:17:49Z</time></trkpt><trkpt lat="45.77207873588454" lon="9.895333362033059"><ele>593.6</ele><time>2026-04-22T14:17:51Z</time></trkpt><trkpt lat="45.7719874594145" lon="9.895439109932193"><ele>594.1999999999999</ele><time>2026-04-22T14:17:53Z</time></trkpt><trkpt lat="45.77189698760384" lon="9.89554101394571"><ele>594.8</ele><time>2026-04-22T14:17:55Z</time></trkpt><trkpt lat="45.77179723719042" lon="9.895633015660982"><ele>595.4</ele><time>2026-04-22T14:17:57Z</time></trkpt><trkpt lat="45.7717409828838" lon="9.895674163983854"><ele>596.0</ele><time>2026-04-22T14:17:58Z</time></trkpt><trkpt lat="45.771635782927355" lon="9.895750717562793"><ele>596.0</ele><time>2026-04-22T14:18:00Z</time></trkpt><trkpt lat="45.77153213859069" lon="9.895836621304374"><ele>596.0</ele><time>2026-04-22T14:18:02Z</time></trkpt><trkpt lat="45.7714223801986" lon="9.895904700326094"><ele>596.0</ele><time>2026-04-22T14:18:04Z</time></trkpt><trkpt lat="45.77132551068798" lon="9.8960001728581"><ele>596.0</ele><time>2026-04-22T14:18:06Z</time></trkpt><trkpt lat="45.77122025641912" lon="9.896077623601908"><ele>597.5</ele><time>2026-04-22T14:18:08Z</time></trkpt><trkpt lat="45.77112011188784" lon="9.896162280511618"><ele>599.0</ele><time>2026-04-22T14:18:10Z</time></trkpt><trkpt lat="45.77101839551464" lon="9.896245200345012"><ele>600.5</ele><time>2026-04-22T14:18:12Z</time></trkpt><trkpt lat="45.770925069922846" lon="9.896341729582554"><ele>602.0</ele><time>2026-04-22T14:18:14Z</time></trkpt><trkpt lat="45.7708369315557" lon="9.896440023934321"><ele>602.0</ele><time>2026-04-22T14:18:16Z</time></trkpt><trkpt lat="45.77076125539558" lon="9.896581691581263"><ele>602.0</ele><time>2026-04-22T14:18:18Z</time></trkpt><trkpt lat="45.77068618714044" lon="9.896713052420816"><ele>602.0</ele><time>2026-04-22T14:18:20Z</time></trkpt><trkpt lat="45.7706162686777" lon="9.896850805739044"><ele>602.0</ele><time>2026-04-22T14:18:22Z</time></trkpt><trkpt lat="45.770544038927575" lon="9.896983044965038"><ele>608.25</ele><time>2026-04-22T14:18:24Z</time></trkpt><trkpt lat="45.770477984989306" lon="9.897118817003543"><ele>614.5</ele><time>2026-04-22T14:18:26Z</time></trkpt><trkpt lat="45.7704165644265" lon="9.897262440482818"><ele>620.75</ele><time>2026-04-22T14:18:28Z</time></trkpt><trkpt lat="45.770366733996966" lon="9.897419791227376"><ele>627.0</ele><time>2026-04-22T14:18:30Z</time></trkpt><trkpt lat="45.77032417146671" lon="9.897577004102422"><ele>631.5</ele><time>2026-04-22T14:18:32Z</time></trkpt><trkpt lat="45.77026773855491" lon="9.897728899261198"><ele>636.0</ele><time>2026-04-22T14:18:34Z</time></trkpt><trkpt lat="45.7702144124776" lon="9.897878698220477"><ele>640.5</ele><time>2026-04-22T14:18:36Z</time></trkpt><trkpt lat="45.77017324870218" lon="9.89803138791739"><ele>645.0</ele><time>2026-04-22T14:18:38Z</time></trkpt><trkpt lat="45.77012821033639" lon="9.89819325205175"><ele>636.5</ele><time>2026-04-22T14:18:40Z</time></trkpt><trkpt lat="45.77009010176334" lon="9.898346267123724"><ele>628.0</ele><time>2026-04-22T14:18:42Z</time></trkpt><trkpt lat="45.770051063923205" lon="9.898498199745942"><ele>619.5</ele><time>2026-04-22T14:18:44Z</time></trkpt><trkpt lat="45.770014516788244" lon="9.898659641375149"><ele>611.0</ele><time>2026-04-22T14:18:46Z</time></trkpt><trkpt lat="45.7699801474626" lon="9.898816290802854"><ele>611.0</ele><time>2026-04-22T14:18:48Z</time></trkpt><trkpt lat="45.76996671172342" lon="9.898909226497805"><ele>611.0</ele><time>2026-04-22T14:18:49Z</time></trkpt><trkpt lat="45.76993699862298" lon="9.899054961438988"><ele>611.0</ele><time>2026-04-22T14:18:51Z</time></trkpt><trkpt lat="45.769915750961175" lon="9.899212348905118"><ele>611.0</ele><time>2026-04-22T14:18:53Z</time></trkpt><trkpt lat="45.769911549653976" lon="9.899378661222944"><ele>611.0</ele><time>2026-04-22T14:18:55Z</time></trkpt><trkpt lat="45.76993140582085" lon="9.899527216935814"><ele>611.8</ele><time>2026-04-22T14:18:57Z</time></trkpt><trkpt lat="45.7699352082792" lon="9.899627102719137"><ele>612.6</ele><time>2026-04-22T14:18:58Z</time></trkpt><trkpt lat="45.76995363944104" lon="9.899782214242915"><ele>613.4</ele><time>2026-04-22T14:19:00Z</time></trkpt><trkpt lat="45.76996783771569" lon="9.899876597173881"><ele>614.2</ele><time>2026-04-22T14:19:01Z</time></trkpt><trkpt lat="45.76998241952255" lon="9.900028205121805"><ele>615.0</ele><time>2026-04-22T14:19:03Z</time></trkpt><trkpt lat="45.77001354845377" lon="9.900181581096653"><ele>615.2</ele><time>2026-04-22T14:19:05Z</time></trkpt><trkpt lat="45.7700304132485" lon="9.900340577578577"><ele>615.4</ele><time>2026-04-22T14:19:07Z</time></trkpt><trkpt lat="45.77005466570927" lon="9.900489739262676"><ele>615.6</ele><time>2026-04-22T14:19:09Z</time></trkpt><trkpt lat="45.77007112613133" lon="9.900651315749819"><ele>615.8</ele><time>2026-04-22T14:19:11Z</time></trkpt><trkpt lat="45.77010034874762" lon="9.900809077258788"><ele>616.0</ele><time>2026-04-22T14:19:13Z</time></trkpt><trkpt lat="45.77011594453111" lon="9.900970724301263"><ele>617.0</ele><time>2026-04-22T14:19:15Z</time></trkpt><trkpt lat="45.77014564214342" lon="9.90112856561924"><ele>618.0</ele><time>2026-04-22T14:19:17Z</time></trkpt><trkpt lat="45.77015702871843" lon="9.90121904439404"><ele>619.0</ele><time>2026-04-22T14:19:18Z</time></trkpt><trkpt lat="45.770179883832675" lon="9.901370382836971"><ele>620.0</ele><time>2026-04-22T14:19:20Z</time></trkpt><trkpt lat="45.77019846174183" lon="9.901458723651038"><ele>621.0</ele><time>2026-04-22T14:19:21Z</time></trkpt><trkpt lat="45.77021078582708" lon="9.90161689951755"><ele>626.25</ele><time>2026-04-22T14:19:23Z</time></trkpt><trkpt lat="45.77023310886251" lon="9.901776223769401"><ele>631.5</ele><time>2026-04-22T14:19:25Z</time></trkpt><trkpt lat="45.770270199342654" lon="9.901929867969736"><ele>636.75</ele><time>2026-04-22T14:19:27Z</time></trkpt><trkpt lat="45.77027994955821" lon="9.902112633298021"><ele>642.0</ele><time>2026-04-22T14:19:29Z</time></trkpt><trkpt lat="45.7703449781507" lon="9.902224949738502"><ele>642.0</ele><time>2026-04-22T14:19:31Z</time></trkpt><trkpt lat="45.77037418963155" lon="9.90230544007243"><ele>642.0</ele><time>2026-04-22T14:19:32Z</time></trkpt><trkpt lat="45.770424605812366" lon="9.902438218748983"><ele>642.0</ele><time>2026-04-22T14:19:34Z</time></trkpt><trkpt lat="45.77047289762205" lon="9.902573076661035"><ele>642.0</ele><time>2026-04-22T14:19:36Z</time></trkpt><trkpt lat="45.770530512660585" lon="9.902712635796242"><ele>642.0</ele><time>2026-04-22T14:19:38Z</time></trkpt><trkpt lat="45.770580782528" lon="9.902848275604633"><ele>640.2</ele><time>2026-04-22T14:19:40Z</time></trkpt><trkpt lat="45.77063046239858" lon="9.902992257233805"><ele>638.4000000000001</ele><time>2026-04-22T14:19:42Z</time></trkpt><trkpt lat="45.770684289383354" lon="9.903120808191344"><ele>636.5999999999999</ele><time>2026-04-22T14:19:44Z</time></trkpt><trkpt lat="45.770736902591175" lon="9.903257843553538"><ele>634.8</ele><time>2026-04-22T14:19:46Z</time></trkpt><trkpt lat="45.77079083320673" lon="9.903398261753363"><ele>633.0</ele><time>2026-04-22T14:19:48Z</time></trkpt><trkpt lat="45.77083712266185" lon="9.903529086723834"><ele>633.0</ele><time>2026-04-22T14:19:50Z</time></trkpt><trkpt lat="45.77088086694449" lon="9.903664190855505"><ele>633.0</ele><time>2026-04-22T14:19:52Z</time></trkpt><trkpt lat="45.77093533566017" lon="9.903793731808804"><ele>633.0</ele><time>2026-04-22T14:19:54Z</time></trkpt><trkpt lat="45.77098629169908" lon="9.90392453474969"><ele>633.0</ele><time>2026-04-22T14:19:56Z</time></trkpt><trkpt lat="45.77103558011708" lon="9.904061441590883"><ele>633.0</ele><time>2026-04-22T14:19:58Z</time></trkpt><trkpt lat="45.77109226498529" lon="9.904194959993115"><ele>635.5999999999999</ele><time>2026-04-22T14:20:00Z</time></trkpt><trkpt lat="45.77114556276359" lon="9.90433075502095"><ele>638.1999999999999</ele><time>2026-04-22T14:20:02Z</time></trkpt><trkpt lat="45.7712006750726" lon="9.904460127125136"><ele>640.8</ele><time>2026-04-22T14:20:04Z</time></trkpt><trkpt lat="45.7712758525389" lon="9.90458389631358"><ele>643.4</ele><time>2026-04-22T14:20:06Z</time></trkpt><trkpt lat="45.77134764985799" lon="9.9047065232769"><ele>646.0</ele><time>2026-04-22T14:20:08Z</time></trkpt><trkpt lat="45.771424392349154" lon="9.904826651570062"><ele>646.0</ele><time>2026-04-22T14:20:10Z</time></trkpt><trkpt lat="45.77150358530073" lon="9.904941594606019"><ele>646.0</ele><time>2026-04-22T14:20:12Z</time></trkpt><trkpt lat="45.77157701079984" lon="9.905059460494408"><ele>646.0</ele><time>2026-04-22T14:20:14Z</time></trkpt><trkpt lat="45.77165772261413" lon="9.905176300005515"><ele>646.0</ele><time>2026-04-22T14:20:16Z</time></trkpt><trkpt lat="45.77173198245276" lon="9.905298778246685"><ele>647.25</ele><time>2026-04-22T14:20:18Z</time></trkpt><trkpt lat="45.771803083166496" lon="9.905420301935093"><ele>648.5</ele><time>2026-04-22T14:20:20Z</time></trkpt><trkpt lat="45.77186084010407" lon="9.905559613412462"><ele>649.75</ele><time>2026-04-22T14:20:22Z</time></trkpt><trkpt lat="45.771908257204856" lon="9.905707192550473"><ele>651.0</ele><time>2026-04-22T14:20:24Z</time></trkpt><trkpt lat="45.771948169238925" lon="9.905859394772385"><ele>653.25</ele><time>2026-04-22T14:20:26Z</time></trkpt><trkpt lat="45.77198482725782" lon="9.906012166375419"><ele>655.5</ele><time>2026-04-22T14:20:28Z</time></trkpt><trkpt lat="45.77202048029696" lon="9.90616504073625"><ele>657.75</ele><time>2026-04-22T14:20:30Z</time></trkpt><trkpt lat="45.7720572522972" lon="9.906321504497361"><ele>660.0</ele><time>2026-04-22T14:20:32Z</time></trkpt><trkpt lat="45.77209217822801" lon="9.90647342498457"><ele>660.0</ele><time>2026-04-22T14:20:34Z</time></trkpt><trkpt lat="45.77212774100934" lon="9.906620266833858"><ele>660.0</ele><time>2026-04-22T14:20:36Z</time></trkpt><trkpt lat="45.77217377364282" lon="9.906799104849716"><ele>660.0</ele><time>2026-04-22T14:20:38Z</time></trkpt><trkpt lat="45.77219703766796" lon="9.9069315656117"><ele>660.0</ele><time>2026-04-22T14:20:40Z</time></trkpt><trkpt lat="45.77223547035639" lon="9.907078814336495"><ele>660.0</ele><time>2026-04-22T14:20:42Z</time></trkpt><trkpt lat="45.7722803454734" lon="9.907208604786067"><ele>660.1666666666666</ele><time>2026-04-22T14:20:44Z</time></trkpt><trkpt lat="45.77231456133144" lon="9.907358459897221"><ele>660.3333333333334</ele><time>2026-04-22T14:20:46Z</time></trkpt><trkpt lat="45.77237304247281" lon="9.907492190524108"><ele>660.5</ele><time>2026-04-22T14:20:48Z</time></trkpt><trkpt lat="45.7723971774672" lon="9.907577520813927"><ele>660.6666666666667</ele><time>2026-04-22T14:20:49Z</time></trkpt><trkpt lat="45.77244377652134" lon="9.907640463280078"><ele>660.8333333333334</ele><time>2026-04-22T14:20:50Z</time></trkpt><trkpt lat="45.77249574297676" lon="9.907746975342656"><ele>661.0</ele><time>2026-04-22T14:20:52Z</time></trkpt><trkpt lat="45.77257157083551" lon="9.90786285476701"><ele>661.0</ele><time>2026-04-22T14:20:54Z</time></trkpt><trkpt lat="45.772641925005104" lon="9.907969486954775"><ele>661.0</ele><time>2026-04-22T14:20:56Z</time></trkpt><trkpt lat="45.77270146408715" lon="9.908087764977537"><ele>661.0</ele><time>2026-04-22T14:20:58Z</time></trkpt><trkpt lat="45.772762471675364" lon="9.90820416553376"><ele>661.0</ele><time>2026-04-22T14:21:00Z</time></trkpt><trkpt lat="45.77281849401152" lon="9.908324933835644"><ele>661.0</ele><time>2026-04-22T14:21:02Z</time></trkpt><trkpt lat="45.772863530083676" lon="9.908444725106303"><ele>664.1666666666667</ele><time>2026-04-22T14:21:04Z</time></trkpt><trkpt lat="45.77291868952273" lon="9.908549601943228"><ele>667.3333333333334</ele><time>2026-04-22T14:21:06Z</time></trkpt><trkpt lat="45.77294619436869" lon="9.908655897811576"><ele>670.5</ele><time>2026-04-22T14:21:08Z</time></trkpt><trkpt lat="45.77298452976026" lon="9.90872796112906"><ele>673.6666666666666</ele><time>2026-04-22T14:21:10Z</time></trkpt><trkpt lat="45.77303253166683" lon="9.908830649357386"><ele>676.8333333333333</ele><time>2026-04-22T14:21:13Z</time></trkpt><trkpt lat="45.773078066388805" lon="9.908939715955288"><ele>680.0</ele><time>2026-04-22T14:21:15Z</time></trkpt><trkpt lat="45.77305019722611" lon="9.909054661620935"><ele>680.0</ele><time>2026-04-22T14:21:17Z</time></trkpt><trkpt lat="45.77299175120502" lon="9.909132815797031"><ele>680.0</ele><time>2026-04-22T14:21:19Z</time></trkpt><trkpt lat="45.77288594547929" lon="9.909057855318315"><ele>680.0</ele><time>2026-04-22T14:21:21Z</time></trkpt><trkpt lat="45.77284557694204" lon="9.908951563252662"><ele>680.0</ele><time>2026-04-22T14:21:23Z</time></trkpt><trkpt lat="45.77279444444102" lon="9.908825883796984"><ele>680.0</ele><time>2026-04-22T14:21:25Z</time></trkpt><trkpt lat="45.772694940006616" lon="9.908725483354731"><ele>679.6</ele><time>2026-04-22T14:21:27Z</time></trkpt><trkpt lat="45.77259749496898" lon="9.908620705402255"><ele>679.2</ele><time>2026-04-22T14:21:29Z</time></trkpt><trkpt lat="45.77249836299261" lon="9.908522796826658"><ele>678.8</ele><time>2026-04-22T14:21:31Z</time></trkpt><trkpt lat="45.772415216362525" lon="9.908444868397755"><ele>678.4</ele><time>2026-04-22T14:21:33Z</time></trkpt><trkpt lat="45.772358231348186" lon="9.908373248236664"><ele>678.0</ele><time>2026-04-22T14:21:34Z</time></trkpt><trkpt lat="45.77226667462306" lon="9.908276447964163"><ele>675.5999999999999</ele><time>2026-04-22T14:21:36Z</time></trkpt><trkpt lat="45.77217022040208" lon="9.908191055794399"><ele>673.1999999999999</ele><time>2026-04-22T14:21:38Z</time></trkpt><trkpt lat="45.77206697707858" lon="9.90813466448436"><ele>670.8</ele><time>2026-04-22T14:21:40Z</time></trkpt><trkpt lat="45.77195131401243" lon="9.908136922009442"><ele>668.4</ele><time>2026-04-22T14:21:42Z</time></trkpt><trkpt lat="45.771844043782174" lon="9.908159734794339"><ele>666.0</ele><time>2026-04-22T14:21:44Z</time></trkpt><trkpt lat="45.77178004516776" lon="9.908190221672529"><ele>666.0</ele><time>2026-04-22T14:21:45Z</time></trkpt><trkpt lat="45.77167068565418" lon="9.908232415847696"><ele>666.0</ele><time>2026-04-22T14:21:47Z</time></trkpt><trkpt lat="45.7715649132369" lon="9.908257091526632"><ele>666.0</ele><time>2026-04-22T14:21:49Z</time></trkpt><trkpt lat="45.771469877091775" lon="9.9082956669772"><ele>666.0</ele><time>2026-04-22T14:21:51Z</time></trkpt><trkpt lat="45.771397216355574" lon="9.90836492642597"><ele>666.0</ele><time>2026-04-22T14:21:53Z</time></trkpt><trkpt lat="45.77133732012415" lon="9.908429233927249"><ele>666.8</ele><time>2026-04-22T14:21:55Z</time></trkpt><trkpt lat="45.77128874380414" lon="9.908532881346433"><ele>667.5999999999999</ele><time>2026-04-22T14:21:57Z</time></trkpt><trkpt lat="45.771242257259466" lon="9.90866157305189"><ele>668.4</ele><time>2026-04-22T14:21:59Z</time></trkpt><trkpt lat="45.771174138387856" lon="9.908773478296618"><ele>669.2</ele><time>2026-04-22T14:22:01Z</time></trkpt><trkpt lat="45.77107178855856" lon="9.908866423730787"><ele>670.0</ele><time>2026-04-22T14:22:03Z</time></trkpt><trkpt lat="45.77101134583019" lon="9.90890747294312"><ele>666.8333333333334</ele><time>2026-04-22T14:22:04Z</time></trkpt><trkpt lat="45.770943781762846" lon="9.90893440473277"><ele>663.6666666666667</ele><time>2026-04-22T14:22:05Z</time></trkpt><trkpt lat="45.77086780913749" lon="9.908923799231244"><ele>660.5</ele><time>2026-04-22T14:22:06Z</time></trkpt><trkpt lat="45.77079411834125" lon="9.908885241641633"><ele>657.3333333333334</ele><time>2026-04-22T14:22:07Z</time></trkpt><trkpt lat="45.770722663064966" lon="9.908830236428956"><ele>654.1666666666666</ele><time>2026-04-22T14:22:08Z</time></trkpt><trkpt lat="45.770658781533186" lon="9.908757127160419"><ele>651.0</ele><time>2026-04-22T14:22:09Z</time></trkpt><trkpt lat="45.77060781746118" lon="9.908659701744915"><ele>651.0</ele><time>2026-04-22T14:22:10Z</time></trkpt><trkpt lat="45.77057046162492" lon="9.908548720292348"><ele>651.0</ele><time>2026-04-22T14:22:11Z</time></trkpt><trkpt lat="45.770545204364176" lon="9.908433683607514"><ele>651.0</ele><time>2026-04-22T14:22:12Z</time></trkpt><trkpt lat="45.77051422343377" lon="9.908333148849913"><ele>651.0</ele><time>2026-04-22T14:22:13Z</time></trkpt><trkpt lat="45.77045742850596" lon="9.908274185039739"><ele>651.0</ele><time>2026-04-22T14:22:14Z</time></trkpt><trkpt lat="45.77038414112434" lon="9.908264985150424"><ele>651.0</ele><time>2026-04-22T14:22:15Z</time></trkpt><trkpt lat="45.77031343483687" lon="9.90831797323463"><ele>651.0</ele><time>2026-04-22T14:22:16Z</time></trkpt><trkpt lat="45.77028205890315" lon="9.90843293021663"><ele>651.0</ele><time>2026-04-22T14:22:17Z</time></trkpt><trkpt lat="45.770292803691184" lon="9.908549111291794"><ele>651.0</ele><time>2026-04-22T14:22:18Z</time></trkpt><trkpt lat="45.77034728130584" lon="9.908635466695486"><ele>651.0</ele><time>2026-04-22T14:22:19Z</time></trkpt><trkpt lat="45.7704139712308" lon="9.908702380861625"><ele>651.0</ele><time>2026-04-22T14:22:20Z</time></trkpt><trkpt lat="45.77047094434582" lon="9.908773087448322"><ele>651.0</ele><time>2026-04-22T14:22:21Z</time></trkpt><trkpt lat="45.77052293264596" lon="9.908860765964569"><ele>651.0</ele><time>2026-04-22T14:22:22Z</time></trkpt><trkpt lat="45.77056925134803" lon="9.908958515722636"><ele>651.0</ele><time>2026-04-22T14:22:23Z</time></trkpt><trkpt lat="45.770623234268946" lon="9.909051012300594"><ele>651.0</ele><time>2026-04-22T14:22:24Z</time></trkpt><trkpt lat="45.770673109157116" lon="9.909152835046658"><ele>651.0</ele><time>2026-04-22T14:22:25Z</time></trkpt><trkpt lat="45.77071845033844" lon="9.909258504727969"><ele>651.0</ele><time>2026-04-22T14:22:26Z</time></trkpt><trkpt lat="45.770770709598885" lon="9.909361670813373"><ele>651.0</ele><time>2026-04-22T14:22:27Z</time></trkpt><trkpt lat="45.77082267771751" lon="9.909469675258832"><ele>647.5999999999999</ele><time>2026-04-22T14:22:28Z</time></trkpt><trkpt lat="45.77087097401963" lon="9.909583887471104"><ele>644.1999999999999</ele><time>2026-04-22T14:22:29Z</time></trkpt><trkpt lat="45.770923316652755" lon="9.909698309741762"><ele>640.8</ele><time>2026-04-22T14:22:30Z</time></trkpt><trkpt lat="45.77097883689679" lon="9.909810618719117"><ele>637.4</ele><time>2026-04-22T14:22:31Z</time></trkpt><trkpt lat="45.771030124768366" lon="9.909926799022402"><ele>634.0</ele><time>2026-04-22T14:22:32Z</time></trkpt><trkpt lat="45.77108410049602" lon="9.910046750549647"><ele>638.8</ele><time>2026-04-22T14:22:33Z</time></trkpt><trkpt lat="45.77113545764949" lon="9.910170921167781"><ele>643.5999999999999</ele><time>2026-04-22T14:22:34Z</time></trkpt><trkpt lat="45.771191547376375" lon="9.91029648319789"><ele>648.4</ele><time>2026-04-22T14:22:35Z</time></trkpt><trkpt lat="45.77125141800555" lon="9.9104175115268"><ele>653.1999999999999</ele><time>2026-04-22T14:22:36Z</time></trkpt><trkpt lat="45.771301034074256" lon="9.910545497490338"><ele>658.0</ele><time>2026-04-22T14:22:37Z</time></trkpt><trkpt lat="45.771353889741164" lon="9.910674780116532"><ele>658.0</ele><time>2026-04-22T14:22:38Z</time></trkpt><trkpt lat="45.77140657497903" lon="9.910807010739344"><ele>658.0</ele><time>2026-04-22T14:22:39Z</time></trkpt><trkpt lat="45.77145594515543" lon="9.910938726422614"><ele>658.0</ele><time>2026-04-22T14:22:40Z</time></trkpt><trkpt lat="45.771495298398214" lon="9.91108027774415"><ele>658.0</ele><time>2026-04-22T14:22:41Z</time></trkpt><trkpt lat="45.77152655146164" lon="9.911226226236153"><ele>658.0</ele><time>2026-04-22T14:22:42Z</time></trkpt><trkpt lat="45.771546102134735" lon="9.911376340435082"><ele>655.5999999999999</ele><time>2026-04-22T14:22:43Z</time></trkpt><trkpt lat="45.771559729980886" lon="9.911530060107966"><ele>653.1999999999999</ele><time>2026-04-22T14:22:44Z</time></trkpt><trkpt lat="45.7715723140094" lon="9.911688380583458"><ele>650.8</ele><time>2026-04-22T14:22:45Z</time></trkpt><trkpt lat="45.77159118271996" lon="9.911833842528319"><ele>648.4</ele><time>2026-04-22T14:22:46Z</time></trkpt><trkpt lat="45.771612701303816" lon="9.911981192598686"><ele>646.0</ele><time>2026-04-22T14:22:47Z</time></trkpt><trkpt lat="45.77163748201379" lon="9.912132685681337"><ele>643.4</ele><time>2026-04-22T14:22:48Z</time></trkpt><trkpt lat="45.771664969605695" lon="9.912271179564454"><ele>640.8</ele><time>2026-04-22T14:22:49Z</time></trkpt><trkpt lat="45.771699522486855" lon="9.91241098489187"><ele>638.1999999999999</ele><time>2026-04-22T14:22:50Z</time></trkpt><trkpt lat="45.77174000556587" lon="9.9125522325972"><ele>635.5999999999999</ele><time>2026-04-22T14:22:51Z</time></trkpt><trkpt lat="45.771782509689714" lon="9.912695684815091"><ele>633.0</ele><time>2026-04-22T14:22:52Z</time></trkpt><trkpt lat="45.77182477031637" lon="9.91283233225947"><ele>632.0</ele><time>2026-04-22T14:22:53Z</time></trkpt><trkpt lat="45.77186833227566" lon="9.912992637254018"><ele>631.0</ele><time>2026-04-22T14:22:54Z</time></trkpt><trkpt lat="45.7719150245067" lon="9.913145796351044"><ele>630.0</ele><time>2026-04-22T14:22:55Z</time></trkpt><trkpt lat="45.77195762441167" lon="9.913295648886715"><ele>629.0</ele><time>2026-04-22T14:22:56Z</time></trkpt><trkpt lat="45.772007770995764" lon="9.913444710223587"><ele>629.0</ele><time>2026-04-22T14:22:57Z</time></trkpt><trkpt lat="45.77206016919757" lon="9.913588175431803"><ele>629.0</ele><time>2026-04-22T14:22:58Z</time></trkpt><trkpt lat="45.77213069673911" lon="9.913723091917891"><ele>629.0</ele><time>2026-04-22T14:22:59Z</time></trkpt><trkpt lat="45.77220679777128" lon="9.913835010938891"><ele>629.0</ele><time>2026-04-22T14:23:00Z</time></trkpt><trkpt lat="45.77226257247022" lon="9.913934043340635"><ele>629.0</ele><time>2026-04-22T14:23:01Z</time></trkpt><trkpt lat="45.77229662229764" lon="9.914028061251763"><ele>629.0</ele><time>2026-04-22T14:23:02Z</time></trkpt><trkpt lat="45.772218508804634" lon="9.914176035615824"><ele>629.0</ele><time>2026-04-22T14:23:04Z</time></trkpt><trkpt lat="45.77213683496577" lon="9.914173565694156"><ele>629.0</ele><time>2026-04-22T14:23:05Z</time></trkpt><trkpt lat="45.77205933795219" lon="9.914142232607984"><ele>629.0</ele><time>2026-04-22T14:23:06Z</time></trkpt><trkpt lat="45.77198900837894" lon="9.91408185670621"><ele>629.0</ele><time>2026-04-22T14:23:07Z</time></trkpt><trkpt lat="45.77192158442398" lon="9.914035585750119"><ele>629.0</ele><time>2026-04-22T14:23:08Z</time></trkpt><trkpt lat="45.77184017408434" lon="9.913991228196414"><ele>626.5</ele><time>2026-04-22T14:23:09Z</time></trkpt><trkpt lat="45.771763675684525" lon="9.91394883522982"><ele>624.0</ele><time>2026-04-22T14:23:10Z</time></trkpt><trkpt lat="45.77168497827763" lon="9.913888051594206"><ele>621.5</ele><time>2026-04-22T14:23:11Z</time></trkpt><trkpt lat="45.77161108574896" lon="9.91381142841263"><ele>619.0</ele><time>2026-04-22T14:23:12Z</time></trkpt><trkpt lat="45.771548446841045" lon="9.913721179149046"><ele>616.5</ele><time>2026-04-22T14:23:13Z</time></trkpt><trkpt lat="45.77148936520541" lon="9.913663734938034"><ele>614.0</ele><time>2026-04-22T14:23:14Z</time></trkpt><trkpt lat="45.77141271328887" lon="9.91366645517171"><ele>614.0</ele><time>2026-04-22T14:23:15Z</time></trkpt><trkpt lat="45.771342657147635" lon="9.913728875346017"><ele>614.0</ele><time>2026-04-22T14:23:16Z</time></trkpt><trkpt lat="45.77130335850152" lon="9.913843041977689"><ele>614.0</ele><time>2026-04-22T14:23:17Z</time></trkpt><trkpt lat="45.771300671994524" lon="9.913964847774523"><ele>614.0</ele><time>2026-04-22T14:23:18Z</time></trkpt><trkpt lat="45.771341868612076" lon="9.914076738215277"><ele>614.0</ele><time>2026-04-22T14:23:19Z</time></trkpt><trkpt lat="45.771402816390896" lon="9.914172617046212"><ele>614.0</ele><time>2026-04-22T14:23:20Z</time></trkpt><trkpt lat="45.7714618954046" lon="9.914268958230535"><ele>612.0</ele><time>2026-04-22T14:23:21Z</time></trkpt><trkpt lat="45.77150959390221" lon="9.914372802384392"><ele>610.0</ele><time>2026-04-22T14:23:22Z</time></trkpt><trkpt lat="45.771565050102915" lon="9.914485598150415"><ele>608.0</ele><time>2026-04-22T14:23:23Z</time></trkpt><trkpt lat="45.77162494196501" lon="9.91459546125045"><ele>606.0</ele><time>2026-04-22T14:23:24Z</time></trkpt><trkpt lat="45.77169551785461" lon="9.914704609502106"><ele>604.0</ele><time>2026-04-22T14:23:25Z</time></trkpt><trkpt lat="45.77177755493486" lon="9.91479582165072"><ele>605.4</ele><time>2026-04-22T14:23:26Z</time></trkpt><trkpt lat="45.77186663844669" lon="9.914878492326515"><ele>606.8</ele><time>2026-04-22T14:23:27Z</time></trkpt><trkpt lat="45.77196254369536" lon="9.914948972893196"><ele>608.2</ele><time>2026-04-22T14:23:28Z</time></trkpt><trkpt lat="45.77206258975752" lon="9.915029521534278"><ele>609.6</ele><time>2026-04-22T14:23:29Z</time></trkpt><trkpt lat="45.77215890663622" lon="9.915121025302167"><ele>611.0</ele><time>2026-04-22T14:23:30Z</time></trkpt><trkpt lat="45.77224589614685" lon="9.915232671418881"><ele>607.5</ele><time>2026-04-22T14:23:31Z</time></trkpt><trkpt lat="45.77232208197695" lon="9.915359887317239"><ele>604.0</ele><time>2026-04-22T14:23:32Z</time></trkpt><trkpt lat="45.77239192303118" lon="9.915515917748646"><ele>600.5</ele><time>2026-04-22T14:23:33Z</time></trkpt><trkpt lat="45.77246297183787" lon="9.915655386072988"><ele>597.0</ele><time>2026-04-22T14:23:34Z</time></trkpt><trkpt lat="45.77254074777507" lon="9.915789969830033"><ele>594.25</ele><time>2026-04-22T14:23:35Z</time></trkpt><trkpt lat="45.772621908840996" lon="9.915931292159202"><ele>591.5</ele><time>2026-04-22T14:23:36Z</time></trkpt><trkpt lat="45.77268660114522" lon="9.916059991799797"><ele>588.75</ele><time>2026-04-22T14:23:37Z</time></trkpt><trkpt lat="45.77275066549619" lon="9.916187372194013"><ele>586.0</ele><time>2026-04-22T14:23:38Z</time></trkpt><trkpt lat="45.772811799113704" lon="9.916315478755413"><ele>589.4</ele><time>2026-04-22T14:23:39Z</time></trkpt><trkpt lat="45.77286147957792" lon="9.916451622294847"><ele>592.8</ele><time>2026-04-22T14:23:40Z</time></trkpt><trkpt lat="45.77289903703139" lon="9.916585188919688"><ele>596.1999999999999</ele><time>2026-04-22T14:23:41Z</time></trkpt><trkpt lat="45.77292212603428" lon="9.91674201406765"><ele>599.6</ele><time>2026-04-22T14:23:42Z</time></trkpt><trkpt lat="45.77293865430197" lon="9.916883457989599"><ele>603.0</ele><time>2026-04-22T14:23:43Z</time></trkpt><trkpt lat="45.772948914647735" lon="9.917039599231645"><ele>603.0</ele><time>2026-04-22T14:23:44Z</time></trkpt><trkpt lat="45.77295339396812" lon="9.9171831418656"><ele>603.0</ele><time>2026-04-22T14:23:45Z</time></trkpt><trkpt lat="45.77296460986841" lon="9.91733066400028"><ele>603.0</ele><time>2026-04-22T14:23:46Z</time></trkpt><trkpt lat="45.772975474677594" lon="9.91747794271386"><ele>603.0</ele><time>2026-04-22T14:23:47Z</time></trkpt><trkpt lat="45.77298033299387" lon="9.91762604425853"><ele>603.0</ele><time>2026-04-22T14:23:48Z</time></trkpt><trkpt lat="45.772969749744746" lon="9.917764042080206"><ele>602.8</ele><time>2026-04-22T14:23:49Z</time></trkpt><trkpt lat="45.77294229098896" lon="9.917896016793959"><ele>602.5999999999999</ele><time>2026-04-22T14:23:50Z</time></trkpt><trkpt lat="45.77289727105428" lon="9.918015716858585"><ele>602.4000000000001</ele><time>2026-04-22T14:23:51Z</time></trkpt><trkpt lat="45.77283840101201" lon="9.918122938156989"><ele>602.2</ele><time>2026-04-22T14:23:52Z</time></trkpt><trkpt lat="45.772785032651306" lon="9.91822238874363"><ele>602.0</ele><time>2026-04-22T14:23:53Z</time></trkpt><trkpt lat="45.77274035566126" lon="9.918323844048388"><ele>602.1428571428571</ele><time>2026-04-22T14:23:54Z</time></trkpt><trkpt lat="45.772692666030174" lon="9.918419132372101"><ele>602.2857142857142</ele><time>2026-04-22T14:23:55Z</time></trkpt><trkpt lat="45.7726503642055" lon="9.91851135051653"><ele>602.4285714285714</ele><time>2026-04-22T14:23:56Z</time></trkpt><trkpt lat="45.772609320959766" lon="9.918603952708207"><ele>602.5714285714286</ele><time>2026-04-22T14:23:57Z</time></trkpt><trkpt lat="45.77257612845423" lon="9.918692862887456"><ele>602.7142857142857</ele><time>2026-04-22T14:23:58Z</time></trkpt><trkpt lat="45.7725426782346" lon="9.918782950227923"><ele>602.8571428571429</ele><time>2026-04-22T14:23:59Z</time></trkpt><trkpt lat="45.772524334867164" lon="9.918879085023125"><ele>603.0</ele><time>2026-04-22T14:24:00Z</time></trkpt><trkpt lat="45.77252362033515" lon="9.918975431060467"><ele>600.8333333333334</ele><time>2026-04-22T14:24:01Z</time></trkpt><trkpt lat="45.77253382103783" lon="9.919072707633138"><ele>598.6666666666666</ele><time>2026-04-22T14:24:02Z</time></trkpt><trkpt lat="45.77255694760811" lon="9.919160455024587"><ele>596.5</ele><time>2026-04-22T14:24:03Z</time></trkpt><trkpt lat="45.77258261956513" lon="9.91924440293307"><ele>594.3333333333333</ele><time>2026-04-22T14:24:04Z</time></trkpt><trkpt lat="45.772604591004374" lon="9.919332494723779"><ele>592.1666666666666</ele><time>2026-04-22T14:24:05Z</time></trkpt><trkpt lat="45.77262952701296" lon="9.91950851904451"><ele>590.0</ele><time>2026-04-22T14:24:07Z</time></trkpt><trkpt lat="45.77266184428682" lon="9.91967381392372"><ele>588.6</ele><time>2026-04-22T14:24:09Z</time></trkpt><trkpt lat="45.772689274145165" lon="9.919829617763854"><ele>587.2</ele><time>2026-04-22T14:24:11Z</time></trkpt><trkpt lat="45.77271953514279" lon="9.9199746171537"><ele>585.8</ele><time>2026-04-22T14:24:13Z</time></trkpt><trkpt lat="45.77274348216829" lon="9.920117301984982"><ele>584.4</ele><time>2026-04-22T14:24:15Z</time></trkpt><trkpt lat="45.77276699009425" lon="9.920237664865034"><ele>583.0</ele><time>2026-04-22T14:24:17Z</time></trkpt><trkpt lat="45.77273843267692" lon="9.920318476999983"><ele>584.3333333333334</ele><time>2026-04-22T14:24:21Z</time></trkpt><trkpt lat="45.77279681020362" lon="9.920352743644505"><ele>585.6666666666667</ele><time>2026-04-22T14:24:43Z</time></trkpt><trkpt lat="45.772831300341366" lon="9.920462972162953"><ele>587.0</ele><time>2026-04-22T14:24:45Z</time></trkpt><trkpt lat="45.77287342954077" lon="9.920569418468054"><ele>588.3333333333334</ele><time>2026-04-22T14:24:47Z</time></trkpt><trkpt lat="45.77291329745973" lon="9.920672055360015"><ele>589.6666666666666</ele><time>2026-04-22T14:24:49Z</time></trkpt><trkpt lat="45.772961067412176" lon="9.920791466405058"><ele>591.0</ele><time>2026-04-22T14:24:51Z</time></trkpt><trkpt lat="45.773014736747164" lon="9.920947823285424"><ele>591.0</ele><time>2026-04-22T14:24:53Z</time></trkpt><trkpt lat="45.77304597571554" lon="9.92102976750587"><ele>591.0</ele><time>2026-04-22T14:24:54Z</time></trkpt><trkpt lat="45.773077751880926" lon="9.921111075111087"><ele>591.0</ele><time>2026-04-22T14:24:55Z</time></trkpt><trkpt lat="45.773105865761885" lon="9.921195391669281"><ele>591.0</ele><time>2026-04-22T14:24:56Z</time></trkpt><trkpt lat="45.77313732910247" lon="9.921274572312651"><ele>591.0</ele><time>2026-04-22T14:24:57Z</time></trkpt><trkpt lat="45.773169514338214" lon="9.921355621229017"><ele>591.0</ele><time>2026-04-22T14:24:58Z</time></trkpt><trkpt lat="45.77323246257694" lon="9.921513995383053"><ele>591.0</ele><time>2026-04-22T14:25:00Z</time></trkpt><trkpt lat="45.773266086787366" lon="9.921593985362083"><ele>591.0</ele><time>2026-04-22T14:25:01Z</time></trkpt><trkpt lat="45.773299440069316" lon="9.921675584628089"><ele>591.0</ele><time>2026-04-22T14:25:02Z</time></trkpt><trkpt lat="45.77333346828732" lon="9.921755544176925"><ele>591.0</ele><time>2026-04-22T14:25:03Z</time></trkpt><trkpt lat="45.7733700245053" lon="9.921836624747359"><ele>591.0</ele><time>2026-04-22T14:25:04Z</time></trkpt><trkpt lat="45.77341109304865" lon="9.921912566526924"><ele>591.0</ele><time>2026-04-22T14:25:05Z</time></trkpt><trkpt lat="45.773451477877074" lon="9.921990772293057"><ele>591.0</ele><time>2026-04-22T14:25:06Z</time></trkpt><trkpt lat="45.77349406950384" lon="9.922071729144026"><ele>591.4285714285714</ele><time>2026-04-22T14:25:07Z</time></trkpt><trkpt lat="45.77353641935131" lon="9.922145966580306"><ele>591.8571428571429</ele><time>2026-04-22T14:25:08Z</time></trkpt><trkpt lat="45.77358271379332" lon="9.922220530985545"><ele>592.2857142857143</ele><time>2026-04-22T14:25:09Z</time></trkpt><trkpt lat="45.77362919737271" lon="9.92229342520187"><ele>592.7142857142858</ele><time>2026-04-22T14:25:10Z</time></trkpt><trkpt lat="45.77367612959465" lon="9.922364471141625"><ele>593.1428571428572</ele><time>2026-04-22T14:25:11Z</time></trkpt><trkpt lat="45.77372438618022" lon="9.922446574184596"><ele>593.5714285714286</ele><time>2026-04-22T14:25:12Z</time></trkpt><trkpt lat="45.773767012275556" lon="9.922516713437735"><ele>594.0</ele><time>2026-04-22T14:25:13Z</time></trkpt><trkpt lat="45.773815012039776" lon="9.922585217090042"><ele>593.0</ele><time>2026-04-22T14:25:14Z</time></trkpt><trkpt lat="45.77386319660123" lon="9.922651104278927"><ele>592.0</ele><time>2026-04-22T14:25:15Z</time></trkpt><trkpt lat="45.773908493894375" lon="9.922720927854483"><ele>591.0</ele><time>2026-04-22T14:25:16Z</time></trkpt><trkpt lat="45.77395099305853" lon="9.922793126605358"><ele>590.0</ele><time>2026-04-22T14:25:17Z</time></trkpt><trkpt lat="45.77399716275167" lon="9.922858524605106"><ele>589.0</ele><time>2026-04-22T14:25:18Z</time></trkpt><trkpt lat="45.774041720886856" lon="9.922922666555792"><ele>588.0</ele><time>2026-04-22T14:25:19Z</time></trkpt><trkpt lat="45.77408896472509" lon="9.922984235889887"><ele>587.0</ele><time>2026-04-22T14:25:20Z</time></trkpt><trkpt lat="45.77413623441608" lon="9.923045413348925"><ele>587.0</ele><time>2026-04-22T14:25:21Z</time></trkpt><trkpt lat="45.7741817462431" lon="9.923107979613407"><ele>587.0</ele><time>2026-04-22T14:25:22Z</time></trkpt><trkpt lat="45.77425365272215" lon="9.923235123707363"><ele>587.0</ele><time>2026-04-22T14:25:24Z</time></trkpt><trkpt lat="45.7743174182902" lon="9.92326845857777"><ele>587.0</ele><time>2026-04-22T14:25:25Z</time></trkpt><trkpt lat="45.774378791592" lon="9.923242320217927"><ele>587.0</ele><time>2026-04-22T14:25:26Z</time></trkpt><trkpt lat="45.77444135484757" lon="9.923218500212947"><ele>587.0</ele><time>2026-04-22T14:25:27Z</time></trkpt><trkpt lat="45.774505402104396" lon="9.923236732505513"><ele>587.0</ele><time>2026-04-22T14:25:28Z</time></trkpt><trkpt lat="45.77456939038258" lon="9.923261307858962"><ele>588.0</ele><time>2026-04-22T14:25:29Z</time></trkpt><trkpt lat="45.77465057382336" lon="9.923286034074271"><ele>589.0</ele><time>2026-04-22T14:25:30Z</time></trkpt><trkpt lat="45.77473527543094" lon="9.923303763422584"><ele>590.0</ele><time>2026-04-22T14:25:31Z</time></trkpt><trkpt lat="45.77481114017239" lon="9.923324349422998"><ele>591.0</ele><time>2026-04-22T14:25:32Z</time></trkpt><trkpt lat="45.77489204549923" lon="9.92335116141542"><ele>592.0</ele><time>2026-04-22T14:25:33Z</time></trkpt><trkpt lat="45.77496988689778" lon="9.92339310982437"><ele>593.0</ele><time>2026-04-22T14:25:34Z</time></trkpt><trkpt lat="45.775043653643465" lon="9.923466276685534"><ele>589.1999999999999</ele><time>2026-04-22T14:25:35Z</time></trkpt><trkpt lat="45.7751010158454" lon="9.92356912706428"><ele>585.4</ele><time>2026-04-22T14:25:36Z</time></trkpt><trkpt lat="45.77514523259251" lon="9.923690749744862"><ele>581.5999999999999</ele><time>2026-04-22T14:25:37Z</time></trkpt><trkpt lat="45.77516347206487" lon="9.92383177166387"><ele>577.8</ele><time>2026-04-22T14:25:38Z</time></trkpt><trkpt lat="45.77517342963447" lon="9.923973817445386"><ele>574.0</ele><time>2026-04-22T14:25:39Z</time></trkpt><trkpt lat="45.775203921781056" lon="9.924092786608343"><ele>579.0</ele><time>2026-04-22T14:25:40Z</time></trkpt><trkpt lat="45.775259147008725" lon="9.924214841749338"><ele>584.0</ele><time>2026-04-22T14:25:41Z</time></trkpt><trkpt lat="45.77530913418022" lon="9.924337687684586"><ele>589.0</ele><time>2026-04-22T14:25:42Z</time></trkpt><trkpt lat="45.77536225941835" lon="9.924458797031358"><ele>594.0</ele><time>2026-04-22T14:25:43Z</time></trkpt><trkpt lat="45.77541457590055" lon="9.92457771679925"><ele>599.0</ele><time>2026-04-22T14:25:44Z</time></trkpt><trkpt lat="45.775468900221576" lon="9.924702291750146"><ele>599.0</ele><time>2026-04-22T14:25:45Z</time></trkpt><trkpt lat="45.77552148085352" lon="9.924835061957785"><ele>599.0</ele><time>2026-04-22T14:25:46Z</time></trkpt><trkpt lat="45.77556677407408" lon="9.92497444274069"><ele>599.0</ele><time>2026-04-22T14:25:47Z</time></trkpt><trkpt lat="45.775603658023655" lon="9.92510986545385"><ele>599.0</ele><time>2026-04-22T14:25:48Z</time></trkpt><trkpt lat="45.77563890201594" lon="9.925251913038593"><ele>599.0</ele><time>2026-04-22T14:25:49Z</time></trkpt><trkpt lat="45.77566622448421" lon="9.925396185149522"><ele>594.2</ele><time>2026-04-22T14:25:50Z</time></trkpt><trkpt lat="45.77569878567415" lon="9.925541738717584"><ele>589.4</ele><time>2026-04-22T14:25:51Z</time></trkpt><trkpt lat="45.77574493499575" lon="9.925674118522828"><ele>584.6</ele><time>2026-04-22T14:25:52Z</time></trkpt><trkpt lat="45.77580149190489" lon="9.925797506735927"><ele>579.8</ele><time>2026-04-22T14:25:53Z</time></trkpt><trkpt lat="45.77587590124645" lon="9.925904232096553"><ele>575.0</ele><time>2026-04-22T14:25:54Z</time></trkpt><trkpt lat="45.77596096264754" lon="9.925995483933862"><ele>575.2</ele><time>2026-04-22T14:25:55Z</time></trkpt><trkpt lat="45.77605350185297" lon="9.926077058153963"><ele>575.4</ele><time>2026-04-22T14:25:56Z</time></trkpt><trkpt lat="45.77614408393563" lon="9.926163105341892"><ele>575.6</ele><time>2026-04-22T14:25:57Z</time></trkpt><trkpt lat="45.776233733847484" lon="9.92625235240894"><ele>575.8</ele><time>2026-04-22T14:25:58Z</time></trkpt><trkpt lat="45.776321066228014" lon="9.926344664828221"><ele>576.0</ele><time>2026-04-22T14:25:59Z</time></trkpt><trkpt lat="45.776409155416346" lon="9.926438060252938"><ele>576.0</ele><time>2026-04-22T14:26:00Z</time></trkpt><trkpt lat="45.77649356923639" lon="9.92653430371305"><ele>576.0</ele><time>2026-04-22T14:26:01Z</time></trkpt><trkpt lat="45.7765694659379" lon="9.926645880464672"><ele>576.0</ele><time>2026-04-22T14:26:02Z</time></trkpt><trkpt lat="45.776629568642754" lon="9.92676598870851"><ele>576.0</ele><time>2026-04-22T14:26:03Z</time></trkpt><trkpt lat="45.776672926212015" lon="9.926895467433487"><ele>576.0</ele><time>2026-04-22T14:26:04Z</time></trkpt><trkpt lat="45.77673059362106" lon="9.927054082436992"><ele>578.0</ele><time>2026-04-22T14:26:05Z</time></trkpt><trkpt lat="45.77678193999703" lon="9.927191723389077"><ele>580.0</ele><time>2026-04-22T14:26:06Z</time></trkpt><trkpt lat="45.7768423280916" lon="9.927321736648508"><ele>582.0</ele><time>2026-04-22T14:26:07Z</time></trkpt><trkpt lat="45.77691515966027" lon="9.927441064774952"><ele>584.0</ele><time>2026-04-22T14:26:08Z</time></trkpt><trkpt lat="45.77700154509887" lon="9.927537702368708"><ele>586.0</ele><time>2026-04-22T14:26:09Z</time></trkpt><trkpt lat="45.777103088655245" lon="9.92759647098219"><ele>578.6</ele><time>2026-04-22T14:26:10Z</time></trkpt><trkpt lat="45.777206329986505" lon="9.92764816386497"><ele>571.2</ele><time>2026-04-22T14:26:11Z</time></trkpt><trkpt lat="45.77731071062601" lon="9.927705685742886"><ele>563.8</ele><time>2026-04-22T14:26:12Z</time></trkpt><trkpt lat="45.77740945314398" lon="9.92778001702945"><ele>556.4</ele><time>2026-04-22T14:26:13Z</time></trkpt><trkpt lat="45.77749437114415" lon="9.927869473813157"><ele>549.0</ele><time>2026-04-22T14:26:14Z</time></trkpt><trkpt lat="45.777574626218126" lon="9.927979587272327"><ele>549.0</ele><time>2026-04-22T14:26:15Z</time></trkpt><trkpt lat="45.777656884197356" lon="9.928082614560575"><ele>549.0</ele><time>2026-04-22T14:26:16Z</time></trkpt><trkpt lat="45.77774210411989" lon="9.928179349619812"><ele>549.0</ele><time>2026-04-22T14:26:17Z</time></trkpt><trkpt lat="45.77782522325985" lon="9.928272229327051"><ele>549.0</ele><time>2026-04-22T14:26:18Z</time></trkpt><trkpt lat="45.777911033696704" lon="9.928360289793478"><ele>549.0</ele><time>2026-04-22T14:26:19Z</time></trkpt><trkpt lat="45.77800175653346" lon="9.928438492924965"><ele>545.4</ele><time>2026-04-22T14:26:20Z</time></trkpt><trkpt lat="45.778093936324375" lon="9.928509673492181"><ele>541.8</ele><time>2026-04-22T14:26:21Z</time></trkpt><trkpt lat="45.778190176271444" lon="9.928574828514135"><ele>538.2</ele><time>2026-04-22T14:26:22Z</time></trkpt><trkpt lat="45.778288226698734" lon="9.928640446938976"><ele>534.6</ele><time>2026-04-22T14:26:23Z</time></trkpt><trkpt lat="45.77838440418134" lon="9.928708476351664"><ele>531.0</ele><time>2026-04-22T14:26:24Z</time></trkpt><trkpt lat="45.778481331671834" lon="9.928766527540402"><ele>533.2</ele><time>2026-04-22T14:26:25Z</time></trkpt><trkpt lat="45.77857966622118" lon="9.928822461167272"><ele>535.4000000000001</ele><time>2026-04-22T14:26:26Z</time></trkpt><trkpt lat="45.77867554508684" lon="9.928876390461742"><ele>537.6</ele><time>2026-04-22T14:26:27Z</time></trkpt><trkpt lat="45.7787738570834" lon="9.928916319905476"><ele>539.8000000000001</ele><time>2026-04-22T14:26:28Z</time></trkpt><trkpt lat="45.778876540180455" lon="9.928931098560756"><ele>542.0</ele><time>2026-04-22T14:26:29Z</time></trkpt><trkpt lat="45.77897977043595" lon="9.928930152346885"><ele>542.0</ele><time>2026-04-22T14:26:30Z</time></trkpt><trkpt lat="45.77908365755905" lon="9.928929495106958"><ele>542.0</ele><time>2026-04-22T14:26:31Z</time></trkpt><trkpt lat="45.77918907574334" lon="9.928938171658075"><ele>542.0</ele><time>2026-04-22T14:26:32Z</time></trkpt><trkpt lat="45.77929132877366" lon="9.928964834976274"><ele>542.0</ele><time>2026-04-22T14:26:33Z</time></trkpt><trkpt lat="45.779391451100274" lon="9.929003445789194"><ele>542.0</ele><time>2026-04-22T14:26:34Z</time></trkpt><trkpt lat="45.77948957640872" lon="9.929052787085546"><ele>544.8000000000001</ele><time>2026-04-22T14:26:35Z</time></trkpt><trkpt lat="45.77958493060712" lon="9.929109519819312"><ele>547.6</ele><time>2026-04-22T14:26:36Z</time></trkpt><trkpt lat="45.77967546502541" lon="9.929182670519547"><ele>550.4000000000001</ele><time>2026-04-22T14:26:37Z</time></trkpt><trkpt lat="45.77976100952946" lon="9.929264338643417"><ele>553.2</ele><time>2026-04-22T14:26:38Z</time></trkpt><trkpt lat="45.77984517930963" lon="9.929349753550666"><ele>556.0</ele><time>2026-04-22T14:26:39Z</time></trkpt><trkpt lat="45.77993160271775" lon="9.92942308002329"><ele>552.0</ele><time>2026-04-22T14:26:40Z</time></trkpt><trkpt lat="45.780021579148126" lon="9.929490731836676"><ele>548.0</ele><time>2026-04-22T14:26:41Z</time></trkpt><trkpt lat="45.78011374243481" lon="9.929545881292396"><ele>544.0</ele><time>2026-04-22T14:26:42Z</time></trkpt><trkpt lat="45.78021117503418" lon="9.929587352257752"><ele>540.0</ele><time>2026-04-22T14:26:43Z</time></trkpt><trkpt lat="45.78031024174715" lon="9.929617059785729"><ele>536.0</ele><time>2026-04-22T14:26:44Z</time></trkpt><trkpt lat="45.78041120064794" lon="9.929638052412066"><ele>536.0</ele><time>2026-04-22T14:26:45Z</time></trkpt><trkpt lat="45.780513096771436" lon="9.929645533706687"><ele>536.0</ele><time>2026-04-22T14:26:46Z</time></trkpt><trkpt lat="45.78061769116485" lon="9.929666831369287"><ele>536.0</ele><time>2026-04-22T14:26:47Z</time></trkpt><trkpt lat="45.78071929879727" lon="9.929704489569316"><ele>536.0</ele><time>2026-04-22T14:26:48Z</time></trkpt><trkpt lat="45.780815047046985" lon="9.92975967063865"><ele>536.0</ele><time>2026-04-22T14:26:49Z</time></trkpt><trkpt lat="45.78090942790262" lon="9.929817139754038"><ele>536.0</ele><time>2026-04-22T14:26:50Z</time></trkpt><trkpt lat="45.78100087021435" lon="9.9298795806788"><ele>536.0</ele><time>2026-04-22T14:26:51Z</time></trkpt><trkpt lat="45.78109265824648" lon="9.9299366951747"><ele>536.0</ele><time>2026-04-22T14:26:52Z</time></trkpt><trkpt lat="45.781183827459714" lon="9.929985495346989"><ele>536.0</ele><time>2026-04-22T14:26:53Z</time></trkpt><trkpt lat="45.781278165080046" lon="9.930022088312572"><ele>536.0</ele><time>2026-04-22T14:26:54Z</time></trkpt><trkpt lat="45.78137727396285" lon="9.930042089543152"><ele>536.8</ele><time>2026-04-22T14:26:55Z</time></trkpt><trkpt lat="45.7814763139721" lon="9.930047568514516"><ele>537.6</ele><time>2026-04-22T14:26:56Z</time></trkpt><trkpt lat="45.78157804817512" lon="9.930052615507638"><ele>538.4</ele><time>2026-04-22T14:26:57Z</time></trkpt><trkpt lat="45.781681976530635" lon="9.930067516979642"><ele>539.2</ele><time>2026-04-22T14:26:58Z</time></trkpt><trkpt lat="45.781783545962796" lon="9.930079503425546"><ele>540.0</ele><time>2026-04-22T14:26:59Z</time></trkpt><trkpt lat="45.78187738806295" lon="9.930107463322825"><ele>535.6666666666666</ele><time>2026-04-22T14:27:00Z</time></trkpt><trkpt lat="45.7819654159639" lon="9.930143979356652"><ele>531.3333333333334</ele><time>2026-04-22T14:27:01Z</time></trkpt><trkpt lat="45.782050496305224" lon="9.93018488140869"><ele>527.0</ele><time>2026-04-22T14:27:02Z</time></trkpt><trkpt lat="45.78213004313673" lon="9.930228293489154"><ele>522.6666666666667</ele><time>2026-04-22T14:27:03Z</time></trkpt><trkpt lat="45.78221146749597" lon="9.93027256569654"><ele>518.3333333333334</ele><time>2026-04-22T14:27:04Z</time></trkpt><trkpt lat="45.78229543714076" lon="9.930312274268111"><ele>514.0</ele><time>2026-04-22T14:27:05Z</time></trkpt><trkpt lat="45.782376737291585" lon="9.930344443720285"><ele>514.0</ele><time>2026-04-22T14:27:06Z</time></trkpt><trkpt lat="45.78246175185122" lon="9.930366871969513"><ele>514.0</ele><time>2026-04-22T14:27:07Z</time></trkpt><trkpt lat="45.78254825040479" lon="9.930384352140535"><ele>514.0</ele><time>2026-04-22T14:27:08Z</time></trkpt><trkpt lat="45.78263592878299" lon="9.930400283607813"><ele>514.0</ele><time>2026-04-22T14:27:09Z</time></trkpt><trkpt lat="45.78272451485271" lon="9.930415738433437"><ele>514.0</ele><time>2026-04-22T14:27:10Z</time></trkpt><trkpt lat="45.78281517460887" lon="9.930427784331942"><ele>514.0</ele><time>2026-04-22T14:27:11Z</time></trkpt><trkpt lat="45.78290777460707" lon="9.930435593902555"><ele>514.8</ele><time>2026-04-22T14:27:12Z</time></trkpt><trkpt lat="45.78299908696652" lon="9.930445548891546"><ele>515.5999999999999</ele><time>2026-04-22T14:27:13Z</time></trkpt><trkpt lat="45.78309111610175" lon="9.93046104362531"><ele>516.4</ele><time>2026-04-22T14:27:14Z</time></trkpt><trkpt lat="45.783183541154095" lon="9.93047572661325"><ele>517.1999999999999</ele><time>2026-04-22T14:27:15Z</time></trkpt><trkpt lat="45.78327456176245" lon="9.930490032276806"><ele>518.0</ele><time>2026-04-22T14:27:16Z</time></trkpt><trkpt lat="45.78336750261164" lon="9.930499556825337"><ele>518.0</ele><time>2026-04-22T14:27:17Z</time></trkpt><trkpt lat="45.78346011291642" lon="9.930510244830021"><ele>518.0</ele><time>2026-04-22T14:27:18Z</time></trkpt><trkpt lat="45.78355305638907" lon="9.930519427262933"><ele>518.0</ele><time>2026-04-22T14:27:19Z</time></trkpt><trkpt lat="45.78364631803034" lon="9.930526415060857"><ele>518.0</ele><time>2026-04-22T14:27:20Z</time></trkpt><trkpt lat="45.78374035375761" lon="9.930536566538166"><ele>518.0</ele><time>2026-04-22T14:27:21Z</time></trkpt><trkpt lat="45.78383325090398" lon="9.93054238191305"><ele>518.1999999999999</ele><time>2026-04-22T14:27:22Z</time></trkpt><trkpt lat="45.783925643010605" lon="9.930543091177011"><ele>518.4</ele><time>2026-04-22T14:27:23Z</time></trkpt><trkpt lat="45.78401865103359" lon="9.930534896302277"><ele>518.5999999999999</ele><time>2026-04-22T14:27:24Z</time></trkpt><trkpt lat="45.78411097421849" lon="9.930519740644444"><ele>518.8</ele><time>2026-04-22T14:27:25Z</time></trkpt><trkpt lat="45.784205935413276" lon="9.930514470449104"><ele>519.0</ele><time>2026-04-22T14:27:26Z</time></trkpt><trkpt lat="45.78430166928332" lon="9.930508021223377"><ele>519.2</ele><time>2026-04-22T14:27:27Z</time></trkpt><trkpt lat="45.78439870069631" lon="9.930503531715818"><ele>519.4</ele><time>2026-04-22T14:27:28Z</time></trkpt><trkpt lat="45.784496352348924" lon="9.930514677507823"><ele>519.6</ele><time>2026-04-22T14:27:29Z</time></trkpt><trkpt lat="45.78459307173182" lon="9.93053690611405"><ele>519.8</ele><time>2026-04-22T14:27:30Z</time></trkpt><trkpt lat="45.78468780679885" lon="9.930566484063743"><ele>520.0</ele><time>2026-04-22T14:27:31Z</time></trkpt><trkpt lat="45.78477952557224" lon="9.930605157599125"><ele>520.0</ele><time>2026-04-22T14:27:32Z</time></trkpt><trkpt lat="45.78487093136569" lon="9.930634330940341"><ele>520.0</ele><time>2026-04-22T14:27:33Z</time></trkpt><trkpt lat="45.78496248487372" lon="9.930662413023002"><ele>520.0</ele><time>2026-04-22T14:27:34Z</time></trkpt><trkpt lat="45.785044002390755" lon="9.930681891309344"><ele>520.0</ele><time>2026-04-22T14:27:35Z</time></trkpt><trkpt lat="45.78511235517084" lon="9.930694941438967"><ele>520.0</ele><time>2026-04-22T14:27:36Z</time></trkpt><trkpt lat="45.78517575159956" lon="9.930709750881517"><ele>520.0</ele><time>2026-04-22T14:27:37Z</time></trkpt><trkpt lat="45.78526508520025" lon="9.930782840749728"><ele>520.0</ele><time>2026-04-22T14:27:39Z</time></trkpt><trkpt lat="45.785258008301575" lon="9.93092850127085"><ele>520.0</ele><time>2026-04-22T14:27:41Z</time></trkpt><trkpt lat="45.78520525760628" lon="9.93102844958571"><ele>520.0</ele><time>2026-04-22T14:27:43Z</time></trkpt><trkpt lat="45.7851371824189" lon="9.931042187340958"><ele>520.0</ele><time>2026-04-22T14:28:27Z</time></trkpt><trkpt lat="45.785073283341106" lon="9.930992670686987"><ele>520.0</ele><time>2026-04-22T14:28:30Z</time></trkpt><trkpt lat="45.78499993207456" lon="9.930937319133356"><ele>520.0</ele><time>2026-04-22T14:28:32Z</time></trkpt><trkpt lat="45.784898855671656" lon="9.930885789183085"><ele>520.0</ele><time>2026-04-22T14:28:34Z</time></trkpt><trkpt lat="45.78477435977116" lon="9.93085436570197"><ele>520.0</ele><time>2026-04-22T14:28:36Z</time></trkpt><trkpt lat="45.784702117854266" lon="9.930850586646905"><ele>520.0</ele><time>2026-04-22T14:28:37Z</time></trkpt><trkpt lat="45.7846239934739" lon="9.930842715715926"><ele>520.0</ele><time>2026-04-22T14:28:38Z</time></trkpt><trkpt lat="45.784540784449334" lon="9.93084129863445"><ele>520.0</ele><time>2026-04-22T14:28:39Z</time></trkpt><trkpt lat="45.78445635645049" lon="9.930843403306213"><ele>520.0</ele><time>2026-04-22T14:28:40Z</time></trkpt><trkpt lat="45.78436475634831" lon="9.930848254329085"><ele>519.8333333333334</ele><time>2026-04-22T14:28:41Z</time></trkpt><trkpt lat="45.784273007712" lon="9.930867365203223"><ele>519.6666666666667</ele><time>2026-04-22T14:28:42Z</time></trkpt><trkpt lat="45.7841858885245" lon="9.9308825665979"><ele>519.5</ele><time>2026-04-22T14:28:43Z</time></trkpt><trkpt lat="45.784103575244785" lon="9.93089653379434"><ele>519.3333333333334</ele><time>2026-04-22T14:28:44Z</time></trkpt><trkpt lat="45.784032906161" lon="9.930906440912489"><ele>519.1666666666666</ele><time>2026-04-22T14:28:45Z</time></trkpt><trkpt lat="45.78397736932804" lon="9.9309567784767"><ele>519.0</ele><time>2026-04-22T14:28:46Z</time></trkpt><trkpt lat="45.78395829372587" lon="9.931137234804675"><ele>512.8</ele><time>2026-04-22T14:28:48Z</time></trkpt><trkpt lat="45.78400443223317" lon="9.931253925700176"><ele>506.59999999999997</ele><time>2026-04-22T14:28:50Z</time></trkpt><trkpt lat="45.784096015016345" lon="9.931295014578252"><ele>500.4</ele><time>2026-04-22T14:29:13Z</time></trkpt><trkpt lat="45.78417412147779" lon="9.931272295071421"><ele>494.2</ele><time>2026-04-22T14:29:15Z</time></trkpt><trkpt lat="45.784289777160765" lon="9.931248453093676"><ele>488.0</ele><time>2026-04-22T14:29:17Z</time></trkpt><trkpt lat="45.7843643434478" lon="9.93124346132409"><ele>487.99999999999994</ele><time>2026-04-22T14:29:18Z</time></trkpt><trkpt lat="45.784442049153185" lon="9.931237714788297"><ele>488.0</ele><time>2026-04-22T14:29:19Z</time></trkpt><trkpt lat="45.78451910896036" lon="9.93122507765676"><ele>488.0</ele><time>2026-04-22T14:29:20Z</time></trkpt><trkpt lat="45.78460072598395" lon="9.931212285185193"><ele>488.0</ele><time>2026-04-22T14:29:21Z</time></trkpt><trkpt lat="45.78468626968936" lon="9.931215348637057"><ele>487.99999999999994</ele><time>2026-04-22T14:29:22Z</time></trkpt><trkpt lat="45.78477431001116" lon="9.931228443726269"><ele>488.0</ele><time>2026-04-22T14:29:23Z</time></trkpt><trkpt lat="45.784865623292774" lon="9.931248811577715"><ele>488.0</ele><time>2026-04-22T14:29:24Z</time></trkpt><trkpt lat="45.78495846295862" lon="9.931271200788315"><ele>487.99999999999994</ele><time>2026-04-22T14:29:25Z</time></trkpt><trkpt lat="45.785054836435" lon="9.93130011962319"><ele>487.99999999999994</ele><time>2026-04-22T14:29:26Z</time></trkpt><trkpt lat="45.78515165911842" lon="9.931339776059206"><ele>488.0</ele><time>2026-04-22T14:29:27Z</time></trkpt><trkpt lat="45.78525030128846" lon="9.931391502771143"><ele>488.0</ele><time>2026-04-22T14:29:28Z</time></trkpt><trkpt lat="45.785348814978185" lon="9.931447633538358"><ele>485.25</ele><time>2026-04-22T14:29:29Z</time></trkpt><trkpt lat="45.78544902127104" lon="9.931513104595501"><ele>482.5</ele><time>2026-04-22T14:29:30Z</time></trkpt><trkpt lat="45.78555067101206" lon="9.931587364698252"><ele>479.75</ele><time>2026-04-22T14:29:31Z</time></trkpt><trkpt lat="45.78565276523713" lon="9.931661739130094"><ele>477.0</ele><time>2026-04-22T14:29:32Z</time></trkpt><trkpt lat="45.785756067862145" lon="9.931733869574723"><ele>477.0</ele><time>2026-04-22T14:29:33Z</time></trkpt><trkpt lat="45.78585264304247" lon="9.931796741620161"><ele>477.0</ele><time>2026-04-22T14:29:34Z</time></trkpt><trkpt lat="45.785944003171686" lon="9.931853985810342"><ele>477.0</ele><time>2026-04-22T14:29:35Z</time></trkpt><trkpt lat="45.78602325134651" lon="9.931910389541645"><ele>477.0</ele><time>2026-04-22T14:29:36Z</time></trkpt><trkpt lat="45.78608206595471" lon="9.931960824101715"><ele>477.0</ele><time>2026-04-22T14:29:37Z</time></trkpt><trkpt lat="45.78613895449241" lon="9.932019686039487"><ele>477.0</ele><time>2026-04-22T14:29:38Z</time></trkpt><trkpt lat="45.78619678352348" lon="9.932106009256735"><ele>478.85714285714283</ele><time>2026-04-22T14:29:39Z</time></trkpt><trkpt lat="45.78624764646339" lon="9.932204319062354"><ele>480.71428571428567</ele><time>2026-04-22T14:29:40Z</time></trkpt><trkpt lat="45.786290871237874" lon="9.932295530575988"><ele>482.57142857142856</ele><time>2026-04-22T14:29:41Z</time></trkpt><trkpt lat="45.78631441707103" lon="9.932390159708605"><ele>484.42857142857144</ele><time>2026-04-22T14:29:42Z</time></trkpt><trkpt lat="45.7863262961765" lon="9.932482922251658"><ele>486.2857142857143</ele><time>2026-04-22T14:29:43Z</time></trkpt><trkpt lat="45.78633339819141" lon="9.932582481092448"><ele>488.1428571428571</ele><time>2026-04-22T14:29:44Z</time></trkpt><trkpt lat="45.78634201738062" lon="9.932685210832924"><ele>490.0</ele><time>2026-04-22T14:29:45Z</time></trkpt><trkpt lat="45.78633912509293" lon="9.932788190007825"><ele>490.00000000000006</ele><time>2026-04-22T14:29:46Z</time></trkpt><trkpt lat="45.78632674309931" lon="9.93288080381376"><ele>490.0</ele><time>2026-04-22T14:29:47Z</time></trkpt><trkpt lat="45.78630471861282" lon="9.93297386097753"><ele>490.0</ele><time>2026-04-22T14:29:48Z</time></trkpt><trkpt lat="45.7862789439481" lon="9.933130085597124"><ele>490.0</ele><time>2026-04-22T14:29:50Z</time></trkpt><trkpt lat="45.78626937673073" lon="9.933229217676354"><ele>490.00000000000006</ele><time>2026-04-22T14:29:52Z</time></trkpt><trkpt lat="45.786277015715264" lon="9.933328935141752"><ele>490.0</ele><time>2026-04-22T14:30:19Z</time></trkpt><trkpt lat="45.78630745357934" lon="9.933424950432816"><ele>488.1666666666667</ele><time>2026-04-22T14:30:21Z</time></trkpt><trkpt lat="45.78634461909852" lon="9.933547458452017"><ele>486.33333333333337</ele><time>2026-04-22T14:30:23Z</time></trkpt><trkpt lat="45.78639798429866" lon="9.933701939311305"><ele>484.5</ele><time>2026-04-22T14:30:25Z</time></trkpt><trkpt lat="45.786424672764426" lon="9.93378976747051"><ele>482.66666666666663</ele><time>2026-04-22T14:30:26Z</time></trkpt><trkpt lat="45.78645391746812" lon="9.933884964373457"><ele>480.8333333333333</ele><time>2026-04-22T14:30:27Z</time></trkpt><trkpt lat="45.78648498173216" lon="9.93397888938885"><ele>479.0</ele><time>2026-04-22T14:30:28Z</time></trkpt><trkpt lat="45.78647213299276" lon="9.934115756101033"><ele>479.0</ele><time>2026-04-22T14:30:30Z</time></trkpt><trkpt lat="45.78634671092309" lon="9.934109559998088"><ele>479.0</ele><time>2026-04-22T14:30:32Z</time></trkpt><trkpt lat="45.786286978092285" lon="9.934046167805525"><ele>479.0</ele><time>2026-04-22T14:30:33Z</time></trkpt><trkpt lat="45.78624768233311" lon="9.933968083213323"><ele>479.0</ele><time>2026-04-22T14:30:34Z</time></trkpt><trkpt lat="45.78617454621655" lon="9.933840333573295"><ele>479.0</ele><time>2026-04-22T14:30:36Z</time></trkpt><trkpt lat="45.786105899193274" lon="9.933748057458821"><ele>478.99999999999994</ele><time>2026-04-22T14:30:38Z</time></trkpt><trkpt lat="45.78606259105908" lon="9.933672796689972"><ele>479.0</ele><time>2026-04-22T14:30:40Z</time></trkpt><trkpt lat="45.786014445325975" lon="9.933591208898692"><ele>479.0</ele><time>2026-04-22T14:30:42Z</time></trkpt><trkpt lat="45.78597884289637" lon="9.933477562412351"><ele>479.0</ele><time>2026-04-22T14:30:44Z</time></trkpt><trkpt lat="45.78596231218874" lon="9.93333214601135"><ele>478.99999999999994</ele><time>2026-04-22T14:30:46Z</time></trkpt><trkpt lat="45.78595085531533" lon="9.933191860380504"><ele>479.0</ele><time>2026-04-22T14:30:48Z</time></trkpt><trkpt lat="45.785925893026594" lon="9.933031913889455"><ele>476.8333333333333</ele><time>2026-04-22T14:30:50Z</time></trkpt><trkpt lat="45.78589051633386" lon="9.932864485520666"><ele>474.66666666666663</ele><time>2026-04-22T14:30:52Z</time></trkpt><trkpt lat="45.78584711087196" lon="9.932785496464412"><ele>472.5</ele><time>2026-04-22T14:30:53Z</time></trkpt><trkpt lat="45.7857822018407" lon="9.932724342925777"><ele>470.33333333333337</ele><time>2026-04-22T14:30:54Z</time></trkpt><trkpt lat="45.78570678162631" lon="9.932694273092398"><ele>468.1666666666667</ele><time>2026-04-22T14:30:55Z</time></trkpt><trkpt lat="45.78562376357756" lon="9.932673335378587"><ele>466.0</ele><time>2026-04-22T14:30:56Z</time></trkpt><trkpt lat="45.78553912550303" lon="9.93266065206269"><ele>466.00000000000006</ele><time>2026-04-22T14:30:57Z</time></trkpt><trkpt lat="45.78545342234547" lon="9.932646638242185"><ele>466.0</ele><time>2026-04-22T14:30:58Z</time></trkpt><trkpt lat="45.785365573595804" lon="9.932630503637258"><ele>466.0</ele><time>2026-04-22T14:30:59Z</time></trkpt><trkpt lat="45.785278020027754" lon="9.932609337693954"><ele>466.0</ele><time>2026-04-22T14:31:00Z</time></trkpt><trkpt lat="45.785196258029046" lon="9.932587760037228"><ele>466.00000000000006</ele><time>2026-04-22T14:31:01Z</time></trkpt><trkpt lat="45.78512032329551" lon="9.932567558140843"><ele>466.0</ele><time>2026-04-22T14:31:02Z</time></trkpt><trkpt lat="45.78504658579911" lon="9.932545496018095"><ele>465.7142857142857</ele><time>2026-04-22T14:31:03Z</time></trkpt><trkpt lat="45.78497554145541" lon="9.932528103545902"><ele>465.42857142857144</ele><time>2026-04-22T14:31:04Z</time></trkpt><trkpt lat="45.784905433967765" lon="9.932505921386056"><ele>465.14285714285717</ele><time>2026-04-22T14:31:05Z</time></trkpt><trkpt lat="45.78483528987275" lon="9.932486791837139"><ele>464.8571428571429</ele><time>2026-04-22T14:31:06Z</time></trkpt><trkpt lat="45.784765549703565" lon="9.932472998792392"><ele>464.57142857142856</ele><time>2026-04-22T14:31:07Z</time></trkpt><trkpt lat="45.78469664775179" lon="9.932460128448593"><ele>464.28571428571433</ele><time>2026-04-22T14:31:08Z</time></trkpt><trkpt lat="45.78462899001333" lon="9.932446536918142"><ele>464.00000000000006</ele><time>2026-04-22T14:31:09Z</time></trkpt><trkpt lat="45.78456000860996" lon="9.932427922043846"><ele>464.00000000000006</ele><time>2026-04-22T14:31:10Z</time></trkpt><trkpt lat="45.784491858828794" lon="9.93240811237941"><ele>464.0</ele><time>2026-04-22T14:31:11Z</time></trkpt><trkpt lat="45.7844220404001" lon="9.932401472170113"><ele>464.00000000000006</ele><time>2026-04-22T14:31:12Z</time></trkpt><trkpt lat="45.78435252307853" lon="9.93239434380722"><ele>464.00000000000006</ele><time>2026-04-22T14:31:13Z</time></trkpt><trkpt lat="45.78427845871656" lon="9.93239442527696"><ele>464.0</ele><time>2026-04-22T14:31:14Z</time></trkpt><trkpt lat="45.7842022610136" lon="9.932399693397734"><ele>464.00000000000006</ele><time>2026-04-22T14:31:15Z</time></trkpt><trkpt lat="45.784122706260355" lon="9.932401975671292"><ele>464.00000000000006</ele><time>2026-04-22T14:31:16Z</time></trkpt><trkpt lat="45.78404223189822" lon="9.932409891213599"><ele>462.49999999999994</ele><time>2026-04-22T14:31:17Z</time></trkpt><trkpt lat="45.783972213612785" lon="9.932420505953848"><ele>461.0</ele><time>2026-04-22T14:31:18Z</time></trkpt><trkpt lat="45.78388659958962" lon="9.93245005503208"><ele>459.5</ele><time>2026-04-22T14:31:20Z</time></trkpt><trkpt lat="45.783811194465166" lon="9.932475519427426"><ele>458.0</ele><time>2026-04-22T14:31:24Z</time></trkpt><trkpt lat="45.783725182324936" lon="9.932503520733098"><ele>456.49999999999994</ele><time>2026-04-22T14:31:27Z</time></trkpt><trkpt lat="45.783647936741865" lon="9.932524946242005"><ele>455.0</ele><time>2026-04-22T14:31:29Z</time></trkpt><trkpt lat="45.78353146312648" lon="9.932541406390035"><ele>454.57142857142856</ele><time>2026-04-22T14:31:31Z</time></trkpt><trkpt lat="45.78346178945545" lon="9.932546945173966"><ele>454.1428571428571</ele><time>2026-04-22T14:31:32Z</time></trkpt><trkpt lat="45.78339146945303" lon="9.932552386379614"><ele>453.7142857142857</ele><time>2026-04-22T14:31:33Z</time></trkpt><trkpt lat="45.783321752016825" lon="9.932561714299244"><ele>453.2857142857143</ele><time>2026-04-22T14:31:34Z</time></trkpt><trkpt lat="45.78325231605759" lon="9.932573578524979"><ele>452.85714285714283</ele><time>2026-04-22T14:31:35Z</time></trkpt><trkpt lat="45.78318277083448" lon="9.932583801409413"><ele>452.42857142857144</ele><time>2026-04-22T14:31:36Z</time></trkpt><trkpt lat="45.78310912885357" lon="9.932590268916924"><ele>452.0</ele><time>2026-04-22T14:31:37Z</time></trkpt><trkpt lat="45.783039987658256" lon="9.932590324250562"><ele>448.0</ele><time>2026-04-22T14:31:38Z</time></trkpt><trkpt lat="45.78291958915703" lon="9.932593696025714"><ele>444.00000000000006</ele><time>2026-04-22T14:31:40Z</time></trkpt><trkpt lat="45.78283568468696" lon="9.932606051762697"><ele>440.00000000000006</ele><time>2026-04-22T14:31:42Z</time></trkpt><trkpt lat="45.78275237635381" lon="9.932655777768488"><ele>436.0</ele><time>2026-04-22T14:31:44Z</time></trkpt><trkpt lat="45.782662295991805" lon="9.932695049831356"><ele>432.0</ele><time>2026-04-22T14:31:46Z</time></trkpt><trkpt lat="45.78257788398639" lon="9.932715742616786"><ele>432.0</ele><time>2026-04-22T14:31:48Z</time></trkpt><trkpt lat="45.78250321355542" lon="9.932721332345984"><ele>432.0</ele><time>2026-04-22T14:31:50Z</time></trkpt><trkpt lat="45.782425715635625" lon="9.932700674105764"><ele>432.0</ele><time>2026-04-22T14:31:53Z</time></trkpt><trkpt lat="45.78234165435984" lon="9.932688477227641"><ele>432.0</ele><time>2026-04-22T14:31:56Z</time></trkpt><trkpt lat="45.782270954978884" lon="9.932660876713726"><ele>432.0</ele><time>2026-04-22T14:31:58Z</time></trkpt><trkpt lat="45.78219442991504" lon="9.932590011791103"><ele>432.0</ele><time>2026-04-22T14:32:00Z</time></trkpt><trkpt lat="45.78210633369048" lon="9.932502418090776"><ele>433.3333333333333</ele><time>2026-04-22T14:32:02Z</time></trkpt><trkpt lat="45.78199623787094" lon="9.932427182567984"><ele>434.66666666666663</ele><time>2026-04-22T14:32:04Z</time></trkpt><trkpt lat="45.781934119536885" lon="9.932396140337072"><ele>436.0</ele><time>2026-04-22T14:32:05Z</time></trkpt><trkpt lat="45.78187243489842" lon="9.932368292710272"><ele>437.3333333333333</ele><time>2026-04-22T14:32:06Z</time></trkpt><trkpt lat="45.781803555525" lon="9.932353791624216"><ele>438.66666666666663</ele><time>2026-04-22T14:32:07Z</time></trkpt><trkpt lat="45.78173030944448" lon="9.932351285279221"><ele>440.0</ele><time>2026-04-22T14:32:08Z</time></trkpt><trkpt lat="45.7816565965108" lon="9.932355562648215"><ele>439.99999999999994</ele><time>2026-04-22T14:32:09Z</time></trkpt><trkpt lat="45.78158072790176" lon="9.932352192449084"><ele>440.0</ele><time>2026-04-22T14:32:10Z</time></trkpt><trkpt lat="45.78150037234898" lon="9.932354144069922"><ele>440.0</ele><time>2026-04-22T14:32:11Z</time></trkpt><trkpt lat="45.78141973359809" lon="9.932353406704586"><ele>440.0</ele><time>2026-04-22T14:32:12Z</time></trkpt><trkpt lat="45.7813354909401" lon="9.932359212777104"><ele>439.99999999999994</ele><time>2026-04-22T14:32:13Z</time></trkpt><trkpt lat="45.781249072933555" lon="9.932365207958085"><ele>440.0</ele><time>2026-04-22T14:32:14Z</time></trkpt><trkpt lat="45.78116066168627" lon="9.932378700105057"><ele>440.0</ele><time>2026-04-22T14:32:15Z</time></trkpt><trkpt lat="45.78107236013396" lon="9.93240118702055"><ele>440.0</ele><time>2026-04-22T14:32:16Z</time></trkpt><trkpt lat="45.780981688996995" lon="9.932427968326612"><ele>440.0</ele><time>2026-04-22T14:32:17Z</time></trkpt><trkpt lat="45.78088858380953" lon="9.932454290989256"><ele>440.0</ele><time>2026-04-22T14:32:18Z</time></trkpt><trkpt lat="45.78079152270106" lon="9.932470563645358"><ele>440.0</ele><time>2026-04-22T14:32:19Z</time></trkpt><trkpt lat="45.78069650750248" lon="9.932472786319638"><ele>439.6</ele><time>2026-04-22T14:32:20Z</time></trkpt><trkpt lat="45.78059215482039" lon="9.93245791135474"><ele>439.2</ele><time>2026-04-22T14:32:21Z</time></trkpt><trkpt lat="45.78049546196447" lon="9.932437922053056"><ele>438.79999999999995</ele><time>2026-04-22T14:32:22Z</time></trkpt><trkpt lat="45.78039078637494" lon="9.932436095099863"><ele>438.4</ele><time>2026-04-22T14:32:23Z</time></trkpt><trkpt lat="45.78028753846681" lon="9.93244122488008"><ele>438.0</ele><time>2026-04-22T14:32:24Z</time></trkpt><trkpt lat="45.78018395961387" lon="9.932451395510448"><ele>437.79999999999995</ele><time>2026-04-22T14:32:25Z</time></trkpt><trkpt lat="45.78008065023663" lon="9.932474175407451"><ele>437.59999999999997</ele><time>2026-04-22T14:32:26Z</time></trkpt><trkpt lat="45.779971022026075" lon="9.93249763573187"><ele>437.40000000000003</ele><time>2026-04-22T14:32:27Z</time></trkpt><trkpt lat="45.7798611089007" lon="9.932524790819963"><ele>437.20000000000005</ele><time>2026-04-22T14:32:28Z</time></trkpt><trkpt lat="45.779758765212215" lon="9.932534017213273"><ele>437.0</ele><time>2026-04-22T14:32:29Z</time></trkpt><trkpt lat="45.77964957870636" lon="9.932551493085906"><ele>430.0</ele><time>2026-04-22T14:32:30Z</time></trkpt><trkpt lat="45.77953887593201" lon="9.932567889996523"><ele>423.0</ele><time>2026-04-22T14:32:31Z</time></trkpt><trkpt lat="45.77942530496201" lon="9.932585282335667"><ele>416.0</ele><time>2026-04-22T14:32:32Z</time></trkpt><trkpt lat="45.77931100298005" lon="9.932595785351088"><ele>409.0</ele><time>2026-04-22T14:32:33Z</time></trkpt><trkpt lat="45.77919637395377" lon="9.932604861800847"><ele>409.0</ele><time>2026-04-22T14:32:34Z</time></trkpt><trkpt lat="45.77908015284866" lon="9.932609808000787"><ele>409.0</ele><time>2026-04-22T14:32:35Z</time></trkpt><trkpt lat="45.77896279672471" lon="9.932615616210118"><ele>409.0</ele><time>2026-04-22T14:32:36Z</time></trkpt><trkpt lat="45.778847413116466" lon="9.932618115508747"><ele>409.0</ele><time>2026-04-22T14:32:37Z</time></trkpt><trkpt lat="45.778730053163684" lon="9.932607159608668"><ele>409.0</ele><time>2026-04-22T14:32:38Z</time></trkpt><trkpt lat="45.77861301244288" lon="9.93258308295343"><ele>409.0</ele><time>2026-04-22T14:32:39Z</time></trkpt><trkpt lat="45.77849760272096" lon="9.93254050549384"><ele>409.0</ele><time>2026-04-22T14:32:40Z</time></trkpt><trkpt lat="45.77838440338356" lon="9.932488595251813"><ele>409.0</ele><time>2026-04-22T14:32:41Z</time></trkpt><trkpt lat="45.77827089421945" lon="9.932431316533801"><ele>411.25</ele><time>2026-04-22T14:32:42Z</time></trkpt><trkpt lat="45.7781580483707" lon="9.932374915098595"><ele>413.5</ele><time>2026-04-22T14:32:43Z</time></trkpt><trkpt lat="45.77805025442343" lon="9.93230248171206"><ele>415.75</ele><time>2026-04-22T14:32:44Z</time></trkpt><trkpt lat="45.77795114016308" lon="9.932208965993023"><ele>418.0</ele><time>2026-04-22T14:32:45Z</time></trkpt><trkpt lat="45.77785637937041" lon="9.93211385445076"><ele>418.0</ele><time>2026-04-22T14:32:46Z</time></trkpt><trkpt lat="45.77776648026502" lon="9.932024373797407"><ele>418.0</ele><time>2026-04-22T14:32:47Z</time></trkpt><trkpt lat="45.77769012466443" lon="9.931948086399396"><ele>418.0</ele><time>2026-04-22T14:32:48Z</time></trkpt><trkpt lat="45.77762793354548" lon="9.931888310754253"><ele>418.0</ele><time>2026-04-22T14:32:49Z</time></trkpt><trkpt lat="45.77754369897626" lon="9.931880488730592"><ele>418.0</ele><time>2026-04-22T14:32:51Z</time></trkpt><trkpt lat="45.77750310874383" lon="9.932038879228491"><ele>418.00000000000006</ele><time>2026-04-22T14:32:53Z</time></trkpt><trkpt lat="45.77754604492983" lon="9.932123405444296"><ele>418.0</ele><time>2026-04-22T14:32:54Z</time></trkpt><trkpt lat="45.777615119760085" lon="9.932186916050156"><ele>418.0</ele><time>2026-04-22T14:32:55Z</time></trkpt><trkpt lat="45.77768171105866" lon="9.932239124638262"><ele>418.0</ele><time>2026-04-22T14:32:56Z</time></trkpt><trkpt lat="45.77774867529613" lon="9.932301366625195"><ele>418.00000000000006</ele><time>2026-04-22T14:32:57Z</time></trkpt><trkpt lat="45.777811242455265" lon="9.9323723345471"><ele>418.0</ele><time>2026-04-22T14:32:58Z</time></trkpt><trkpt lat="45.777876601396954" lon="9.932461280074762"><ele>418.00000000000006</ele><time>2026-04-22T14:32:59Z</time></trkpt><trkpt lat="45.77793390465254" lon="9.932544748439188"><ele>418.0</ele><time>2026-04-22T14:33:00Z</time></trkpt><trkpt lat="45.77798475704499" lon="9.932638641109794"><ele>418.0</ele><time>2026-04-22T14:33:01Z</time></trkpt><trkpt lat="45.778041597228786" lon="9.932745204181309"><ele>418.0</ele><time>2026-04-22T14:33:02Z</time></trkpt><trkpt lat="45.77809738411093" lon="9.932852461187318"><ele>418.00000000000006</ele><time>2026-04-22T14:33:03Z</time></trkpt><trkpt lat="45.778154931185945" lon="9.932963569098684"><ele>418.0</ele><time>2026-04-22T14:33:04Z</time></trkpt><trkpt lat="45.77821453364809" lon="9.933077505065414"><ele>414.59999999999997</ele><time>2026-04-22T14:33:05Z</time></trkpt><trkpt lat="45.77827780279068" lon="9.933188195021454"><ele>411.2</ele><time>2026-04-22T14:33:06Z</time></trkpt><trkpt lat="45.778341940447795" lon="9.93329994245299"><ele>407.8</ele><time>2026-04-22T14:33:07Z</time></trkpt><trkpt lat="45.77841421330398" lon="9.933408286256942"><ele>404.4</ele><time>2026-04-22T14:33:08Z</time></trkpt><trkpt lat="45.77849851151203" lon="9.933500679190672"><ele>401.0</ele><time>2026-04-22T14:33:09Z</time></trkpt><trkpt lat="45.77860520297011" lon="9.933542737419652"><ele>398.0</ele><time>2026-04-22T14:33:10Z</time></trkpt><trkpt lat="45.77871806681658" lon="9.933544208563289"><ele>395.0</ele><time>2026-04-22T14:33:11Z</time></trkpt><trkpt lat="45.778820457797345" lon="9.933550971827868"><ele>392.0</ele><time>2026-04-22T14:33:12Z</time></trkpt><trkpt lat="45.77888115850016" lon="9.933581197615721"><ele>389.0</ele><time>2026-04-22T14:33:13Z</time></trkpt><trkpt lat="45.778875869416154" lon="9.933756710436445"><ele>386.0</ele><time>2026-04-22T14:33:15Z</time></trkpt><trkpt lat="45.77880472928265" lon="9.933809099283819"><ele>385.99999999999994</ele><time>2026-04-22T14:33:16Z</time></trkpt><trkpt lat="45.778720299810686" lon="9.9338049493974"><ele>386.0</ele><time>2026-04-22T14:33:17Z</time></trkpt><trkpt lat="45.77863993134562" lon="9.93380483515238"><ele>386.0</ele><time>2026-04-22T14:33:18Z</time></trkpt><trkpt lat="45.778564869059444" lon="9.933810355938865"><ele>386.0</ele><time>2026-04-22T14:33:19Z</time></trkpt><trkpt lat="45.77848492326564" lon="9.933826231706561"><ele>385.99999999999994</ele><time>2026-04-22T14:33:20Z</time></trkpt><trkpt lat="45.778402921270235" lon="9.933825948535176"><ele>386.0</ele><time>2026-04-22T14:33:21Z</time></trkpt><trkpt lat="45.77831548080283" lon="9.933803348341092"><ele>385.6</ele><time>2026-04-22T14:33:22Z</time></trkpt><trkpt lat="45.778231904704796" lon="9.93375885046468"><ele>385.20000000000005</ele><time>2026-04-22T14:33:23Z</time></trkpt><trkpt lat="45.77815551860452" lon="9.933689462536755"><ele>384.79999999999995</ele><time>2026-04-22T14:33:24Z</time></trkpt><trkpt lat="45.77808486579204" lon="9.933611391494658"><ele>384.4</ele><time>2026-04-22T14:33:25Z</time></trkpt><trkpt lat="45.77802772481618" lon="9.93350887455091"><ele>384.0</ele><time>2026-04-22T14:33:26Z</time></trkpt><trkpt lat="45.77796473942637" lon="9.933410631341694"><ele>384.4</ele><time>2026-04-22T14:33:27Z</time></trkpt><trkpt lat="45.777904676715224" lon="9.93330863635799"><ele>384.79999999999995</ele><time>2026-04-22T14:33:28Z</time></trkpt><trkpt lat="45.77783750001815" lon="9.933212224500831"><ele>385.20000000000005</ele><time>2026-04-22T14:33:29Z</time></trkpt><trkpt lat="45.7777615388907" lon="9.933129607568146"><ele>385.6</ele><time>2026-04-22T14:33:30Z</time></trkpt><trkpt lat="45.777677916468775" lon="9.933054351286783"><ele>386.0</ele><time>2026-04-22T14:33:31Z</time></trkpt><trkpt lat="45.777589516285225" lon="9.932999741956124"><ele>386.0</ele><time>2026-04-22T14:33:32Z</time></trkpt><trkpt lat="45.77749639816323" lon="9.932952023281011"><ele>386.0</ele><time>2026-04-22T14:33:33Z</time></trkpt><trkpt lat="45.777396490711645" lon="9.932923396690468"><ele>386.0</ele><time>2026-04-22T14:33:34Z</time></trkpt><trkpt lat="45.77729742756286" lon="9.932890540903607"><ele>386.0</ele><time>2026-04-22T14:33:35Z</time></trkpt><trkpt lat="45.777195206198634" lon="9.932854724707246"><ele>386.0</ele><time>2026-04-22T14:33:36Z</time></trkpt><trkpt lat="45.777095444553986" lon="9.932818867981513"><ele>386.0</ele><time>2026-04-22T14:33:37Z</time></trkpt><trkpt lat="45.7769900481097" lon="9.932790293918261"><ele>386.0</ele><time>2026-04-22T14:33:38Z</time></trkpt><trkpt lat="45.77688421959578" lon="9.932764889947391"><ele>386.0</ele><time>2026-04-22T14:33:39Z</time></trkpt><trkpt lat="45.77677431136169" lon="9.932747776831796"><ele>386.0</ele><time>2026-04-22T14:33:40Z</time></trkpt><trkpt lat="45.77667155207901" lon="9.932711287212571"><ele>386.0</ele><time>2026-04-22T14:33:41Z</time></trkpt><trkpt lat="45.77657215420381" lon="9.932668047559973"><ele>386.8</ele><time>2026-04-22T14:33:42Z</time></trkpt><trkpt lat="45.776473558491105" lon="9.93262261570777"><ele>387.6</ele><time>2026-04-22T14:33:43Z</time></trkpt><trkpt lat="45.77639376662029" lon="9.932538821991836"><ele>388.4</ele><time>2026-04-22T14:33:44Z</time></trkpt><trkpt lat="45.77633439864798" lon="9.932421955495787"><ele>389.2</ele><time>2026-04-22T14:33:45Z</time></trkpt><trkpt lat="45.77628257034186" lon="9.932300062925865"><ele>390.0</ele><time>2026-04-22T14:33:46Z</time></trkpt><trkpt lat="45.77623381466268" lon="9.9322068999652"><ele>390.0</ele><time>2026-04-22T14:33:47Z</time></trkpt><trkpt lat="45.77611996855004" lon="9.93219286567339"><ele>390.0</ele><time>2026-04-22T14:33:49Z</time></trkpt><trkpt lat="45.776078515663066" lon="9.932306982340096"><ele>390.0</ele><time>2026-04-22T14:33:50Z</time></trkpt><trkpt lat="45.77609053433307" lon="9.932442991117401"><ele>390.0</ele><time>2026-04-22T14:33:51Z</time></trkpt><trkpt lat="45.776123586947755" lon="9.932539566805428"><ele>390.0</ele><time>2026-04-22T14:33:52Z</time></trkpt><trkpt lat="45.776140975706106" lon="9.932652046566487"><ele>387.1666666666667</ele><time>2026-04-22T14:33:53Z</time></trkpt><trkpt lat="45.77615557343873" lon="9.932770141311101"><ele>384.3333333333333</ele><time>2026-04-22T14:33:54Z</time></trkpt><trkpt lat="45.77618623703412" lon="9.932894071938724"><ele>381.5</ele><time>2026-04-22T14:33:55Z</time></trkpt><trkpt lat="45.77622561394501" lon="9.933017074033001"><ele>378.66666666666663</ele><time>2026-04-22T14:33:56Z</time></trkpt><trkpt lat="45.77625775545506" lon="9.933133858048949"><ele>375.8333333333333</ele><time>2026-04-22T14:33:57Z</time></trkpt><trkpt lat="45.77627236008652" lon="9.933226060780147"><ele>373.0</ele><time>2026-04-22T14:33:58Z</time></trkpt><trkpt lat="45.77621246607366" lon="9.933383664356251"><ele>373.0</ele><time>2026-04-22T14:34:00Z</time></trkpt><trkpt lat="45.77613713888261" lon="9.933405026301113"><ele>373.0</ele><time>2026-04-22T14:34:01Z</time></trkpt><trkpt lat="45.776060280403556" lon="9.933355455287858"><ele>373.0</ele><time>2026-04-22T14:34:02Z</time></trkpt><trkpt lat="45.77600223724331" lon="9.933274281947945"><ele>373.0</ele><time>2026-04-22T14:34:03Z</time></trkpt><trkpt lat="45.775948171091585" lon="9.93319687948455"><ele>373.0</ele><time>2026-04-22T14:34:04Z</time></trkpt><trkpt lat="45.77589289780826" lon="9.933122261885474"><ele>373.0</ele><time>2026-04-22T14:34:05Z</time></trkpt><trkpt lat="45.77583786838438" lon="9.93304770617223"><ele>371.0</ele><time>2026-04-22T14:34:06Z</time></trkpt><trkpt lat="45.77578168417414" lon="9.932973495314991"><ele>369.0</ele><time>2026-04-22T14:34:07Z</time></trkpt><trkpt lat="45.775724555778446" lon="9.93289711845755"><ele>367.0</ele><time>2026-04-22T14:34:08Z</time></trkpt><trkpt lat="45.77566645027087" lon="9.932825000654725"><ele>365.0</ele><time>2026-04-22T14:34:09Z</time></trkpt><trkpt lat="45.7756075379501" lon="9.932745928995393"><ele>363.0</ele><time>2026-04-22T14:34:10Z</time></trkpt><trkpt lat="45.775548646572" lon="9.932667986233954"><ele>361.0</ele><time>2026-04-22T14:34:11Z</time></trkpt><trkpt lat="45.77549125186489" lon="9.932605837703266"><ele>360.8333333333333</ele><time>2026-04-22T14:34:12Z</time></trkpt><trkpt lat="45.77542104930854" lon="9.9325256497287"><ele>360.66666666666663</ele><time>2026-04-22T14:34:13Z</time></trkpt><trkpt lat="45.77535146942922" lon="9.932459506124061"><ele>360.5</ele><time>2026-04-22T14:34:14Z</time></trkpt><trkpt lat="45.775278704830484" lon="9.932397029522793"><ele>360.3333333333333</ele><time>2026-04-22T14:34:15Z</time></trkpt><trkpt lat="45.775203287252886" lon="9.932328019891322"><ele>360.1666666666667</ele><time>2026-04-22T14:34:16Z</time></trkpt><trkpt lat="45.775130572706296" lon="9.93226577094705"><ele>360.0</ele><time>2026-04-22T14:34:17Z</time></trkpt><trkpt lat="45.775055105935664" lon="9.93220362910904"><ele>360.0</ele><time>2026-04-22T14:34:18Z</time></trkpt><trkpt lat="45.77498049267735" lon="9.932138791137062"><ele>360.0</ele><time>2026-04-22T14:34:19Z</time></trkpt><trkpt lat="45.774908525377285" lon="9.932069434235114"><ele>360.0</ele><time>2026-04-22T14:34:20Z</time></trkpt><trkpt lat="45.7748278261849" lon="9.932016295516682"><ele>360.0</ele><time>2026-04-22T14:34:21Z</time></trkpt><trkpt lat="45.7747525529298" lon="9.931960987473035"><ele>360.0</ele><time>2026-04-22T14:34:22Z</time></trkpt><trkpt lat="45.77467123483439" lon="9.931923399077872"><ele>360.0</ele><time>2026-04-22T14:34:23Z</time></trkpt><trkpt lat="45.77459069604314" lon="9.931896303588037"><ele>360.0</ele><time>2026-04-22T14:34:24Z</time></trkpt><trkpt lat="45.77451541806756" lon="9.93186998090349"><ele>360.0</ele><time>2026-04-22T14:34:25Z</time></trkpt><trkpt lat="45.77443872503604" lon="9.931855443869892"><ele>360.0</ele><time>2026-04-22T14:34:26Z</time></trkpt><trkpt lat="45.77435803019965" lon="9.931858031641067"><ele>360.0</ele><time>2026-04-22T14:34:27Z</time></trkpt><trkpt lat="45.77429349001757" lon="9.931863909572517"><ele>360.0</ele><time>2026-04-22T14:34:28Z</time></trkpt><trkpt lat="45.77422825088635" lon="9.931865330198542"><ele>360.0</ele><time>2026-04-22T14:34:29Z</time></trkpt><trkpt lat="45.77416378719318" lon="9.931865621400329"><ele>360.0</ele><time>2026-04-22T14:34:30Z</time></trkpt><trkpt lat="45.774039078360445" lon="9.931867815385989"><ele>358.8333333333333</ele><time>2026-04-22T14:34:32Z</time></trkpt><trkpt lat="45.773964038286735" lon="9.931847986799061"><ele>357.6666666666667</ele><time>2026-04-22T14:34:33Z</time></trkpt><trkpt lat="45.773843840339474" lon="9.93185962923029"><ele>356.5</ele><time>2026-04-22T14:34:35Z</time></trkpt><trkpt lat="45.77377973116554" lon="9.931858736670904"><ele>355.33333333333337</ele><time>2026-04-22T14:34:36Z</time></trkpt><trkpt lat="45.773714932867925" lon="9.931859193099019"><ele>354.1666666666667</ele><time>2026-04-22T14:34:37Z</time></trkpt><trkpt lat="45.77364903786141" lon="9.93185742344957"><ele>353.0</ele><time>2026-04-22T14:34:38Z</time></trkpt><trkpt lat="45.77358491992386" lon="9.931863115109023"><ele>352.6666666666667</ele><time>2026-04-22T14:34:39Z</time></trkpt><trkpt lat="45.773521185398565" lon="9.931863409483453"><ele>352.33333333333337</ele><time>2026-04-22T14:34:40Z</time></trkpt><trkpt lat="45.77345782552732" lon="9.93188022880669"><ele>352.0</ele><time>2026-04-22T14:34:41Z</time></trkpt><trkpt lat="45.77338867017849" lon="9.931873599137722"><ele>351.6666666666667</ele><time>2026-04-22T14:34:42Z</time></trkpt><trkpt lat="45.77326272865174" lon="9.931893139010974"><ele>351.3333333333333</ele><time>2026-04-22T14:34:44Z</time></trkpt><trkpt lat="45.7731948131431" lon="9.931897928766757"><ele>351.0</ele><time>2026-04-22T14:34:45Z</time></trkpt><trkpt lat="45.77306524765305" lon="9.931921008720975"><ele>351.0</ele><time>2026-04-22T14:34:47Z</time></trkpt><trkpt lat="45.7729426748119" lon="9.931960999137265"><ele>351.0</ele><time>2026-04-22T14:34:49Z</time></trkpt><trkpt lat="45.772878352407055" lon="9.93197539239086"><ele>351.0</ele><time>2026-04-22T14:34:50Z</time></trkpt><trkpt lat="45.77281491369291" lon="9.931985463385478"><ele>351.0</ele><time>2026-04-22T14:34:51Z</time></trkpt><trkpt lat="45.77274951052145" lon="9.931992185486568"><ele>351.0</ele><time>2026-04-22T14:34:52Z</time></trkpt><trkpt lat="45.77268430189318" lon="9.93199580714543"><ele>351.0</ele><time>2026-04-22T14:34:53Z</time></trkpt><trkpt lat="45.77261763637343" lon="9.932002091374207"><ele>350.1666666666667</ele><time>2026-04-22T14:34:54Z</time></trkpt><trkpt lat="45.77254999056963" lon="9.932008113420265"><ele>349.3333333333333</ele><time>2026-04-22T14:34:55Z</time></trkpt><trkpt lat="45.77245702535782" lon="9.931969882564195"><ele>348.5</ele><time>2026-04-22T14:34:57Z</time></trkpt><trkpt lat="45.772372948472935" lon="9.931945913040089"><ele>347.66666666666663</ele><time>2026-04-22T14:34:59Z</time></trkpt><trkpt lat="45.772308912903405" lon="9.931920579850589"><ele>346.8333333333333</ele><time>2026-04-22T14:35:00Z</time></trkpt><trkpt lat="45.77224863071883" lon="9.931891459765753"><ele>346.0</ele><time>2026-04-22T14:35:01Z</time></trkpt><trkpt lat="45.77218221499512" lon="9.931855600033991"><ele>346.0</ele><time>2026-04-22T14:35:02Z</time></trkpt><trkpt lat="45.77212615497738" lon="9.931811630959066"><ele>346.0</ele><time>2026-04-22T14:35:03Z</time></trkpt><trkpt lat="45.772065892686655" lon="9.931764882271661"><ele>346.0</ele><time>2026-04-22T14:35:04Z</time></trkpt><trkpt lat="45.77200540915245" lon="9.93171849681013"><ele>346.0</ele><time>2026-04-22T14:35:05Z</time></trkpt><trkpt lat="45.771946934889584" lon="9.931673692984447"><ele>346.0</ele><time>2026-04-22T14:35:06Z</time></trkpt><trkpt lat="45.77188745201048" lon="9.931626150345597"><ele>346.0</ele><time>2026-04-22T14:35:07Z</time></trkpt><trkpt lat="45.77183054503821" lon="9.931582979986892"><ele>346.0</ele><time>2026-04-22T14:35:08Z</time></trkpt><trkpt lat="45.77172477254508" lon="9.931498140806996"><ele>346.8333333333333</ele><time>2026-04-22T14:35:10Z</time></trkpt><trkpt lat="45.77163419537326" lon="9.931430069482113"><ele>347.66666666666663</ele><time>2026-04-22T14:35:12Z</time></trkpt><trkpt lat="45.77155642881145" lon="9.931371247271615"><ele>348.5</ele><time>2026-04-22T14:35:14Z</time></trkpt><trkpt lat="45.77148615854285" lon="9.93131463393703"><ele>349.3333333333333</ele><time>2026-04-22T14:35:16Z</time></trkpt><trkpt lat="45.77140301748055" lon="9.931285514183044"><ele>350.1666666666667</ele><time>2026-04-22T14:35:19Z</time></trkpt><trkpt lat="45.77133555059262" lon="9.931276509789477"><ele>351.0</ele><time>2026-04-22T14:35:21Z</time></trkpt><trkpt lat="45.77126566211284" lon="9.931286922947978"><ele>351.0</ele><time>2026-04-22T14:35:24Z</time></trkpt><trkpt lat="45.771299461447725" lon="9.931206842453127"><ele>351.0</ele><time>2026-04-22T14:36:38Z</time></trkpt><trkpt lat="45.77126641823093" lon="9.931082785704813"><ele>351.0</ele><time>2026-04-22T14:36:42Z</time></trkpt><trkpt lat="45.77120394690935" lon="9.931041865844472"><ele>351.0</ele><time>2026-04-22T14:36:43Z</time></trkpt><trkpt lat="45.77110368512929" lon="9.930977827248926"><ele>351.0</ele><time>2026-04-22T14:36:45Z</time></trkpt><trkpt lat="45.771000209322324" lon="9.930887530037628"><ele>350.14285714285717</ele><time>2026-04-22T14:36:47Z</time></trkpt><trkpt lat="45.7709428138829" lon="9.930832457890961"><ele>349.2857142857143</ele><time>2026-04-22T14:36:48Z</time></trkpt><trkpt lat="45.77088259368776" lon="9.930778581150786"><ele>348.42857142857144</ele><time>2026-04-22T14:36:49Z</time></trkpt><trkpt lat="45.77081700988321" lon="9.93073277489131"><ele>347.57142857142856</ele><time>2026-04-22T14:36:50Z</time></trkpt><trkpt lat="45.77075311595669" lon="9.930674889172352"><ele>346.7142857142857</ele><time>2026-04-22T14:36:51Z</time></trkpt><trkpt lat="45.770682451580406" lon="9.93062249438769"><ele>345.8571428571429</ele><time>2026-04-22T14:36:52Z</time></trkpt><trkpt lat="45.77061111093178" lon="9.930569333152778"><ele>345.0</ele><time>2026-04-22T14:36:53Z</time></trkpt><trkpt lat="45.77053659008528" lon="9.930518592360288"><ele>345.0</ele><time>2026-04-22T14:36:54Z</time></trkpt><trkpt lat="45.770462201682484" lon="9.930464651255143"><ele>345.0</ele><time>2026-04-22T14:36:55Z</time></trkpt><trkpt lat="45.77038654998714" lon="9.93040908549982"><ele>345.0</ele><time>2026-04-22T14:36:56Z</time></trkpt><trkpt lat="45.770305590437026" lon="9.930350319755819"><ele>345.0</ele><time>2026-04-22T14:36:57Z</time></trkpt><trkpt lat="45.77022731540501" lon="9.930288943380328"><ele>345.0</ele><time>2026-04-22T14:36:58Z</time></trkpt><trkpt lat="45.7701444709781" lon="9.930219917127603"><ele>345.0</ele><time>2026-04-22T14:36:59Z</time></trkpt><trkpt lat="45.770076158848376" lon="9.930143174622092"><ele>344.2</ele><time>2026-04-22T14:37:00Z</time></trkpt><trkpt lat="45.77000218896555" lon="9.93005577837214"><ele>343.4</ele><time>2026-04-22T14:37:01Z</time></trkpt><trkpt lat="45.769932394927615" lon="9.929970397147448"><ele>342.6</ele><time>2026-04-22T14:37:02Z</time></trkpt><trkpt lat="45.76986112405016" lon="9.929882867981448"><ele>341.8</ele><time>2026-04-22T14:37:03Z</time></trkpt><trkpt lat="45.769786969280965" lon="9.929799797126877"><ele>341.0</ele><time>2026-04-22T14:37:04Z</time></trkpt><trkpt lat="45.76971350663391" lon="9.929718160097588"><ele>341.0</ele><time>2026-04-22T14:37:05Z</time></trkpt><trkpt lat="45.76964091834562" lon="9.929633840682552"><ele>341.0</ele><time>2026-04-22T14:37:06Z</time></trkpt><trkpt lat="45.76957610678851" lon="9.929547464864596"><ele>341.0</ele><time>2026-04-22T14:37:07Z</time></trkpt><trkpt lat="45.76951867561427" lon="9.929459409288906"><ele>341.0</ele><time>2026-04-22T14:37:08Z</time></trkpt><trkpt lat="45.76946933496297" lon="9.92936614626649"><ele>341.0</ele><time>2026-04-22T14:37:09Z</time></trkpt><trkpt lat="45.76941287235346" lon="9.929282467244482"><ele>341.0</ele><time>2026-04-22T14:37:10Z</time></trkpt><trkpt lat="45.76936360500462" lon="9.929204855764837"><ele>340.57142857142856</ele><time>2026-04-22T14:37:11Z</time></trkpt><trkpt lat="45.76930994449225" lon="9.9291298344306"><ele>340.14285714285717</ele><time>2026-04-22T14:37:12Z</time></trkpt><trkpt lat="45.76925888745195" lon="9.929051332822102"><ele>339.7142857142857</ele><time>2026-04-22T14:37:13Z</time></trkpt><trkpt lat="45.76921295295039" lon="9.928982208830682"><ele>339.2857142857143</ele><time>2026-04-22T14:37:14Z</time></trkpt><trkpt lat="45.769171444112224" lon="9.928903303622576"><ele>338.85714285714283</ele><time>2026-04-22T14:37:15Z</time></trkpt><trkpt lat="45.76912189307697" lon="9.928835246602082"><ele>338.42857142857144</ele><time>2026-04-22T14:37:16Z</time></trkpt><trkpt lat="45.76907197140337" lon="9.92876129982532"><ele>338.0</ele><time>2026-04-22T14:37:17Z</time></trkpt><trkpt lat="45.76899325111909" lon="9.928629599527119"><ele>338.0</ele><time>2026-04-22T14:37:19Z</time></trkpt><trkpt lat="45.768948652906474" lon="9.928555901359761"><ele>338.0</ele><time>2026-04-22T14:37:20Z</time></trkpt><trkpt lat="45.76886059072236" lon="9.92842524393556"><ele>338.0</ele><time>2026-04-22T14:37:22Z</time></trkpt><trkpt lat="45.76877640895814" lon="9.928297536565962"><ele>338.0</ele><time>2026-04-22T14:37:24Z</time></trkpt><trkpt lat="45.7686883186191" lon="9.928162650224603"><ele>338.0</ele><time>2026-04-22T14:37:26Z</time></trkpt><trkpt lat="45.76864156732148" lon="9.928096989786015"><ele>337.4</ele><time>2026-04-22T14:37:27Z</time></trkpt><trkpt lat="45.76859686981762" lon="9.928032701333425"><ele>336.79999999999995</ele><time>2026-04-22T14:37:28Z</time></trkpt><trkpt lat="45.76855718711374" lon="9.927959198391306"><ele>336.2</ele><time>2026-04-22T14:37:29Z</time></trkpt><trkpt lat="45.76846037415135" lon="9.927827857820793"><ele>335.6</ele><time>2026-04-22T14:37:31Z</time></trkpt><trkpt lat="45.76836515081088" lon="9.92772882808496"><ele>335.0</ele><time>2026-04-22T14:37:33Z</time></trkpt><trkpt lat="45.768311096894394" lon="9.92766192011083"><ele>335.0</ele><time>2026-04-22T14:37:34Z</time></trkpt><trkpt lat="45.768205983162666" lon="9.927563115658192"><ele>335.0</ele><time>2026-04-22T14:37:36Z</time></trkpt><trkpt lat="45.768147544178575" lon="9.927520519261655"><ele>335.0</ele><time>2026-04-22T14:37:37Z</time></trkpt><trkpt lat="45.768036778468094" lon="9.927422165544055"><ele>335.0</ele><time>2026-04-22T14:37:39Z</time></trkpt><trkpt lat="45.76792976259027" lon="9.92734279196611"><ele>335.0</ele><time>2026-04-22T14:37:41Z</time></trkpt><trkpt lat="45.76786253961287" lon="9.927303000038492"><ele>335.6</ele><time>2026-04-22T14:37:42Z</time></trkpt><trkpt lat="45.76774609716131" lon="9.927235166005577"><ele>336.2</ele><time>2026-04-22T14:37:44Z</time></trkpt><trkpt lat="45.76768241608304" lon="9.927202818633255"><ele>336.79999999999995</ele><time>2026-04-22T14:37:45Z</time></trkpt><trkpt lat="45.767567577963014" lon="9.927135652614052"><ele>337.4</ele><time>2026-04-22T14:37:47Z</time></trkpt><trkpt lat="45.76745377093635" lon="9.927072885661513"><ele>338.0</ele><time>2026-04-22T14:37:49Z</time></trkpt><trkpt lat="45.76738910251284" lon="9.927039209004144"><ele>338.0</ele><time>2026-04-22T14:37:50Z</time></trkpt><trkpt lat="45.76727358586024" lon="9.926972526002272"><ele>338.0</ele><time>2026-04-22T14:37:52Z</time></trkpt><trkpt lat="45.76715622881169" lon="9.926910441674531"><ele>338.0</ele><time>2026-04-22T14:37:54Z</time></trkpt><trkpt lat="45.76709708961268" lon="9.926875700836831"><ele>338.0</ele><time>2026-04-22T14:37:55Z</time></trkpt><trkpt lat="45.7669804724521" lon="9.926807087794657"><ele>338.0</ele><time>2026-04-22T14:37:57Z</time></trkpt><trkpt lat="45.76686474990892" lon="9.926746638180637"><ele>338.4</ele><time>2026-04-22T14:37:59Z</time></trkpt><trkpt lat="45.76680723294783" lon="9.92670625871407"><ele>338.79999999999995</ele><time>2026-04-22T14:38:00Z</time></trkpt><trkpt lat="45.76674226014175" lon="9.92668295311771"><ele>339.2</ele><time>2026-04-22T14:38:01Z</time></trkpt><trkpt lat="45.766626505473575" lon="9.926618406726625"><ele>339.6</ele><time>2026-04-22T14:38:03Z</time></trkpt><trkpt lat="45.76650853808615" lon="9.926552308627702"><ele>340.0</ele><time>2026-04-22T14:38:05Z</time></trkpt><trkpt lat="45.76639439321446" lon="9.926479249284098"><ele>340.0</ele><time>2026-04-22T14:38:07Z</time></trkpt><trkpt lat="45.76633830819795" lon="9.926433984240884"><ele>340.0</ele><time>2026-04-22T14:38:08Z</time></trkpt><trkpt lat="45.76622534063918" lon="9.926355788159189"><ele>340.0</ele><time>2026-04-22T14:38:10Z</time></trkpt><trkpt lat="45.766171337812644" lon="9.926304269586824"><ele>340.0</ele><time>2026-04-22T14:38:11Z</time></trkpt><trkpt lat="45.76606592112421" lon="9.92620850173919"><ele>340.0</ele><time>2026-04-22T14:38:13Z</time></trkpt><trkpt lat="45.76597662091224" lon="9.926074656989222"><ele>339.8333333333333</ele><time>2026-04-22T14:38:15Z</time></trkpt><trkpt lat="45.765932704469435" lon="9.926009463838536"><ele>339.66666666666663</ele><time>2026-04-22T14:38:16Z</time></trkpt><trkpt lat="45.76585940149066" lon="9.925861651950918"><ele>339.5</ele><time>2026-04-22T14:38:18Z</time></trkpt><trkpt lat="45.76582938169804" lon="9.925781565698177"><ele>339.3333333333333</ele><time>2026-04-22T14:38:19Z</time></trkpt><trkpt lat="45.76578290571889" lon="9.925618035244955"><ele>339.1666666666667</ele><time>2026-04-22T14:38:21Z</time></trkpt><trkpt lat="45.7657527439947" lon="9.925532847094688"><ele>339.0</ele><time>2026-04-22T14:38:22Z</time></trkpt><trkpt lat="45.765706271033245" lon="9.925366882538038"><ele>339.0</ele><time>2026-04-22T14:38:24Z</time></trkpt><trkpt lat="45.765693861588545" lon="9.925268659214101"><ele>339.0</ele><time>2026-04-22T14:38:25Z</time></trkpt><trkpt lat="45.76564626417684" lon="9.925110689732902"><ele>339.0</ele><time>2026-04-22T14:38:27Z</time></trkpt><trkpt lat="45.76560508330532" lon="9.924937917259038"><ele>339.0</ele><time>2026-04-22T14:38:29Z</time></trkpt><trkpt lat="45.76557747609656" lon="9.92485601675544"><ele>339.0</ele><time>2026-04-22T14:38:30Z</time></trkpt><trkpt lat="45.76554625385301" lon="9.924775932569991"><ele>339.0</ele><time>2026-04-22T14:38:31Z</time></trkpt><trkpt lat="45.76547484474414" lon="9.92462134625285"><ele>339.4</ele><time>2026-04-22T14:38:33Z</time></trkpt><trkpt lat="45.76539453376591" lon="9.92448972498622"><ele>339.79999999999995</ele><time>2026-04-22T14:38:35Z</time></trkpt><trkpt lat="45.76534536352699" lon="9.924423160878472"><ele>340.20000000000005</ele><time>2026-04-22T14:38:36Z</time></trkpt><trkpt lat="45.76529843796445" lon="9.924353934309575"><ele>340.6</ele><time>2026-04-22T14:38:37Z</time></trkpt><trkpt lat="45.76521075052402" lon="9.924231281368504"><ele>341.0</ele><time>2026-04-22T14:38:39Z</time></trkpt><trkpt lat="45.76512118308905" lon="9.924111847375963"><ele>340.0</ele><time>2026-04-22T14:38:41Z</time></trkpt><trkpt lat="45.765072035212626" lon="9.924050505844807"><ele>339.0</ele><time>2026-04-22T14:38:42Z</time></trkpt><trkpt lat="45.76498082750192" lon="9.923935438147124"><ele>338.0</ele><time>2026-04-22T14:38:44Z</time></trkpt><trkpt lat="45.76488896917588" lon="9.923815472713166"><ele>337.0</ele><time>2026-04-22T14:38:46Z</time></trkpt><trkpt lat="45.764802571889234" lon="9.923692857034787"><ele>336.0</ele><time>2026-04-22T14:38:48Z</time></trkpt><trkpt lat="45.764753448382635" lon="9.923633587831043"><ele>336.0</ele><time>2026-04-22T14:38:49Z</time></trkpt><trkpt lat="45.76466298862859" lon="9.92350835449971"><ele>336.0</ele><time>2026-04-22T14:38:51Z</time></trkpt><trkpt lat="45.76457042838412" lon="9.923392093851927"><ele>336.0</ele><time>2026-04-22T14:38:53Z</time></trkpt><trkpt lat="45.764482310065844" lon="9.923271854493544"><ele>336.0</ele><time>2026-04-22T14:38:55Z</time></trkpt><trkpt lat="45.764436959552484" lon="9.923209146215564"><ele>336.0</ele><time>2026-04-22T14:38:56Z</time></trkpt><trkpt lat="45.764344058997395" lon="9.923091577262516"><ele>336.6</ele><time>2026-04-22T14:38:58Z</time></trkpt><trkpt lat="45.76425258703359" lon="9.922969794284178"><ele>337.20000000000005</ele><time>2026-04-22T14:39:00Z</time></trkpt><trkpt lat="45.76420604864813" lon="9.92290878848925"><ele>337.79999999999995</ele><time>2026-04-22T14:39:01Z</time></trkpt><trkpt lat="45.764116705911434" lon="9.922793098288219"><ele>338.4</ele><time>2026-04-22T14:39:03Z</time></trkpt><trkpt lat="45.76402680379276" lon="9.92267455926275"><ele>339.0</ele><time>2026-04-22T14:39:05Z</time></trkpt><trkpt lat="45.7639782968225" lon="9.922610164567562"><ele>340.0</ele><time>2026-04-22T14:39:06Z</time></trkpt><trkpt lat="45.7638853916563" lon="9.922502062281902"><ele>341.0</ele><time>2026-04-22T14:39:08Z</time></trkpt><trkpt lat="45.763800146864334" lon="9.922376722885353"><ele>342.0</ele><time>2026-04-22T14:39:10Z</time></trkpt><trkpt lat="45.76370932737962" lon="9.922256229339185"><ele>343.0</ele><time>2026-04-22T14:39:12Z</time></trkpt><trkpt lat="45.76361990904595" lon="9.92213536927271"><ele>342.79999999999995</ele><time>2026-04-22T14:39:14Z</time></trkpt><trkpt lat="45.763530249474115" lon="9.922017940328374"><ele>342.6</ele><time>2026-04-22T14:39:16Z</time></trkpt><trkpt lat="45.76348499953691" lon="9.921952840830356"><ele>342.4</ele><time>2026-04-22T14:39:17Z</time></trkpt><trkpt lat="45.763396949066646" lon="9.921832513556392"><ele>342.20000000000005</ele><time>2026-04-22T14:39:19Z</time></trkpt><trkpt lat="45.763307284021934" lon="9.921715416059115"><ele>342.0</ele><time>2026-04-22T14:39:21Z</time></trkpt><trkpt lat="45.76322004253524" lon="9.921598449727362"><ele>342.0</ele><time>2026-04-22T14:39:23Z</time></trkpt><trkpt lat="45.763131237781" lon="9.92148310475658"><ele>342.0</ele><time>2026-04-22T14:39:25Z</time></trkpt><trkpt lat="45.76304115394557" lon="9.921372639563735"><ele>342.0</ele><time>2026-04-22T14:39:27Z</time></trkpt><trkpt lat="45.76295443643222" lon="9.921250485769383"><ele>342.0</ele><time>2026-04-22T14:39:29Z</time></trkpt><trkpt lat="45.76286572957156" lon="9.921129328884545"><ele>342.0</ele><time>2026-04-22T14:39:31Z</time></trkpt><trkpt lat="45.76277671872607" lon="9.921007921773615"><ele>342.0</ele><time>2026-04-22T14:39:33Z</time></trkpt><trkpt lat="45.76269184030241" lon="9.920882198385238"><ele>342.0</ele><time>2026-04-22T14:39:35Z</time></trkpt><trkpt lat="45.76261101090195" lon="9.920747977196015"><ele>342.0</ele><time>2026-04-22T14:39:37Z</time></trkpt><trkpt lat="45.76253785532937" lon="9.920611915985411"><ele>342.20000000000005</ele><time>2026-04-22T14:39:39Z</time></trkpt><trkpt lat="45.76250169054102" lon="9.920537675385022"><ele>342.4</ele><time>2026-04-22T14:39:40Z</time></trkpt><trkpt lat="45.762431820860904" lon="9.920393691498804"><ele>342.6</ele><time>2026-04-22T14:39:42Z</time></trkpt><trkpt lat="45.76239317925169" lon="9.920319817495095"><ele>342.79999999999995</ele><time>2026-04-22T14:39:43Z</time></trkpt><trkpt lat="45.762325759768466" lon="9.920170822679937"><ele>343.0</ele><time>2026-04-22T14:39:45Z</time></trkpt><trkpt lat="45.76225232562966" lon="9.92002656279066"><ele>343.4</ele><time>2026-04-22T14:39:47Z</time></trkpt><trkpt lat="45.762184055675114" lon="9.919877733686095"><ele>343.79999999999995</ele><time>2026-04-22T14:39:49Z</time></trkpt><trkpt lat="45.762149577511416" lon="9.919801595858967"><ele>344.2</ele><time>2026-04-22T14:39:50Z</time></trkpt><trkpt lat="45.76207917630924" lon="9.919652522874731"><ele>344.6</ele><time>2026-04-22T14:39:52Z</time></trkpt><trkpt lat="45.76201059840127" lon="9.919506112422683"><ele>345.0</ele><time>2026-04-22T14:39:54Z</time></trkpt><trkpt lat="45.76193493816754" lon="9.919364614658466"><ele>344.6</ele><time>2026-04-22T14:39:56Z</time></trkpt><trkpt lat="45.7618583275896" lon="9.919226259321245"><ele>344.2</ele><time>2026-04-22T14:39:58Z</time></trkpt><trkpt lat="45.76181857282732" lon="9.919144526369918"><ele>343.79999999999995</ele><time>2026-04-22T14:39:59Z</time></trkpt><trkpt lat="45.76173379616058" lon="9.919010310159203"><ele>343.4</ele><time>2026-04-22T14:40:01Z</time></trkpt><trkpt lat="45.76164735825085" lon="9.918889538080965"><ele>343.0</ele><time>2026-04-22T14:40:03Z</time></trkpt><trkpt lat="45.761548492377045" lon="9.918792415196995"><ele>343.0</ele><time>2026-04-22T14:40:05Z</time></trkpt><trkpt lat="45.76145490563962" lon="9.918703517023959"><ele>343.0</ele><time>2026-04-22T14:40:07Z</time></trkpt><trkpt lat="45.76136382389318" lon="9.918612281519572"><ele>343.0</ele><time>2026-04-22T14:40:09Z</time></trkpt><trkpt lat="45.76127316667175" lon="9.918542594253994"><ele>343.0</ele><time>2026-04-22T14:40:11Z</time></trkpt><trkpt lat="45.76117746339633" lon="9.918478673319717"><ele>343.0</ele><time>2026-04-22T14:40:13Z</time></trkpt><trkpt lat="45.7610904199701" lon="9.918382159127168"><ele>342.79999999999995</ele><time>2026-04-22T14:40:15Z</time></trkpt><trkpt lat="45.76101734507005" lon="9.918241891457193"><ele>342.6</ele><time>2026-04-22T14:40:17Z</time></trkpt><trkpt lat="45.76095055102482" lon="9.918095353859673"><ele>342.4</ele><time>2026-04-22T14:40:19Z</time></trkpt><trkpt lat="45.7609542832964" lon="9.917923157667937"><ele>342.20000000000005</ele><time>2026-04-22T14:40:21Z</time></trkpt><trkpt lat="45.76098087337339" lon="9.917840303085734"><ele>342.0</ele><time>2026-04-22T14:40:22Z</time></trkpt><trkpt lat="45.76102081156758" lon="9.917724617332992"><ele>342.20000000000005</ele><time>2026-04-22T14:40:24Z</time></trkpt><trkpt lat="45.76104869762186" lon="9.917626237729571"><ele>342.4</ele><time>2026-04-22T14:40:26Z</time></trkpt><trkpt lat="45.761005427506866" lon="9.917485904127808"><ele>342.6</ele><time>2026-04-22T14:40:28Z</time></trkpt><trkpt lat="45.760942754049225" lon="9.917345933960492"><ele>342.79999999999995</ele><time>2026-04-22T14:40:30Z</time></trkpt><trkpt lat="45.760863721861995" lon="9.917217285479335"><ele>343.0</ele><time>2026-04-22T14:40:32Z</time></trkpt><trkpt lat="45.76080103537711" lon="9.91706211280088"><ele>343.0</ele><time>2026-04-22T14:40:34Z</time></trkpt><trkpt lat="45.76073328446556" lon="9.91691958382536"><ele>343.0</ele><time>2026-04-22T14:40:36Z</time></trkpt><trkpt lat="45.76067189410828" lon="9.916767010966614"><ele>343.0</ele><time>2026-04-22T14:40:38Z</time></trkpt><trkpt lat="45.76061252635565" lon="9.916613484708783"><ele>343.0</ele><time>2026-04-22T14:40:40Z</time></trkpt><trkpt lat="45.76056745746137" lon="9.916442713687792"><ele>343.42857142857144</ele><time>2026-04-22T14:40:42Z</time></trkpt><trkpt lat="45.76055113278223" lon="9.916350884039307"><ele>343.8571428571429</ele><time>2026-04-22T14:40:43Z</time></trkpt><trkpt lat="45.76053870752891" lon="9.9162618236575"><ele>344.2857142857143</ele><time>2026-04-22T14:40:44Z</time></trkpt><trkpt lat="45.76051875964016" lon="9.916165695507065"><ele>344.7142857142857</ele><time>2026-04-22T14:40:45Z</time></trkpt><trkpt lat="45.76049841090315" lon="9.9160766786687"><ele>345.14285714285717</ele><time>2026-04-22T14:40:46Z</time></trkpt><trkpt lat="45.76047871772574" lon="9.91598415544284"><ele>345.57142857142856</ele><time>2026-04-22T14:40:47Z</time></trkpt><trkpt lat="45.7604596733235" lon="9.915895033409127"><ele>346.0</ele><time>2026-04-22T14:40:48Z</time></trkpt><trkpt lat="45.76043566076393" lon="9.915804282688189"><ele>346.0</ele><time>2026-04-22T14:40:49Z</time></trkpt><trkpt lat="45.76039839860545" lon="9.915625743635877"><ele>346.0</ele><time>2026-04-22T14:40:51Z</time></trkpt><trkpt lat="45.76036426135246" lon="9.91547645999065"><ele>346.0</ele><time>2026-04-22T14:40:53Z</time></trkpt><trkpt lat="45.76033371207732" lon="9.915369420808464"><ele>346.0</ele><time>2026-04-22T14:40:54Z</time></trkpt><trkpt lat="45.76031071708508" lon="9.915275113211328"><ele>346.0</ele><time>2026-04-22T14:40:55Z</time></trkpt><trkpt lat="45.76029292993763" lon="9.915186744277005"><ele>346.0</ele><time>2026-04-22T14:40:56Z</time></trkpt><trkpt lat="45.76027323155737" lon="9.915092084146977"><ele>346.0</ele><time>2026-04-22T14:40:57Z</time></trkpt><trkpt lat="45.760253764295854" lon="9.915005582128229"><ele>346.0</ele><time>2026-04-22T14:40:58Z</time></trkpt><trkpt lat="45.76023236786776" lon="9.914917702160576"><ele>346.0</ele><time>2026-04-22T14:40:59Z</time></trkpt><trkpt lat="45.76020007612754" lon="9.914736946544132"><ele>346.0</ele><time>2026-04-22T14:41:01Z</time></trkpt><trkpt lat="45.76015426931855" lon="9.914571042966768"><ele>345.4</ele><time>2026-04-22T14:41:03Z</time></trkpt><trkpt lat="45.76010386284344" lon="9.914399457211129"><ele>344.8</ele><time>2026-04-22T14:41:05Z</time></trkpt><trkpt lat="45.76006584862518" lon="9.914208168526052"><ele>344.2</ele><time>2026-04-22T14:41:07Z</time></trkpt><trkpt lat="45.760024331105164" lon="9.91405717579986"><ele>343.59999999999997</ele><time>2026-04-22T14:41:09Z</time></trkpt><trkpt lat="45.760002497551206" lon="9.913968929627128"><ele>343.0</ele><time>2026-04-22T14:41:10Z</time></trkpt><trkpt lat="45.759970788528875" lon="9.91380129127956"><ele>343.0</ele><time>2026-04-22T14:41:12Z</time></trkpt><trkpt lat="45.75994874832035" lon="9.913711095492655"><ele>343.0</ele><time>2026-04-22T14:41:13Z</time></trkpt><trkpt lat="45.759923172503285" lon="9.913625591625731"><ele>343.0</ele><time>2026-04-22T14:41:14Z</time></trkpt><trkpt lat="45.75987679778555" lon="9.913472836366575"><ele>343.0</ele><time>2026-04-22T14:41:16Z</time></trkpt><trkpt lat="45.759833738979026" lon="9.913316368045473"><ele>343.0</ele><time>2026-04-22T14:41:18Z</time></trkpt><trkpt lat="45.75981139110407" lon="9.91322994835587"><ele>343.0</ele><time>2026-04-22T14:41:19Z</time></trkpt><trkpt lat="45.75977324842241" lon="9.913072580447004"><ele>342.79999999999995</ele><time>2026-04-22T14:41:21Z</time></trkpt><trkpt lat="45.75974427239693" lon="9.912979998211354"><ele>342.6</ele><time>2026-04-22T14:41:22Z</time></trkpt><trkpt lat="45.75972070542863" lon="9.91289350929322"><ele>342.4</ele><time>2026-04-22T14:41:23Z</time></trkpt><trkpt lat="45.75968088607754" lon="9.912733679991414"><ele>342.20000000000005</ele><time>2026-04-22T14:41:25Z</time></trkpt><trkpt lat="45.75963150349957" lon="9.912567894671518"><ele>342.0</ele><time>2026-04-22T14:41:27Z</time></trkpt><trkpt lat="45.75958613989019" lon="9.912421675844202"><ele>341.6</ele><time>2026-04-22T14:41:29Z</time></trkpt><trkpt lat="45.759536766878874" lon="9.912276293753067"><ele>341.20000000000005</ele><time>2026-04-22T14:41:31Z</time></trkpt><trkpt lat="45.75946919239305" lon="9.912123629475685"><ele>340.8</ele><time>2026-04-22T14:41:33Z</time></trkpt><trkpt lat="45.75942714109731" lon="9.912042650752909"><ele>340.4</ele><time>2026-04-22T14:41:34Z</time></trkpt><trkpt lat="45.75938305092943" lon="9.911959531766913"><ele>340.0</ele><time>2026-04-22T14:41:35Z</time></trkpt><trkpt lat="45.75933452935691" lon="9.911872478955308"><ele>340.0</ele><time>2026-04-22T14:41:36Z</time></trkpt><trkpt lat="45.75929015613929" lon="9.911783659026284"><ele>340.0</ele><time>2026-04-22T14:41:37Z</time></trkpt><trkpt lat="45.75923884535618" lon="9.911697989895947"><ele>340.0</ele><time>2026-04-22T14:41:38Z</time></trkpt><trkpt lat="45.759189990072095" lon="9.911606586453916"><ele>340.0</ele><time>2026-04-22T14:41:39Z</time></trkpt><trkpt lat="45.75913980064309" lon="9.911514936482344"><ele>340.0</ele><time>2026-04-22T14:41:40Z</time></trkpt><trkpt lat="45.75908250813194" lon="9.911432751980215"><ele>340.0</ele><time>2026-04-22T14:41:41Z</time></trkpt><trkpt lat="45.75903816860309" lon="9.911329221497564"><ele>340.16666666666663</ele><time>2026-04-22T14:41:42Z</time></trkpt><trkpt lat="45.758989007557396" lon="9.911229457215054"><ele>340.3333333333333</ele><time>2026-04-22T14:41:43Z</time></trkpt><trkpt lat="45.75893407959879" lon="9.911142253115708"><ele>340.5</ele><time>2026-04-22T14:41:44Z</time></trkpt><trkpt lat="45.758883141881064" lon="9.911044677996683"><ele>340.6666666666667</ele><time>2026-04-22T14:41:45Z</time></trkpt><trkpt lat="45.75883209171832" lon="9.910951810173811"><ele>340.83333333333337</ele><time>2026-04-22T14:41:46Z</time></trkpt><trkpt lat="45.75878132445236" lon="9.91086095375458"><ele>341.0</ele><time>2026-04-22T14:41:47Z</time></trkpt><trkpt lat="45.75873060445947" lon="9.910770675440041"><ele>341.33333333333337</ele><time>2026-04-22T14:41:48Z</time></trkpt><trkpt lat="45.758681644658296" lon="9.910681789698867"><ele>341.6666666666667</ele><time>2026-04-22T14:41:49Z</time></trkpt><trkpt lat="45.758635171564244" lon="9.910592832198615"><ele>342.0</ele><time>2026-04-22T14:41:50Z</time></trkpt><trkpt lat="45.75859037214169" lon="9.910505635275253"><ele>342.3333333333333</ele><time>2026-04-22T14:41:51Z</time></trkpt><trkpt lat="45.75854474739258" lon="9.910419849833257"><ele>342.66666666666663</ele><time>2026-04-22T14:41:52Z</time></trkpt><trkpt lat="45.758501048563566" lon="9.910333897932523"><ele>343.0</ele><time>2026-04-22T14:41:53Z</time></trkpt><trkpt lat="45.75846479003866" lon="9.910250366593823"><ele>342.3333333333333</ele><time>2026-04-22T14:41:54Z</time></trkpt><trkpt lat="45.75841994904235" lon="9.91017077066516"><ele>341.66666666666663</ele><time>2026-04-22T14:41:55Z</time></trkpt><trkpt lat="45.75837722026917" lon="9.910093928774586"><ele>341.0</ele><time>2026-04-22T14:41:56Z</time></trkpt><trkpt lat="45.75833255633701" lon="9.910022862147501"><ele>340.3333333333333</ele><time>2026-04-22T14:41:57Z</time></trkpt><trkpt lat="45.75828904253688" lon="9.909954909883353"><ele>339.6666666666667</ele><time>2026-04-22T14:41:58Z</time></trkpt><trkpt lat="45.75819881099581" lon="9.909836033340945"><ele>339.0</ele><time>2026-04-22T14:42:00Z</time></trkpt><trkpt lat="45.758142715330656" lon="9.909793409066873"><ele>339.0</ele><time>2026-04-22T14:42:01Z</time></trkpt><trkpt lat="45.758081420921556" lon="9.909756222787111"><ele>339.0</ele><time>2026-04-22T14:42:02Z</time></trkpt><trkpt lat="45.75802223682372" lon="9.909717348276327"><ele>339.0</ele><time>2026-04-22T14:42:03Z</time></trkpt><trkpt lat="45.75796384994122" lon="9.90967605713335"><ele>339.0</ele><time>2026-04-22T14:42:04Z</time></trkpt><trkpt lat="45.757907680975904" lon="9.90962985247707"><ele>339.0</ele><time>2026-04-22T14:42:05Z</time></trkpt><trkpt lat="45.757852450464256" lon="9.909579284727702"><ele>339.0</ele><time>2026-04-22T14:42:06Z</time></trkpt><trkpt lat="45.75773815738363" lon="9.909497212632699"><ele>338.7142857142857</ele><time>2026-04-22T14:42:08Z</time></trkpt><trkpt lat="45.757681519457996" lon="9.909456171256306"><ele>338.42857142857144</ele><time>2026-04-22T14:42:09Z</time></trkpt><trkpt lat="45.75762425000336" lon="9.909418652568386"><ele>338.14285714285717</ele><time>2026-04-22T14:42:10Z</time></trkpt><trkpt lat="45.75756556372754" lon="9.909382863514097"><ele>337.8571428571429</ele><time>2026-04-22T14:42:11Z</time></trkpt><trkpt lat="45.75750790223496" lon="9.909346181583782"><ele>337.57142857142856</ele><time>2026-04-22T14:42:12Z</time></trkpt><trkpt lat="45.7573943943408" lon="9.909270144085372"><ele>337.28571428571433</ele><time>2026-04-22T14:42:14Z</time></trkpt><trkpt lat="45.7573346481556" lon="9.909239617952403"><ele>337.0</ele><time>2026-04-22T14:42:15Z</time></trkpt><trkpt lat="45.75727381090322" lon="9.909214636297639"><ele>337.5</ele><time>2026-04-22T14:42:16Z</time></trkpt><trkpt lat="45.75721136657235" lon="9.909188121820414"><ele>338.0</ele><time>2026-04-22T14:42:17Z</time></trkpt><trkpt lat="45.75708648851663" lon="9.909151055429358"><ele>338.5</ele><time>2026-04-22T14:42:19Z</time></trkpt><trkpt lat="45.75696360173231" lon="9.90912089617928"><ele>339.0</ele><time>2026-04-22T14:42:21Z</time></trkpt><trkpt lat="45.75690139421218" lon="9.909097938993199"><ele>339.5</ele><time>2026-04-22T14:42:22Z</time></trkpt><trkpt lat="45.75684007378069" lon="9.909075454334737"><ele>340.0</ele><time>2026-04-22T14:42:23Z</time></trkpt><trkpt lat="45.75672330046032" lon="9.90901456422231"><ele>340.0</ele><time>2026-04-22T14:42:25Z</time></trkpt><trkpt lat="45.756612573675774" lon="9.908937288643909"><ele>340.0</ele><time>2026-04-22T14:42:27Z</time></trkpt><trkpt lat="45.75650758368147" lon="9.908850162036524"><ele>340.0</ele><time>2026-04-22T14:42:29Z</time></trkpt><trkpt lat="45.75640143315862" lon="9.908760174555786"><ele>340.0</ele><time>2026-04-22T14:42:31Z</time></trkpt><trkpt lat="45.75629067235329" lon="9.908686709181183"><ele>340.0</ele><time>2026-04-22T14:42:33Z</time></trkpt><trkpt lat="45.7561878383597" lon="9.908601547482236"><ele>340.0</ele><time>2026-04-22T14:42:35Z</time></trkpt><trkpt lat="45.75608634638972" lon="9.90850276371289"><ele>340.0</ele><time>2026-04-22T14:42:37Z</time></trkpt><trkpt lat="45.755986159365754" lon="9.908418071531099"><ele>340.0</ele><time>2026-04-22T14:42:39Z</time></trkpt><trkpt lat="45.755882621048585" lon="9.908332594159491"><ele>340.4</ele><time>2026-04-22T14:42:41Z</time></trkpt><trkpt lat="45.755784076235805" lon="9.908254336272801"><ele>340.8</ele><time>2026-04-22T14:42:43Z</time></trkpt><trkpt lat="45.75568739358983" lon="9.90816645903152"><ele>341.20000000000005</ele><time>2026-04-22T14:42:45Z</time></trkpt><trkpt lat="45.7555823800949" lon="9.908068675373881"><ele>341.6</ele><time>2026-04-22T14:42:47Z</time></trkpt><trkpt lat="45.75551913297206" lon="9.908019004223629"><ele>342.0</ele><time>2026-04-22T14:42:48Z</time></trkpt><trkpt lat="45.75545394377829" lon="9.907967489491192"><ele>342.0</ele><time>2026-04-22T14:42:49Z</time></trkpt><trkpt lat="45.7553846405534" lon="9.907922492636425"><ele>342.0</ele><time>2026-04-22T14:42:50Z</time></trkpt><trkpt lat="45.75531608640431" lon="9.90787816442543"><ele>342.0</ele><time>2026-04-22T14:42:51Z</time></trkpt><trkpt lat="45.75524491923679" lon="9.90782185105015"><ele>342.0</ele><time>2026-04-22T14:42:52Z</time></trkpt><trkpt lat="45.75517754364539" lon="9.907774608654643"><ele>342.0</ele><time>2026-04-22T14:42:53Z</time></trkpt><trkpt lat="45.755107618470014" lon="9.90773978659203"><ele>342.0</ele><time>2026-04-22T14:42:54Z</time></trkpt><trkpt lat="45.755032700373334" lon="9.907708219841263"><ele>341.5</ele><time>2026-04-22T14:42:55Z</time></trkpt><trkpt lat="45.754958468929146" lon="9.907673650877197"><ele>341.0</ele><time>2026-04-22T14:42:56Z</time></trkpt><trkpt lat="45.75488311791611" lon="9.907644979831396"><ele>340.5</ele><time>2026-04-22T14:42:57Z</time></trkpt><trkpt lat="45.754807756867194" lon="9.907623088790123"><ele>340.0</ele><time>2026-04-22T14:42:58Z</time></trkpt><trkpt lat="45.75473263825071" lon="9.907605319011017"><ele>339.5</ele><time>2026-04-22T14:42:59Z</time></trkpt><trkpt lat="45.75465794373056" lon="9.907588882156276"><ele>339.0</ele><time>2026-04-22T14:43:00Z</time></trkpt><trkpt lat="45.75458608928694" lon="9.907566643337047"><ele>339.0</ele><time>2026-04-22T14:43:01Z</time></trkpt><trkpt lat="45.7545182754804" lon="9.907529088045424"><ele>339.0</ele><time>2026-04-22T14:43:02Z</time></trkpt><trkpt lat="45.754457731856135" lon="9.907477867347305"><ele>339.0</ele><time>2026-04-22T14:43:03Z</time></trkpt><trkpt lat="45.754401366768356" lon="9.907423448796017"><ele>339.0</ele><time>2026-04-22T14:43:04Z</time></trkpt><trkpt lat="45.75430560943963" lon="9.90731446882434"><ele>339.0</ele><time>2026-04-22T14:43:06Z</time></trkpt><trkpt lat="45.75421270672986" lon="9.907208575333318"><ele>338.79999999999995</ele><time>2026-04-22T14:43:08Z</time></trkpt><trkpt lat="45.75411883123318" lon="9.907095083814161"><ele>338.59999999999997</ele><time>2026-04-22T14:43:10Z</time></trkpt><trkpt lat="45.75402477420806" lon="9.906994784700577"><ele>338.4</ele><time>2026-04-22T14:43:12Z</time></trkpt><trkpt lat="45.75395203031015" lon="9.906924252760028"><ele>338.2</ele><time>2026-04-22T14:43:14Z</time></trkpt><trkpt lat="45.75389293910938" lon="9.906870887633222"><ele>338.0</ele><time>2026-04-22T14:43:16Z</time></trkpt><trkpt lat="45.75385148192788" lon="9.90678234689365"><ele>338.0</ele><time>2026-04-22T14:43:18Z</time></trkpt><trkpt lat="45.75383641921252" lon="9.906676416110262"><ele>338.0</ele><time>2026-04-22T14:43:20Z</time></trkpt><trkpt lat="45.753767129807215" lon="9.906563420481527"><ele>338.0</ele><time>2026-04-22T14:43:22Z</time></trkpt><trkpt lat="45.75372420317712" lon="9.906428293946815"><ele>338.0</ele><time>2026-04-22T14:43:24Z</time></trkpt><trkpt lat="45.75372218540712" lon="9.906270655510923"><ele>338.0</ele><time>2026-04-22T14:43:26Z</time></trkpt><trkpt lat="45.75374576754101" lon="9.906106230618834"><ele>338.0</ele><time>2026-04-22T14:43:28Z</time></trkpt><trkpt lat="45.7537502673284" lon="9.905942433348855"><ele>338.0</ele><time>2026-04-22T14:43:30Z</time></trkpt><trkpt lat="45.75376123550599" lon="9.905778742846772"><ele>338.0</ele><time>2026-04-22T14:43:32Z</time></trkpt><trkpt lat="45.75376934946677" lon="9.905611293188633"><ele>338.0</ele><time>2026-04-22T14:43:34Z</time></trkpt><trkpt lat="45.753780948049844" lon="9.90547731917023"><ele>338.0</ele><time>2026-04-22T14:43:36Z</time></trkpt><trkpt lat="45.75378739789259" lon="9.905327918248705"><ele>338.5</ele><time>2026-04-22T14:43:38Z</time></trkpt><trkpt lat="45.75378633403614" lon="9.905155644384882"><ele>339.0</ele><time>2026-04-22T14:43:40Z</time></trkpt><trkpt lat="45.7537972385716" lon="9.904984049316738"><ele>339.5</ele><time>2026-04-22T14:43:42Z</time></trkpt><trkpt lat="45.75386188232123" lon="9.904843850490607"><ele>340.0</ele><time>2026-04-22T14:43:44Z</time></trkpt><trkpt lat="45.75394434442275" lon="9.904745572346629"><ele>340.2</ele><time>2026-04-22T14:43:46Z</time></trkpt><trkpt lat="45.75403078034664" lon="9.904682601919955"><ele>340.4</ele><time>2026-04-22T14:43:48Z</time></trkpt><trkpt lat="45.7541181815282" lon="9.90470197168279"><ele>340.6</ele><time>2026-04-22T14:43:50Z</time></trkpt><trkpt lat="45.75419103031444" lon="9.904667890794624"><ele>340.8</ele><time>2026-04-22T14:43:52Z</time></trkpt><trkpt lat="45.75417173795803" lon="9.904524778861084"><ele>341.0</ele><time>2026-04-22T14:43:54Z</time></trkpt><trkpt lat="45.754181810997245" lon="9.904396015116996"><ele>341.0</ele><time>2026-04-22T14:43:56Z</time></trkpt><trkpt lat="45.7542639635448" lon="9.904274226387887"><ele>341.0</ele><time>2026-04-22T14:43:58Z</time></trkpt><trkpt lat="45.754333526561425" lon="9.904142216742795"><ele>341.0</ele><time>2026-04-22T14:44:00Z</time></trkpt><trkpt lat="45.75440469225717" lon="9.90401122869867"><ele>341.0</ele><time>2026-04-22T14:44:02Z</time></trkpt><trkpt lat="45.75446216066866" lon="9.903871660106761"><ele>343.0</ele><time>2026-04-22T14:44:04Z</time></trkpt><trkpt lat="45.754513417522865" lon="9.903733903546847"><ele>345.0</ele><time>2026-04-22T14:44:06Z</time></trkpt><trkpt lat="45.754581081018586" lon="9.903611318849428"><ele>347.0</ele><time>2026-04-22T14:44:08Z</time></trkpt><trkpt lat="45.75468667187343" lon="9.903548402839867"><ele>349.0</ele><time>2026-04-22T14:44:10Z</time></trkpt><trkpt lat="45.75480677776275" lon="9.903573810229618"><ele>348.99999999999994</ele><time>2026-04-22T14:44:12Z</time></trkpt><trkpt lat="45.754863305866245" lon="9.903615146925311"><ele>349.0</ele><time>2026-04-22T14:44:13Z</time></trkpt><trkpt lat="45.754924685431334" lon="9.90365375041297"><ele>349.0</ele><time>2026-04-22T14:44:14Z</time></trkpt><trkpt lat="45.75498345348513" lon="9.903695518695175"><ele>349.0</ele><time>2026-04-22T14:44:15Z</time></trkpt><trkpt lat="45.755041436656825" lon="9.903739361007213"><ele>349.0</ele><time>2026-04-22T14:44:16Z</time></trkpt><trkpt lat="45.7551017816071" lon="9.903777074512844"><ele>348.99999999999994</ele><time>2026-04-22T14:44:17Z</time></trkpt><trkpt lat="45.755164132351226" lon="9.903815171846444"><ele>349.0</ele><time>2026-04-22T14:44:18Z</time></trkpt><trkpt lat="45.75522032622872" lon="9.90386082139236"><ele>349.1428571428571</ele><time>2026-04-22T14:44:19Z</time></trkpt><trkpt lat="45.75528786597687" lon="9.903902090604102"><ele>349.2857142857143</ele><time>2026-04-22T14:44:20Z</time></trkpt><trkpt lat="45.75534836510982" lon="9.903949777326385"><ele>349.42857142857144</ele><time>2026-04-22T14:44:21Z</time></trkpt><trkpt lat="45.75540706668024" lon="9.904000259874708"><ele>349.57142857142856</ele><time>2026-04-22T14:44:22Z</time></trkpt><trkpt lat="45.755464058843174" lon="9.904059145791427"><ele>349.7142857142857</ele><time>2026-04-22T14:44:23Z</time></trkpt><trkpt lat="45.75552162752567" lon="9.904120623807854"><ele>349.85714285714283</ele><time>2026-04-22T14:44:24Z</time></trkpt><trkpt lat="45.75557844074302" lon="9.904181340273395"><ele>350.0</ele><time>2026-04-22T14:44:25Z</time></trkpt><trkpt lat="45.75562772147607" lon="9.904261945520787"><ele>350.0</ele><time>2026-04-22T14:44:26Z</time></trkpt><trkpt lat="45.75566964797269" lon="9.904343174972988"><ele>350.0</ele><time>2026-04-22T14:44:27Z</time></trkpt><trkpt lat="45.75571530684527" lon="9.904426420707468"><ele>350.0</ele><time>2026-04-22T14:44:28Z</time></trkpt><trkpt lat="45.75575581004435" lon="9.904515484376978"><ele>350.0</ele><time>2026-04-22T14:44:29Z</time></trkpt><trkpt lat="45.755793641728765" lon="9.904602270101536"><ele>350.0</ele><time>2026-04-22T14:44:30Z</time></trkpt><trkpt lat="45.75582467221327" lon="9.904687336097703"><ele>350.0</ele><time>2026-04-22T14:44:31Z</time></trkpt><trkpt lat="45.75586076322604" lon="9.904766070730606"><ele>350.0</ele><time>2026-04-22T14:44:32Z</time></trkpt><trkpt lat="45.755927376302076" lon="9.904908804816518"><ele>350.0</ele><time>2026-04-22T14:44:34Z</time></trkpt><trkpt lat="45.75599285906363" lon="9.905058848720687"><ele>350.0</ele><time>2026-04-22T14:44:36Z</time></trkpt><trkpt lat="45.756046363425114" lon="9.905206235813239"><ele>350.0</ele><time>2026-04-22T14:44:38Z</time></trkpt><trkpt lat="45.75614567821941" lon="9.905296565498542"><ele>350.0</ele><time>2026-04-22T14:44:40Z</time></trkpt><trkpt lat="45.75624093053615" lon="9.90538270856919"><ele>351.2</ele><time>2026-04-22T14:44:42Z</time></trkpt><trkpt lat="45.75632979682899" lon="9.90547919931421"><ele>352.4</ele><time>2026-04-22T14:44:44Z</time></trkpt><trkpt lat="45.756424539543595" lon="9.905556020321603"><ele>353.6</ele><time>2026-04-22T14:44:46Z</time></trkpt><trkpt lat="45.75653088170265" lon="9.905499917121169"><ele>354.8</ele><time>2026-04-22T14:44:48Z</time></trkpt><trkpt lat="45.75661483991288" lon="9.905393334817113"><ele>356.0</ele><time>2026-04-22T14:44:50Z</time></trkpt><trkpt lat="45.75668369473843" lon="9.905280493641246"><ele>356.0</ele><time>2026-04-22T14:44:52Z</time></trkpt><trkpt lat="45.75673232539018" lon="9.905140016884827"><ele>356.0</ele><time>2026-04-22T14:44:54Z</time></trkpt><trkpt lat="45.756765096532284" lon="9.904987183230451"><ele>356.0</ele><time>2026-04-22T14:44:56Z</time></trkpt><trkpt lat="45.75678541218908" lon="9.904833085987095"><ele>356.0</ele><time>2026-04-22T14:44:58Z</time></trkpt><trkpt lat="45.75675149837646" lon="9.904686596682053"><ele>356.0</ele><time>2026-04-22T14:45:00Z</time></trkpt><trkpt lat="45.7566871280523" lon="9.904573511585486"><ele>356.6</ele><time>2026-04-22T14:45:02Z</time></trkpt><trkpt lat="45.75663151391185" lon="9.904469861145913"><ele>357.20000000000005</ele><time>2026-04-22T14:45:04Z</time></trkpt><trkpt lat="45.75657613120704" lon="9.904372898005374"><ele>357.79999999999995</ele><time>2026-04-22T14:45:06Z</time></trkpt><trkpt lat="45.75652315199866" lon="9.904272788208747"><ele>358.4</ele><time>2026-04-22T14:45:08Z</time></trkpt><trkpt lat="45.75646840005949" lon="9.904166592756853"><ele>359.0</ele><time>2026-04-22T14:45:10Z</time></trkpt><trkpt lat="45.75641828298873" lon="9.904052364188303"><ele>360.79999999999995</ele><time>2026-04-22T14:45:12Z</time></trkpt><trkpt lat="45.756374536248934" lon="9.903938444803478"><ele>362.59999999999997</ele><time>2026-04-22T14:45:14Z</time></trkpt><trkpt lat="45.756328669599284" lon="9.903825414341906"><ele>364.4</ele><time>2026-04-22T14:45:16Z</time></trkpt><trkpt lat="45.75627098397491" lon="9.90369922197442"><ele>366.2</ele><time>2026-04-22T14:45:18Z</time></trkpt><trkpt lat="45.75619248460886" lon="9.903573202717276"><ele>368.0</ele><time>2026-04-22T14:45:20Z</time></trkpt><trkpt lat="45.75615429823685" lon="9.90349993891263"><ele>368.0</ele><time>2026-04-22T14:45:21Z</time></trkpt><trkpt lat="45.75608314043415" lon="9.9033552809262"><ele>368.0</ele><time>2026-04-22T14:45:23Z</time></trkpt><trkpt lat="45.7560166753911" lon="9.903242877790648"><ele>368.0</ele><time>2026-04-22T14:45:25Z</time></trkpt><trkpt lat="45.75595464333702" lon="9.903140693740552"><ele>368.0</ele><time>2026-04-22T14:45:27Z</time></trkpt><trkpt lat="45.75585773920143" lon="9.903049768087735"><ele>368.0</ele><time>2026-04-22T14:45:29Z</time></trkpt><trkpt lat="45.755740451353674" lon="9.902982879626284"><ele>368.0</ele><time>2026-04-22T14:45:31Z</time></trkpt><trkpt lat="45.75567754098469" lon="9.902959692708905"><ele>368.0</ele><time>2026-04-22T14:45:32Z</time></trkpt><trkpt lat="45.75561597488227" lon="9.902923508251407"><ele>368.0</ele><time>2026-04-22T14:45:33Z</time></trkpt><trkpt lat="45.75555092967522" lon="9.902895094603641"><ele>368.0</ele><time>2026-04-22T14:45:34Z</time></trkpt><trkpt lat="45.75548882810693" lon="9.902861865397734"><ele>368.0</ele><time>2026-04-22T14:45:35Z</time></trkpt><trkpt lat="45.75542871489509" lon="9.902819683503768"><ele>368.0</ele><time>2026-04-22T14:45:36Z</time></trkpt><trkpt lat="45.75537152694522" lon="9.902774971521684"><ele>368.0</ele><time>2026-04-22T14:45:37Z</time></trkpt><trkpt lat="45.755272495773575" lon="9.902676911560727"><ele>368.33333333333337</ele><time>2026-04-22T14:45:39Z</time></trkpt><trkpt lat="45.75518315045115" lon="9.902588641302895"><ele>368.6666666666667</ele><time>2026-04-22T14:45:41Z</time></trkpt><trkpt lat="45.75510324231937" lon="9.902510940670432"><ele>369.0</ele><time>2026-04-22T14:45:43Z</time></trkpt><trkpt lat="45.75502975910122" lon="9.90244585738839"><ele>369.3333333333333</ele><time>2026-04-22T14:45:45Z</time></trkpt><trkpt lat="45.75496771146429" lon="9.902390647626797"><ele>369.66666666666663</ele><time>2026-04-22T14:45:47Z</time></trkpt><trkpt lat="45.754901369072556" lon="9.902340533464717"><ele>370.0</ele><time>2026-04-22T14:45:49Z</time></trkpt><trkpt lat="45.754836297051256" lon="9.902255247116797"><ele>370.0</ele><time>2026-04-22T14:45:51Z</time></trkpt><trkpt lat="45.7547789565594" lon="9.902215904240352"><ele>370.0</ele><time>2026-04-22T14:45:52Z</time></trkpt><trkpt lat="45.75468593373308" lon="9.902103987001395"><ele>370.0</ele><time>2026-04-22T14:45:54Z</time></trkpt><trkpt lat="45.75459960676401" lon="9.901990267980823"><ele>370.0</ele><time>2026-04-22T14:45:56Z</time></trkpt><trkpt lat="45.754555039647435" lon="9.901923821479397"><ele>370.0</ele><time>2026-04-22T14:45:57Z</time></trkpt><trkpt lat="45.754512214431976" lon="9.90185499967694"><ele>370.0</ele><time>2026-04-22T14:45:58Z</time></trkpt><trkpt lat="45.75447354188483" lon="9.901782444420766"><ele>369.8</ele><time>2026-04-22T14:45:59Z</time></trkpt><trkpt lat="45.754429194965475" lon="9.901711656211974"><ele>369.6</ele><time>2026-04-22T14:46:00Z</time></trkpt><trkpt lat="45.75438566665523" lon="9.901638766679993"><ele>369.4</ele><time>2026-04-22T14:46:01Z</time></trkpt><trkpt lat="45.754312692148055" lon="9.901493370652977"><ele>369.2</ele><time>2026-04-22T14:46:03Z</time></trkpt><trkpt lat="45.7542575136882" lon="9.901360305293187"><ele>369.0</ele><time>2026-04-22T14:46:05Z</time></trkpt><trkpt lat="45.754160179421476" lon="9.901258905810876"><ele>369.0</ele><time>2026-04-22T14:46:07Z</time></trkpt><trkpt lat="45.754100385671634" lon="9.901215700890871"><ele>369.0</ele><time>2026-04-22T14:46:08Z</time></trkpt><trkpt lat="45.75403903741813" lon="9.901182243569155"><ele>369.0</ele><time>2026-04-22T14:46:09Z</time></trkpt><trkpt lat="45.75398024775359" lon="9.901137004586037"><ele>369.0</ele><time>2026-04-22T14:46:10Z</time></trkpt><trkpt lat="45.75389066991733" lon="9.901037442442453"><ele>369.0</ele><time>2026-04-22T14:46:12Z</time></trkpt><trkpt lat="45.75379456486096" lon="9.90093980283754"><ele>369.0</ele><time>2026-04-22T14:46:14Z</time></trkpt><trkpt lat="45.75369981784597" lon="9.900851080660503"><ele>369.79999999999995</ele><time>2026-04-22T14:46:16Z</time></trkpt><trkpt lat="45.75361922755978" lon="9.900759740212116"><ele>370.59999999999997</ele><time>2026-04-22T14:46:18Z</time></trkpt><trkpt lat="45.75353330480893" lon="9.900653846298537"><ele>371.4</ele><time>2026-04-22T14:46:20Z</time></trkpt><trkpt lat="45.75346978043855" lon="9.900523374240546"><ele>372.2</ele><time>2026-04-22T14:46:22Z</time></trkpt><trkpt lat="45.75340250961744" lon="9.900417699833644"><ele>373.0</ele><time>2026-04-22T14:46:24Z</time></trkpt><trkpt lat="45.753380880069564" lon="9.900300255245472"><ele>373.0</ele><time>2026-04-22T14:46:26Z</time></trkpt><trkpt lat="45.7533663260822" lon="9.90017991245523"><ele>373.0</ele><time>2026-04-22T14:46:28Z</time></trkpt><trkpt lat="45.75333415721215" lon="9.900072716858078"><ele>373.0</ele><time>2026-04-22T14:46:30Z</time></trkpt><trkpt lat="45.753310495380255" lon="9.899966035038794"><ele>373.0</ele><time>2026-04-22T14:46:32Z</time></trkpt><trkpt lat="45.75332784237006" lon="9.899837322453562"><ele>373.0</ele><time>2026-04-22T14:46:34Z</time></trkpt><trkpt lat="45.753384525271414" lon="9.899730527281708"><ele>373.0</ele><time>2026-04-22T14:46:36Z</time></trkpt><trkpt lat="45.75347907676997" lon="9.899681049972367"><ele>376.3333333333333</ele><time>2026-04-22T14:46:38Z</time></trkpt><trkpt lat="45.75355311306394" lon="9.899598565740419"><ele>379.66666666666663</ele><time>2026-04-22T14:46:40Z</time></trkpt><trkpt lat="45.75361455727806" lon="9.89949593398932"><ele>383.0</ele><time>2026-04-22T14:46:42Z</time></trkpt><trkpt lat="45.75367696954991" lon="9.899415145294778"><ele>386.3333333333333</ele><time>2026-04-22T14:46:44Z</time></trkpt><trkpt lat="45.75374371594591" lon="9.899342136985926"><ele>389.6666666666667</ele><time>2026-04-22T14:46:46Z</time></trkpt><trkpt lat="45.753818854060974" lon="9.899294722340521"><ele>393.0</ele><time>2026-04-22T14:46:48Z</time></trkpt><trkpt lat="45.753888560464326" lon="9.899254748570067"><ele>393.0</ele><time>2026-04-22T14:46:50Z</time></trkpt><trkpt lat="45.7539328282026" lon="9.89934797719473"><ele>393.0</ele><time>2026-04-22T14:46:52Z</time></trkpt><trkpt lat="45.754001586601284" lon="9.899460609875854"><ele>393.0</ele><time>2026-04-22T14:46:54Z</time></trkpt><trkpt lat="45.75406766066404" lon="9.899538746542358"><ele>393.0</ele><time>2026-04-22T14:46:56Z</time></trkpt><trkpt lat="45.75414460242688" lon="9.899616864362708"><ele>393.0</ele><time>2026-04-22T14:46:58Z</time></trkpt><trkpt lat="45.75422309400522" lon="9.899655815195725"><ele>393.0</ele><time>2026-04-22T14:47:00Z</time></trkpt><trkpt lat="45.75429413453728" lon="9.899640767515828"><ele>393.0</ele><time>2026-04-22T14:47:02Z</time></trkpt><trkpt lat="45.75435152925799" lon="9.899578068029857"><ele>393.0</ele><time>2026-04-22T14:47:04Z</time></trkpt><trkpt lat="45.754405853867006" lon="9.899498934447095"><ele>393.0</ele><time>2026-04-22T14:47:06Z</time></trkpt><trkpt lat="45.754465867170154" lon="9.89943093815374"><ele>393.0</ele><time>2026-04-22T14:47:08Z</time></trkpt><trkpt lat="45.754521456828535" lon="9.899379078200253"><ele>393.0</ele><time>2026-04-22T14:47:10Z</time></trkpt><trkpt lat="45.75458180265806" lon="9.899282482778043"><ele>393.0</ele><time>2026-04-22T14:47:13Z</time></trkpt><trkpt lat="45.75464405244428" lon="9.89923885675474"><ele>395.3333333333333</ele><time>2026-04-22T14:47:15Z</time></trkpt><trkpt lat="45.75470771150623" lon="9.899176496793128"><ele>397.66666666666663</ele><time>2026-04-22T14:47:17Z</time></trkpt><trkpt lat="45.75476261098524" lon="9.89907850730216"><ele>400.0</ele><time>2026-04-22T14:47:19Z</time></trkpt><trkpt lat="45.75480118553736" lon="9.89895233648562"><ele>402.3333333333333</ele><time>2026-04-22T14:47:21Z</time></trkpt><trkpt lat="45.754803247359554" lon="9.89882732874739"><ele>404.66666666666663</ele><time>2026-04-22T14:47:23Z</time></trkpt><trkpt lat="45.754805130591265" lon="9.898713553716034"><ele>407.0</ele><time>2026-04-22T14:47:25Z</time></trkpt><trkpt lat="45.754805775627034" lon="9.898617130151468"><ele>406.99999999999994</ele><time>2026-04-22T14:47:27Z</time></trkpt><trkpt lat="45.75481822220385" lon="9.898474758152402"><ele>407.0</ele><time>2026-04-22T14:47:30Z</time></trkpt><trkpt lat="45.75483249708699" lon="9.898363688092637"><ele>407.0</ele><time>2026-04-22T14:47:32Z</time></trkpt><trkpt lat="45.75484607583387" lon="9.898265429210245"><ele>407.0</ele><time>2026-04-22T14:47:34Z</time></trkpt><trkpt lat="45.754841099828134" lon="9.898137128577048"><ele>406.99999999999994</ele><time>2026-04-22T14:47:36Z</time></trkpt><trkpt lat="45.75483557485678" lon="9.89800894211504"><ele>407.0</ele><time>2026-04-22T14:47:38Z</time></trkpt><trkpt lat="45.754844135623706" lon="9.897883037801622"><ele>407.20000000000005</ele><time>2026-04-22T14:47:40Z</time></trkpt><trkpt lat="45.75485608162789" lon="9.897759295229855"><ele>407.4</ele><time>2026-04-22T14:47:42Z</time></trkpt><trkpt lat="45.754861129031156" lon="9.897626742638936"><ele>407.6</ele><time>2026-04-22T14:47:44Z</time></trkpt><trkpt lat="45.754880288846266" lon="9.897502007225176"><ele>407.79999999999995</ele><time>2026-04-22T14:47:46Z</time></trkpt><trkpt lat="45.75490140988004" lon="9.897375472048886"><ele>408.0</ele><time>2026-04-22T14:47:48Z</time></trkpt><trkpt lat="45.754932444572546" lon="9.897253547025882"><ele>409.0</ele><time>2026-04-22T14:47:50Z</time></trkpt><trkpt lat="45.75496363076413" lon="9.897138871152933"><ele>410.0</ele><time>2026-04-22T14:47:52Z</time></trkpt><trkpt lat="45.755017897092436" lon="9.89703297892978"><ele>411.0</ele><time>2026-04-22T14:47:54Z</time></trkpt><trkpt lat="45.755092494354116" lon="9.89694615444078"><ele>412.0</ele><time>2026-04-22T14:47:56Z</time></trkpt><trkpt lat="45.755162839341246" lon="9.896864679877426"><ele>413.0</ele><time>2026-04-22T14:47:58Z</time></trkpt><trkpt lat="45.75523064355027" lon="9.896770725609027"><ele>416.79999999999995</ele><time>2026-04-22T14:48:00Z</time></trkpt><trkpt lat="45.75530190432793" lon="9.896677143290383"><ele>420.6</ele><time>2026-04-22T14:48:02Z</time></trkpt><trkpt lat="45.75536304671017" lon="9.896569263322617"><ele>424.40000000000003</ele><time>2026-04-22T14:48:04Z</time></trkpt><trkpt lat="45.75542251690428" lon="9.896464573003616"><ele>428.20000000000005</ele><time>2026-04-22T14:48:06Z</time></trkpt><trkpt lat="45.75548583323324" lon="9.896367844694355"><ele>432.0</ele><time>2026-04-22T14:48:08Z</time></trkpt><trkpt lat="45.75554315666236" lon="9.89627253252855"><ele>432.0</ele><time>2026-04-22T14:48:10Z</time></trkpt><trkpt lat="45.75561193830592" lon="9.896203540018597"><ele>432.0</ele><time>2026-04-22T14:48:12Z</time></trkpt><trkpt lat="45.75569470919843" lon="9.896105342203297"><ele>432.0</ele><time>2026-04-22T14:48:14Z</time></trkpt><trkpt lat="45.75574959928924" lon="9.895994263707664"><ele>432.0</ele><time>2026-04-22T14:48:16Z</time></trkpt><trkpt lat="45.755801196388234" lon="9.89588213273428"><ele>432.0</ele><time>2026-04-22T14:48:18Z</time></trkpt><trkpt lat="45.75583591827992" lon="9.895806377232294"><ele>432.0</ele><time>2026-04-22T14:48:20Z</time></trkpt><trkpt lat="45.75590529121518" lon="9.895764074304836"><ele>433.5</ele><time>2026-04-22T14:48:24Z</time></trkpt><trkpt lat="45.755986356446094" lon="9.895758391844218"><ele>435.0</ele><time>2026-04-22T14:48:27Z</time></trkpt><trkpt lat="45.75604088795438" lon="9.895678102353747"><ele>436.5</ele><time>2026-04-22T14:48:29Z</time></trkpt><trkpt lat="45.756098265970785" lon="9.89558023982533"><ele>438.0</ele><time>2026-04-22T14:48:31Z</time></trkpt><trkpt lat="45.756161765635234" lon="9.89548988947662"><ele>439.5</ele><time>2026-04-22T14:48:33Z</time></trkpt><trkpt lat="45.75622492009642" lon="9.895388751632304"><ele>441.0</ele><time>2026-04-22T14:48:35Z</time></trkpt><trkpt lat="45.75628284139757" lon="9.895272529090922"><ele>441.0</ele><time>2026-04-22T14:48:37Z</time></trkpt><trkpt lat="45.75634386038908" lon="9.89516243210358"><ele>441.0</ele><time>2026-04-22T14:48:39Z</time></trkpt><trkpt lat="45.75641084445314" lon="9.89506556548422"><ele>441.0</ele><time>2026-04-22T14:48:41Z</time></trkpt><trkpt lat="45.756492426840104" lon="9.894986677993833"><ele>441.0</ele><time>2026-04-22T14:48:43Z</time></trkpt><trkpt lat="45.75659494915691" lon="9.894959466262808"><ele>441.0</ele><time>2026-04-22T14:48:45Z</time></trkpt><trkpt lat="45.75669201108484" lon="9.894992227909448"><ele>441.0</ele><time>2026-04-22T14:48:47Z</time></trkpt><trkpt lat="45.75676000466951" lon="9.895090967988297"><ele>441.0</ele><time>2026-04-22T14:48:49Z</time></trkpt><trkpt lat="45.756833680118284" lon="9.895184578415147"><ele>441.0</ele><time>2026-04-22T14:48:51Z</time></trkpt><trkpt lat="45.75691101064688" lon="9.895279110878722"><ele>441.0</ele><time>2026-04-22T14:48:53Z</time></trkpt><trkpt lat="45.75698785928195" lon="9.895376179073018"><ele>441.0</ele><time>2026-04-22T14:48:55Z</time></trkpt><trkpt lat="45.75707376183233" lon="9.89547334191519"><ele>441.0</ele><time>2026-04-22T14:48:57Z</time></trkpt><trkpt lat="45.757166364073456" lon="9.895584959356801"><ele>441.0</ele><time>2026-04-22T14:48:59Z</time></trkpt><trkpt lat="45.7572666133208" lon="9.895690362078422"><ele>441.0</ele><time>2026-04-22T14:49:01Z</time></trkpt><trkpt lat="45.75737156038582" lon="9.895781638446431"><ele>441.0</ele><time>2026-04-22T14:49:03Z</time></trkpt><trkpt lat="45.75747028214268" lon="9.895853653775882"><ele>441.0</ele><time>2026-04-22T14:49:05Z</time></trkpt><trkpt lat="45.75755738792588" lon="9.895884995279376"><ele>441.0</ele><time>2026-04-22T14:49:07Z</time></trkpt><trkpt lat="45.75765267570112" lon="9.895940107443279"><ele>441.0</ele><time>2026-04-22T14:49:09Z</time></trkpt><trkpt lat="45.75775509048843" lon="9.896001436192893"><ele>441.0</ele><time>2026-04-22T14:49:11Z</time></trkpt><trkpt lat="45.75783706083311" lon="9.896100227243652"><ele>441.0</ele><time>2026-04-22T14:49:13Z</time></trkpt><trkpt lat="45.75789341972026" lon="9.896240043309811"><ele>443.6</ele><time>2026-04-22T14:49:15Z</time></trkpt><trkpt lat="45.75793298528184" lon="9.896385008810102"><ele>446.20000000000005</ele><time>2026-04-22T14:49:17Z</time></trkpt><trkpt lat="45.7579688430818" lon="9.896530976807231"><ele>448.79999999999995</ele><time>2026-04-22T14:49:19Z</time></trkpt><trkpt lat="45.75801177987308" lon="9.89666823616979"><ele>451.4</ele><time>2026-04-22T14:49:21Z</time></trkpt><trkpt lat="45.758059435269004" lon="9.896813959448231"><ele>454.0</ele><time>2026-04-22T14:49:23Z</time></trkpt><trkpt lat="45.75810115567883" lon="9.896945231965512"><ele>454.0</ele><time>2026-04-22T14:49:25Z</time></trkpt><trkpt lat="45.75814165093118" lon="9.897077875675066"><ele>454.0</ele><time>2026-04-22T14:49:27Z</time></trkpt><trkpt lat="45.758180672585326" lon="9.89720314130924"><ele>454.0</ele><time>2026-04-22T14:49:29Z</time></trkpt><trkpt lat="45.75823540218307" lon="9.897333830457667"><ele>454.0</ele><time>2026-04-22T14:49:31Z</time></trkpt><trkpt lat="45.758308538992935" lon="9.897422796092707"><ele>454.0</ele><time>2026-04-22T14:49:33Z</time></trkpt><trkpt lat="45.75841657492743" lon="9.897479591769745"><ele>454.0</ele><time>2026-04-22T14:49:35Z</time></trkpt><trkpt lat="45.7585163448476" lon="9.89753490081655"><ele>454.0</ele><time>2026-04-22T14:49:37Z</time></trkpt><trkpt lat="45.75860954730268" lon="9.897593418203957"><ele>454.0</ele><time>2026-04-22T14:49:39Z</time></trkpt><trkpt lat="45.758705747094844" lon="9.897659486944983"><ele>454.0</ele><time>2026-04-22T14:49:41Z</time></trkpt><trkpt lat="45.7587990631892" lon="9.897729970584795"><ele>454.0</ele><time>2026-04-22T14:49:43Z</time></trkpt><trkpt lat="45.75889138402858" lon="9.897798224575794"><ele>456.4</ele><time>2026-04-22T14:49:45Z</time></trkpt><trkpt lat="45.75897449816052" lon="9.897872827649962"><ele>458.79999999999995</ele><time>2026-04-22T14:49:47Z</time></trkpt><trkpt lat="45.75903110185716" lon="9.897977827585718"><ele>461.20000000000005</ele><time>2026-04-22T14:49:49Z</time></trkpt><trkpt lat="45.75909086139505" lon="9.898081167093723"><ele>463.6</ele><time>2026-04-22T14:49:51Z</time></trkpt><trkpt lat="45.75913835810956" lon="9.898193217171155"><ele>466.0</ele><time>2026-04-22T14:49:53Z</time></trkpt><trkpt lat="45.75920211353307" lon="9.898291539914757"><ele>466.0</ele><time>2026-04-22T14:49:55Z</time></trkpt><trkpt lat="45.7593051498921" lon="9.898304306745207"><ele>466.0</ele><time>2026-04-22T14:49:57Z</time></trkpt><trkpt lat="45.75934473927401" lon="9.898168572176496"><ele>466.0</ele><time>2026-04-22T14:49:59Z</time></trkpt><trkpt lat="45.7592854264975" lon="9.898035218960135"><ele>466.0</ele><time>2026-04-22T14:50:01Z</time></trkpt><trkpt lat="45.75922284753985" lon="9.897921495758384"><ele>466.0</ele><time>2026-04-22T14:50:03Z</time></trkpt><trkpt lat="45.75917056918798" lon="9.897796230662324"><ele>466.0</ele><time>2026-04-22T14:50:05Z</time></trkpt><trkpt lat="45.75911751776171" lon="9.897675290436595"><ele>466.0</ele><time>2026-04-22T14:50:07Z</time></trkpt><trkpt lat="45.759062723106716" lon="9.897555333712614"><ele>466.0</ele><time>2026-04-22T14:50:09Z</time></trkpt><trkpt lat="45.75901286997854" lon="9.897431589671834"><ele>466.0</ele><time>2026-04-22T14:50:11Z</time></trkpt><trkpt lat="45.75896987636244" lon="9.897313305119333"><ele>466.0</ele><time>2026-04-22T14:50:13Z</time></trkpt><trkpt lat="45.75891862380346" lon="9.897179927235662"><ele>466.0</ele><time>2026-04-22T14:50:15Z</time></trkpt><trkpt lat="45.75886653926702" lon="9.897050937043527"><ele>466.0</ele><time>2026-04-22T14:50:17Z</time></trkpt><trkpt lat="45.758813039215795" lon="9.896914807992092"><ele>466.0</ele><time>2026-04-22T14:50:19Z</time></trkpt><trkpt lat="45.75877181870788" lon="9.896771804458941"><ele>466.0</ele><time>2026-04-22T14:50:21Z</time></trkpt><trkpt lat="45.7588048756635" lon="9.896622692458722"><ele>466.0</ele><time>2026-04-22T14:50:23Z</time></trkpt><trkpt lat="45.75891768794506" lon="9.89659574415177"><ele>466.0</ele><time>2026-04-22T14:50:25Z</time></trkpt><trkpt lat="45.759006813119186" lon="9.896677002193874"><ele>466.0</ele><time>2026-04-22T14:50:27Z</time></trkpt><trkpt lat="45.75908281935008" lon="9.896764915462175"><ele>466.0</ele><time>2026-04-22T14:50:29Z</time></trkpt><trkpt lat="45.759167205936976" lon="9.896832041129167"><ele>466.0</ele><time>2026-04-22T14:50:31Z</time></trkpt><trkpt lat="45.759257137970714" lon="9.896890671293624"><ele>466.0</ele><time>2026-04-22T14:50:33Z</time></trkpt><trkpt lat="45.75934788529466" lon="9.896970891503386"><ele>469.0</ele><time>2026-04-22T14:50:35Z</time></trkpt><trkpt lat="45.75943371532299" lon="9.897053728303407"><ele>472.0</ele><time>2026-04-22T14:50:37Z</time></trkpt><trkpt lat="45.759517472298576" lon="9.897128126481284"><ele>475.0</ele><time>2026-04-22T14:50:39Z</time></trkpt><trkpt lat="45.75960225791532" lon="9.897189717245654"><ele>478.0</ele><time>2026-04-22T14:50:41Z</time></trkpt><trkpt lat="45.75968576088241" lon="9.897255063075558"><ele>481.0</ele><time>2026-04-22T14:50:43Z</time></trkpt><trkpt lat="45.7597584521827" lon="9.897333781753524"><ele>481.00000000000006</ele><time>2026-04-22T14:50:45Z</time></trkpt><trkpt lat="45.75982853795472" lon="9.897407332196131"><ele>481.0</ele><time>2026-04-22T14:50:47Z</time></trkpt><trkpt lat="45.7598918178027" lon="9.897459442447534"><ele>481.0</ele><time>2026-04-22T14:50:49Z</time></trkpt><trkpt lat="45.759963439668894" lon="9.897524610989297"><ele>481.0</ele><time>2026-04-22T14:50:51Z</time></trkpt><trkpt lat="45.76002877731807" lon="9.897607123639322"><ele>481.00000000000006</ele><time>2026-04-22T14:50:53Z</time></trkpt><trkpt lat="45.76010096057845" lon="9.897658144052684"><ele>481.0</ele><time>2026-04-22T14:50:55Z</time></trkpt><trkpt lat="45.76018723890299" lon="9.897677337951858"><ele>482.0</ele><time>2026-04-22T14:50:57Z</time></trkpt><trkpt lat="45.76027353727535" lon="9.897619220684616"><ele>483.0</ele><time>2026-04-22T14:50:59Z</time></trkpt><trkpt lat="45.76032197771539" lon="9.897509248028243"><ele>484.0</ele><time>2026-04-22T14:51:01Z</time></trkpt><trkpt lat="45.76034292489392" lon="9.897382417440117"><ele>485.0</ele><time>2026-04-22T14:51:03Z</time></trkpt><trkpt lat="45.7603494213047" lon="9.897246060860235"><ele>486.0</ele><time>2026-04-22T14:51:05Z</time></trkpt><trkpt lat="45.76036526077579" lon="9.897115601513532"><ele>487.0</ele><time>2026-04-22T14:51:07Z</time></trkpt><trkpt lat="45.76036867889744" lon="9.896973306666029"><ele>488.0</ele><time>2026-04-22T14:51:09Z</time></trkpt><trkpt lat="45.76037008693091" lon="9.896839987181924"><ele>489.0</ele><time>2026-04-22T14:51:11Z</time></trkpt><trkpt lat="45.760360350332434" lon="9.896703541813164"><ele>490.0</ele><time>2026-04-22T14:51:13Z</time></trkpt><trkpt lat="45.76034775737004" lon="9.89656747236511"><ele>491.0</ele><time>2026-04-22T14:51:15Z</time></trkpt><trkpt lat="45.76034628348145" lon="9.896462218552273"><ele>492.0</ele><time>2026-04-22T14:51:17Z</time></trkpt><trkpt lat="45.76033091108387" lon="9.89632642730364"><ele>493.0</ele><time>2026-04-22T14:51:20Z</time></trkpt><trkpt lat="45.760330983928526" lon="9.896219672966721"><ele>494.0</ele><time>2026-04-22T14:51:22Z</time></trkpt><trkpt lat="45.7603159731875" lon="9.896089169634589"><ele>495.0</ele><time>2026-04-22T14:51:24Z</time></trkpt><trkpt lat="45.76031554591007" lon="9.895965507022751"><ele>496.0</ele><time>2026-04-22T14:51:26Z</time></trkpt><trkpt lat="45.76029293250444" lon="9.895814962171082"><ele>496.6</ele><time>2026-04-22T14:51:28Z</time></trkpt><trkpt lat="45.7602926709597" lon="9.895664832885116"><ele>497.20000000000005</ele><time>2026-04-22T14:51:30Z</time></trkpt><trkpt lat="45.76030347518719" lon="9.895515763757778"><ele>497.79999999999995</ele><time>2026-04-22T14:51:32Z</time></trkpt><trkpt lat="45.76033506751311" lon="9.895375142930595"><ele>498.4</ele><time>2026-04-22T14:51:34Z</time></trkpt><trkpt lat="45.760373341636715" lon="9.895238466285726"><ele>499.0</ele><time>2026-04-22T14:51:36Z</time></trkpt><trkpt lat="45.760432715864845" lon="9.895124616678267"><ele>499.0</ele><time>2026-04-22T14:51:38Z</time></trkpt><trkpt lat="45.76049127387639" lon="9.895012940056475"><ele>499.0</ele><time>2026-04-22T14:51:40Z</time></trkpt><trkpt lat="45.76057408357045" lon="9.894944509417833"><ele>499.0</ele><time>2026-04-22T14:51:42Z</time></trkpt><trkpt lat="45.76067297030713" lon="9.894968823013162"><ele>499.0</ele><time>2026-04-22T14:51:44Z</time></trkpt><trkpt lat="45.76074702884774" lon="9.895077738100898"><ele>499.0</ele><time>2026-04-22T14:51:46Z</time></trkpt><trkpt lat="45.760796126293066" lon="9.895203738722774"><ele>499.0</ele><time>2026-04-22T14:51:48Z</time></trkpt><trkpt lat="45.76083264288465" lon="9.8953362639772"><ele>499.0</ele><time>2026-04-22T14:51:50Z</time></trkpt><trkpt lat="45.76087656757301" lon="9.895455044350348"><ele>499.0</ele><time>2026-04-22T14:51:52Z</time></trkpt><trkpt lat="45.76091657404954" lon="9.89556832969606"><ele>499.0</ele><time>2026-04-22T14:51:54Z</time></trkpt><trkpt lat="45.76097793897096" lon="9.895657602094944"><ele>499.0</ele><time>2026-04-22T14:51:56Z</time></trkpt><trkpt lat="45.76107210606223" lon="9.895614868359653"><ele>501.33333333333337</ele><time>2026-04-22T14:51:58Z</time></trkpt><trkpt lat="45.76107832515983" lon="9.89548092304887"><ele>503.6666666666667</ele><time>2026-04-22T14:52:00Z</time></trkpt><trkpt lat="45.76107092526175" lon="9.895360932649357"><ele>506.0</ele><time>2026-04-22T14:52:02Z</time></trkpt><trkpt lat="45.76107930832603" lon="9.895254345178989"><ele>508.33333333333337</ele><time>2026-04-22T14:52:04Z</time></trkpt><trkpt lat="45.76110463163969" lon="9.895143121587678"><ele>510.6666666666667</ele><time>2026-04-22T14:52:06Z</time></trkpt><trkpt lat="45.76110937099105" lon="9.895025249310253"><ele>513.0</ele><time>2026-04-22T14:52:08Z</time></trkpt><trkpt lat="45.76109961662718" lon="9.894906259764252"><ele>513.8333333333334</ele><time>2026-04-22T14:52:10Z</time></trkpt><trkpt lat="45.76110665948762" lon="9.894795151322723"><ele>514.6666666666666</ele><time>2026-04-22T14:52:12Z</time></trkpt><trkpt lat="45.76115759832599" lon="9.894708876109116"><ele>515.5</ele><time>2026-04-22T14:52:14Z</time></trkpt><trkpt lat="45.76123822172912" lon="9.89467184714362"><ele>516.3333333333333</ele><time>2026-04-22T14:52:16Z</time></trkpt><trkpt lat="45.761307072011874" lon="9.894740499215128"><ele>517.1666666666666</ele><time>2026-04-22T14:52:18Z</time></trkpt><trkpt lat="45.76133822019041" lon="9.894844531036123"><ele>518.0</ele><time>2026-04-22T14:52:20Z</time></trkpt><trkpt lat="45.76137369393594" lon="9.894938777804128"><ele>518.0</ele><time>2026-04-22T14:52:22Z</time></trkpt><trkpt lat="45.76141365325473" lon="9.895030615132733"><ele>518.0</ele><time>2026-04-22T14:52:24Z</time></trkpt><trkpt lat="45.761450398994604" lon="9.895115027172809"><ele>518.0</ele><time>2026-04-22T14:52:26Z</time></trkpt><trkpt lat="45.76150149748393" lon="9.895186061715185"><ele>518.0</ele><time>2026-04-22T14:52:28Z</time></trkpt><trkpt lat="45.761557755122595" lon="9.895227553284194"><ele>518.0</ele><time>2026-04-22T14:52:30Z</time></trkpt><trkpt lat="45.76162547025066" lon="9.89530070485709"><ele>518.0</ele><time>2026-04-22T14:53:06Z</time></trkpt><trkpt lat="45.76168970431976" lon="9.895397397140396"><ele>517.1666666666666</ele><time>2026-04-22T14:53:09Z</time></trkpt><trkpt lat="45.761719273580624" lon="9.89548399596361"><ele>516.3333333333333</ele><time>2026-04-22T14:53:11Z</time></trkpt><trkpt lat="45.76174706080744" lon="9.895585961815629"><ele>515.5</ele><time>2026-04-22T14:53:13Z</time></trkpt><trkpt lat="45.76178664333415" lon="9.895700216100547"><ele>514.6666666666666</ele><time>2026-04-22T14:53:15Z</time></trkpt><trkpt lat="45.76182896835723" lon="9.895829509579668"><ele>513.8333333333334</ele><time>2026-04-22T14:53:17Z</time></trkpt><trkpt lat="45.76188200424084" lon="9.895957676126363"><ele>513.0</ele><time>2026-04-22T14:53:19Z</time></trkpt><trkpt lat="45.76191683345976" lon="9.896038963197812"><ele>512.1999999999999</ele><time>2026-04-22T14:53:20Z</time></trkpt><trkpt lat="45.76194894219215" lon="9.896125626278481"><ele>511.4</ele><time>2026-04-22T14:53:21Z</time></trkpt><trkpt lat="45.76200005111555" lon="9.896267202962335"><ele>510.59999999999997</ele><time>2026-04-22T14:53:23Z</time></trkpt><trkpt lat="45.76208405678589" lon="9.896382678892286"><ele>509.79999999999995</ele><time>2026-04-22T14:53:25Z</time></trkpt><trkpt lat="45.762134022227244" lon="9.896443022342558"><ele>509.0</ele><time>2026-04-22T14:53:26Z</time></trkpt><trkpt lat="45.76222685305811" lon="9.89655857535024"><ele>508.99999999999994</ele><time>2026-04-22T14:53:28Z</time></trkpt><trkpt lat="45.7623189652819" lon="9.89662598567364"><ele>509.0</ele><time>2026-04-22T14:53:30Z</time></trkpt><trkpt lat="45.76241459813019" lon="9.896580622274746"><ele>509.0</ele><time>2026-04-22T14:53:32Z</time></trkpt><trkpt lat="45.76249359894004" lon="9.896535664519282"><ele>509.0</ele><time>2026-04-22T14:53:34Z</time></trkpt><trkpt lat="45.762547824169054" lon="9.896624282871539"><ele>508.99999999999994</ele><time>2026-04-22T14:53:36Z</time></trkpt><trkpt lat="45.76258401127775" lon="9.896699170515928"><ele>509.0</ele><time>2026-04-22T14:53:38Z</time></trkpt><trkpt lat="45.762661007274644" lon="9.89670265786311"><ele>511.71428571428567</ele><time>2026-04-22T14:53:40Z</time></trkpt><trkpt lat="45.76275597791214" lon="9.896688830684637"><ele>514.4285714285714</ele><time>2026-04-22T14:53:43Z</time></trkpt><trkpt lat="45.76279583780146" lon="9.896759536935402"><ele>517.1428571428571</ele><time>2026-04-22T14:53:45Z</time></trkpt><trkpt lat="45.76278425849788" lon="9.896864058957151"><ele>519.8571428571429</ele><time>2026-04-22T14:53:47Z</time></trkpt><trkpt lat="45.76277259968626" lon="9.896970585994616"><ele>522.5714285714286</ele><time>2026-04-22T14:53:49Z</time></trkpt><trkpt lat="45.76279473239531" lon="9.897059892990658"><ele>525.2857142857142</ele><time>2026-04-22T14:53:51Z</time></trkpt><trkpt lat="45.76284382659098" lon="9.897128646249925"><ele>528.0</ele><time>2026-04-22T14:53:53Z</time></trkpt><trkpt lat="45.76290116686965" lon="9.897225065333725"><ele>528.0</ele><time>2026-04-22T14:53:56Z</time></trkpt><trkpt lat="45.762953847228395" lon="9.897319594916578"><ele>528.0</ele><time>2026-04-22T14:53:59Z</time></trkpt><trkpt lat="45.76300164832169" lon="9.897382165656737"><ele>528.0</ele><time>2026-04-22T14:54:01Z</time></trkpt><trkpt lat="45.76306721324068" lon="9.897496509535097"><ele>528.0</ele><time>2026-04-22T14:54:04Z</time></trkpt><trkpt lat="45.76313016248396" lon="9.89756153192188"><ele>528.0</ele><time>2026-04-22T14:54:07Z</time></trkpt><trkpt lat="45.763196961584896" lon="9.897613266638011"><ele>528.0</ele><time>2026-04-22T14:54:10Z</time></trkpt><trkpt lat="45.763271837499" lon="9.8976827990857"><ele>527.1666666666666</ele><time>2026-04-22T14:54:13Z</time></trkpt><trkpt lat="45.763338931396056" lon="9.897757972167081"><ele>526.3333333333334</ele><time>2026-04-22T14:54:16Z</time></trkpt><trkpt lat="45.76338469982041" lon="9.89783729805906"><ele>525.5</ele><time>2026-04-22T14:54:19Z</time></trkpt><trkpt lat="45.76341836832563" lon="9.897919582490776"><ele>524.6666666666667</ele><time>2026-04-22T14:54:22Z</time></trkpt><trkpt lat="45.763447304771496" lon="9.898025101090498"><ele>523.8333333333334</ele><time>2026-04-22T14:54:25Z</time></trkpt><trkpt lat="45.76344270634426" lon="9.898115424472723"><ele>523.0</ele><time>2026-04-22T14:54:27Z</time></trkpt><trkpt lat="45.763428839953306" lon="9.898240304916255"><ele>523.0</ele><time>2026-04-22T14:54:30Z</time></trkpt><trkpt lat="45.763419068640125" lon="9.898367237725067"><ele>523.0</ele><time>2026-04-22T14:54:34Z</time></trkpt><trkpt lat="45.763436580782475" lon="9.898482848136986"><ele>523.0</ele><time>2026-04-22T14:54:37Z</time></trkpt><trkpt lat="45.76344376500178" lon="9.89860992314064"><ele>523.0</ele><time>2026-04-22T14:54:40Z</time></trkpt><trkpt lat="45.76346524066437" lon="9.898696553793776"><ele>523.0</ele><time>2026-04-22T14:54:42Z</time></trkpt><trkpt lat="45.76349155256477" lon="9.898780306404936"><ele>523.0</ele><time>2026-04-22T14:54:44Z</time></trkpt><trkpt lat="45.763534422742865" lon="9.898900103557944"><ele>526.5</ele><time>2026-04-22T14:54:47Z</time></trkpt><trkpt lat="45.76356450877055" lon="9.898991198689979"><ele>530.0</ele><time>2026-04-22T14:54:49Z</time></trkpt><trkpt lat="45.7635862610749" lon="9.899081740567937"><ele>533.5</ele><time>2026-04-22T14:54:51Z</time></trkpt><trkpt lat="45.7636067073421" lon="9.899207538882617"><ele>537.0</ele><time>2026-04-22T14:54:54Z</time></trkpt><trkpt lat="45.76365741883043" lon="9.899321069386783"><ele>540.5</ele><time>2026-04-22T14:54:57Z</time></trkpt><trkpt lat="45.76370243950848" lon="9.899437102400736"><ele>544.0</ele><time>2026-04-22T14:55:00Z</time></trkpt><trkpt lat="45.76372270104826" lon="9.899528907053561"><ele>544.0</ele><time>2026-04-22T14:55:02Z</time></trkpt><trkpt lat="45.763781825632634" lon="9.899634662197432"><ele>544.0</ele><time>2026-04-22T14:55:05Z</time></trkpt><trkpt lat="45.76384801402561" lon="9.899728950926768"><ele>544.0</ele><time>2026-04-22T14:55:08Z</time></trkpt><trkpt lat="45.76391794418763" lon="9.899801351290446"><ele>544.0</ele><time>2026-04-22T14:55:11Z</time></trkpt><trkpt lat="45.76398500058116" lon="9.899864992778008"><ele>544.0</ele><time>2026-04-22T14:55:14Z</time></trkpt><trkpt lat="45.76403630442738" lon="9.899935023982186"><ele>544.0</ele><time>2026-04-22T14:55:17Z</time></trkpt><trkpt lat="45.76408857969859" lon="9.899997097887281"><ele>544.0</ele><time>2026-04-22T14:55:19Z</time></trkpt><trkpt lat="45.76414916559287" lon="9.900057432972416"><ele>544.0</ele><time>2026-04-22T14:55:21Z</time></trkpt><trkpt lat="45.76423276177053" lon="9.900125140085427"><ele>544.0</ele><time>2026-04-22T14:55:24Z</time></trkpt><trkpt lat="45.76430223840417" lon="9.900165642989148"><ele>544.0</ele><time>2026-04-22T14:55:27Z</time></trkpt><trkpt lat="45.764388953947005" lon="9.900204277105479"><ele>544.0</ele><time>2026-04-22T14:55:30Z</time></trkpt><trkpt lat="45.76445981078235" lon="9.900248024226121"><ele>544.0</ele><time>2026-04-22T14:55:33Z</time></trkpt><trkpt lat="45.7645312540164" lon="9.900294969081848"><ele>546.7142857142857</ele><time>2026-04-22T14:55:36Z</time></trkpt><trkpt lat="45.76459134099318" lon="9.900351076168837"><ele>549.4285714285714</ele><time>2026-04-22T14:55:39Z</time></trkpt><trkpt lat="45.76463900568989" lon="9.900417543915434"><ele>552.1428571428571</ele><time>2026-04-22T14:55:42Z</time></trkpt><trkpt lat="45.76470512944602" lon="9.90039384947113"><ele>554.8571428571429</ele><time>2026-04-22T14:55:47Z</time></trkpt><trkpt lat="45.76470427534474" lon="9.900297921941785"><ele>557.5714285714286</ele><time>2026-04-22T14:55:57Z</time></trkpt><trkpt lat="45.76466423190614" lon="9.900191195807079"><ele>560.2857142857142</ele><time>2026-04-22T14:56:01Z</time></trkpt><trkpt lat="45.76464050134393" lon="9.90008973761976"><ele>563.0</ele><time>2026-04-22T14:56:04Z</time></trkpt><trkpt lat="45.76461227660778" lon="9.900008967165492"><ele>564.2857142857142</ele><time>2026-04-22T14:56:07Z</time></trkpt><trkpt lat="45.76459104978281" lon="9.899922288304312"><ele>565.5714285714286</ele><time>2026-04-22T14:56:10Z</time></trkpt><trkpt lat="45.764569644251964" lon="9.89980815088011"><ele>566.8571428571429</ele><time>2026-04-22T14:56:14Z</time></trkpt><trkpt lat="45.76454473822769" lon="9.899699905624319"><ele>568.1428571428571</ele><time>2026-04-22T14:56:17Z</time></trkpt><trkpt lat="45.7645025093685" lon="9.899593702320928"><ele>569.4285714285714</ele><time>2026-04-22T14:56:20Z</time></trkpt><trkpt lat="45.764486556251406" lon="9.89948958457795"><ele>570.7142857142857</ele><time>2026-04-22T14:56:23Z</time></trkpt><trkpt lat="45.76448140284224" lon="9.899399270851246"><ele>572.0</ele><time>2026-04-22T14:56:26Z</time></trkpt><trkpt lat="45.76449893460506" lon="9.89928516653715"><ele>573.2857142857142</ele><time>2026-04-22T14:56:30Z</time></trkpt><trkpt lat="45.76451767986" lon="9.899183211323601"><ele>574.5714285714286</ele><time>2026-04-22T14:56:33Z</time></trkpt><trkpt lat="45.764540025999516" lon="9.899083502955769"><ele>575.8571428571429</ele><time>2026-04-22T14:56:36Z</time></trkpt><trkpt lat="45.764558839699504" lon="9.898993830664004"><ele>577.1428571428571</ele><time>2026-04-22T14:56:39Z</time></trkpt><trkpt lat="45.76459115961036" lon="9.898908157946549"><ele>578.4285714285714</ele><time>2026-04-22T14:56:42Z</time></trkpt><trkpt lat="45.76463368421154" lon="9.898833273970082"><ele>579.7142857142857</ele><time>2026-04-22T14:56:46Z</time></trkpt><trkpt lat="45.764690684030334" lon="9.898750416982553"><ele>581.0</ele><time>2026-04-22T14:56:51Z</time></trkpt><trkpt lat="45.76475500218136" lon="9.89871083517297"><ele>581.0</ele><time>2026-04-22T14:56:55Z</time></trkpt><trkpt lat="45.76479625061137" lon="9.898780580052504"><ele>581.0</ele><time>2026-04-22T14:56:59Z</time></trkpt><trkpt lat="45.764784655695486" lon="9.898889783124417"><ele>581.0</ele><time>2026-04-22T14:57:03Z</time></trkpt><trkpt lat="45.764830301675104" lon="9.89896887687679"><ele>581.0</ele><time>2026-04-22T14:57:07Z</time></trkpt><trkpt lat="45.76488262864078" lon="9.899041015371779"><ele>581.0</ele><time>2026-04-22T14:57:11Z</time></trkpt><trkpt lat="45.76493359736559" lon="9.899111425450783"><ele>581.0</ele><time>2026-04-22T14:57:15Z</time></trkpt><trkpt lat="45.76500090761327" lon="9.899148962349075"><ele>581.0</ele><time>2026-04-22T14:57:20Z</time></trkpt><trkpt lat="45.76506661979145" lon="9.899171212806806"><ele>581.0</ele><time>2026-04-22T14:57:24Z</time></trkpt><trkpt lat="45.76513041166312" lon="9.89918730022475"><ele>581.0</ele><time>2026-04-22T14:57:28Z</time></trkpt><trkpt lat="45.765204235588826" lon="9.89922877333136"><ele>581.0</ele><time>2026-04-22T14:57:33Z</time></trkpt><trkpt lat="45.76526824371614" lon="9.899259766930777"><ele>581.0</ele><time>2026-04-22T14:57:37Z</time></trkpt><trkpt lat="45.765296254299194" lon="9.899167975676107"><ele>581.0</ele><time>2026-04-22T14:57:42Z</time></trkpt><trkpt lat="45.765298546210204" lon="9.899031178053416"><ele>581.0</ele><time>2026-04-22T14:57:47Z</time></trkpt><trkpt lat="45.76536067716718" lon="9.898963220746445"><ele>585.8571428571429</ele><time>2026-04-22T14:57:51Z</time></trkpt><trkpt lat="45.7654113186767" lon="9.898903791627802"><ele>590.7142857142858</ele><time>2026-04-22T14:57:55Z</time></trkpt><trkpt lat="45.76546524569129" lon="9.898852646112198"><ele>595.5714285714286</ele><time>2026-04-22T14:57:59Z</time></trkpt><trkpt lat="45.76552718250939" lon="9.898917928451421"><ele>600.4285714285714</ele><time>2026-04-22T14:58:04Z</time></trkpt><trkpt lat="45.76556102290117" lon="9.899015414403282"><ele>605.2857142857143</ele><time>2026-04-22T14:58:09Z</time></trkpt><trkpt lat="45.76562118754192" lon="9.899058480867666"><ele>610.1428571428571</ele><time>2026-04-22T14:58:13Z</time></trkpt><trkpt lat="45.765687573701356" lon="9.899067276059863"><ele>615.0</ele><time>2026-04-22T14:58:17Z</time></trkpt><trkpt lat="45.76572038473774" lon="9.898979447139865"><ele>615.0</ele><time>2026-04-22T14:58:22Z</time></trkpt><trkpt lat="45.76573694951422" lon="9.898892122907675"><ele>615.0</ele><time>2026-04-22T14:58:26Z</time></trkpt><trkpt lat="45.76578244617378" lon="9.898822020242127"><ele>615.0</ele><time>2026-04-22T14:58:30Z</time></trkpt><trkpt lat="45.76584147353305" lon="9.898781744032343"><ele>615.0</ele><time>2026-04-22T14:58:34Z</time></trkpt><trkpt lat="45.76590596012516" lon="9.898790019530237"><ele>615.0</ele><time>2026-04-22T14:58:39Z</time></trkpt><trkpt lat="45.76592329982615" lon="9.898890103822072"><ele>615.0</ele><time>2026-04-22T14:58:44Z</time></trkpt><trkpt lat="45.765973517296445" lon="9.898978173640934"><ele>615.0</ele><time>2026-04-22T14:59:38Z</time></trkpt><trkpt lat="45.76601300381821" lon="9.899082654608023"><ele>619.5</ele><time>2026-04-22T14:59:42Z</time></trkpt><trkpt lat="45.766067264809315" lon="9.899165310303419"><ele>624.0</ele><time>2026-04-22T14:59:46Z</time></trkpt><trkpt lat="45.76614598817288" lon="9.899219880793144"><ele>628.5</ele><time>2026-04-22T14:59:49Z</time></trkpt><trkpt lat="45.766226591459485" lon="9.899260271821461"><ele>633.0</ele><time>2026-04-22T14:59:52Z</time></trkpt><trkpt lat="45.76630373599985" lon="9.899302185294278"><ele>637.5</ele><time>2026-04-22T14:59:55Z</time></trkpt><trkpt lat="45.76637476667333" lon="9.899335315444933"><ele>642.0</ele><time>2026-04-22T14:59:58Z</time></trkpt><trkpt lat="45.76643772580752" lon="9.899383799788241"><ele>641.9999999999999</ele><time>2026-04-22T15:00:02Z</time></trkpt><trkpt lat="45.76648179160317" lon="9.899456864393317"><ele>642.0</ele><time>2026-04-22T15:00:04Z</time></trkpt><trkpt lat="45.76651597419705" lon="9.89955588955364"><ele>642.0</ele><time>2026-04-22T15:00:06Z</time></trkpt><trkpt lat="45.766547022654315" lon="9.89963829812879"><ele>642.0</ele><time>2026-04-22T15:00:08Z</time></trkpt><trkpt lat="45.76656676818762" lon="9.899725451020824"><ele>642.0</ele><time>2026-04-22T15:00:10Z</time></trkpt><trkpt lat="45.76660506270727" lon="9.899813270523017"><ele>641.9999999999999</ele><time>2026-04-22T15:00:12Z</time></trkpt><trkpt lat="45.76663137875612" lon="9.89989732402762"><ele>642.0</ele><time>2026-04-22T15:00:14Z</time></trkpt><trkpt lat="45.76667714085919" lon="9.899977800034593"><ele>641.9999999999999</ele><time>2026-04-22T15:00:17Z</time></trkpt><trkpt lat="45.76670315676407" lon="9.900067353703054"><ele>642.0</ele><time>2026-04-22T15:00:19Z</time></trkpt><trkpt lat="45.766717591448106" lon="9.900166706673517"><ele>642.0</ele><time>2026-04-22T15:00:22Z</time></trkpt><trkpt lat="45.76672003234204" lon="9.90026211635141"><ele>642.0</ele><time>2026-04-22T15:00:26Z</time></trkpt><trkpt lat="45.76679967254617" lon="9.900299382791333"><ele>642.0</ele><time>2026-04-22T15:00:29Z</time></trkpt><trkpt lat="45.766807695098834" lon="9.900395033908325"><ele>641.9999999999999</ele><time>2026-04-22T15:00:45Z</time></trkpt><trkpt lat="45.76685358472552" lon="9.900508037661108"><ele>642.0</ele><time>2026-04-22T15:00:48Z</time></trkpt><trkpt lat="45.76685844138983" lon="9.900600985932533"><ele>646.2857142857142</ele><time>2026-04-22T15:00:50Z</time></trkpt><trkpt lat="45.76688968913626" lon="9.900706221202682"><ele>650.5714285714286</ele><time>2026-04-22T15:00:53Z</time></trkpt><trkpt lat="45.766902662296474" lon="9.90081420707697"><ele>654.8571428571429</ele><time>2026-04-22T15:00:56Z</time></trkpt><trkpt lat="45.76693243064258" lon="9.90091695201187"><ele>659.1428571428571</ele><time>2026-04-22T15:01:00Z</time></trkpt><trkpt lat="45.766929852360086" lon="9.90101335731047"><ele>663.4285714285714</ele><time>2026-04-22T15:01:02Z</time></trkpt><trkpt lat="45.766908936548994" lon="9.901110135673882"><ele>667.7142857142857</ele><time>2026-04-22T15:01:04Z</time></trkpt><trkpt lat="45.76691622168283" lon="9.90121004359678"><ele>672.0</ele><time>2026-04-22T15:01:06Z</time></trkpt><trkpt lat="45.76692304263678" lon="9.901319109935681"><ele>672.0</ele><time>2026-04-22T15:01:08Z</time></trkpt><trkpt lat="45.766924414566226" lon="9.901434531082195"><ele>672.0</ele><time>2026-04-22T15:01:10Z</time></trkpt><trkpt lat="45.76693682791603" lon="9.901534925511328"><ele>672.0</ele><time>2026-04-22T15:01:12Z</time></trkpt><trkpt lat="45.76696324127642" lon="9.901639897686227"><ele>672.0</ele><time>2026-04-22T15:01:14Z</time></trkpt><trkpt lat="45.76698280180203" lon="9.901765862892427"><ele>672.0</ele><time>2026-04-22T15:01:16Z</time></trkpt><trkpt lat="45.76698831025356" lon="9.90189978302564"><ele>672.0</ele><time>2026-04-22T15:01:18Z</time></trkpt><trkpt lat="45.766998941894165" lon="9.902037290079246"><ele>670.2</ele><time>2026-04-22T15:01:20Z</time></trkpt><trkpt lat="45.76699070773417" lon="9.902215778430564"><ele>668.4000000000001</ele><time>2026-04-22T15:01:22Z</time></trkpt><trkpt lat="45.76698641151101" lon="9.902322810970954"><ele>666.5999999999999</ele><time>2026-04-22T15:01:23Z</time></trkpt><trkpt lat="45.76698702008181" lon="9.902443690691909"><ele>664.8</ele><time>2026-04-22T15:01:24Z</time></trkpt><trkpt lat="45.76698189863058" lon="9.902562984414937"><ele>663.0</ele><time>2026-04-22T15:01:25Z</time></trkpt><trkpt lat="45.76697646862131" lon="9.902685125451619"><ele>662.0</ele><time>2026-04-22T15:01:26Z</time></trkpt><trkpt lat="45.76697261354088" lon="9.902801124542014"><ele>661.0</ele><time>2026-04-22T15:01:27Z</time></trkpt><trkpt lat="45.766964078874196" lon="9.902906290108751"><ele>660.0</ele><time>2026-04-22T15:01:28Z</time></trkpt><trkpt lat="45.7669510630278" lon="9.90300149690746"><ele>659.0</ele><time>2026-04-22T15:01:29Z</time></trkpt><trkpt lat="45.76693188514129" lon="9.903094426261035"><ele>658.0</ele><time>2026-04-22T15:01:30Z</time></trkpt><trkpt lat="45.76691259610013" lon="9.903182690346773"><ele>657.0</ele><time>2026-04-22T15:01:31Z</time></trkpt><trkpt lat="45.76686987567563" lon="9.903342443175323"><ele>655.6</ele><time>2026-04-22T15:01:33Z</time></trkpt><trkpt lat="45.766844422729655" lon="9.90350098403562"><ele>654.2</ele><time>2026-04-22T15:01:35Z</time></trkpt><trkpt lat="45.766825003966694" lon="9.903654388322623"><ele>652.8</ele><time>2026-04-22T15:01:37Z</time></trkpt><trkpt lat="45.76682696375046" lon="9.903789116569898"><ele>651.4</ele><time>2026-04-22T15:01:39Z</time></trkpt><trkpt lat="45.76683932161548" lon="9.903912018231386"><ele>650.0</ele><time>2026-04-22T15:01:41Z</time></trkpt><trkpt lat="45.76686602990268" lon="9.90402609944493"><ele>650.0</ele><time>2026-04-22T15:01:43Z</time></trkpt><trkpt lat="45.76689229567599" lon="9.904145222304058"><ele>650.0</ele><time>2026-04-22T15:01:45Z</time></trkpt><trkpt lat="45.76691554820133" lon="9.904307289458878"><ele>650.0</ele><time>2026-04-22T15:01:47Z</time></trkpt><trkpt lat="45.766922845987985" lon="9.904405650353656"><ele>650.0</ele><time>2026-04-22T15:01:48Z</time></trkpt><trkpt lat="45.76694268245835" lon="9.904524702813411"><ele>650.0</ele><time>2026-04-22T15:01:49Z</time></trkpt><trkpt lat="45.76694571290522" lon="9.904641329663356"><ele>650.0</ele><time>2026-04-22T15:01:50Z</time></trkpt><trkpt lat="45.76695466989763" lon="9.904763577377983"><ele>647.8</ele><time>2026-04-22T15:01:51Z</time></trkpt><trkpt lat="45.766976026344935" lon="9.90488421713262"><ele>645.6</ele><time>2026-04-22T15:01:52Z</time></trkpt><trkpt lat="45.7670078600612" lon="9.904997483273569"><ele>643.4</ele><time>2026-04-22T15:01:53Z</time></trkpt><trkpt lat="45.76706640607065" lon="9.905086297439102"><ele>641.2</ele><time>2026-04-22T15:01:54Z</time></trkpt><trkpt lat="45.76714963227344" lon="9.90515005320635"><ele>639.0</ele><time>2026-04-22T15:01:55Z</time></trkpt><trkpt lat="45.76724760338949" lon="9.905186805605403"><ele>637.2857142857143</ele><time>2026-04-22T15:01:56Z</time></trkpt><trkpt lat="45.767341274241076" lon="9.905214861103854"><ele>635.5714285714286</ele><time>2026-04-22T15:01:57Z</time></trkpt><trkpt lat="45.767404912246086" lon="9.90526711756385"><ele>633.8571428571429</ele><time>2026-04-22T15:01:58Z</time></trkpt><trkpt lat="45.767448386858" lon="9.905334389622757"><ele>632.1428571428571</ele><time>2026-04-22T15:01:59Z</time></trkpt><trkpt lat="45.767480790124864" lon="9.905411937247262"><ele>630.4285714285714</ele><time>2026-04-22T15:02:00Z</time></trkpt><trkpt lat="45.7675105638017" lon="9.905500288663589"><ele>628.7142857142858</ele><time>2026-04-22T15:02:01Z</time></trkpt><trkpt lat="45.76754217837879" lon="9.905580052650624"><ele>627.0</ele><time>2026-04-22T15:02:02Z</time></trkpt><trkpt lat="45.76758092510145" lon="9.905659842171541"><ele>627.0</ele><time>2026-04-22T15:02:03Z</time></trkpt><trkpt lat="45.76765282427246" lon="9.905797562081924"><ele>627.0</ele><time>2026-04-22T15:02:05Z</time></trkpt><trkpt lat="45.76773731329249" lon="9.905910332442986"><ele>627.0</ele><time>2026-04-22T15:02:07Z</time></trkpt><trkpt lat="45.767843982265894" lon="9.906002894849543"><ele>627.0</ele><time>2026-04-22T15:02:09Z</time></trkpt><trkpt lat="45.767903346495686" lon="9.90605694893282"><ele>627.0</ele><time>2026-04-22T15:02:10Z</time></trkpt><trkpt lat="45.767959451844966" lon="9.90610701877355"><ele>628.0</ele><time>2026-04-22T15:02:11Z</time></trkpt><trkpt lat="45.76801870014067" lon="9.90615040528589"><ele>629.0</ele><time>2026-04-22T15:02:12Z</time></trkpt><trkpt lat="45.768072537270676" lon="9.906206204245498"><ele>630.0</ele><time>2026-04-22T15:02:13Z</time></trkpt><trkpt lat="45.7681330062812" lon="9.906268164329056"><ele>631.0</ele><time>2026-04-22T15:02:14Z</time></trkpt><trkpt lat="45.76818523158153" lon="9.906320056490285"><ele>632.0</ele><time>2026-04-22T15:02:15Z</time></trkpt><trkpt lat="45.768242074821494" lon="9.906373720966121"><ele>633.0</ele><time>2026-04-22T15:02:16Z</time></trkpt><trkpt lat="45.76833911329903" lon="9.906463219298157"><ele>633.0</ele><time>2026-04-22T15:02:18Z</time></trkpt><trkpt lat="45.7684322264947" lon="9.906538132091836"><ele>633.0</ele><time>2026-04-22T15:02:20Z</time></trkpt><trkpt lat="45.768514875803454" lon="9.906630377129197"><ele>633.0</ele><time>2026-04-22T15:02:22Z</time></trkpt><trkpt lat="45.76859514335994" lon="9.906735046803087"><ele>633.0</ele><time>2026-04-22T15:02:24Z</time></trkpt><trkpt lat="45.76868484607418" lon="9.906859816808927"><ele>633.0</ele><time>2026-04-22T15:02:26Z</time></trkpt><trkpt lat="45.76873349264854" lon="9.906935685930426"><ele>633.3333333333334</ele><time>2026-04-22T15:02:27Z</time></trkpt><trkpt lat="45.768783840338344" lon="9.907017846079544"><ele>633.6666666666666</ele><time>2026-04-22T15:02:28Z</time></trkpt><trkpt lat="45.768832924484514" lon="9.907099196080827"><ele>634.0</ele><time>2026-04-22T15:02:29Z</time></trkpt><trkpt lat="45.768883231327656" lon="9.907175495212933"><ele>634.3333333333333</ele><time>2026-04-22T15:02:30Z</time></trkpt><trkpt lat="45.768936561907566" lon="9.907257703187652"><ele>634.6666666666666</ele><time>2026-04-22T15:02:31Z</time></trkpt><trkpt lat="45.7689903000669" lon="9.907330253007702"><ele>635.0</ele><time>2026-04-22T15:02:32Z</time></trkpt><trkpt lat="45.76904505403514" lon="9.90740966077585"><ele>635.0</ele><time>2026-04-22T15:02:33Z</time></trkpt><trkpt lat="45.76909720034707" lon="9.907490058337803"><ele>635.0</ele><time>2026-04-22T15:02:34Z</time></trkpt><trkpt lat="45.769153590453456" lon="9.90757401197027"><ele>635.0</ele><time>2026-04-22T15:02:35Z</time></trkpt><trkpt lat="45.769216026971804" lon="9.907645100141986"><ele>635.0</ele><time>2026-04-22T15:02:36Z</time></trkpt><trkpt lat="45.76928732762861" lon="9.9077219628276"><ele>635.0</ele><time>2026-04-22T15:02:37Z</time></trkpt><trkpt lat="45.76935626308467" lon="9.90779287403881"><ele>635.0</ele><time>2026-04-22T15:02:38Z</time></trkpt><trkpt lat="45.76943571534635" lon="9.907876682411944"><ele>635.6</ele><time>2026-04-22T15:02:39Z</time></trkpt><trkpt lat="45.769511874020864" lon="9.907959690331012"><ele>636.2</ele><time>2026-04-22T15:02:40Z</time></trkpt><trkpt lat="45.76958064292362" lon="9.908052559149109"><ele>636.8</ele><time>2026-04-22T15:02:41Z</time></trkpt><trkpt lat="45.76964902954909" lon="9.908142741019132"><ele>637.4</ele><time>2026-04-22T15:02:42Z</time></trkpt><trkpt lat="45.7697160038449" lon="9.908235134581084"><ele>638.0</ele><time>2026-04-22T15:02:43Z</time></trkpt><trkpt lat="45.76978287846012" lon="9.908324003990957"><ele>634.1666666666666</ele><time>2026-04-22T15:02:44Z</time></trkpt><trkpt lat="45.76984038258731" lon="9.90841081449645"><ele>630.3333333333333</ele><time>2026-04-22T15:02:45Z</time></trkpt><trkpt lat="45.76989496679503" lon="9.908491265163327"><ele>626.5</ele><time>2026-04-22T15:02:46Z</time></trkpt><trkpt lat="45.76994900175907" lon="9.908564892295443"><ele>622.6666666666666</ele><time>2026-04-22T15:02:47Z</time></trkpt><trkpt lat="45.769996116469116" lon="9.908636542594792"><ele>618.8333333333334</ele><time>2026-04-22T15:02:48Z</time></trkpt><trkpt lat="45.77004025549582" lon="9.908707178178053"><ele>615.0</ele><time>2026-04-22T15:02:49Z</time></trkpt><trkpt lat="45.77011820296143" lon="9.90884530184518"><ele>615.0</ele><time>2026-04-22T15:02:51Z</time></trkpt><trkpt lat="45.77019124896309" lon="9.90898273492411"><ele>615.0</ele><time>2026-04-22T15:02:53Z</time></trkpt><trkpt lat="45.77026643175986" lon="9.909112864962776"><ele>615.0</ele><time>2026-04-22T15:02:55Z</time></trkpt><trkpt lat="45.77035217002139" lon="9.909233368679855"><ele>615.0</ele><time>2026-04-22T15:02:57Z</time></trkpt><trkpt lat="45.77042034193871" lon="9.909353085814613"><ele>619.75</ele><time>2026-04-22T15:02:59Z</time></trkpt><trkpt lat="45.77048743749063" lon="9.909476375119537"><ele>624.5</ele><time>2026-04-22T15:03:01Z</time></trkpt><trkpt lat="45.770560354230085" lon="9.909614644481598"><ele>629.25</ele><time>2026-04-22T15:03:03Z</time></trkpt><trkpt lat="45.770617375683294" lon="9.909755664475595"><ele>634.0</ele><time>2026-04-22T15:03:05Z</time></trkpt><trkpt lat="45.77068865302834" lon="9.909910657848325"><ele>634.0</ele><time>2026-04-22T15:03:07Z</time></trkpt><trkpt lat="45.770764674292835" lon="9.910044808020643"><ele>634.0</ele><time>2026-04-22T15:03:09Z</time></trkpt><trkpt lat="45.770847056599564" lon="9.910158001430004"><ele>634.0</ele><time>2026-04-22T15:03:11Z</time></trkpt><trkpt lat="45.77091685522787" lon="9.910290181469726"><ele>634.0</ele><time>2026-04-22T15:03:13Z</time></trkpt><trkpt lat="45.77100606357421" lon="9.910417233811105"><ele>636.0</ele><time>2026-04-22T15:03:15Z</time></trkpt><trkpt lat="45.77108912960359" lon="9.910539396997914"><ele>638.0</ele><time>2026-04-22T15:03:17Z</time></trkpt><trkpt lat="45.77113201364975" lon="9.910609255916118"><ele>640.0</ele><time>2026-04-22T15:03:18Z</time></trkpt><trkpt lat="45.77116750595148" lon="9.910685265643236"><ele>642.0</ele><time>2026-04-22T15:03:19Z</time></trkpt><trkpt lat="45.77122535976124" lon="9.910841299458383"><ele>644.0</ele><time>2026-04-22T15:03:21Z</time></trkpt><trkpt lat="45.77125294395111" lon="9.910926289196446"><ele>646.0</ele><time>2026-04-22T15:03:22Z</time></trkpt><trkpt lat="45.771277594007465" lon="9.911013135665451"><ele>646.0000000000001</ele><time>2026-04-22T15:03:23Z</time></trkpt><trkpt lat="45.771301864333715" lon="9.911099067605832"><ele>646.0</ele><time>2026-04-22T15:03:24Z</time></trkpt><trkpt lat="45.77132597613955" lon="9.911188020188057"><ele>646.0</ele><time>2026-04-22T15:03:25Z</time></trkpt><trkpt lat="45.771343181203115" lon="9.91127961428255"><ele>646.0</ele><time>2026-04-22T15:03:26Z</time></trkpt><trkpt lat="45.771355928266644" lon="9.911374817239459"><ele>646.0</ele><time>2026-04-22T15:03:27Z</time></trkpt><trkpt lat="45.771361614862464" lon="9.911473689868483"><ele>646.0000000000001</ele><time>2026-04-22T15:03:28Z</time></trkpt><trkpt lat="45.77136981420882" lon="9.911577628486373"><ele>646.0</ele><time>2026-04-22T15:03:29Z</time></trkpt><trkpt lat="45.77137913955828" lon="9.911682983073753"><ele>643.8333333333334</ele><time>2026-04-22T15:03:30Z</time></trkpt><trkpt lat="45.771391105196884" lon="9.91178348311632"><ele>641.6666666666667</ele><time>2026-04-22T15:03:31Z</time></trkpt><trkpt lat="45.7714231330389" lon="9.911924878135778"><ele>639.5</ele><time>2026-04-22T15:03:33Z</time></trkpt><trkpt lat="45.77146782241763" lon="9.912023892634489"><ele>637.3333333333334</ele><time>2026-04-22T15:03:35Z</time></trkpt><trkpt lat="45.771513477003055" lon="9.912133063344873"><ele>635.1666666666666</ele><time>2026-04-22T15:03:38Z</time></trkpt><trkpt lat="45.77156034453943" lon="9.912236291044003"><ele>633.0</ele><time>2026-04-22T15:03:41Z</time></trkpt><trkpt lat="45.77159486842982" lon="9.912312562628427"><ele>633.0</ele><time>2026-04-22T15:03:43Z</time></trkpt><trkpt lat="45.7716626394702" lon="9.912292215113279"><ele>633.0</ele><time>2026-04-22T15:03:46Z</time></trkpt><trkpt lat="45.771657138571804" lon="9.912135228860878"><ele>633.0</ele><time>2026-04-22T15:03:49Z</time></trkpt><trkpt lat="45.77165361005809" lon="9.91200043650679"><ele>633.0</ele><time>2026-04-22T15:03:51Z</time></trkpt><trkpt lat="45.77163745310659" lon="9.911842071393357"><ele>633.0</ele><time>2026-04-22T15:03:53Z</time></trkpt><trkpt lat="45.771624265706215" lon="9.911750580863908"><ele>636.25</ele><time>2026-04-22T15:03:54Z</time></trkpt><trkpt lat="45.77160278905194" lon="9.911578889105611"><ele>639.5</ele><time>2026-04-22T15:03:56Z</time></trkpt><trkpt lat="45.77157756270847" lon="9.91142078110091"><ele>642.75</ele><time>2026-04-22T15:03:58Z</time></trkpt><trkpt lat="45.771556473370346" lon="9.911253895330463"><ele>646.0</ele><time>2026-04-22T15:04:00Z</time></trkpt><trkpt lat="45.77153011844954" lon="9.911079386707192"><ele>646.0</ele><time>2026-04-22T15:04:02Z</time></trkpt><trkpt lat="45.771501452001516" lon="9.910925065744099"><ele>646.0</ele><time>2026-04-22T15:04:04Z</time></trkpt><trkpt lat="45.77144827625954" lon="9.910777846725939"><ele>646.0</ele><time>2026-04-22T15:04:06Z</time></trkpt><trkpt lat="45.771381061323716" lon="9.910640701387635"><ele>646.0</ele><time>2026-04-22T15:04:08Z</time></trkpt><trkpt lat="45.771315216431475" lon="9.910505919390358"><ele>649.0</ele><time>2026-04-22T15:04:10Z</time></trkpt><trkpt lat="45.77125525315439" lon="9.910368268092778"><ele>652.0</ele><time>2026-04-22T15:04:12Z</time></trkpt><trkpt lat="45.77119555250427" lon="9.91023088866396"><ele>655.0</ele><time>2026-04-22T15:04:14Z</time></trkpt><trkpt lat="45.77113346253322" lon="9.910092098514744"><ele>658.0</ele><time>2026-04-22T15:04:16Z</time></trkpt><trkpt lat="45.77107556785777" lon="9.909946765627447"><ele>652.0</ele><time>2026-04-22T15:04:18Z</time></trkpt><trkpt lat="45.771017486972724" lon="9.909812140008922"><ele>646.0</ele><time>2026-04-22T15:04:20Z</time></trkpt><trkpt lat="45.77095146342923" lon="9.909672957618293"><ele>640.0</ele><time>2026-04-22T15:04:22Z</time></trkpt><trkpt lat="45.77089969532826" lon="9.909534189006026"><ele>634.0</ele><time>2026-04-22T15:04:24Z</time></trkpt><trkpt lat="45.77083678439647" lon="9.909396916520693"><ele>634.0</ele><time>2026-04-22T15:04:26Z</time></trkpt><trkpt lat="45.77077244017671" lon="9.909257934236258"><ele>634.0</ele><time>2026-04-22T15:04:28Z</time></trkpt><trkpt lat="45.770702116148364" lon="9.909135646091054"><ele>634.0</ele><time>2026-04-22T15:04:30Z</time></trkpt><trkpt lat="45.77063209799739" lon="9.909007372775811"><ele>634.0</ele><time>2026-04-22T15:04:32Z</time></trkpt><trkpt lat="45.770557217933245" lon="9.908882362237415"><ele>638.25</ele><time>2026-04-22T15:04:34Z</time></trkpt><trkpt lat="45.77049040361299" lon="9.908743275608607"><ele>642.5</ele><time>2026-04-22T15:04:36Z</time></trkpt><trkpt lat="45.770411914832735" lon="9.908627470549309"><ele>646.75</ele><time>2026-04-22T15:04:38Z</time></trkpt><trkpt lat="45.770334367784514" lon="9.90851517691654"><ele>651.0</ele><time>2026-04-22T15:04:40Z</time></trkpt><trkpt lat="45.77037985571645" lon="9.908357986757474"><ele>651.0</ele><time>2026-04-22T15:04:42Z</time></trkpt><trkpt lat="45.77044440456024" lon="9.908343543251275"><ele>651.0</ele><time>2026-04-22T15:04:43Z</time></trkpt><trkpt lat="45.77053562152199" lon="9.908444655951083"><ele>651.0</ele><time>2026-04-22T15:04:45Z</time></trkpt><trkpt lat="45.77055322651054" lon="9.908594052083847"><ele>651.0</ele><time>2026-04-22T15:04:47Z</time></trkpt><trkpt lat="45.77059118054772" lon="9.908679147744307"><ele>651.0</ele><time>2026-04-22T15:04:49Z</time></trkpt><trkpt lat="45.77064134689529" lon="9.908771035724568"><ele>651.0</ele><time>2026-04-22T15:04:51Z</time></trkpt><trkpt lat="45.77070510669254" lon="9.90887786176569"><ele>651.0</ele><time>2026-04-22T15:04:53Z</time></trkpt><trkpt lat="45.77080470158494" lon="9.908944797399078"><ele>651.0</ele><time>2026-04-22T15:04:55Z</time></trkpt><trkpt lat="45.77090575769634" lon="9.908983934765075"><ele>651.0</ele><time>2026-04-22T15:04:57Z</time></trkpt><trkpt lat="45.771008724760435" lon="9.908982813452889"><ele>651.0</ele><time>2026-04-22T15:04:59Z</time></trkpt><trkpt lat="45.7711038799716" lon="9.908932356442357"><ele>651.0</ele><time>2026-04-22T15:05:01Z</time></trkpt><trkpt lat="45.771183519242605" lon="9.908852286304894"><ele>653.5</ele><time>2026-04-22T15:05:03Z</time></trkpt><trkpt lat="45.771247304175965" lon="9.9087449067597"><ele>656.0</ele><time>2026-04-22T15:05:05Z</time></trkpt><trkpt lat="45.77129622906206" lon="9.908639066767222"><ele>658.5</ele><time>2026-04-22T15:05:07Z</time></trkpt><trkpt lat="45.771325161816925" lon="9.908537906669602"><ele>661.0</ele><time>2026-04-22T15:05:09Z</time></trkpt><trkpt lat="45.77136748431264" lon="9.90844818240668"><ele>663.5</ele><time>2026-04-22T15:05:12Z</time></trkpt><trkpt lat="45.77142229700819" lon="9.90838752488378"><ele>666.0</ele><time>2026-04-22T15:05:15Z</time></trkpt><trkpt lat="45.77147616652487" lon="9.908331527835587"><ele>666.0</ele><time>2026-04-22T15:05:17Z</time></trkpt><trkpt lat="45.771545691309534" lon="9.908292276066158"><ele>666.0</ele><time>2026-04-22T15:05:19Z</time></trkpt><trkpt lat="45.771616440943085" lon="9.908249973651394"><ele>666.0</ele><time>2026-04-22T15:05:21Z</time></trkpt><trkpt lat="45.77167109893242" lon="9.908202774405874"><ele>666.0</ele><time>2026-04-22T15:05:23Z</time></trkpt><trkpt lat="45.77170404375629" lon="9.908088440896801"><ele>666.0</ele><time>2026-04-22T15:05:26Z</time></trkpt><trkpt lat="45.77173043921123" lon="9.907985910815714"><ele>666.0</ele><time>2026-04-22T15:05:28Z</time></trkpt><trkpt lat="45.77176156931767" lon="9.907890527057988"><ele>666.0</ele><time>2026-04-22T15:05:30Z</time></trkpt><trkpt lat="45.771766957593215" lon="9.90779164522847"><ele>666.0</ele><time>2026-04-22T15:05:32Z</time></trkpt><trkpt lat="45.77177773975924" lon="9.907701728983389"><ele>666.0</ele><time>2026-04-22T15:05:34Z</time></trkpt><trkpt lat="45.771759300471246" lon="9.9076141405749"><ele>666.0</ele><time>2026-04-22T15:05:38Z</time></trkpt><trkpt lat="45.771717175788254" lon="9.907699733098005"><ele>666.0</ele><time>2026-04-22T15:05:44Z</time></trkpt><trkpt lat="45.771708894872155" lon="9.907832734158594"><ele>666.0</ele><time>2026-04-22T15:05:46Z</time></trkpt><trkpt lat="45.77173657045459" lon="9.907982900795895"><ele>666.0</ele><time>2026-04-22T15:05:48Z</time></trkpt><trkpt lat="45.771807626609494" lon="9.908117330524616"><ele>666.0</ele><time>2026-04-22T15:05:50Z</time></trkpt><trkpt lat="45.771887772961676" lon="9.908181559713277"><ele>666.0</ele><time>2026-04-22T15:05:52Z</time></trkpt><trkpt lat="45.77201746340129" lon="9.908196827895768"><ele>666.0</ele><time>2026-04-22T15:05:54Z</time></trkpt><trkpt lat="45.772087036574284" lon="9.90820627469825"><ele>666.0</ele><time>2026-04-22T15:05:55Z</time></trkpt><trkpt lat="45.772158018755945" lon="9.908229484551532"><ele>665.1666666666666</ele><time>2026-04-22T15:05:56Z</time></trkpt><trkpt lat="45.77222915683706" lon="9.90827301815969"><ele>664.3333333333334</ele><time>2026-04-22T15:05:57Z</time></trkpt><trkpt lat="45.77229133176724" lon="9.90833227348072"><ele>663.5</ele><time>2026-04-22T15:05:58Z</time></trkpt><trkpt lat="45.772354602466244" lon="9.908398205653295"><ele>662.6666666666667</ele><time>2026-04-22T15:05:59Z</time></trkpt><trkpt lat="45.7724129765856" lon="9.908474499831254"><ele>661.8333333333334</ele><time>2026-04-22T15:06:00Z</time></trkpt><trkpt lat="45.772476801371255" lon="9.90853749357247"><ele>661.0</ele><time>2026-04-22T15:06:01Z</time></trkpt><trkpt lat="45.7725372984401" lon="9.908611352883387"><ele>663.8333333333334</ele><time>2026-04-22T15:06:02Z</time></trkpt><trkpt lat="45.77259633886781" lon="9.9086923434657"><ele>666.6666666666667</ele><time>2026-04-22T15:06:03Z</time></trkpt><trkpt lat="45.7726735724236" lon="9.908776343207514"><ele>669.5</ele><time>2026-04-22T15:06:04Z</time></trkpt><trkpt lat="45.77273274635723" lon="9.90885123891878"><ele>672.3333333333334</ele><time>2026-04-22T15:06:05Z</time></trkpt><trkpt lat="45.77279004922479" lon="9.90893285800931"><ele>675.1666666666666</ele><time>2026-04-22T15:06:06Z</time></trkpt><trkpt lat="45.77283603145235" lon="9.909018457884233"><ele>678.0</ele><time>2026-04-22T15:06:07Z</time></trkpt><trkpt lat="45.772876075153235" lon="9.909102144634504"><ele>678.4</ele><time>2026-04-22T15:06:08Z</time></trkpt><trkpt lat="45.773009930668024" lon="9.909152916148926"><ele>678.8</ele><time>2026-04-22T15:06:10Z</time></trkpt><trkpt lat="45.773082421381815" lon="9.909106360786858"><ele>679.2</ele><time>2026-04-22T15:06:11Z</time></trkpt><trkpt lat="45.77314206144828" lon="9.909024063014963"><ele>679.6</ele><time>2026-04-22T15:06:12Z</time></trkpt><trkpt lat="45.773136400131975" lon="9.90890091015209"><ele>680.0</ele><time>2026-04-22T15:06:13Z</time></trkpt><trkpt lat="45.7731117070856" lon="9.908796734546758"><ele>680.0</ele><time>2026-04-22T15:06:14Z</time></trkpt><trkpt lat="45.773062468464836" lon="9.908716360443131"><ele>680.0</ele><time>2026-04-22T15:06:15Z</time></trkpt><trkpt lat="45.772991392217286" lon="9.908638683007474"><ele>680.0</ele><time>2026-04-22T15:06:16Z</time></trkpt><trkpt lat="45.772928262454435" lon="9.908568012956374"><ele>680.0</ele><time>2026-04-22T15:06:17Z</time></trkpt><trkpt lat="45.77289951891148" lon="9.90846648190747"><ele>680.0</ele><time>2026-04-22T15:06:18Z</time></trkpt><trkpt lat="45.77285779365177" lon="9.90836439418541"><ele>680.0</ele><time>2026-04-22T15:06:19Z</time></trkpt><trkpt lat="45.77282062196404" lon="9.90825614924948"><ele>680.6666666666666</ele><time>2026-04-22T15:06:20Z</time></trkpt><trkpt lat="45.772777582958405" lon="9.908148109757848"><ele>681.3333333333333</ele><time>2026-04-22T15:06:21Z</time></trkpt><trkpt lat="45.77273813646197" lon="9.908044538944315"><ele>682.0</ele><time>2026-04-22T15:06:22Z</time></trkpt><trkpt lat="45.772678981452046" lon="9.907947538999387"><ele>682.6666666666666</ele><time>2026-04-22T15:06:23Z</time></trkpt><trkpt lat="45.772619538714906" lon="9.907848226111552"><ele>683.3333333333334</ele><time>2026-04-22T15:06:24Z</time></trkpt><trkpt lat="45.772556385154935" lon="9.907751865757911"><ele>684.0</ele><time>2026-04-22T15:06:25Z</time></trkpt><trkpt lat="45.77249357766183" lon="9.907652337331495"><ele>678.8000000000001</ele><time>2026-04-22T15:06:26Z</time></trkpt><trkpt lat="45.772429462799465" lon="9.907551419826753"><ele>673.6</ele><time>2026-04-22T15:06:27Z</time></trkpt><trkpt lat="45.77237564469491" lon="9.907433800573978"><ele>668.4</ele><time>2026-04-22T15:06:28Z</time></trkpt><trkpt lat="45.772328790628464" lon="9.907305801087567"><ele>663.2</ele><time>2026-04-22T15:06:29Z</time></trkpt><trkpt lat="45.77228794604026" lon="9.907170350832331"><ele>658.0</ele><time>2026-04-22T15:06:30Z</time></trkpt><trkpt lat="45.772244087563166" lon="9.907027361035246"><ele>658.0</ele><time>2026-04-22T15:06:31Z</time></trkpt><trkpt lat="45.77221810699992" lon="9.906886979462767"><ele>658.0</ele><time>2026-04-22T15:06:32Z</time></trkpt><trkpt lat="45.77218630608759" lon="9.906740492500715"><ele>658.0</ele><time>2026-04-22T15:06:33Z</time></trkpt><trkpt lat="45.772148322504314" lon="9.906589528828968"><ele>658.0</ele><time>2026-04-22T15:06:34Z</time></trkpt><trkpt lat="45.772116546538975" lon="9.906441496417163"><ele>658.0</ele><time>2026-04-22T15:06:35Z</time></trkpt><trkpt lat="45.772085703676424" lon="9.906291422355487"><ele>658.4</ele><time>2026-04-22T15:06:36Z</time></trkpt><trkpt lat="45.77204721616118" lon="9.90614044002976"><ele>658.8</ele><time>2026-04-22T15:06:37Z</time></trkpt><trkpt lat="45.77201735927091" lon="9.905994602603705"><ele>659.2</ele><time>2026-04-22T15:06:38Z</time></trkpt><trkpt lat="45.77198546630272" lon="9.905839027124532"><ele>659.6</ele><time>2026-04-22T15:06:39Z</time></trkpt><trkpt lat="45.77195461285772" lon="9.905697705729045"><ele>660.0</ele><time>2026-04-22T15:06:40Z</time></trkpt><trkpt lat="45.77190511978082" lon="9.905540977555221"><ele>657.75</ele><time>2026-04-22T15:06:41Z</time></trkpt><trkpt lat="45.77185551129228" lon="9.905396112751465"><ele>655.5</ele><time>2026-04-22T15:06:42Z</time></trkpt><trkpt lat="45.771788096030775" lon="9.905268042133054"><ele>653.25</ele><time>2026-04-22T15:06:43Z</time></trkpt><trkpt lat="45.77171742170138" lon="9.905149042373804"><ele>651.0</ele><time>2026-04-22T15:06:44Z</time></trkpt><trkpt lat="45.771629991808304" lon="9.905033909573163"><ele>649.75</ele><time>2026-04-22T15:06:45Z</time></trkpt><trkpt lat="45.77154913337192" lon="9.904920098737964"><ele>648.5</ele><time>2026-04-22T15:06:46Z</time></trkpt><trkpt lat="45.77147028644417" lon="9.904799593730564"><ele>647.25</ele><time>2026-04-22T15:06:47Z</time></trkpt><trkpt lat="45.771394282124255" lon="9.904677803527349"><ele>646.0</ele><time>2026-04-22T15:06:48Z</time></trkpt><trkpt lat="45.77131736685675" lon="9.904555240488811"><ele>646.0</ele><time>2026-04-22T15:06:49Z</time></trkpt><trkpt lat="45.77124562697822" lon="9.904428563429109"><ele>646.0</ele><time>2026-04-22T15:06:50Z</time></trkpt><trkpt lat="45.771182936944186" lon="9.904289193865205"><ele>646.0</ele><time>2026-04-22T15:06:51Z</time></trkpt><trkpt lat="45.77112444687751" lon="9.904144498246763"><ele>646.0</ele><time>2026-04-22T15:06:52Z</time></trkpt><trkpt lat="45.77106805048247" lon="9.903999724695838"><ele>642.75</ele><time>2026-04-22T15:06:53Z</time></trkpt><trkpt lat="45.771011752344606" lon="9.90385374512309"><ele>639.5</ele><time>2026-04-22T15:06:54Z</time></trkpt><trkpt lat="45.77095276118309" lon="9.90371060296138"><ele>636.25</ele><time>2026-04-22T15:06:55Z</time></trkpt><trkpt lat="45.77089288374299" lon="9.903573545397196"><ele>633.0</ele><time>2026-04-22T15:06:56Z</time></trkpt><trkpt lat="45.77083762539553" lon="9.903417964882982"><ele>633.0</ele><time>2026-04-22T15:06:57Z</time></trkpt><trkpt lat="45.77077989529055" lon="9.903270202912022"><ele>633.0</ele><time>2026-04-22T15:06:58Z</time></trkpt><trkpt lat="45.77072238342301" lon="9.903122835028604"><ele>633.0</ele><time>2026-04-22T15:06:59Z</time></trkpt><trkpt lat="45.770667895675736" lon="9.902972468543147"><ele>633.0</ele><time>2026-04-22T15:07:00Z</time></trkpt><trkpt lat="45.77060657047568" lon="9.902819071364922"><ele>633.0</ele><time>2026-04-22T15:07:01Z</time></trkpt><trkpt lat="45.77054137293413" lon="9.902676864776659"><ele>633.0</ele><time>2026-04-22T15:07:02Z</time></trkpt><trkpt lat="45.770491747341566" lon="9.90250918057182"><ele>633.0</ele><time>2026-04-22T15:07:03Z</time></trkpt><trkpt lat="45.7704312547532" lon="9.90236416555472"><ele>633.0</ele><time>2026-04-22T15:07:04Z</time></trkpt><trkpt lat="45.77037814886542" lon="9.902205482909414"><ele>635.25</ele><time>2026-04-22T15:07:05Z</time></trkpt><trkpt lat="45.77032972141345" lon="9.902042705835965"><ele>637.5</ele><time>2026-04-22T15:07:06Z</time></trkpt><trkpt lat="45.77028720884298" lon="9.90188067298464"><ele>639.75</ele><time>2026-04-22T15:07:07Z</time></trkpt><trkpt lat="45.770266304564856" lon="9.901715457676403"><ele>642.0</ele><time>2026-04-22T15:07:08Z</time></trkpt><trkpt lat="45.770241085465805" lon="9.90154250343549"><ele>645.5</ele><time>2026-04-22T15:07:09Z</time></trkpt><trkpt lat="45.770213363449066" lon="9.901377233688077"><ele>649.0</ele><time>2026-04-22T15:07:10Z</time></trkpt><trkpt lat="45.770189003316986" lon="9.901203127894627"><ele>652.5</ele><time>2026-04-22T15:07:11Z</time></trkpt><trkpt lat="45.77015999830403" lon="9.901028239718002"><ele>656.0</ele><time>2026-04-22T15:07:12Z</time></trkpt><trkpt lat="45.77012757077102" lon="9.900853751987722"><ele>646.0</ele><time>2026-04-22T15:07:13Z</time></trkpt><trkpt lat="45.77009270800404" lon="9.900677144194717"><ele>636.0</ele><time>2026-04-22T15:07:14Z</time></trkpt><trkpt lat="45.770072212062956" lon="9.900505495480475"><ele>626.0</ele><time>2026-04-22T15:07:15Z</time></trkpt><trkpt lat="45.77004843912028" lon="9.900331450941831"><ele>616.0</ele><time>2026-04-22T15:07:16Z</time></trkpt><trkpt lat="45.77002164355113" lon="9.900156806211452"><ele>615.75</ele><time>2026-04-22T15:07:17Z</time></trkpt><trkpt lat="45.76999665118661" lon="9.899981754774757"><ele>615.5</ele><time>2026-04-22T15:07:18Z</time></trkpt><trkpt lat="45.76996976351995" lon="9.899810264917807"><ele>615.25</ele><time>2026-04-22T15:07:19Z</time></trkpt><trkpt lat="45.76994878447817" lon="9.89963575535353"><ele>615.0</ele><time>2026-04-22T15:07:20Z</time></trkpt><trkpt lat="45.769933322409706" lon="9.899462761178768"><ele>615.0</ele><time>2026-04-22T15:07:21Z</time></trkpt><trkpt lat="45.76993596595893" lon="9.89928977792521"><ele>615.0</ele><time>2026-04-22T15:07:22Z</time></trkpt><trkpt lat="45.76995421105651" lon="9.899120243866237"><ele>615.0</ele><time>2026-04-22T15:07:23Z</time></trkpt><trkpt lat="45.76998258744824" lon="9.89895170563521"><ele>615.0</ele><time>2026-04-22T15:07:24Z</time></trkpt><trkpt lat="45.770016874387245" lon="9.898788188654096"><ele>614.0</ele><time>2026-04-22T15:07:25Z</time></trkpt><trkpt lat="45.77004951573147" lon="9.89862626943483"><ele>613.0</ele><time>2026-04-22T15:07:26Z</time></trkpt><trkpt lat="45.7700893249677" lon="9.898468007652388"><ele>612.0</ele><time>2026-04-22T15:07:27Z</time></trkpt><trkpt lat="45.7701196262781" lon="9.898306603441272"><ele>611.0</ele><time>2026-04-22T15:07:28Z</time></trkpt><trkpt lat="45.77016309826554" lon="9.89815013747996"><ele>615.0</ele><time>2026-04-22T15:07:29Z</time></trkpt><trkpt lat="45.770205006000666" lon="9.898000341039248"><ele>619.0</ele><time>2026-04-22T15:07:30Z</time></trkpt><trkpt lat="45.77024996370447" lon="9.897847962454767"><ele>623.0</ele><time>2026-04-22T15:07:31Z</time></trkpt><trkpt lat="45.770297088422424" lon="9.897698436711654"><ele>627.0</ele><time>2026-04-22T15:07:32Z</time></trkpt><trkpt lat="45.770346089220595" lon="9.897555319915742"><ele>627.0</ele><time>2026-04-22T15:07:33Z</time></trkpt><trkpt lat="45.770396204474785" lon="9.8974133149319"><ele>627.0</ele><time>2026-04-22T15:07:34Z</time></trkpt><trkpt lat="45.7704426929648" lon="9.897272798055171"><ele>627.0</ele><time>2026-04-22T15:07:35Z</time></trkpt><trkpt lat="45.770493208251935" lon="9.897136303648814"><ele>627.0</ele><time>2026-04-22T15:07:36Z</time></trkpt><trkpt lat="45.77055486166752" lon="9.897011465016996"><ele>627.0</ele><time>2026-04-22T15:07:37Z</time></trkpt><trkpt lat="45.770618546105176" lon="9.89689219066361"><ele>627.0</ele><time>2026-04-22T15:07:38Z</time></trkpt><trkpt lat="45.770681076897134" lon="9.896774186585763"><ele>627.0</ele><time>2026-04-22T15:07:39Z</time></trkpt><trkpt lat="45.77073976361047" lon="9.896657149803511"><ele>627.0</ele><time>2026-04-22T15:07:40Z</time></trkpt><trkpt lat="45.770802508100495" lon="9.896544465664864"><ele>627.0</ele><time>2026-04-22T15:07:41Z</time></trkpt><trkpt lat="45.77087155757473" lon="9.896446499105378"><ele>627.0</ele><time>2026-04-22T15:07:42Z</time></trkpt><trkpt lat="45.770946823957274" lon="9.896358602322895"><ele>628.2</ele><time>2026-04-22T15:07:43Z</time></trkpt><trkpt lat="45.77103056030756" lon="9.896291336953375"><ele>629.4000000000001</ele><time>2026-04-22T15:07:44Z</time></trkpt><trkpt lat="45.77111546304541" lon="9.896226073713299"><ele>630.5999999999999</ele><time>2026-04-22T15:07:45Z</time></trkpt><trkpt lat="45.771197883088774" lon="9.896160782832519"><ele>631.8</ele><time>2026-04-22T15:07:46Z</time></trkpt><trkpt lat="45.77127842725926" lon="9.896096818613744"><ele>633.0</ele><time>2026-04-22T15:07:47Z</time></trkpt><trkpt lat="45.77135994558446" lon="9.896036927625438"><ele>633.0</ele><time>2026-04-22T15:07:48Z</time></trkpt><trkpt lat="45.77143796555294" lon="9.895974194588755"><ele>633.0</ele><time>2026-04-22T15:07:49Z</time></trkpt><trkpt lat="45.77151450296907" lon="9.895907638094396"><ele>633.0</ele><time>2026-04-22T15:07:50Z</time></trkpt><trkpt lat="45.77159305755292" lon="9.895848434730434"><ele>633.0</ele><time>2026-04-22T15:07:51Z</time></trkpt><trkpt lat="45.77167098078478" lon="9.895784881018526"><ele>633.0</ele><time>2026-04-22T15:07:52Z</time></trkpt><trkpt lat="45.771750154244884" lon="9.895729133598174"><ele>633.0</ele><time>2026-04-22T15:07:53Z</time></trkpt><trkpt lat="45.7718229972818" lon="9.895663466726472"><ele>631.0</ele><time>2026-04-22T15:07:54Z</time></trkpt><trkpt lat="45.77189709198101" lon="9.895593468997586"><ele>629.0</ele><time>2026-04-22T15:07:55Z</time></trkpt><trkpt lat="45.771969541748526" lon="9.895519784817187"><ele>627.0</ele><time>2026-04-22T15:07:56Z</time></trkpt><trkpt lat="45.772044127578894" lon="9.895442523321472"><ele>625.0</ele><time>2026-04-22T15:07:57Z</time></trkpt><trkpt lat="45.772111277221825" lon="9.895360020079128"><ele>623.0</ele><time>2026-04-22T15:07:58Z</time></trkpt><trkpt lat="45.77218316430719" lon="9.895273210246872"><ele>623.0</ele><time>2026-04-22T15:07:59Z</time></trkpt><trkpt lat="45.77225639773572" lon="9.89519142068759"><ele>623.0</ele><time>2026-04-22T15:08:00Z</time></trkpt><trkpt lat="45.7723288874313" lon="9.895110041706058"><ele>623.0</ele><time>2026-04-22T15:08:01Z</time></trkpt><trkpt lat="45.772399476411145" lon="9.89502559056298"><ele>623.0</ele><time>2026-04-22T15:08:02Z</time></trkpt><trkpt lat="45.77247303752716" lon="9.89494179984014"><ele>623.0</ele><time>2026-04-22T15:08:03Z</time></trkpt><trkpt lat="45.772548179534375" lon="9.894853924400232"><ele>624.4</ele><time>2026-04-22T15:08:04Z</time></trkpt><trkpt lat="45.77262050999455" lon="9.894777444564504"><ele>625.8</ele><time>2026-04-22T15:08:05Z</time></trkpt><trkpt lat="45.77269713061289" lon="9.89469400733446"><ele>627.2</ele><time>2026-04-22T15:08:06Z</time></trkpt><trkpt lat="45.77277077732166" lon="9.89461041916289"><ele>628.6</ele><time>2026-04-22T15:08:07Z</time></trkpt><trkpt lat="45.772845610736795" lon="9.894526586578632"><ele>630.0</ele><time>2026-04-22T15:08:08Z</time></trkpt><trkpt lat="45.77292055481718" lon="9.894444834382897"><ele>630.0</ele><time>2026-04-22T15:08:09Z</time></trkpt><trkpt lat="45.77299334860838" lon="9.894355910885139"><ele>630.0</ele><time>2026-04-22T15:08:10Z</time></trkpt><trkpt lat="45.77306144908519" lon="9.894258396119605"><ele>630.0</ele><time>2026-04-22T15:08:11Z</time></trkpt><trkpt lat="45.77313646742486" lon="9.894187102365292"><ele>630.0</ele><time>2026-04-22T15:08:12Z</time></trkpt><trkpt lat="45.77320705674069" lon="9.89409810098161"><ele>630.0</ele><time>2026-04-22T15:08:13Z</time></trkpt><trkpt lat="45.77327886578309" lon="9.894019018890884"><ele>629.4</ele><time>2026-04-22T15:08:14Z</time></trkpt><trkpt lat="45.77334631450302" lon="9.893929995945303"><ele>628.8</ele><time>2026-04-22T15:08:15Z</time></trkpt><trkpt lat="45.77341443711987" lon="9.893839436776112"><ele>628.2</ele><time>2026-04-22T15:08:16Z</time></trkpt><trkpt lat="45.77347686662072" lon="9.89375067041378"><ele>627.6</ele><time>2026-04-22T15:08:17Z</time></trkpt><trkpt lat="45.77353683836719" lon="9.893654217172061"><ele>627.0</ele><time>2026-04-22T15:08:18Z</time></trkpt><trkpt lat="45.77359866412314" lon="9.893558815823718"><ele>627.0</ele><time>2026-04-22T15:08:19Z</time></trkpt><trkpt lat="45.77366149701814" lon="9.893466393791773"><ele>627.0</ele><time>2026-04-22T15:08:20Z</time></trkpt><trkpt lat="45.77372246454164" lon="9.893370918977512"><ele>627.0</ele><time>2026-04-22T15:08:21Z</time></trkpt><trkpt lat="45.773783786359935" lon="9.893278922369957"><ele>627.0</ele><time>2026-04-22T15:08:22Z</time></trkpt><trkpt lat="45.77384391347775" lon="9.89318731470634"><ele>627.0</ele><time>2026-04-22T15:08:23Z</time></trkpt><trkpt lat="45.77390262359662" lon="9.893093297211124"><ele>627.0</ele><time>2026-04-22T15:08:24Z</time></trkpt><trkpt lat="45.773965332414946" lon="9.893001168736605"><ele>621.8333333333334</ele><time>2026-04-22T15:08:25Z</time></trkpt><trkpt lat="45.774028629190255" lon="9.892912917872211"><ele>616.6666666666666</ele><time>2026-04-22T15:08:26Z</time></trkpt><trkpt lat="45.77408804407806" lon="9.89282839854591"><ele>611.5</ele><time>2026-04-22T15:08:27Z</time></trkpt><trkpt lat="45.77414666962691" lon="9.892736136436435"><ele>606.3333333333333</ele><time>2026-04-22T15:08:28Z</time></trkpt><trkpt lat="45.774204528677906" lon="9.89264806498883"><ele>601.1666666666666</ele><time>2026-04-22T15:08:29Z</time></trkpt><trkpt lat="45.77426318044323" lon="9.89256003194791"><ele>596.0</ele><time>2026-04-22T15:08:30Z</time></trkpt><trkpt lat="45.77432076131437" lon="9.892470792394576"><ele>598.6666666666666</ele><time>2026-04-22T15:08:31Z</time></trkpt><trkpt lat="45.77437775287364" lon="9.89238079730738"><ele>601.3333333333333</ele><time>2026-04-22T15:08:32Z</time></trkpt><trkpt lat="45.774434382487236" lon="9.892291705118986"><ele>604.0</ele><time>2026-04-22T15:08:33Z</time></trkpt><trkpt lat="45.77448866472903" lon="9.892200162628614"><ele>606.6666666666666</ele><time>2026-04-22T15:08:34Z</time></trkpt><trkpt lat="45.77454496085062" lon="9.892113444552512"><ele>609.3333333333334</ele><time>2026-04-22T15:08:35Z</time></trkpt><trkpt lat="45.77460134102659" lon="9.892024571068964"><ele>612.0</ele><time>2026-04-22T15:08:36Z</time></trkpt><trkpt lat="45.77465838104171" lon="9.891934409058903"><ele>612.0</ele><time>2026-04-22T15:08:37Z</time></trkpt><trkpt lat="45.77471652899935" lon="9.891848359327797"><ele>612.0</ele><time>2026-04-22T15:08:38Z</time></trkpt><trkpt lat="45.774772265731094" lon="9.891758162924999"><ele>612.0</ele><time>2026-04-22T15:08:39Z</time></trkpt><trkpt lat="45.77481914705491" lon="9.891666720722329"><ele>612.0</ele><time>2026-04-22T15:08:40Z</time></trkpt><trkpt lat="45.77486491774109" lon="9.891575962480548"><ele>612.0</ele><time>2026-04-22T15:08:41Z</time></trkpt><trkpt lat="45.77490774373642" lon="9.89148885442005"><ele>612.0</ele><time>2026-04-22T15:08:43Z</time></trkpt><trkpt lat="45.77492818836052" lon="9.89140324719964"><ele>607.6</ele><time>2026-04-22T15:09:24Z</time></trkpt><trkpt lat="45.77495478966071" lon="9.891309885581553"><ele>603.2</ele><time>2026-04-22T15:09:26Z</time></trkpt><trkpt lat="45.774998936239975" lon="9.891188394271511"><ele>598.8</ele><time>2026-04-22T15:09:28Z</time></trkpt><trkpt lat="45.77504980838023" lon="9.891051701852469"><ele>594.4</ele><time>2026-04-22T15:09:30Z</time></trkpt><trkpt lat="45.77510896469726" lon="9.89087915868834"><ele>590.0</ele><time>2026-04-22T15:09:32Z</time></trkpt><trkpt lat="45.775134774608986" lon="9.890776763070354"><ele>589.3333333333333</ele><time>2026-04-22T15:09:33Z</time></trkpt><trkpt lat="45.77516011748114" lon="9.890665742540522"><ele>588.6666666666666</ele><time>2026-04-22T15:09:34Z</time></trkpt><trkpt lat="45.77518679122207" lon="9.89055120732872"><ele>588.0</ele><time>2026-04-22T15:09:35Z</time></trkpt><trkpt lat="45.77521628519854" lon="9.890430611776768"><ele>587.3333333333334</ele><time>2026-04-22T15:09:36Z</time></trkpt><trkpt lat="45.77524544226252" lon="9.890306419536017"><ele>586.6666666666667</ele><time>2026-04-22T15:09:37Z</time></trkpt><trkpt lat="45.775279464834526" lon="9.890178561226104"><ele>586.0</ele><time>2026-04-22T15:09:38Z</time></trkpt><trkpt lat="45.775311581891586" lon="9.890047529378405"><ele>586.0</ele><time>2026-04-22T15:09:39Z</time></trkpt><trkpt lat="45.77533851250975" lon="9.889911912888026"><ele>586.0</ele><time>2026-04-22T15:09:40Z</time></trkpt><trkpt lat="45.77535736157531" lon="9.889768920073868"><ele>586.0</ele><time>2026-04-22T15:09:41Z</time></trkpt><trkpt lat="45.77535916728496" lon="9.889618733221194"><ele>586.0</ele><time>2026-04-22T15:09:42Z</time></trkpt><trkpt lat="45.77534939036224" lon="9.889466423788846"><ele>586.0</ele><time>2026-04-22T15:09:43Z</time></trkpt><trkpt lat="45.775330978497685" lon="9.889311520566782"><ele>583.5</ele><time>2026-04-22T15:09:44Z</time></trkpt><trkpt lat="45.775313146850614" lon="9.889154471673198"><ele>581.0</ele><time>2026-04-22T15:09:45Z</time></trkpt><trkpt lat="45.775298699042175" lon="9.888993395588928"><ele>578.5</ele><time>2026-04-22T15:09:46Z</time></trkpt><trkpt lat="45.77528638943171" lon="9.88883134541598"><ele>576.0</ele><time>2026-04-22T15:09:47Z</time></trkpt><trkpt lat="45.77528144195495" lon="9.888663971300199"><ele>576.0</ele><time>2026-04-22T15:09:48Z</time></trkpt><trkpt lat="45.77529139931681" lon="9.888494091320242"><ele>576.0</ele><time>2026-04-22T15:09:49Z</time></trkpt><trkpt lat="45.77532450203363" lon="9.88832943125822"><ele>576.0</ele><time>2026-04-22T15:09:50Z</time></trkpt><trkpt lat="45.77535965429648" lon="9.88816285669544"><ele>576.0</ele><time>2026-04-22T15:09:51Z</time></trkpt><trkpt lat="45.775398852599466" lon="9.887995716667652"><ele>575.0</ele><time>2026-04-22T15:09:52Z</time></trkpt><trkpt lat="45.77543707013673" lon="9.887830104787406"><ele>574.0</ele><time>2026-04-22T15:09:53Z</time></trkpt><trkpt lat="45.77548014287621" lon="9.887660638454252"><ele>573.0</ele><time>2026-04-22T15:09:54Z</time></trkpt><trkpt lat="45.77551575332267" lon="9.887490071794648"><ele>572.0</ele><time>2026-04-22T15:09:55Z</time></trkpt><trkpt lat="45.77555186293483" lon="9.88731700365184"><ele>569.75</ele><time>2026-04-22T15:09:56Z</time></trkpt><trkpt lat="45.77558786352347" lon="9.887141992723171"><ele>567.5</ele><time>2026-04-22T15:09:57Z</time></trkpt><trkpt lat="45.77562411033087" lon="9.886968016193594"><ele>565.25</ele><time>2026-04-22T15:09:58Z</time></trkpt><trkpt lat="45.77566351009936" lon="9.886790938070982"><ele>563.0</ele><time>2026-04-22T15:09:59Z</time></trkpt><trkpt lat="45.77570237524017" lon="9.886612187645985"><ele>560.0</ele><time>2026-04-22T15:10:00Z</time></trkpt><trkpt lat="45.775741482281234" lon="9.886438687486322"><ele>557.0</ele><time>2026-04-22T15:10:01Z</time></trkpt><trkpt lat="45.77577893545475" lon="9.886255592844877"><ele>554.0</ele><time>2026-04-22T15:10:02Z</time></trkpt><trkpt lat="45.775815056082756" lon="9.886075640799454"><ele>551.0</ele><time>2026-04-22T15:10:03Z</time></trkpt><trkpt lat="45.77585216213467" lon="9.885888290668682"><ele>548.75</ele><time>2026-04-22T15:10:04Z</time></trkpt><trkpt lat="45.77587697220453" lon="9.885709764628334"><ele>546.5</ele><time>2026-04-22T15:10:05Z</time></trkpt><trkpt lat="45.77589035148235" lon="9.88551689575083"><ele>544.25</ele><time>2026-04-22T15:10:06Z</time></trkpt><trkpt lat="45.775904489312005" lon="9.885323672116062"><ele>542.0</ele><time>2026-04-22T15:10:07Z</time></trkpt><trkpt lat="45.775919762842975" lon="9.885127470087044"><ele>540.75</ele><time>2026-04-22T15:10:08Z</time></trkpt><trkpt lat="45.775927089842256" lon="9.884935344460699"><ele>539.5</ele><time>2026-04-22T15:10:09Z</time></trkpt><trkpt lat="45.775919223662555" lon="9.884744981890544"><ele>538.25</ele><time>2026-04-22T15:10:10Z</time></trkpt><trkpt lat="45.77589551399998" lon="9.884551317809114"><ele>537.0</ele><time>2026-04-22T15:10:11Z</time></trkpt><trkpt lat="45.77585620364028" lon="9.884364634929229"><ele>537.0</ele><time>2026-04-22T15:10:12Z</time></trkpt><trkpt lat="45.77581211136927" lon="9.884177195850203"><ele>537.0</ele><time>2026-04-22T15:10:13Z</time></trkpt><trkpt lat="45.775764155730265" lon="9.883990826123082"><ele>537.0</ele><time>2026-04-22T15:10:14Z</time></trkpt><trkpt lat="45.7757181717319" lon="9.883801118383303"><ele>537.0</ele><time>2026-04-22T15:10:15Z</time></trkpt><trkpt lat="45.77567664453326" lon="9.883607553114263"><ele>536.0</ele><time>2026-04-22T15:10:16Z</time></trkpt><trkpt lat="45.77564288671988" lon="9.883410710407032"><ele>535.0</ele><time>2026-04-22T15:10:17Z</time></trkpt><trkpt lat="45.77561374109093" lon="9.883212016839186"><ele>534.0</ele><time>2026-04-22T15:10:18Z</time></trkpt><trkpt lat="45.77559087323902" lon="9.883007274985507"><ele>533.0</ele><time>2026-04-22T15:10:19Z</time></trkpt><trkpt lat="45.775566096420626" lon="9.8828046381661"><ele>531.75</ele><time>2026-04-22T15:10:20Z</time></trkpt><trkpt lat="45.77553972895534" lon="9.88259592759484"><ele>530.5</ele><time>2026-04-22T15:10:21Z</time></trkpt><trkpt lat="45.77552430145071" lon="9.882390357228518"><ele>529.25</ele><time>2026-04-22T15:10:22Z</time></trkpt><trkpt lat="45.775524105027095" lon="9.882180261130635"><ele>528.0</ele><time>2026-04-22T15:10:23Z</time></trkpt><trkpt lat="45.77554476210692" lon="9.881973547282689"><ele>528.0</ele><time>2026-04-22T15:10:24Z</time></trkpt><trkpt lat="45.775580257643654" lon="9.881774676678408"><ele>528.0</ele><time>2026-04-22T15:10:25Z</time></trkpt><trkpt lat="45.77563516784858" lon="9.88158685813797"><ele>528.0</ele><time>2026-04-22T15:10:26Z</time></trkpt><trkpt lat="45.77568933526617" lon="9.88140197228692"><ele>528.0</ele><time>2026-04-22T15:10:27Z</time></trkpt><trkpt lat="45.77574100969216" lon="9.88122655948054"><ele>526.75</ele><time>2026-04-22T15:10:28Z</time></trkpt><trkpt lat="45.77578837823527" lon="9.881050025891525"><ele>525.5</ele><time>2026-04-22T15:10:29Z</time></trkpt><trkpt lat="45.77583180681966" lon="9.880871649617943"><ele>524.25</ele><time>2026-04-22T15:10:30Z</time></trkpt><trkpt lat="45.77587564688843" lon="9.88069802514597"><ele>523.0</ele><time>2026-04-22T15:10:31Z</time></trkpt><trkpt lat="45.77591911785214" lon="9.880527209482933"><ele>522.0</ele><time>2026-04-22T15:10:32Z</time></trkpt><trkpt lat="45.77595634335203" lon="9.88035678597014"><ele>521.0</ele><time>2026-04-22T15:10:33Z</time></trkpt><trkpt lat="45.77598785256769" lon="9.880186419048364"><ele>520.0</ele><time>2026-04-22T15:10:34Z</time></trkpt><trkpt lat="45.776010634763175" lon="9.880011646513184"><ele>519.0</ele><time>2026-04-22T15:10:35Z</time></trkpt><trkpt lat="45.776017461748914" lon="9.879838396435588"><ele>519.5</ele><time>2026-04-22T15:10:36Z</time></trkpt><trkpt lat="45.77602442978184" lon="9.879664890866213"><ele>520.0</ele><time>2026-04-22T15:10:37Z</time></trkpt><trkpt lat="45.77603307677198" lon="9.879496565202132"><ele>520.5</ele><time>2026-04-22T15:10:38Z</time></trkpt><trkpt lat="45.776042913880595" lon="9.879332013717551"><ele>521.0</ele><time>2026-04-22T15:10:39Z</time></trkpt><trkpt lat="45.77605496910736" lon="9.879167741937433"><ele>520.2</ele><time>2026-04-22T15:10:40Z</time></trkpt><trkpt lat="45.77606986226521" lon="9.879002216413252"><ele>519.4000000000001</ele><time>2026-04-22T15:10:41Z</time></trkpt><trkpt lat="45.776089092211166" lon="9.878849184295145"><ele>518.6</ele><time>2026-04-22T15:10:42Z</time></trkpt><trkpt lat="45.77610765149069" lon="9.878696949231802"><ele>517.8000000000001</ele><time>2026-04-22T15:10:43Z</time></trkpt><trkpt lat="45.77612218473003" lon="9.878537354160228"><ele>517.0</ele><time>2026-04-22T15:10:44Z</time></trkpt><trkpt lat="45.77613533539821" lon="9.878384139935232"><ele>516.4</ele><time>2026-04-22T15:10:45Z</time></trkpt><trkpt lat="45.77615146660044" lon="9.878233785623877"><ele>515.8000000000001</ele><time>2026-04-22T15:10:46Z</time></trkpt><trkpt lat="45.77617100337441" lon="9.87808544401835"><ele>515.2</ele><time>2026-04-22T15:10:47Z</time></trkpt><trkpt lat="45.77619020551684" lon="9.87793867875688"><ele>514.6</ele><time>2026-04-22T15:10:48Z</time></trkpt><trkpt lat="45.776209164342255" lon="9.87779020693715"><ele>514.0</ele><time>2026-04-22T15:10:49Z</time></trkpt><trkpt lat="45.776227448434035" lon="9.877639274569706"><ele>512.6</ele><time>2026-04-22T15:10:50Z</time></trkpt><trkpt lat="45.77624494286567" lon="9.87749809748512"><ele>511.2</ele><time>2026-04-22T15:10:51Z</time></trkpt><trkpt lat="45.776260044405184" lon="9.877352168795785"><ele>509.80000000000007</ele><time>2026-04-22T15:10:52Z</time></trkpt><trkpt lat="45.776268035871276" lon="9.87720325432778"><ele>508.40000000000003</ele><time>2026-04-22T15:10:53Z</time></trkpt><trkpt lat="45.776269497030434" lon="9.877053615444083"><ele>507.0</ele><time>2026-04-22T15:10:54Z</time></trkpt><trkpt lat="45.77625140024584" lon="9.876907166412975"><ele>506.0</ele><time>2026-04-22T15:10:55Z</time></trkpt><trkpt lat="45.776222373402554" lon="9.876761197728767"><ele>505.00000000000006</ele><time>2026-04-22T15:10:56Z</time></trkpt><trkpt lat="45.77619769163847" lon="9.876616225400669"><ele>504.00000000000006</ele><time>2026-04-22T15:10:57Z</time></trkpt><trkpt lat="45.77616852231073" lon="9.87646956431129"><ele>503.0</ele><time>2026-04-22T15:10:58Z</time></trkpt><trkpt lat="45.776147277477456" lon="9.87632320851875"><ele>502.0</ele><time>2026-04-22T15:10:59Z</time></trkpt><trkpt lat="45.776136075915886" lon="9.876175522375014"><ele>502.0</ele><time>2026-04-22T15:11:00Z</time></trkpt><trkpt lat="45.77613801980963" lon="9.87602814823042"><ele>502.00000000000006</ele><time>2026-04-22T15:11:01Z</time></trkpt><trkpt lat="45.77615002743028" lon="9.875876945789345"><ele>502.00000000000006</ele><time>2026-04-22T15:11:02Z</time></trkpt><trkpt lat="45.77616750526073" lon="9.875726633359395"><ele>502.0</ele><time>2026-04-22T15:11:03Z</time></trkpt><trkpt lat="45.776185952018515" lon="9.875584679703955"><ele>502.0</ele><time>2026-04-22T15:11:04Z</time></trkpt><trkpt lat="45.776205817135384" lon="9.87543794528624"><ele>501.40000000000003</ele><time>2026-04-22T15:11:05Z</time></trkpt><trkpt lat="45.776225562888015" lon="9.875293030113806"><ele>500.80000000000007</ele><time>2026-04-22T15:11:06Z</time></trkpt><trkpt lat="45.776239127268305" lon="9.87514698158515"><ele>500.2</ele><time>2026-04-22T15:11:07Z</time></trkpt><trkpt lat="45.776251318733614" lon="9.875001383692474"><ele>499.6</ele><time>2026-04-22T15:11:08Z</time></trkpt><trkpt lat="45.776259063818955" lon="9.874860736098224"><ele>499.0</ele><time>2026-04-22T15:11:09Z</time></trkpt><trkpt lat="45.77626623752565" lon="9.874716913733113"><ele>498.79999999999995</ele><time>2026-04-22T15:11:10Z</time></trkpt><trkpt lat="45.77626515792941" lon="9.874575947505884"><ele>498.59999999999997</ele><time>2026-04-22T15:11:11Z</time></trkpt><trkpt lat="45.776262994931585" lon="9.874430892523453"><ele>498.4</ele><time>2026-04-22T15:11:12Z</time></trkpt><trkpt lat="45.77626033008045" lon="9.87429140176767"><ele>498.2</ele><time>2026-04-22T15:11:13Z</time></trkpt><trkpt lat="45.77625452719119" lon="9.874148305992923"><ele>498.0</ele><time>2026-04-22T15:11:14Z</time></trkpt><trkpt lat="45.77625453678061" lon="9.874006551725111"><ele>497.2</ele><time>2026-04-22T15:11:15Z</time></trkpt><trkpt lat="45.77625912351069" lon="9.873866689962899"><ele>496.4</ele><time>2026-04-22T15:11:16Z</time></trkpt><trkpt lat="45.776262239780884" lon="9.873723879429988"><ele>495.59999999999997</ele><time>2026-04-22T15:11:17Z</time></trkpt><trkpt lat="45.776270275780014" lon="9.873584769794363"><ele>494.79999999999995</ele><time>2026-04-22T15:11:18Z</time></trkpt><trkpt lat="45.77626940798338" lon="9.873444139115962"><ele>494.0</ele><time>2026-04-22T15:11:19Z</time></trkpt><trkpt lat="45.77625752271452" lon="9.873304233523344"><ele>493.79999999999995</ele><time>2026-04-22T15:11:20Z</time></trkpt><trkpt lat="45.77624541743542" lon="9.873165390641915"><ele>493.59999999999997</ele><time>2026-04-22T15:11:21Z</time></trkpt><trkpt lat="45.776226034359816" lon="9.873022235447916"><ele>493.4</ele><time>2026-04-22T15:11:22Z</time></trkpt><trkpt lat="45.77620195853166" lon="9.872879585642917"><ele>493.2</ele><time>2026-04-22T15:11:23Z</time></trkpt><trkpt lat="45.77618268611173" lon="9.872733319280675"><ele>493.0</ele><time>2026-04-22T15:11:24Z</time></trkpt><trkpt lat="45.776159004990575" lon="9.872591185836392"><ele>491.79999999999995</ele><time>2026-04-22T15:11:25Z</time></trkpt><trkpt lat="45.776135002488054" lon="9.872443797877093"><ele>490.59999999999997</ele><time>2026-04-22T15:11:26Z</time></trkpt><trkpt lat="45.77611507325921" lon="9.872297628079393"><ele>489.40000000000003</ele><time>2026-04-22T15:11:27Z</time></trkpt><trkpt lat="45.776091736917294" lon="9.872153414630212"><ele>488.20000000000005</ele><time>2026-04-22T15:11:28Z</time></trkpt><trkpt lat="45.776068468502274" lon="9.8720091336158"><ele>487.0</ele><time>2026-04-22T15:11:29Z</time></trkpt><trkpt lat="45.77604726178318" lon="9.871866558999614"><ele>487.8</ele><time>2026-04-22T15:11:30Z</time></trkpt><trkpt lat="45.77602447053563" lon="9.871723257294361"><ele>488.6</ele><time>2026-04-22T15:11:31Z</time></trkpt><trkpt lat="45.77600747429156" lon="9.871579043035993"><ele>489.40000000000003</ele><time>2026-04-22T15:11:32Z</time></trkpt><trkpt lat="45.77598384270321" lon="9.871438094931909"><ele>490.20000000000005</ele><time>2026-04-22T15:11:33Z</time></trkpt><trkpt lat="45.775971477041" lon="9.871293369775335"><ele>491.0</ele><time>2026-04-22T15:11:34Z</time></trkpt><trkpt lat="45.77596535241226" lon="9.871151475335733"><ele>491.0</ele><time>2026-04-22T15:11:35Z</time></trkpt><trkpt lat="45.775969972197906" lon="9.87100697935653"><ele>491.0</ele><time>2026-04-22T15:11:36Z</time></trkpt><trkpt lat="45.7759760771202" lon="9.870868080595834"><ele>491.0</ele><time>2026-04-22T15:11:37Z</time></trkpt><trkpt lat="45.77598256440983" lon="9.870729467333707"><ele>491.0</ele><time>2026-04-22T15:11:38Z</time></trkpt><trkpt lat="45.77599170385129" lon="9.870592331424936"><ele>491.0</ele><time>2026-04-22T15:11:39Z</time></trkpt><trkpt lat="45.77599982168232" lon="9.87045651391436"><ele>490.8</ele><time>2026-04-22T15:11:40Z</time></trkpt><trkpt lat="45.776007540704995" lon="9.870322336705023"><ele>490.6</ele><time>2026-04-22T15:11:41Z</time></trkpt><trkpt lat="45.776015910785546" lon="9.870188388052018"><ele>490.4</ele><time>2026-04-22T15:11:42Z</time></trkpt><trkpt lat="45.776023238333785" lon="9.870061376625932"><ele>490.2</ele><time>2026-04-22T15:11:43Z</time></trkpt><trkpt lat="45.776031184779264" lon="9.86993431711697"><ele>490.0</ele><time>2026-04-22T15:11:44Z</time></trkpt><trkpt lat="45.77603756087025" lon="9.869801562204263"><ele>489.33333333333337</ele><time>2026-04-22T15:11:45Z</time></trkpt><trkpt lat="45.77603799863007" lon="9.869676493615788"><ele>488.6666666666667</ele><time>2026-04-22T15:11:46Z</time></trkpt><trkpt lat="45.77603803939739" lon="9.86954711950031"><ele>488.0</ele><time>2026-04-22T15:11:47Z</time></trkpt><trkpt lat="45.77603787456541" lon="9.86942296857425"><ele>487.33333333333337</ele><time>2026-04-22T15:11:48Z</time></trkpt><trkpt lat="45.7760314506095" lon="9.86929560025879"><ele>486.6666666666667</ele><time>2026-04-22T15:11:49Z</time></trkpt><trkpt lat="45.776025496331464" lon="9.869169725584213"><ele>486.0</ele><time>2026-04-22T15:11:50Z</time></trkpt><trkpt lat="45.77600921121664" lon="9.869048417444475"><ele>486.0</ele><time>2026-04-22T15:11:51Z</time></trkpt><trkpt lat="45.77598873111927" lon="9.86893072597006"><ele>486.0</ele><time>2026-04-22T15:11:52Z</time></trkpt><trkpt lat="45.77596130978815" lon="9.86881819641851"><ele>486.0</ele><time>2026-04-22T15:11:53Z</time></trkpt><trkpt lat="45.77593299846995" lon="9.868704144028994"><ele>486.0</ele><time>2026-04-22T15:11:54Z</time></trkpt><trkpt lat="45.775905798243656" lon="9.868589336756331"><ele>486.0</ele><time>2026-04-22T15:11:55Z</time></trkpt><trkpt lat="45.77588488180444" lon="9.868471613942276"><ele>486.0</ele><time>2026-04-22T15:11:56Z</time></trkpt><trkpt lat="45.7758614063233" lon="9.86835727768966"><ele>485.5</ele><time>2026-04-22T15:11:57Z</time></trkpt><trkpt lat="45.77583921529095" lon="9.868240426789324"><ele>485.0</ele><time>2026-04-22T15:11:58Z</time></trkpt><trkpt lat="45.77583158405669" lon="9.86811792542741"><ele>484.5</ele><time>2026-04-22T15:11:59Z</time></trkpt><trkpt lat="45.77583694516798" lon="9.867996628200691"><ele>484.0</ele><time>2026-04-22T15:12:00Z</time></trkpt><trkpt lat="45.77585568571423" lon="9.867875041562318"><ele>483.5</ele><time>2026-04-22T15:12:01Z</time></trkpt><trkpt lat="45.77588406989392" lon="9.867762770543225"><ele>483.0</ele><time>2026-04-22T15:12:02Z</time></trkpt><trkpt lat="45.775926062984475" lon="9.86766046188013"><ele>483.8333333333333</ele><time>2026-04-22T15:12:03Z</time></trkpt><trkpt lat="45.77597345412589" lon="9.867561979105112"><ele>484.66666666666663</ele><time>2026-04-22T15:12:04Z</time></trkpt><trkpt lat="45.77602125832047" lon="9.86746723118584"><ele>485.5</ele><time>2026-04-22T15:12:05Z</time></trkpt><trkpt lat="45.77607360969234" lon="9.867372289263017"><ele>486.3333333333333</ele><time>2026-04-22T15:12:06Z</time></trkpt><trkpt lat="45.77612749156309" lon="9.867278015643155"><ele>487.16666666666663</ele><time>2026-04-22T15:12:07Z</time></trkpt><trkpt lat="45.77618356692823" lon="9.86718670128538"><ele>488.0</ele><time>2026-04-22T15:12:08Z</time></trkpt><trkpt lat="45.776240016984076" lon="9.867090001841563"><ele>485.79999999999995</ele><time>2026-04-22T15:12:09Z</time></trkpt><trkpt lat="45.776299069754884" lon="9.86699775558064"><ele>483.59999999999997</ele><time>2026-04-22T15:12:10Z</time></trkpt><trkpt lat="45.77636224883089" lon="9.86690812209413"><ele>481.40000000000003</ele><time>2026-04-22T15:12:11Z</time></trkpt><trkpt lat="45.7764306765292" lon="9.86682309964815"><ele>479.20000000000005</ele><time>2026-04-22T15:12:12Z</time></trkpt><trkpt lat="45.77649898397718" lon="9.866737359837446"><ele>477.0</ele><time>2026-04-22T15:12:13Z</time></trkpt><trkpt lat="45.776555440283545" lon="9.866632898483283"><ele>477.0</ele><time>2026-04-22T15:12:14Z</time></trkpt><trkpt lat="45.776591717734235" lon="9.866509271535017"><ele>477.00000000000006</ele><time>2026-04-22T15:12:15Z</time></trkpt><trkpt lat="45.77660978214402" lon="9.866371059310344"><ele>477.00000000000006</ele><time>2026-04-22T15:12:16Z</time></trkpt><trkpt lat="45.77663200922926" lon="9.866237691125978"><ele>477.0</ele><time>2026-04-22T15:12:17Z</time></trkpt><trkpt lat="45.77668060502869" lon="9.86611391268742"><ele>477.0</ele><time>2026-04-22T15:12:18Z</time></trkpt><trkpt lat="45.77675522884596" lon="9.866006158540442"><ele>478.40000000000003</ele><time>2026-04-22T15:12:19Z</time></trkpt><trkpt lat="45.77681164503414" lon="9.86589077072077"><ele>479.80000000000007</ele><time>2026-04-22T15:12:20Z</time></trkpt><trkpt lat="45.77684279704348" lon="9.865748586642928"><ele>481.2</ele><time>2026-04-22T15:12:21Z</time></trkpt><trkpt lat="45.77684521235937" lon="9.8655954739389"><ele>482.6</ele><time>2026-04-22T15:12:22Z</time></trkpt><trkpt lat="45.77686063920215" lon="9.86544930799067"><ele>484.0</ele><time>2026-04-22T15:12:23Z</time></trkpt><trkpt lat="45.77689699395361" lon="9.86530658557612"><ele>481.2</ele><time>2026-04-22T15:12:24Z</time></trkpt><trkpt lat="45.77694381266276" lon="9.86517405008077"><ele>478.4</ele><time>2026-04-22T15:12:25Z</time></trkpt><trkpt lat="45.77697460333062" lon="9.865036280405961"><ele>475.6</ele><time>2026-04-22T15:12:26Z</time></trkpt><trkpt lat="45.776986692786515" lon="9.864890667621884"><ele>472.8</ele><time>2026-04-22T15:12:27Z</time></trkpt><trkpt lat="45.77699061001384" lon="9.864737629499425"><ele>470.0</ele><time>2026-04-22T15:12:28Z</time></trkpt><trkpt lat="45.77699754755787" lon="9.86459174167237"><ele>469.2</ele><time>2026-04-22T15:12:29Z</time></trkpt><trkpt lat="45.77699967464804" lon="9.864437389504364"><ele>468.4</ele><time>2026-04-22T15:12:30Z</time></trkpt><trkpt lat="45.777002306909985" lon="9.86428907831117"><ele>467.6</ele><time>2026-04-22T15:12:31Z</time></trkpt><trkpt lat="45.77700248073899" lon="9.864135364084083"><ele>466.8</ele><time>2026-04-22T15:12:32Z</time></trkpt><trkpt lat="45.77700001387166" lon="9.863984818721544"><ele>466.0</ele><time>2026-04-22T15:12:33Z</time></trkpt><trkpt lat="45.77699218993503" lon="9.863830264876116"><ele>465.20000000000005</ele><time>2026-04-22T15:12:34Z</time></trkpt><trkpt lat="45.776984879248865" lon="9.863674451189123"><ele>464.40000000000003</ele><time>2026-04-22T15:12:35Z</time></trkpt><trkpt lat="45.77699225091408" lon="9.863518343514484"><ele>463.6</ele><time>2026-04-22T15:12:36Z</time></trkpt><trkpt lat="45.777003838170856" lon="9.863361217943329"><ele>462.8</ele><time>2026-04-22T15:12:37Z</time></trkpt><trkpt lat="45.777033479866034" lon="9.863210173984323"><ele>462.0</ele><time>2026-04-22T15:12:38Z</time></trkpt><trkpt lat="45.777058882437366" lon="9.863060801299547"><ele>462.6</ele><time>2026-04-22T15:12:39Z</time></trkpt><trkpt lat="45.7770559348014" lon="9.86290316045356"><ele>463.20000000000005</ele><time>2026-04-22T15:12:40Z</time></trkpt><trkpt lat="45.77702308033958" lon="9.862751056914908"><ele>463.8</ele><time>2026-04-22T15:12:41Z</time></trkpt><trkpt lat="45.776948858227925" lon="9.862619796981276"><ele>464.4</ele><time>2026-04-22T15:12:42Z</time></trkpt><trkpt lat="45.776887322708994" lon="9.86249442746491"><ele>465.0</ele><time>2026-04-22T15:12:43Z</time></trkpt><trkpt lat="45.77681919114245" lon="9.862372711752837"><ele>465.0</ele><time>2026-04-22T15:12:44Z</time></trkpt><trkpt lat="45.77677309384282" lon="9.862234258640644"><ele>465.0</ele><time>2026-04-22T15:12:45Z</time></trkpt><trkpt lat="45.77674996822499" lon="9.862076497613009"><ele>465.0</ele><time>2026-04-22T15:12:46Z</time></trkpt><trkpt lat="45.776757101116566" lon="9.861912302509475"><ele>465.0</ele><time>2026-04-22T15:12:47Z</time></trkpt><trkpt lat="45.776756507660956" lon="9.861745083713096"><ele>463.75</ele><time>2026-04-22T15:12:48Z</time></trkpt><trkpt lat="45.77676747031926" lon="9.86157849173312"><ele>462.5</ele><time>2026-04-22T15:12:49Z</time></trkpt><trkpt lat="45.77677344485459" lon="9.86141512109766"><ele>461.25</ele><time>2026-04-22T15:12:50Z</time></trkpt><trkpt lat="45.77676427253568" lon="9.86124743634783"><ele>460.0</ele><time>2026-04-22T15:12:51Z</time></trkpt><trkpt lat="45.7767349957611" lon="9.861091594531517"><ele>458.5</ele><time>2026-04-22T15:12:52Z</time></trkpt><trkpt lat="45.77669582696219" lon="9.860938862600126"><ele>457.0</ele><time>2026-04-22T15:12:53Z</time></trkpt><trkpt lat="45.77664528905967" lon="9.86079630456959"><ele>455.5</ele><time>2026-04-22T15:12:54Z</time></trkpt><trkpt lat="45.77660244836317" lon="9.860643563524171"><ele>454.0</ele><time>2026-04-22T15:12:55Z</time></trkpt><trkpt lat="45.7765786126486" lon="9.860485680104954"><ele>454.0</ele><time>2026-04-22T15:12:56Z</time></trkpt><trkpt lat="45.77656416630414" lon="9.860319633628643"><ele>454.0</ele><time>2026-04-22T15:12:57Z</time></trkpt><trkpt lat="45.77655431399416" lon="9.860158502191103"><ele>454.0</ele><time>2026-04-22T15:12:58Z</time></trkpt><trkpt lat="45.776542864828315" lon="9.85999669496363"><ele>454.0</ele><time>2026-04-22T15:12:59Z</time></trkpt><trkpt lat="45.77652443883383" lon="9.859843855110688"><ele>454.4</ele><time>2026-04-22T15:13:00Z</time></trkpt><trkpt lat="45.77650106720028" lon="9.859690377259877"><ele>454.79999999999995</ele><time>2026-04-22T15:13:01Z</time></trkpt><trkpt lat="45.776454380445436" lon="9.859548292289867"><ele>455.20000000000005</ele><time>2026-04-22T15:13:02Z</time></trkpt><trkpt lat="45.77639855933583" lon="9.859416619550206"><ele>455.6</ele><time>2026-04-22T15:13:03Z</time></trkpt><trkpt lat="45.77634407514307" lon="9.85928636195845"><ele>456.0</ele><time>2026-04-22T15:13:04Z</time></trkpt><trkpt lat="45.776292696631344" lon="9.859156817644616"><ele>456.0</ele><time>2026-04-22T15:13:05Z</time></trkpt><trkpt lat="45.77624291182188" lon="9.859021225169371"><ele>456.0</ele><time>2026-04-22T15:13:06Z</time></trkpt><trkpt lat="45.7762030911949" lon="9.858883980227308"><ele>456.0</ele><time>2026-04-22T15:13:07Z</time></trkpt><trkpt lat="45.77616985124536" lon="9.858743993507325"><ele>456.0</ele><time>2026-04-22T15:13:08Z</time></trkpt><trkpt lat="45.776151720906384" lon="9.858595052103118"><ele>456.0</ele><time>2026-04-22T15:13:09Z</time></trkpt><trkpt lat="45.77613399178543" lon="9.858450639132329"><ele>456.6</ele><time>2026-04-22T15:13:10Z</time></trkpt><trkpt lat="45.77612079497489" lon="9.85830373332246"><ele>457.20000000000005</ele><time>2026-04-22T15:13:11Z</time></trkpt><trkpt lat="45.77611112067275" lon="9.858156590248578"><ele>457.79999999999995</ele><time>2026-04-22T15:13:12Z</time></trkpt><trkpt lat="45.77610776967178" lon="9.858018755622247"><ele>458.4</ele><time>2026-04-22T15:13:13Z</time></trkpt><trkpt lat="45.776109335231645" lon="9.857880395306443"><ele>459.0</ele><time>2026-04-22T15:13:14Z</time></trkpt><trkpt lat="45.776111803667916" lon="9.857745583126327"><ele>459.3333333333333</ele><time>2026-04-22T15:13:15Z</time></trkpt><trkpt lat="45.776116500606626" lon="9.85761295870964"><ele>459.66666666666663</ele><time>2026-04-22T15:13:16Z</time></trkpt><trkpt lat="45.77612303063221" lon="9.857479063105608"><ele>460.0</ele><time>2026-04-22T15:13:17Z</time></trkpt><trkpt lat="45.77613056985376" lon="9.857362766358515"><ele>460.3333333333333</ele><time>2026-04-22T15:13:18Z</time></trkpt><trkpt lat="45.77613106909899" lon="9.857230365868094"><ele>460.66666666666663</ele><time>2026-04-22T15:13:19Z</time></trkpt><trkpt lat="45.77613030636656" lon="9.857107625501767"><ele>461.0</ele><time>2026-04-22T15:13:20Z</time></trkpt><trkpt lat="45.77613980790821" lon="9.856984119077438"><ele>460.99999999999994</ele><time>2026-04-22T15:13:21Z</time></trkpt><trkpt lat="45.77614496246723" lon="9.85686700217724"><ele>461.0</ele><time>2026-04-22T15:13:22Z</time></trkpt><trkpt lat="45.77615639743407" lon="9.856753680074183"><ele>461.0</ele><time>2026-04-22T15:13:23Z</time></trkpt><trkpt lat="45.77616781914241" lon="9.856639800225244"><ele>461.0</ele><time>2026-04-22T15:13:24Z</time></trkpt><trkpt lat="45.77618478288033" lon="9.856522845255624"><ele>460.99999999999994</ele><time>2026-04-22T15:13:25Z</time></trkpt><trkpt lat="45.77620807548161" lon="9.856414387332045"><ele>461.0</ele><time>2026-04-22T15:13:26Z</time></trkpt><trkpt lat="45.77624235762827" lon="9.856311410603615"><ele>459.49999999999994</ele><time>2026-04-22T15:13:27Z</time></trkpt><trkpt lat="45.776283534809146" lon="9.85621265347944"><ele>458.0</ele><time>2026-04-22T15:13:28Z</time></trkpt><trkpt lat="45.77632635238813" lon="9.856118146191012"><ele>456.5</ele><time>2026-04-22T15:13:29Z</time></trkpt><trkpt lat="45.77637176547615" lon="9.856027422467136"><ele>455.0</ele><time>2026-04-22T15:13:30Z</time></trkpt><trkpt lat="45.77641550827785" lon="9.855939127171165"><ele>453.49999999999994</ele><time>2026-04-22T15:13:31Z</time></trkpt><trkpt lat="45.77645404172809" lon="9.855847096330832"><ele>452.0</ele><time>2026-04-22T15:13:32Z</time></trkpt><trkpt lat="45.776494405375566" lon="9.855757912124355"><ele>450.7142857142857</ele><time>2026-04-22T15:13:33Z</time></trkpt><trkpt lat="45.776535233179914" lon="9.855671560932132"><ele>449.4285714285714</ele><time>2026-04-22T15:13:34Z</time></trkpt><trkpt lat="45.77657362244363" lon="9.85558416395417"><ele>448.1428571428571</ele><time>2026-04-22T15:13:35Z</time></trkpt><trkpt lat="45.77661337798843" lon="9.855497663847121"><ele>446.8571428571429</ele><time>2026-04-22T15:13:36Z</time></trkpt><trkpt lat="45.776651665912794" lon="9.855410318569474"><ele>445.57142857142856</ele><time>2026-04-22T15:13:37Z</time></trkpt><trkpt lat="45.77669054570439" lon="9.855326011847328"><ele>444.2857142857143</ele><time>2026-04-22T15:13:38Z</time></trkpt><trkpt lat="45.77673746121235" lon="9.855250779646543"><ele>443.0</ele><time>2026-04-22T15:13:39Z</time></trkpt><trkpt lat="45.77678131703735" lon="9.855168351232889"><ele>443.0</ele><time>2026-04-22T15:13:40Z</time></trkpt><trkpt lat="45.77681844361142" lon="9.855087595866005"><ele>443.0</ele><time>2026-04-22T15:13:41Z</time></trkpt><trkpt lat="45.77685607244999" lon="9.855003943590216"><ele>443.0</ele><time>2026-04-22T15:13:42Z</time></trkpt><trkpt lat="45.77689180055282" lon="9.854914225552232"><ele>443.0</ele><time>2026-04-22T15:13:43Z</time></trkpt><trkpt lat="45.77691777264134" lon="9.854821651307677"><ele>443.0</ele><time>2026-04-22T15:13:44Z</time></trkpt><trkpt lat="45.776942571479125" lon="9.854726034864804"><ele>443.0</ele><time>2026-04-22T15:13:45Z</time></trkpt><trkpt lat="45.77696580504343" lon="9.854624941824639"><ele>443.0</ele><time>2026-04-22T15:13:46Z</time></trkpt><trkpt lat="45.77698504333223" lon="9.854525193318008"><ele>443.42857142857144</ele><time>2026-04-22T15:13:47Z</time></trkpt><trkpt lat="45.77700882799709" lon="9.85442673875009"><ele>443.8571428571429</ele><time>2026-04-22T15:13:48Z</time></trkpt><trkpt lat="45.77703678517728" lon="9.854334837178161"><ele>444.2857142857143</ele><time>2026-04-22T15:13:49Z</time></trkpt><trkpt lat="45.77706055927248" lon="9.854233966989229"><ele>444.7142857142857</ele><time>2026-04-22T15:13:50Z</time></trkpt><trkpt lat="45.77709688888235" lon="9.854141193584521"><ele>445.1428571428571</ele><time>2026-04-22T15:13:51Z</time></trkpt><trkpt lat="45.77713324750462" lon="9.854047136596405"><ele>445.57142857142856</ele><time>2026-04-22T15:13:52Z</time></trkpt><trkpt lat="45.77716952473015" lon="9.853944891195626"><ele>446.0</ele><time>2026-04-22T15:13:53Z</time></trkpt><trkpt lat="45.77720470810258" lon="9.8538429007358"><ele>445.99999999999994</ele><time>2026-04-22T15:13:54Z</time></trkpt><trkpt lat="45.7772410688855" lon="9.853737981066091"><ele>446.0</ele><time>2026-04-22T15:13:55Z</time></trkpt><trkpt lat="45.77727929172496" lon="9.853632094688148"><ele>446.0</ele><time>2026-04-22T15:13:56Z</time></trkpt><trkpt lat="45.777315397516006" lon="9.853521555591676"><ele>446.0</ele><time>2026-04-22T15:13:57Z</time></trkpt><trkpt lat="45.777349543669054" lon="9.853413285309982"><ele>445.99999999999994</ele><time>2026-04-22T15:13:58Z</time></trkpt><trkpt lat="45.77738626950586" lon="9.853305883299722"><ele>446.0</ele><time>2026-04-22T15:13:59Z</time></trkpt><trkpt lat="45.77742690154992" lon="9.8531972341558"><ele>445.3333333333333</ele><time>2026-04-22T15:14:00Z</time></trkpt><trkpt lat="45.77746721457578" lon="9.85309044252831"><ele>444.66666666666663</ele><time>2026-04-22T15:14:01Z</time></trkpt><trkpt lat="45.77750764222448" lon="9.852984636123857"><ele>444.0</ele><time>2026-04-22T15:14:02Z</time></trkpt><trkpt lat="45.7775466263695" lon="9.852877431070016"><ele>443.33333333333337</ele><time>2026-04-22T15:14:03Z</time></trkpt><trkpt lat="45.77758205015436" lon="9.85277111541179"><ele>442.6666666666667</ele><time>2026-04-22T15:14:04Z</time></trkpt><trkpt lat="45.77762098722698" lon="9.8526706783118"><ele>442.0</ele><time>2026-04-22T15:14:05Z</time></trkpt><trkpt lat="45.777654889423715" lon="9.852566892666356"><ele>443.7142857142858</ele><time>2026-04-22T15:14:06Z</time></trkpt><trkpt lat="45.77768724437308" lon="9.852466493857495"><ele>445.42857142857144</ele><time>2026-04-22T15:14:07Z</time></trkpt><trkpt lat="45.77772173036639" lon="9.852369686822934"><ele>447.14285714285717</ele><time>2026-04-22T15:14:08Z</time></trkpt><trkpt lat="45.777754066995456" lon="9.85227086031838"><ele>448.8571428571429</ele><time>2026-04-22T15:14:09Z</time></trkpt><trkpt lat="45.77778573267428" lon="9.852173276917625"><ele>450.5714285714286</ele><time>2026-04-22T15:14:10Z</time></trkpt><trkpt lat="45.7778168926948" lon="9.852076245910071"><ele>452.28571428571433</ele><time>2026-04-22T15:14:11Z</time></trkpt><trkpt lat="45.777844002947056" lon="9.851982576254837"><ele>454.0</ele><time>2026-04-22T15:14:12Z</time></trkpt><trkpt lat="45.77787408312346" lon="9.851887248215471"><ele>454.0</ele><time>2026-04-22T15:14:13Z</time></trkpt><trkpt lat="45.77790062871117" lon="9.851796524789274"><ele>454.00000000000006</ele><time>2026-04-22T15:14:14Z</time></trkpt><trkpt lat="45.777933094826864" lon="9.851706877402123"><ele>454.0</ele><time>2026-04-22T15:14:15Z</time></trkpt><trkpt lat="45.77796110627031" lon="9.851621065741183"><ele>454.0</ele><time>2026-04-22T15:14:16Z</time></trkpt><trkpt lat="45.77798653692545" lon="9.85153449425563"><ele>454.00000000000006</ele><time>2026-04-22T15:14:17Z</time></trkpt><trkpt lat="45.77801215172663" lon="9.85144994749779"><ele>454.0</ele><time>2026-04-22T15:14:18Z</time></trkpt><trkpt lat="45.778033922264676" lon="9.851363983890888"><ele>454.0</ele><time>2026-04-22T15:14:19Z</time></trkpt><trkpt lat="45.77805771158115" lon="9.851279766092"><ele>452.50000000000006</ele><time>2026-04-22T15:14:20Z</time></trkpt><trkpt lat="45.77808005793842" lon="9.851194604256156"><ele>451.0</ele><time>2026-04-22T15:14:21Z</time></trkpt><trkpt lat="45.778103423691434" lon="9.851109730854763"><ele>449.5</ele><time>2026-04-22T15:14:22Z</time></trkpt><trkpt lat="45.77813074699582" lon="9.851019624954326"><ele>448.0</ele><time>2026-04-22T15:14:23Z</time></trkpt><trkpt lat="45.77818586079218" lon="9.85085592557579"><ele>446.50000000000006</ele><time>2026-04-22T15:14:25Z</time></trkpt><trkpt lat="45.778215530478064" lon="9.850773993845996"><ele>445.0</ele><time>2026-04-22T15:14:26Z</time></trkpt><trkpt lat="45.778249015211564" lon="9.850697270507942"><ele>444.375</ele><time>2026-04-22T15:14:27Z</time></trkpt><trkpt lat="45.77827539066828" lon="9.850613924204785"><ele>443.75</ele><time>2026-04-22T15:14:28Z</time></trkpt><trkpt lat="45.77829978031426" lon="9.850529693278922"><ele>443.125</ele><time>2026-04-22T15:14:29Z</time></trkpt><trkpt lat="45.778319403031375" lon="9.850442621043396"><ele>442.5</ele><time>2026-04-22T15:14:30Z</time></trkpt><trkpt lat="45.778336223727216" lon="9.850355480869482"><ele>441.875</ele><time>2026-04-22T15:14:31Z</time></trkpt><trkpt lat="45.77835262166094" lon="9.8502672295316"><ele>441.25</ele><time>2026-04-22T15:14:32Z</time></trkpt><trkpt lat="45.77836366271609" lon="9.850176718187088"><ele>440.625</ele><time>2026-04-22T15:14:33Z</time></trkpt><trkpt lat="45.77837617077505" lon="9.85008569154132"><ele>440.0</ele><time>2026-04-22T15:14:34Z</time></trkpt><trkpt lat="45.778392860624514" lon="9.849995739887092"><ele>439.4285714285714</ele><time>2026-04-22T15:14:35Z</time></trkpt><trkpt lat="45.77841288100752" lon="9.849906463292145"><ele>438.85714285714283</ele><time>2026-04-22T15:14:36Z</time></trkpt><trkpt lat="45.77843748015071" lon="9.849816455985996"><ele>438.2857142857143</ele><time>2026-04-22T15:14:37Z</time></trkpt><trkpt lat="45.77846141392657" lon="9.849729088158359"><ele>437.71428571428567</ele><time>2026-04-22T15:14:38Z</time></trkpt><trkpt lat="45.778485220394096" lon="9.849640789612495"><ele>437.14285714285717</ele><time>2026-04-22T15:14:39Z</time></trkpt><trkpt lat="45.77851021580539" lon="9.849554807809348"><ele>436.57142857142856</ele><time>2026-04-22T15:14:40Z</time></trkpt><trkpt lat="45.77853418267292" lon="9.849466094712646"><ele>436.0</ele><time>2026-04-22T15:14:41Z</time></trkpt><trkpt lat="45.77855596503831" lon="9.849375038081165"><ele>440.0</ele><time>2026-04-22T15:14:42Z</time></trkpt><trkpt lat="45.77857824590723" lon="9.84928714224189"><ele>444.0</ele><time>2026-04-22T15:14:43Z</time></trkpt><trkpt lat="45.778602584858916" lon="9.849199031280673"><ele>448.0</ele><time>2026-04-22T15:14:44Z</time></trkpt><trkpt lat="45.77862752715295" lon="9.849112416971362"><ele>452.0</ele><time>2026-04-22T15:14:45Z</time></trkpt><trkpt lat="45.77864960471872" lon="9.849027704135532"><ele>456.0</ele><time>2026-04-22T15:14:46Z</time></trkpt><trkpt lat="45.77867133237924" lon="9.848942905034175"><ele>460.00000000000006</ele><time>2026-04-22T15:14:47Z</time></trkpt><trkpt lat="45.77869031175667" lon="9.848856497053358"><ele>464.00000000000006</ele><time>2026-04-22T15:14:48Z</time></trkpt><trkpt lat="45.77869316263118" lon="9.848757140707818"><ele>463.99999999999994</ele><time>2026-04-22T15:14:49Z</time></trkpt><trkpt lat="45.77869835450576" lon="9.848666093091902"><ele>464.0</ele><time>2026-04-22T15:14:50Z</time></trkpt><trkpt lat="45.778698574946525" lon="9.848570399694596"><ele>464.0</ele><time>2026-04-22T15:14:51Z</time></trkpt><trkpt lat="45.77870042487338" lon="9.84839228713544"><ele>464.0</ele><time>2026-04-22T15:14:53Z</time></trkpt><trkpt lat="45.77870951655366" lon="9.848298238581457"><ele>463.99999999999994</ele><time>2026-04-22T15:14:54Z</time></trkpt><trkpt lat="45.778731043478935" lon="9.848212115074581"><ele>464.0</ele><time>2026-04-22T15:14:55Z</time></trkpt><trkpt lat="45.778771217711146" lon="9.84813593033428"><ele>462.28571428571433</ele><time>2026-04-22T15:14:56Z</time></trkpt><trkpt lat="45.77880855912538" lon="9.848061329589108"><ele>460.57142857142856</ele><time>2026-04-22T15:14:57Z</time></trkpt><trkpt lat="45.77884531288875" lon="9.847985776905263"><ele>458.8571428571429</ele><time>2026-04-22T15:14:58Z</time></trkpt><trkpt lat="45.778882060755336" lon="9.847906449468127"><ele>457.14285714285717</ele><time>2026-04-22T15:14:59Z</time></trkpt><trkpt lat="45.77891572725543" lon="9.847823895059594"><ele>455.42857142857144</ele><time>2026-04-22T15:15:00Z</time></trkpt><trkpt lat="45.77894990884453" lon="9.847743320791231"><ele>453.7142857142857</ele><time>2026-04-22T15:15:01Z</time></trkpt><trkpt lat="45.77898258878137" lon="9.847663240315429"><ele>452.0</ele><time>2026-04-22T15:15:02Z</time></trkpt><trkpt lat="45.77901693340826" lon="9.847582457215172"><ele>450.2857142857143</ele><time>2026-04-22T15:15:03Z</time></trkpt><trkpt lat="45.779052613180795" lon="9.847501686092068"><ele>448.57142857142856</ele><time>2026-04-22T15:15:04Z</time></trkpt><trkpt lat="45.779086312904006" lon="9.847422898379689"><ele>446.85714285714283</ele><time>2026-04-22T15:15:05Z</time></trkpt><trkpt lat="45.77912052750876" lon="9.847342144379327"><ele>445.1428571428571</ele><time>2026-04-22T15:15:06Z</time></trkpt><trkpt lat="45.779151820969716" lon="9.847263574701957"><ele>443.42857142857144</ele><time>2026-04-22T15:15:07Z</time></trkpt><trkpt lat="45.77918235347378" lon="9.847181888088938"><ele>441.71428571428567</ele><time>2026-04-22T15:15:08Z</time></trkpt><trkpt lat="45.779216564883455" lon="9.847099511945633"><ele>440.0</ele><time>2026-04-22T15:15:09Z</time></trkpt><trkpt lat="45.77924914478551" lon="9.84702196846796"><ele>439.99999999999994</ele><time>2026-04-22T15:15:10Z</time></trkpt><trkpt lat="45.779281881931155" lon="9.846940761111114"><ele>440.0</ele><time>2026-04-22T15:15:11Z</time></trkpt><trkpt lat="45.779311795430424" lon="9.846859621660899"><ele>440.0</ele><time>2026-04-22T15:15:12Z</time></trkpt><trkpt lat="45.77933800240788" lon="9.846774303565141"><ele>440.0</ele><time>2026-04-22T15:15:13Z</time></trkpt><trkpt lat="45.779366899544435" lon="9.846690494962317"><ele>439.99999999999994</ele><time>2026-04-22T15:15:14Z</time></trkpt><trkpt lat="45.77939658767184" lon="9.846605167005675"><ele>440.0</ele><time>2026-04-22T15:15:15Z</time></trkpt><trkpt lat="45.77944952272796" lon="9.846436497415981"><ele>439.85714285714283</ele><time>2026-04-22T15:15:17Z</time></trkpt><trkpt lat="45.77947608090125" lon="9.846353690082308"><ele>439.7142857142857</ele><time>2026-04-22T15:15:18Z</time></trkpt><trkpt lat="45.77950463597434" lon="9.846269465797384"><ele>439.57142857142856</ele><time>2026-04-22T15:15:19Z</time></trkpt><trkpt lat="45.7795359354353" lon="9.846186216256243"><ele>439.42857142857144</ele><time>2026-04-22T15:15:20Z</time></trkpt><trkpt lat="45.77956952166134" lon="9.84610561836237"><ele>439.2857142857143</ele><time>2026-04-22T15:15:21Z</time></trkpt><trkpt lat="45.779609067838855" lon="9.846029281640476"><ele>439.1428571428571</ele><time>2026-04-22T15:15:22Z</time></trkpt><trkpt lat="45.77965473531864" lon="9.845958035445413"><ele>439.0</ele><time>2026-04-22T15:15:23Z</time></trkpt><trkpt lat="45.77970334975402" lon="9.845895028927675"><ele>439.0</ele><time>2026-04-22T15:15:24Z</time></trkpt><trkpt lat="45.77975733749238" lon="9.845834111967577"><ele>439.0</ele><time>2026-04-22T15:15:25Z</time></trkpt><trkpt lat="45.779807081002524" lon="9.845771469558231"><ele>439.0</ele><time>2026-04-22T15:15:26Z</time></trkpt><trkpt lat="45.77985682634199" lon="9.845709224947106"><ele>439.0</ele><time>2026-04-22T15:15:27Z</time></trkpt><trkpt lat="45.779905614313726" lon="9.845647257888059"><ele>439.0</ele><time>2026-04-22T15:15:28Z</time></trkpt><trkpt lat="45.779951982572264" lon="9.845580535324103"><ele>439.0</ele><time>2026-04-22T15:15:29Z</time></trkpt><trkpt lat="45.779993573609666" lon="9.845512619626572"><ele>439.0</ele><time>2026-04-22T15:15:30Z</time></trkpt><trkpt lat="45.78003202359758" lon="9.845438494123659"><ele>439.0</ele><time>2026-04-22T15:15:31Z</time></trkpt><trkpt lat="45.78006571947994" lon="9.845359596782155"><ele>439.0</ele><time>2026-04-22T15:15:32Z</time></trkpt><trkpt lat="45.7801141477864" lon="9.845194963057072"><ele>439.0</ele><time>2026-04-22T15:15:34Z</time></trkpt><trkpt lat="45.78013117360335" lon="9.84501641505958"><ele>439.0</ele><time>2026-04-22T15:15:36Z</time></trkpt><trkpt lat="45.78012201646391" lon="9.844837040217051"><ele>439.0</ele><time>2026-04-22T15:15:38Z</time></trkpt><trkpt lat="45.780137968876836" lon="9.844653134861755"><ele>439.42857142857144</ele><time>2026-04-22T15:15:40Z</time></trkpt><trkpt lat="45.780159760679936" lon="9.844567956529774"><ele>439.85714285714283</ele><time>2026-04-22T15:15:41Z</time></trkpt><trkpt lat="45.78019822418901" lon="9.844488698763865"><ele>440.28571428571433</ele><time>2026-04-22T15:15:42Z</time></trkpt><trkpt lat="45.780246531628755" lon="9.84442301871017"><ele>440.7142857142857</ele><time>2026-04-22T15:15:43Z</time></trkpt><trkpt lat="45.78029970154268" lon="9.844364455991833"><ele>441.14285714285717</ele><time>2026-04-22T15:15:44Z</time></trkpt><trkpt lat="45.78035249537565" lon="9.84430849372753"><ele>441.5714285714286</ele><time>2026-04-22T15:15:45Z</time></trkpt><trkpt lat="45.780409856828456" lon="9.844259736371104"><ele>442.0</ele><time>2026-04-22T15:15:46Z</time></trkpt><trkpt lat="45.780462272922755" lon="9.844202684509225"><ele>442.00000000000006</ele><time>2026-04-22T15:15:47Z</time></trkpt><trkpt lat="45.78051102726443" lon="9.844140360700042"><ele>442.0</ele><time>2026-04-22T15:15:48Z</time></trkpt><trkpt lat="45.780560272557786" lon="9.84407984305154"><ele>442.0</ele><time>2026-04-22T15:15:49Z</time></trkpt><trkpt lat="45.78060493216572" lon="9.844011066224576"><ele>442.0</ele><time>2026-04-22T15:15:50Z</time></trkpt><trkpt lat="45.78064489104874" lon="9.84393998865423"><ele>442.0</ele><time>2026-04-22T15:15:51Z</time></trkpt><trkpt lat="45.78068329895063" lon="9.843866486765501"><ele>442.00000000000006</ele><time>2026-04-22T15:15:52Z</time></trkpt><trkpt lat="45.78070630751664" lon="9.843781593808002"><ele>442.0</ele><time>2026-04-22T15:15:53Z</time></trkpt><trkpt lat="45.780713303639025" lon="9.84368568404251"><ele>442.00000000000006</ele><time>2026-04-22T15:15:54Z</time></trkpt><trkpt lat="45.78071061343328" lon="9.843589853695423"><ele>442.0</ele><time>2026-04-22T15:15:55Z</time></trkpt><trkpt lat="45.78070301246698" lon="9.843498763714338"><ele>442.0</ele><time>2026-04-22T15:15:56Z</time></trkpt><trkpt lat="45.78069843595607" lon="9.843404350816524"><ele>442.0</ele><time>2026-04-22T15:15:57Z</time></trkpt><trkpt lat="45.780698805182055" lon="9.843312253313249"><ele>442.0</ele><time>2026-04-22T15:15:58Z</time></trkpt><trkpt lat="45.78069783273752" lon="9.843218688667353"><ele>442.00000000000006</ele><time>2026-04-22T15:15:59Z</time></trkpt><trkpt lat="45.78070199390293" lon="9.84312454058132"><ele>442.0</ele><time>2026-04-22T15:16:00Z</time></trkpt><trkpt lat="45.780712485704896" lon="9.843027410823892"><ele>440.28571428571433</ele><time>2026-04-22T15:16:01Z</time></trkpt><trkpt lat="45.78072658923273" lon="9.84293490856227"><ele>438.57142857142856</ele><time>2026-04-22T15:16:02Z</time></trkpt><trkpt lat="45.780741654946844" lon="9.842838043687108"><ele>436.8571428571429</ele><time>2026-04-22T15:16:03Z</time></trkpt><trkpt lat="45.78076378417191" lon="9.842742123421187"><ele>435.14285714285717</ele><time>2026-04-22T15:16:04Z</time></trkpt><trkpt lat="45.780790792717205" lon="9.842647470942829"><ele>433.42857142857144</ele><time>2026-04-22T15:16:05Z</time></trkpt><trkpt lat="45.780823194524196" lon="9.84255527628453"><ele>431.7142857142857</ele><time>2026-04-22T15:16:06Z</time></trkpt><trkpt lat="45.780857777876875" lon="9.84246600902193"><ele>430.0</ele><time>2026-04-22T15:16:07Z</time></trkpt><trkpt lat="45.78089232325023" lon="9.84237841946489"><ele>429.57142857142856</ele><time>2026-04-22T15:16:08Z</time></trkpt><trkpt lat="45.78092626979754" lon="9.842291325887947"><ele>429.14285714285717</ele><time>2026-04-22T15:16:09Z</time></trkpt><trkpt lat="45.78096296045578" lon="9.842209309104407"><ele>428.7142857142857</ele><time>2026-04-22T15:16:10Z</time></trkpt><trkpt lat="45.78099620469061" lon="9.842121148709902"><ele>428.2857142857143</ele><time>2026-04-22T15:16:11Z</time></trkpt><trkpt lat="45.78102794592371" lon="9.842032705062625"><ele>427.8571428571429</ele><time>2026-04-22T15:16:12Z</time></trkpt><trkpt lat="45.78106182971324" lon="9.841946430842526"><ele>427.42857142857144</ele><time>2026-04-22T15:16:13Z</time></trkpt><trkpt lat="45.781092778582355" lon="9.841862028192121"><ele>427.0</ele><time>2026-04-22T15:16:14Z</time></trkpt><trkpt lat="45.781124884059444" lon="9.841773968027383"><ele>431.0</ele><time>2026-04-22T15:16:15Z</time></trkpt><trkpt lat="45.78115645242225" lon="9.841687312754612"><ele>435.0</ele><time>2026-04-22T15:16:16Z</time></trkpt><trkpt lat="45.78118400280231" lon="9.841598770783552"><ele>439.0</ele><time>2026-04-22T15:16:17Z</time></trkpt><trkpt lat="45.78120677900544" lon="9.841505460867019"><ele>443.0</ele><time>2026-04-22T15:16:18Z</time></trkpt><trkpt lat="45.78122743028829" lon="9.841414286740969"><ele>447.0</ele><time>2026-04-22T15:16:19Z</time></trkpt><trkpt lat="45.78124928225774" lon="9.841328158136502"><ele>451.0</ele><time>2026-04-22T15:16:20Z</time></trkpt><trkpt lat="45.781256900143525" lon="9.84122914091925"><ele>455.0</ele><time>2026-04-22T15:16:21Z</time></trkpt><trkpt lat="45.7812706216466" lon="9.841140353580762"><ele>455.0</ele><time>2026-04-22T15:16:22Z</time></trkpt><trkpt lat="45.78128781601775" lon="9.841047949315634"><ele>455.0</ele><time>2026-04-22T15:16:23Z</time></trkpt><trkpt lat="45.78129769280821" lon="9.84095526430286"><ele>455.0</ele><time>2026-04-22T15:16:24Z</time></trkpt><trkpt lat="45.78130967403152" lon="9.840861368634313"><ele>455.0</ele><time>2026-04-22T15:16:25Z</time></trkpt><trkpt lat="45.7813317231536" lon="9.840770600022486"><ele>455.0</ele><time>2026-04-22T15:16:26Z</time></trkpt><trkpt lat="45.78135106410144" lon="9.840681208209885"><ele>455.0</ele><time>2026-04-22T15:16:27Z</time></trkpt><trkpt lat="45.781368116039644" lon="9.840589955587236"><ele>455.0</ele><time>2026-04-22T15:16:28Z</time></trkpt><trkpt lat="45.781387848641025" lon="9.840498962320014"><ele>453.7142857142857</ele><time>2026-04-22T15:16:29Z</time></trkpt><trkpt lat="45.781410966995594" lon="9.840408873235285"><ele>452.42857142857144</ele><time>2026-04-22T15:16:30Z</time></trkpt><trkpt lat="45.78142758261861" lon="9.840319015282775"><ele>451.1428571428571</ele><time>2026-04-22T15:16:31Z</time></trkpt><trkpt lat="45.781453227679954" lon="9.840228289896043"><ele>449.8571428571429</ele><time>2026-04-22T15:16:32Z</time></trkpt><trkpt lat="45.781478209862286" lon="9.840144321125827"><ele>448.57142857142856</ele><time>2026-04-22T15:16:33Z</time></trkpt><trkpt lat="45.78149961298694" lon="9.840057667585622"><ele>447.2857142857143</ele><time>2026-04-22T15:16:34Z</time></trkpt><trkpt lat="45.781517331443595" lon="9.839965583932962"><ele>446.0</ele><time>2026-04-22T15:16:35Z</time></trkpt><trkpt lat="45.78156129234497" lon="9.839796567761796"><ele>443.6</ele><time>2026-04-22T15:16:37Z</time></trkpt><trkpt lat="45.78157603834585" lon="9.83970879165526"><ele>441.20000000000005</ele><time>2026-04-22T15:16:38Z</time></trkpt><trkpt lat="45.78158684015956" lon="9.83961909259228"><ele>438.79999999999995</ele><time>2026-04-22T15:16:39Z</time></trkpt><trkpt lat="45.78162536231704" lon="9.839452127993042"><ele>436.4</ele><time>2026-04-22T15:16:41Z</time></trkpt><trkpt lat="45.781661721513366" lon="9.83928992456256"><ele>434.0</ele><time>2026-04-22T15:16:43Z</time></trkpt><trkpt lat="45.78171226529241" lon="9.839134555830258"><ele>431.25</ele><time>2026-04-22T15:16:45Z</time></trkpt><trkpt lat="45.78177603894115" lon="9.838987911993176"><ele>428.5</ele><time>2026-04-22T15:16:47Z</time></trkpt><trkpt lat="45.78183809681008" lon="9.838842398852753"><ele>425.75</ele><time>2026-04-22T15:16:49Z</time></trkpt><trkpt lat="45.781877073871705" lon="9.838685131915483"><ele>423.0</ele><time>2026-04-22T15:16:51Z</time></trkpt><trkpt lat="45.78188800697954" lon="9.838518769658878"><ele>430.0</ele><time>2026-04-22T15:16:53Z</time></trkpt><trkpt lat="45.78188367047641" lon="9.838352395788906"><ele>437.0</ele><time>2026-04-22T15:16:55Z</time></trkpt><trkpt lat="45.78190460884718" lon="9.838193407664367"><ele>443.99999999999994</ele><time>2026-04-22T15:16:57Z</time></trkpt><trkpt lat="45.78194950511508" lon="9.838024638437066"><ele>451.0</ele><time>2026-04-22T15:16:59Z</time></trkpt><trkpt lat="45.78198424273824" lon="9.8379460165808"><ele>458.0</ele><time>2026-04-22T15:17:00Z</time></trkpt><trkpt lat="45.782021905086545" lon="9.837866455544717"><ele>458.0</ele><time>2026-04-22T15:17:01Z</time></trkpt><trkpt lat="45.782064062379405" lon="9.83779160469296"><ele>458.0</ele><time>2026-04-22T15:17:02Z</time></trkpt><trkpt lat="45.782102691456465" lon="9.837711216164793"><ele>458.0</ele><time>2026-04-22T15:17:03Z</time></trkpt><trkpt lat="45.782142497770224" lon="9.837639820136706"><ele>458.0</ele><time>2026-04-22T15:17:04Z</time></trkpt><trkpt lat="45.782182430251964" lon="9.83756249013173"><ele>458.0</ele><time>2026-04-22T15:17:05Z</time></trkpt><trkpt lat="45.78222189781664" lon="9.837488947211966"><ele>458.0</ele><time>2026-04-22T15:17:06Z</time></trkpt><trkpt lat="45.782262544007835" lon="9.837418464308108"><ele>458.0</ele><time>2026-04-22T15:17:07Z</time></trkpt><trkpt lat="45.78233946390107" lon="9.83728171624651"><ele>453.2</ele><time>2026-04-22T15:17:09Z</time></trkpt><trkpt lat="45.78241360798146" lon="9.837147278816017"><ele>448.4</ele><time>2026-04-22T15:17:11Z</time></trkpt><trkpt lat="45.78248350560072" lon="9.83701034505088"><ele>443.59999999999997</ele><time>2026-04-22T15:17:13Z</time></trkpt><trkpt lat="45.78254431803336" lon="9.836855526391936"><ele>438.79999999999995</ele><time>2026-04-22T15:17:15Z</time></trkpt><trkpt lat="45.78255718675154" lon="9.836765989205716"><ele>434.0</ele><time>2026-04-22T15:17:16Z</time></trkpt><trkpt lat="45.78256028735216" lon="9.83667569581883"><ele>432.42857142857144</ele><time>2026-04-22T15:17:17Z</time></trkpt><trkpt lat="45.78256264322116" lon="9.836583032069882"><ele>430.8571428571429</ele><time>2026-04-22T15:17:18Z</time></trkpt><trkpt lat="45.78257549691827" lon="9.836492449291764"><ele>429.2857142857143</ele><time>2026-04-22T15:17:19Z</time></trkpt><trkpt lat="45.782592175180035" lon="9.836401014418373"><ele>427.7142857142857</ele><time>2026-04-22T15:17:20Z</time></trkpt><trkpt lat="45.78261194179115" lon="9.836312791609469"><ele>426.14285714285717</ele><time>2026-04-22T15:17:21Z</time></trkpt><trkpt lat="45.782634113210264" lon="9.836221052945193"><ele>424.57142857142856</ele><time>2026-04-22T15:17:22Z</time></trkpt><trkpt lat="45.782659718532024" lon="9.836132825686407"><ele>423.0</ele><time>2026-04-22T15:17:23Z</time></trkpt><trkpt lat="45.782682955080965" lon="9.836042954089448"><ele>422.8333333333333</ele><time>2026-04-22T15:17:24Z</time></trkpt><trkpt lat="45.782706393637255" lon="9.835953869321381"><ele>422.66666666666663</ele><time>2026-04-22T15:17:25Z</time></trkpt><trkpt lat="45.78272566989102" lon="9.835863751404526"><ele>422.5</ele><time>2026-04-22T15:17:26Z</time></trkpt><trkpt lat="45.78274076545247" lon="9.835774471275766"><ele>422.3333333333333</ele><time>2026-04-22T15:17:27Z</time></trkpt><trkpt lat="45.78274278792494" lon="9.835600027848793"><ele>422.16666666666663</ele><time>2026-04-22T15:17:29Z</time></trkpt><trkpt lat="45.78269859428311" lon="9.835429517058525"><ele>422.0</ele><time>2026-04-22T15:17:31Z</time></trkpt><trkpt lat="45.782668253451305" lon="9.835343516980698"><ele>421.99999999999994</ele><time>2026-04-22T15:17:32Z</time></trkpt><trkpt lat="45.78262005128349" lon="9.835271216994721"><ele>422.0</ele><time>2026-04-22T15:17:33Z</time></trkpt><trkpt lat="45.7825640982681" lon="9.8351960148531"><ele>422.0</ele><time>2026-04-22T15:17:34Z</time></trkpt><trkpt lat="45.78251589592736" lon="9.835116939743557"><ele>422.0</ele><time>2026-04-22T15:17:35Z</time></trkpt><trkpt lat="45.7824686540403" lon="9.835030264825892"><ele>421.99999999999994</ele><time>2026-04-22T15:17:36Z</time></trkpt><trkpt lat="45.7824228774072" lon="9.83493899760449"><ele>422.0</ele><time>2026-04-22T15:17:37Z</time></trkpt><trkpt lat="45.78238222691882" lon="9.834840536317609"><ele>421.66666666666663</ele><time>2026-04-22T15:17:38Z</time></trkpt><trkpt lat="45.78235511404747" lon="9.834729418160848"><ele>421.3333333333333</ele><time>2026-04-22T15:17:39Z</time></trkpt><trkpt lat="45.7823498212088" lon="9.834609272017548"><ele>421.0</ele><time>2026-04-22T15:17:40Z</time></trkpt><trkpt lat="45.78236356134468" lon="9.834479613009805"><ele>420.66666666666663</ele><time>2026-04-22T15:17:41Z</time></trkpt><trkpt lat="45.78239785280408" lon="9.834358970403578"><ele>420.3333333333333</ele><time>2026-04-22T15:17:42Z</time></trkpt><trkpt lat="45.782443708541074" lon="9.83424825678184"><ele>420.0</ele><time>2026-04-22T15:17:43Z</time></trkpt><trkpt lat="45.782493492759215" lon="9.834136731025955"><ele>420.0</ele><time>2026-04-22T15:17:44Z</time></trkpt><trkpt lat="45.782546299893866" lon="9.834032994801614"><ele>420.0</ele><time>2026-04-22T15:17:45Z</time></trkpt><trkpt lat="45.782600154998455" lon="9.833927156374624"><ele>420.0</ele><time>2026-04-22T15:17:46Z</time></trkpt><trkpt lat="45.78264199690567" lon="9.833813596016816"><ele>420.0</ele><time>2026-04-22T15:17:47Z</time></trkpt><trkpt lat="45.78267029979621" lon="9.833691441478111"><ele>420.0</ele><time>2026-04-22T15:17:48Z</time></trkpt><trkpt lat="45.7826807369822" lon="9.833561168986243"><ele>417.0</ele><time>2026-04-22T15:17:49Z</time></trkpt><trkpt lat="45.78267701275039" lon="9.833427528908478"><ele>414.0</ele><time>2026-04-22T15:17:50Z</time></trkpt><trkpt lat="45.78266291265461" lon="9.833292862612614"><ele>411.0</ele><time>2026-04-22T15:17:51Z</time></trkpt><trkpt lat="45.7826472276407" lon="9.833159887003948"><ele>408.0</ele><time>2026-04-22T15:17:52Z</time></trkpt><trkpt lat="45.78262338285669" lon="9.833028075593443"><ele>405.0</ele><time>2026-04-22T15:17:53Z</time></trkpt><trkpt lat="45.78260700862825" lon="9.832892766584207"><ele>405.0</ele><time>2026-04-22T15:17:54Z</time></trkpt><trkpt lat="45.78259575724191" lon="9.832752088342383"><ele>405.0</ele><time>2026-04-22T15:17:55Z</time></trkpt><trkpt lat="45.78259187204957" lon="9.832608603019942"><ele>405.0</ele><time>2026-04-22T15:17:56Z</time></trkpt><trkpt lat="45.78258662028353" lon="9.83246311928477"><ele>405.0</ele><time>2026-04-22T15:17:57Z</time></trkpt><trkpt lat="45.78258679161352" lon="9.832315137541293"><ele>405.0</ele><time>2026-04-22T15:17:58Z</time></trkpt><trkpt lat="45.78259248547096" lon="9.832164772499253"><ele>405.0</ele><time>2026-04-22T15:17:59Z</time></trkpt><trkpt lat="45.78259469300916" lon="9.832012227686096"><ele>405.0</ele><time>2026-04-22T15:18:00Z</time></trkpt><trkpt lat="45.78260328601947" lon="9.831857404948003"><ele>405.0</ele><time>2026-04-22T15:18:01Z</time></trkpt><trkpt lat="45.78260845968094" lon="9.831701033717074"><ele>405.0</ele><time>2026-04-22T15:18:02Z</time></trkpt><trkpt lat="45.7826155102098" lon="9.83154609182084"><ele>405.0</ele><time>2026-04-22T15:18:03Z</time></trkpt><trkpt lat="45.782613829753366" lon="9.831388951358747"><ele>404.4</ele><time>2026-04-22T15:18:04Z</time></trkpt><trkpt lat="45.78260273875298" lon="9.831234520624196"><ele>403.8</ele><time>2026-04-22T15:18:05Z</time></trkpt><trkpt lat="45.78257936655051" lon="9.831086800937928"><ele>403.20000000000005</ele><time>2026-04-22T15:18:06Z</time></trkpt><trkpt lat="45.7825302922394" lon="9.830943214787098"><ele>402.6</ele><time>2026-04-22T15:18:07Z</time></trkpt><trkpt lat="45.7824668510909" lon="9.830809773556298"><ele>402.0</ele><time>2026-04-22T15:18:08Z</time></trkpt><trkpt lat="45.78239662692799" lon="9.830685391205414"><ele>402.0</ele><time>2026-04-22T15:18:09Z</time></trkpt><trkpt lat="45.78233520419259" lon="9.830555842238473"><ele>402.0</ele><time>2026-04-22T15:18:10Z</time></trkpt><trkpt lat="45.7822750230754" lon="9.830424055629068"><ele>402.0</ele><time>2026-04-22T15:18:11Z</time></trkpt><trkpt lat="45.78222040650499" lon="9.830282764598172"><ele>402.0</ele><time>2026-04-22T15:18:12Z</time></trkpt><trkpt lat="45.78216493468774" lon="9.830146645495363"><ele>402.0</ele><time>2026-04-22T15:18:13Z</time></trkpt><trkpt lat="45.782101094631564" lon="9.830010289284683"><ele>403.20000000000005</ele><time>2026-04-22T15:18:14Z</time></trkpt><trkpt lat="45.782038307372396" lon="9.82987702806818"><ele>404.4</ele><time>2026-04-22T15:18:15Z</time></trkpt><trkpt lat="45.78197974032154" lon="9.82975428909299"><ele>405.6</ele><time>2026-04-22T15:18:16Z</time></trkpt><trkpt lat="45.78192461042436" lon="9.829639286701775"><ele>406.79999999999995</ele><time>2026-04-22T15:18:17Z</time></trkpt><trkpt lat="45.78188155909935" lon="9.82951009002516"><ele>408.0</ele><time>2026-04-22T15:18:18Z</time></trkpt><trkpt lat="45.78185133489484" lon="9.829378358351542"><ele>403.79999999999995</ele><time>2026-04-22T15:18:19Z</time></trkpt><trkpt lat="45.78183436501359" lon="9.82924337393064"><ele>399.6</ele><time>2026-04-22T15:18:20Z</time></trkpt><trkpt lat="45.78182809971993" lon="9.829106918397681"><ele>395.4</ele><time>2026-04-22T15:18:21Z</time></trkpt><trkpt lat="45.781821861315464" lon="9.828968518843492"><ele>391.20000000000005</ele><time>2026-04-22T15:18:22Z</time></trkpt><trkpt lat="45.7818096023193" lon="9.828834032638408"><ele>387.0</ele><time>2026-04-22T15:18:23Z</time></trkpt><trkpt lat="45.781777808886275" lon="9.828710842411319"><ele>387.0</ele><time>2026-04-22T15:18:24Z</time></trkpt><trkpt lat="45.78171312689801" lon="9.828614284879226"><ele>387.0</ele><time>2026-04-22T15:18:25Z</time></trkpt><trkpt lat="45.78163125633717" lon="9.828545167344275"><ele>387.0</ele><time>2026-04-22T15:18:26Z</time></trkpt><trkpt lat="45.78154968317768" lon="9.828485862191426"><ele>387.0</ele><time>2026-04-22T15:18:27Z</time></trkpt><trkpt lat="45.78146310864534" lon="9.828427074851513"><ele>387.0</ele><time>2026-04-22T15:18:28Z</time></trkpt><trkpt lat="45.7813721869868" lon="9.828369975239779"><ele>387.20000000000005</ele><time>2026-04-22T15:18:29Z</time></trkpt><trkpt lat="45.781271869961905" lon="9.828335190885287"><ele>387.4</ele><time>2026-04-22T15:18:30Z</time></trkpt><trkpt lat="45.78116862629713" lon="9.82831428850038"><ele>387.6</ele><time>2026-04-22T15:18:31Z</time></trkpt><trkpt lat="45.781063474130576" lon="9.828300395413581"><ele>387.79999999999995</ele><time>2026-04-22T15:18:32Z</time></trkpt><trkpt lat="45.7809566159713" lon="9.828280813053508"><ele>388.0</ele><time>2026-04-22T15:18:33Z</time></trkpt><trkpt lat="45.78084968537992" lon="9.828236946552327"><ele>385.59999999999997</ele><time>2026-04-22T15:18:34Z</time></trkpt><trkpt lat="45.780741794941385" lon="9.828194796293745"><ele>383.2</ele><time>2026-04-22T15:18:35Z</time></trkpt><trkpt lat="45.78063234898974" lon="9.828150144508669"><ele>380.8</ele><time>2026-04-22T15:18:36Z</time></trkpt><trkpt lat="45.780524369504725" lon="9.828106302488"><ele>378.4</ele><time>2026-04-22T15:18:37Z</time></trkpt><trkpt lat="45.78041705318332" lon="9.828064837861737"><ele>376.0</ele><time>2026-04-22T15:18:38Z</time></trkpt><trkpt lat="45.780315053244145" lon="9.828015813586799"><ele>376.0</ele><time>2026-04-22T15:18:39Z</time></trkpt><trkpt lat="45.78021999912348" lon="9.827961860906957"><ele>376.0</ele><time>2026-04-22T15:18:40Z</time></trkpt><trkpt lat="45.78013212515353" lon="9.827912211476267"><ele>376.0</ele><time>2026-04-22T15:18:41Z</time></trkpt><trkpt lat="45.78005894304206" lon="9.827846706827609"><ele>376.0</ele><time>2026-04-22T15:18:42Z</time></trkpt><trkpt lat="45.77999943677278" lon="9.827756119593024"><ele>376.0</ele><time>2026-04-22T15:18:43Z</time></trkpt><trkpt lat="45.77994472655569" lon="9.827651304523842"><ele>375.3333333333333</ele><time>2026-04-22T15:18:44Z</time></trkpt><trkpt lat="45.7798975709089" lon="9.827535149776445"><ele>374.66666666666663</ele><time>2026-04-22T15:18:45Z</time></trkpt><trkpt lat="45.779851495938" lon="9.827427407432502"><ele>374.0</ele><time>2026-04-22T15:18:46Z</time></trkpt><trkpt lat="45.7798171816224" lon="9.827309226332764"><ele>373.3333333333333</ele><time>2026-04-22T15:18:47Z</time></trkpt><trkpt lat="45.779795979998205" lon="9.827190694024548"><ele>372.6666666666667</ele><time>2026-04-22T15:18:48Z</time></trkpt><trkpt lat="45.77977534782353" lon="9.82706351903005"><ele>372.0</ele><time>2026-04-22T15:18:49Z</time></trkpt><trkpt lat="45.77976140365131" lon="9.826937951357678"><ele>371.8333333333333</ele><time>2026-04-22T15:18:50Z</time></trkpt><trkpt lat="45.77974447877857" lon="9.826803176803008"><ele>371.6666666666667</ele><time>2026-04-22T15:18:51Z</time></trkpt><trkpt lat="45.77971826615752" lon="9.82667813577728"><ele>371.5</ele><time>2026-04-22T15:18:52Z</time></trkpt><trkpt lat="45.77968889594758" lon="9.82656553802153"><ele>371.33333333333337</ele><time>2026-04-22T15:18:53Z</time></trkpt><trkpt lat="45.779648261892" lon="9.826478617092185"><ele>371.1666666666667</ele><time>2026-04-22T15:18:54Z</time></trkpt><trkpt lat="45.779587417237124" lon="9.826421319067142"><ele>371.0</ele><time>2026-04-22T15:18:55Z</time></trkpt><trkpt lat="45.77952555978962" lon="9.82637102046637"><ele>371.0</ele><time>2026-04-22T15:18:56Z</time></trkpt><trkpt lat="45.779464419458066" lon="9.826333750895339"><ele>371.0</ele><time>2026-04-22T15:18:57Z</time></trkpt><trkpt lat="45.77938133856438" lon="9.82630145313454"><ele>371.0</ele><time>2026-04-22T15:18:59Z</time></trkpt><trkpt lat="45.77929104923036" lon="9.826293414718378"><ele>371.0</ele><time>2026-04-22T15:19:01Z</time></trkpt><trkpt lat="45.77922772929991" lon="9.826318354464611"><ele>371.0</ele><time>2026-04-22T15:19:02Z</time></trkpt><trkpt lat="45.7791550185101" lon="9.826347061615081"><ele>371.0</ele><time>2026-04-22T15:19:03Z</time></trkpt><trkpt lat="45.779076495300444" lon="9.826351893958902"><ele>369.8</ele><time>2026-04-22T15:19:04Z</time></trkpt><trkpt lat="45.77898844422966" lon="9.826320152911894"><ele>368.6</ele><time>2026-04-22T15:19:05Z</time></trkpt><trkpt lat="45.77890443752427" lon="9.826241797687873"><ele>367.4</ele><time>2026-04-22T15:19:06Z</time></trkpt><trkpt lat="45.77883847496779" lon="9.826125893763804"><ele>366.2</ele><time>2026-04-22T15:19:07Z</time></trkpt><trkpt lat="45.77878026171623" lon="9.826019827681312"><ele>365.0</ele><time>2026-04-22T15:19:08Z</time></trkpt><trkpt lat="45.77872324847566" lon="9.825931099592081"><ele>364.33333333333337</ele><time>2026-04-22T15:19:09Z</time></trkpt><trkpt lat="45.77868507647831" lon="9.825846352662731"><ele>363.6666666666667</ele><time>2026-04-22T15:19:10Z</time></trkpt><trkpt lat="45.778671838641415" lon="9.825745389994823"><ele>363.0</ele><time>2026-04-22T15:19:11Z</time></trkpt><trkpt lat="45.778687907635145" lon="9.825638630295925"><ele>362.3333333333333</ele><time>2026-04-22T15:19:12Z</time></trkpt><trkpt lat="45.77860599945079" lon="9.825518450887213"><ele>361.66666666666663</ele><time>2026-04-22T15:19:14Z</time></trkpt><trkpt lat="45.77854283992177" lon="9.825535957824851"><ele>361.0</ele><time>2026-04-22T15:19:15Z</time></trkpt><trkpt lat="45.77842752358779" lon="9.825567157228113"><ele>361.0</ele><time>2026-04-22T15:19:17Z</time></trkpt><trkpt lat="45.7783123721927" lon="9.825518561206124"><ele>361.0</ele><time>2026-04-22T15:19:19Z</time></trkpt><trkpt lat="45.778249143461096" lon="9.825500292235056"><ele>361.0</ele><time>2026-04-22T15:19:20Z</time></trkpt><trkpt lat="45.77812698471117" lon="9.825460568906504"><ele>361.0</ele><time>2026-04-22T15:19:22Z</time></trkpt><trkpt lat="45.778006762343495" lon="9.825409656222835"><ele>361.0</ele><time>2026-04-22T15:19:24Z</time></trkpt><trkpt lat="45.777892807467964" lon="9.825345150622459"><ele>361.0</ele><time>2026-04-22T15:19:26Z</time></trkpt><trkpt lat="45.777832876857424" lon="9.825311757311018"><ele>361.0</ele><time>2026-04-22T15:19:27Z</time></trkpt><trkpt lat="45.777722525421304" lon="9.825246541625003"><ele>361.0</ele><time>2026-04-22T15:19:29Z</time></trkpt><trkpt lat="45.77761276793562" lon="9.825175761073602"><ele>361.0</ele><time>2026-04-22T15:19:31Z</time></trkpt><trkpt lat="45.7775056410899" lon="9.825100154241829"><ele>361.0</ele><time>2026-04-22T15:19:33Z</time></trkpt><trkpt lat="45.77739513545857" lon="9.825040320593681"><ele>361.4</ele><time>2026-04-22T15:19:35Z</time></trkpt><trkpt lat="45.77733875286772" lon="9.824998240251961"><ele>361.8</ele><time>2026-04-22T15:19:36Z</time></trkpt><trkpt lat="45.77722619880983" lon="9.82492154789259"><ele>362.2</ele><time>2026-04-22T15:19:38Z</time></trkpt><trkpt lat="45.77710782804831" lon="9.824836124491036"><ele>362.59999999999997</ele><time>2026-04-22T15:19:40Z</time></trkpt><trkpt lat="45.77704386900412" lon="9.824790280365605"><ele>363.0</ele><time>2026-04-22T15:19:41Z</time></trkpt><trkpt lat="45.776976263186505" lon="9.824743961564065"><ele>363.0</ele><time>2026-04-22T15:19:42Z</time></trkpt><trkpt lat="45.776904924716476" lon="9.824695865158247"><ele>363.0</ele><time>2026-04-22T15:19:43Z</time></trkpt><trkpt lat="45.77683575894166" lon="9.824615902409326"><ele>363.0</ele><time>2026-04-22T15:19:45Z</time></trkpt><trkpt lat="45.77678001790968" lon="9.824572496559183"><ele>363.0</ele><time>2026-04-22T15:19:46Z</time></trkpt><trkpt lat="45.776720886513395" lon="9.824528111797457"><ele>363.0</ele><time>2026-04-22T15:19:47Z</time></trkpt><trkpt lat="45.77661594750578" lon="9.824438935156394"><ele>363.0</ele><time>2026-04-22T15:19:49Z</time></trkpt><trkpt lat="45.776506048206976" lon="9.824359724480969"><ele>362.8333333333333</ele><time>2026-04-22T15:19:51Z</time></trkpt><trkpt lat="45.77640094527953" lon="9.824280744700193"><ele>362.6666666666667</ele><time>2026-04-22T15:19:53Z</time></trkpt><trkpt lat="45.77631053479135" lon="9.824174140678638"><ele>362.5</ele><time>2026-04-22T15:19:55Z</time></trkpt><trkpt lat="45.77629015874819" lon="9.824078735125834"><ele>362.33333333333337</ele><time>2026-04-22T15:19:56Z</time></trkpt><trkpt lat="45.77628597272751" lon="9.823984606279597"><ele>362.1666666666667</ele><time>2026-04-22T15:19:57Z</time></trkpt><trkpt lat="45.7762789385687" lon="9.823892447207362"><ele>362.0</ele><time>2026-04-22T15:19:58Z</time></trkpt><trkpt lat="45.776206749499586" lon="9.823742743085324"><ele>362.0</ele><time>2026-04-22T15:20:00Z</time></trkpt><trkpt lat="45.77613509332671" lon="9.82373188158787"><ele>362.0</ele><time>2026-04-22T15:20:01Z</time></trkpt><trkpt lat="45.776066390421335" lon="9.823774265115242"><ele>362.0</ele><time>2026-04-22T15:20:02Z</time></trkpt><trkpt lat="45.776007008721415" lon="9.823827186518677"><ele>362.0</ele><time>2026-04-22T15:20:03Z</time></trkpt><trkpt lat="45.77593545019422" lon="9.823876505373283"><ele>362.0</ele><time>2026-04-22T15:20:04Z</time></trkpt><trkpt lat="45.77586073445726" lon="9.82386858038275"><ele>362.0</ele><time>2026-04-22T15:20:05Z</time></trkpt><trkpt lat="45.77575527082727" lon="9.823833485307846"><ele>362.1666666666667</ele><time>2026-04-22T15:20:06Z</time></trkpt><trkpt lat="45.77570038065319" lon="9.823760039531027"><ele>362.33333333333337</ele><time>2026-04-22T15:20:07Z</time></trkpt><trkpt lat="45.77562662968554" lon="9.82370141257905"><ele>362.5</ele><time>2026-04-22T15:20:08Z</time></trkpt><trkpt lat="45.77555217622014" lon="9.823636803085115"><ele>362.6666666666667</ele><time>2026-04-22T15:20:09Z</time></trkpt><trkpt lat="45.77547438019861" lon="9.823571632403551"><ele>362.8333333333333</ele><time>2026-04-22T15:20:10Z</time></trkpt><trkpt lat="45.77539399414869" lon="9.823498141100693"><ele>363.0</ele><time>2026-04-22T15:20:11Z</time></trkpt><trkpt lat="45.775309057559646" lon="9.823433550836063"><ele>362.0</ele><time>2026-04-22T15:20:12Z</time></trkpt><trkpt lat="45.77521610401152" lon="9.823376629935508"><ele>361.0</ele><time>2026-04-22T15:20:13Z</time></trkpt><trkpt lat="45.77512692640229" lon="9.823320871428724"><ele>360.0</ele><time>2026-04-22T15:20:14Z</time></trkpt><trkpt lat="45.775039645643204" lon="9.823263529003395"><ele>359.0</ele><time>2026-04-22T15:20:15Z</time></trkpt><trkpt lat="45.77495440705689" lon="9.823207338162039"><ele>358.0</ele><time>2026-04-22T15:20:16Z</time></trkpt><trkpt lat="45.77487233637254" lon="9.823147388070073"><ele>357.3333333333333</ele><time>2026-04-22T15:20:17Z</time></trkpt><trkpt lat="45.77479151149748" lon="9.823094309235788"><ele>356.66666666666663</ele><time>2026-04-22T15:20:18Z</time></trkpt><trkpt lat="45.77471176595547" lon="9.823044047466995"><ele>356.0</ele><time>2026-04-22T15:20:19Z</time></trkpt><trkpt lat="45.774634150637574" lon="9.822992777674257"><ele>355.3333333333333</ele><time>2026-04-22T15:20:20Z</time></trkpt><trkpt lat="45.77456041289579" lon="9.82293758603453"><ele>354.6666666666667</ele><time>2026-04-22T15:20:21Z</time></trkpt><trkpt lat="45.774487448140576" lon="9.822887528311648"><ele>354.0</ele><time>2026-04-22T15:20:22Z</time></trkpt><trkpt lat="45.77441232876379" lon="9.822840456830997"><ele>354.1666666666667</ele><time>2026-04-22T15:20:23Z</time></trkpt><trkpt lat="45.774339084462596" lon="9.822789733230103"><ele>354.3333333333333</ele><time>2026-04-22T15:20:24Z</time></trkpt><trkpt lat="45.77426574979681" lon="9.822739032051494"><ele>354.5</ele><time>2026-04-22T15:20:25Z</time></trkpt><trkpt lat="45.77419045117672" lon="9.822686731917354"><ele>354.66666666666663</ele><time>2026-04-22T15:20:26Z</time></trkpt><trkpt lat="45.77411916089619" lon="9.822631534166266"><ele>354.8333333333333</ele><time>2026-04-22T15:20:27Z</time></trkpt><trkpt lat="45.77404450213513" lon="9.822580768942547"><ele>355.0</ele><time>2026-04-22T15:20:28Z</time></trkpt><trkpt lat="45.773976497048025" lon="9.822525841164863"><ele>354.3333333333333</ele><time>2026-04-22T15:20:29Z</time></trkpt><trkpt lat="45.77390043272535" lon="9.822482576640164"><ele>353.66666666666663</ele><time>2026-04-22T15:20:30Z</time></trkpt><trkpt lat="45.77382495440816" lon="9.822442711749591"><ele>353.0</ele><time>2026-04-22T15:20:31Z</time></trkpt><trkpt lat="45.77375219560528" lon="9.822404117592116"><ele>352.3333333333333</ele><time>2026-04-22T15:20:32Z</time></trkpt><trkpt lat="45.77368094917953" lon="9.822369235238968"><ele>351.6666666666667</ele><time>2026-04-22T15:20:33Z</time></trkpt><trkpt lat="45.7736079387663" lon="9.822342445945589"><ele>351.0</ele><time>2026-04-22T15:20:34Z</time></trkpt><trkpt lat="45.77354117846" lon="9.822302634684776"><ele>351.00000000000006</ele><time>2026-04-22T15:20:35Z</time></trkpt><trkpt lat="45.7734722153723" lon="9.82226251286651"><ele>351.0</ele><time>2026-04-22T15:20:36Z</time></trkpt><trkpt lat="45.77340240674389" lon="9.822251724002799"><ele>351.0</ele><time>2026-04-22T15:20:37Z</time></trkpt><trkpt lat="45.77333425036201" lon="9.82221924201597"><ele>351.0</ele><time>2026-04-22T15:20:38Z</time></trkpt><trkpt lat="45.7732722738406" lon="9.822193772373735"><ele>351.0</ele><time>2026-04-22T15:20:39Z</time></trkpt><trkpt lat="45.77320714997217" lon="9.822176640989793"><ele>351.00000000000006</ele><time>2026-04-22T15:20:40Z</time></trkpt><trkpt lat="45.77314141255093" lon="9.822155460666814"><ele>351.0</ele><time>2026-04-22T15:20:41Z</time></trkpt><trkpt lat="45.77302422326351" lon="9.822120566615125"><ele>351.00000000000006</ele><time>2026-04-22T15:20:43Z</time></trkpt><trkpt lat="45.77296128636716" lon="9.822092690504238"><ele>351.0</ele><time>2026-04-22T15:20:44Z</time></trkpt><trkpt lat="45.77289786724708" lon="9.822075177826102"><ele>351.0</ele><time>2026-04-22T15:20:45Z</time></trkpt><trkpt lat="45.77283631880035" lon="9.822052460278467"><ele>351.0</ele><time>2026-04-22T15:20:46Z</time></trkpt><trkpt lat="45.77277469328809" lon="9.822027755066054"><ele>351.0</ele><time>2026-04-22T15:20:47Z</time></trkpt><trkpt lat="45.77271253674591" lon="9.822000476625808"><ele>351.00000000000006</ele><time>2026-04-22T15:20:48Z</time></trkpt><trkpt lat="45.772649585178506" lon="9.821982517224146"><ele>351.0</ele><time>2026-04-22T15:20:49Z</time></trkpt><trkpt lat="45.77258568386528" lon="9.821967877087866"><ele>351.00000000000006</ele><time>2026-04-22T15:20:50Z</time></trkpt><trkpt lat="45.77252138785104" lon="9.821946212905859"><ele>351.0</ele><time>2026-04-22T15:20:51Z</time></trkpt><trkpt lat="45.77245862458169" lon="9.821922281562557"><ele>351.0</ele><time>2026-04-22T15:20:52Z</time></trkpt><trkpt lat="45.772394192594135" lon="9.821902485478846"><ele>351.0</ele><time>2026-04-22T15:20:53Z</time></trkpt><trkpt lat="45.772332284735" lon="9.821877368349758"><ele>351.0</ele><time>2026-04-22T15:20:54Z</time></trkpt><trkpt lat="45.77226979757878" lon="9.821853661459368"><ele>351.00000000000006</ele><time>2026-04-22T15:20:55Z</time></trkpt><trkpt lat="45.77220803240683" lon="9.821833170166835"><ele>351.0</ele><time>2026-04-22T15:20:56Z</time></trkpt><trkpt lat="45.77214607395605" lon="9.82181322337224"><ele>351.0</ele><time>2026-04-22T15:20:57Z</time></trkpt><trkpt lat="45.77202239664546" lon="9.821777336228992"><ele>351.0</ele><time>2026-04-22T15:20:59Z</time></trkpt><trkpt lat="45.771955783102676" lon="9.821763311992852"><ele>351.0</ele><time>2026-04-22T15:21:00Z</time></trkpt><trkpt lat="45.77183638311402" lon="9.821717940377205"><ele>351.0</ele><time>2026-04-22T15:21:02Z</time></trkpt><trkpt lat="45.771770913770574" lon="9.821701071318099"><ele>351.0</ele><time>2026-04-22T15:21:03Z</time></trkpt><trkpt lat="45.771707700292176" lon="9.8216819815153"><ele>351.0</ele><time>2026-04-22T15:21:04Z</time></trkpt><trkpt lat="45.77164671558285" lon="9.82165764907316"><ele>351.0</ele><time>2026-04-22T15:21:05Z</time></trkpt><trkpt lat="45.771585759541274" lon="9.821634553475997"><ele>351.0</ele><time>2026-04-22T15:21:06Z</time></trkpt><trkpt lat="45.77152112018421" lon="9.821612226209645"><ele>351.0</ele><time>2026-04-22T15:21:07Z</time></trkpt><trkpt lat="45.77145663582876" lon="9.821595136895919"><ele>351.0</ele><time>2026-04-22T15:21:08Z</time></trkpt><trkpt lat="45.77139292643356" lon="9.821575898278475"><ele>351.0</ele><time>2026-04-22T15:21:09Z</time></trkpt><trkpt lat="45.77132833561585" lon="9.821554420872168"><ele>351.0</ele><time>2026-04-22T15:21:10Z</time></trkpt><trkpt lat="45.77120709431546" lon="9.821515792458394"><ele>351.00000000000006</ele><time>2026-04-22T15:21:12Z</time></trkpt><trkpt lat="45.771143476338416" lon="9.821497173184369"><ele>351.0</ele><time>2026-04-22T15:21:13Z</time></trkpt><trkpt lat="45.77108145806962" lon="9.821472620261135"><ele>351.0</ele><time>2026-04-22T15:21:14Z</time></trkpt><trkpt lat="45.77101888399764" lon="9.82145237038878"><ele>351.0</ele><time>2026-04-22T15:21:15Z</time></trkpt><trkpt lat="45.77095656971439" lon="9.821435939925035"><ele>351.0</ele><time>2026-04-22T15:21:16Z</time></trkpt><trkpt lat="45.77089363391466" lon="9.82141486168301"><ele>351.00000000000006</ele><time>2026-04-22T15:21:17Z</time></trkpt><trkpt lat="45.770831938683166" lon="9.821386764122396"><ele>351.0</ele><time>2026-04-22T15:21:18Z</time></trkpt><trkpt lat="45.770709984655255" lon="9.821346157060036"><ele>352.0</ele><time>2026-04-22T15:21:20Z</time></trkpt><trkpt lat="45.770587992609535" lon="9.821306546369367"><ele>353.0</ele><time>2026-04-22T15:21:22Z</time></trkpt><trkpt lat="45.770463475217056" lon="9.82127001493516"><ele>354.0</ele><time>2026-04-22T15:21:24Z</time></trkpt><trkpt lat="45.770342219251816" lon="9.821218960922257"><ele>355.0</ele><time>2026-04-22T15:21:26Z</time></trkpt><trkpt lat="45.77022065225127" lon="9.821157369418085"><ele>354.6</ele><time>2026-04-22T15:21:28Z</time></trkpt><trkpt lat="45.770109666908894" lon="9.821074802073142"><ele>354.2</ele><time>2026-04-22T15:21:30Z</time></trkpt><trkpt lat="45.770002789412686" lon="9.820984899172679"><ele>353.79999999999995</ele><time>2026-04-22T15:21:32Z</time></trkpt><trkpt lat="45.76994748570058" lon="9.820931177134256"><ele>353.4</ele><time>2026-04-22T15:21:33Z</time></trkpt><trkpt lat="45.76985473748494" lon="9.820820785850863"><ele>353.0</ele><time>2026-04-22T15:21:35Z</time></trkpt><trkpt lat="45.769797065355476" lon="9.820767721255722"><ele>353.0</ele><time>2026-04-22T15:21:36Z</time></trkpt><trkpt lat="45.769698757318274" lon="9.820672970164548"><ele>353.0</ele><time>2026-04-22T15:21:38Z</time></trkpt><trkpt lat="45.76959559790999" lon="9.820568403763199"><ele>353.0</ele><time>2026-04-22T15:21:40Z</time></trkpt><trkpt lat="45.76949357989859" lon="9.820474662316615"><ele>353.0</ele><time>2026-04-22T15:21:42Z</time></trkpt><trkpt lat="45.769391766443356" lon="9.820361874252443"><ele>352.5</ele><time>2026-04-22T15:21:44Z</time></trkpt><trkpt lat="45.769288953014886" lon="9.820267236527895"><ele>352.0</ele><time>2026-04-22T15:21:46Z</time></trkpt><trkpt lat="45.76918321312855" lon="9.820170905307581"><ele>351.5</ele><time>2026-04-22T15:21:48Z</time></trkpt><trkpt lat="45.76908557601702" lon="9.820061479408109"><ele>351.0</ele><time>2026-04-22T15:21:50Z</time></trkpt><trkpt lat="45.76898526550632" lon="9.819954593481308"><ele>351.0</ele><time>2026-04-22T15:21:52Z</time></trkpt><trkpt lat="45.768886551087036" lon="9.819850446183336"><ele>351.0</ele><time>2026-04-22T15:21:54Z</time></trkpt><trkpt lat="45.76878699645308" lon="9.819748046147174"><ele>351.0</ele><time>2026-04-22T15:21:56Z</time></trkpt><trkpt lat="45.76868735708265" lon="9.819645590718782"><ele>351.0</ele><time>2026-04-22T15:21:58Z</time></trkpt><trkpt lat="45.768584698642606" lon="9.81954642837275"><ele>352.25</ele><time>2026-04-22T15:22:00Z</time></trkpt><trkpt lat="45.768490251397516" lon="9.819429557449812"><ele>353.5</ele><time>2026-04-22T15:22:02Z</time></trkpt><trkpt lat="45.76840068459971" lon="9.819306740539417"><ele>354.75</ele><time>2026-04-22T15:22:04Z</time></trkpt><trkpt lat="45.768316400426414" lon="9.81917363041867"><ele>356.0</ele><time>2026-04-22T15:22:06Z</time></trkpt><trkpt lat="45.76823127741665" lon="9.819039871674166"><ele>356.0</ele><time>2026-04-22T15:22:08Z</time></trkpt><trkpt lat="45.768147349988325" lon="9.818900367946046"><ele>356.0</ele><time>2026-04-22T15:22:10Z</time></trkpt><trkpt lat="45.76806486550133" lon="9.81876577197969"><ele>356.0</ele><time>2026-04-22T15:22:12Z</time></trkpt><trkpt lat="45.76798098363435" lon="9.818630324702847"><ele>356.0</ele><time>2026-04-22T15:22:14Z</time></trkpt><trkpt lat="45.76789413157121" lon="9.818496690775506"><ele>354.5</ele><time>2026-04-22T15:22:16Z</time></trkpt><trkpt lat="45.7678138874926" lon="9.818352013775128"><ele>353.0</ele><time>2026-04-22T15:22:18Z</time></trkpt><trkpt lat="45.767773493796476" lon="9.818270645500435"><ele>351.5</ele><time>2026-04-22T15:22:19Z</time></trkpt><trkpt lat="45.767729963026696" lon="9.818178943432715"><ele>350.0</ele><time>2026-04-22T15:22:20Z</time></trkpt><trkpt lat="45.76769518642826" lon="9.818083831214166"><ele>348.5</ele><time>2026-04-22T15:22:21Z</time></trkpt><trkpt lat="45.767658754894114" lon="9.817987000315465"><ele>347.0</ele><time>2026-04-22T15:22:22Z</time></trkpt><trkpt lat="45.767634919129605" lon="9.817883450042439"><ele>349.6</ele><time>2026-04-22T15:22:23Z</time></trkpt><trkpt lat="45.76762338271099" lon="9.817752829793747"><ele>352.20000000000005</ele><time>2026-04-22T15:22:24Z</time></trkpt><trkpt lat="45.76761648737759" lon="9.817629672613226"><ele>354.8</ele><time>2026-04-22T15:22:25Z</time></trkpt><trkpt lat="45.767611913911345" lon="9.817498295770188"><ele>357.4</ele><time>2026-04-22T15:22:26Z</time></trkpt><trkpt lat="45.76762002469628" lon="9.81736194457415"><ele>360.0</ele><time>2026-04-22T15:22:27Z</time></trkpt><trkpt lat="45.767637974738975" lon="9.817225466410573"><ele>360.0</ele><time>2026-04-22T15:22:28Z</time></trkpt><trkpt lat="45.76767606680868" lon="9.817087953425116"><ele>360.0</ele><time>2026-04-22T15:22:29Z</time></trkpt><trkpt lat="45.767715266110564" lon="9.816952689337784"><ele>360.0</ele><time>2026-04-22T15:22:30Z</time></trkpt><trkpt lat="45.76776442712014" lon="9.816817194079517"><ele>360.0</ele><time>2026-04-22T15:22:31Z</time></trkpt><trkpt lat="45.767830596240124" lon="9.816692783475423"><ele>360.0</ele><time>2026-04-22T15:22:32Z</time></trkpt><trkpt lat="45.76789732959464" lon="9.816566263686076"><ele>356.0</ele><time>2026-04-22T15:22:33Z</time></trkpt><trkpt lat="45.7679653334192" lon="9.816441713635651"><ele>352.0</ele><time>2026-04-22T15:22:34Z</time></trkpt><trkpt lat="45.768032743423326" lon="9.816313317711536"><ele>348.0</ele><time>2026-04-22T15:22:35Z</time></trkpt><trkpt lat="45.76809311509344" lon="9.816181032283332"><ele>344.0</ele><time>2026-04-22T15:22:36Z</time></trkpt><trkpt lat="45.768140683168006" lon="9.816037937494889"><ele>340.0</ele><time>2026-04-22T15:22:37Z</time></trkpt><trkpt lat="45.76818387991776" lon="9.815898312732266"><ele>339.8</ele><time>2026-04-22T15:22:38Z</time></trkpt><trkpt lat="45.768205962142154" lon="9.815752275600042"><ele>339.6</ele><time>2026-04-22T15:22:39Z</time></trkpt><trkpt lat="45.768210209040056" lon="9.815606368231824"><ele>339.4</ele><time>2026-04-22T15:22:40Z</time></trkpt><trkpt lat="45.76820233193354" lon="9.815461417169068"><ele>339.2</ele><time>2026-04-22T15:22:41Z</time></trkpt><trkpt lat="45.76818102298912" lon="9.81532917829729"><ele>339.0</ele><time>2026-04-22T15:22:42Z</time></trkpt><trkpt lat="45.76815340317566" lon="9.815197299794745"><ele>339.1666666666667</ele><time>2026-04-22T15:22:43Z</time></trkpt><trkpt lat="45.76811569385675" lon="9.815074484514524"><ele>339.3333333333333</ele><time>2026-04-22T15:22:44Z</time></trkpt><trkpt lat="45.768071195084836" lon="9.814959382149445"><ele>339.5</ele><time>2026-04-22T15:22:45Z</time></trkpt><trkpt lat="45.76802682973775" lon="9.814848666651091"><ele>339.66666666666663</ele><time>2026-04-22T15:22:46Z</time></trkpt><trkpt lat="45.767997160690314" lon="9.814742537582685"><ele>339.8333333333333</ele><time>2026-04-22T15:22:47Z</time></trkpt><trkpt lat="45.76797965995801" lon="9.814626378081881"><ele>340.0</ele><time>2026-04-22T15:22:48Z</time></trkpt><trkpt lat="45.76794913213922" lon="9.814523437566203"><ele>340.0</ele><time>2026-04-22T15:22:49Z</time></trkpt><trkpt lat="45.76790844766853" lon="9.81443175958452"><ele>340.0</ele><time>2026-04-22T15:22:50Z</time></trkpt><trkpt lat="45.767838496068805" lon="9.81437272636918"><ele>340.0</ele><time>2026-04-22T15:22:51Z</time></trkpt><trkpt lat="45.767753348746325" lon="9.81437481199283"><ele>340.0</ele><time>2026-04-22T15:22:52Z</time></trkpt><trkpt lat="45.767681035909085" lon="9.814385293671513"><ele>340.0</ele><time>2026-04-22T15:22:53Z</time></trkpt><trkpt lat="45.767608998746034" lon="9.81435025135471"><ele>340.0</ele><time>2026-04-22T15:22:54Z</time></trkpt><trkpt lat="45.76754496752359" lon="9.814288638778365"><ele>340.2857142857143</ele><time>2026-04-22T15:22:55Z</time></trkpt><trkpt lat="45.76748639383864" lon="9.814213993237836"><ele>340.57142857142856</ele><time>2026-04-22T15:22:56Z</time></trkpt><trkpt lat="45.76742265460966" lon="9.814144713807675"><ele>340.85714285714283</ele><time>2026-04-22T15:22:57Z</time></trkpt><trkpt lat="45.76737036318256" lon="9.81409321340123"><ele>341.1428571428571</ele><time>2026-04-22T15:22:58Z</time></trkpt><trkpt lat="45.76730809522394" lon="9.814035779246339"><ele>341.42857142857144</ele><time>2026-04-22T15:22:59Z</time></trkpt><trkpt lat="45.76725464889194" lon="9.813975656959984"><ele>341.71428571428567</ele><time>2026-04-22T15:23:00Z</time></trkpt><trkpt lat="45.767198860480256" lon="9.813920568941192"><ele>342.0</ele><time>2026-04-22T15:23:01Z</time></trkpt><trkpt lat="45.767142547570515" lon="9.813867043754525"><ele>341.99999999999994</ele><time>2026-04-22T15:23:02Z</time></trkpt><trkpt lat="45.767089294486524" lon="9.813811791466756"><ele>342.0</ele><time>2026-04-22T15:23:03Z</time></trkpt><trkpt lat="45.76703679922551" lon="9.813754634905688"><ele>342.0</ele><time>2026-04-22T15:23:04Z</time></trkpt><trkpt lat="45.766983411076446" lon="9.813697766199178"><ele>342.0</ele><time>2026-04-22T15:23:05Z</time></trkpt><trkpt lat="45.766932855821075" lon="9.813640827115671"><ele>342.0</ele><time>2026-04-22T15:23:06Z</time></trkpt><trkpt lat="45.76687799615142" lon="9.813588681518956"><ele>341.99999999999994</ele><time>2026-04-22T15:23:07Z</time></trkpt><trkpt lat="45.7668243012771" lon="9.813535979899047"><ele>342.0</ele><time>2026-04-22T15:23:08Z</time></trkpt><trkpt lat="45.76677083095835" lon="9.813485617232159"><ele>341.40000000000003</ele><time>2026-04-22T15:23:09Z</time></trkpt><trkpt lat="45.76666591416957" lon="9.81338908912246"><ele>340.8</ele><time>2026-04-22T15:23:11Z</time></trkpt><trkpt lat="45.766614932172374" lon="9.81333107550719"><ele>340.2</ele><time>2026-04-22T15:23:12Z</time></trkpt><trkpt lat="45.76656398007099" lon="9.813274580620854"><ele>339.6</ele><time>2026-04-22T15:23:13Z</time></trkpt><trkpt lat="45.76645852520145" lon="9.81317131230732"><ele>339.0</ele><time>2026-04-22T15:23:15Z</time></trkpt><trkpt lat="45.76635433785206" lon="9.813062019853039"><ele>339.0</ele><time>2026-04-22T15:23:17Z</time></trkpt><trkpt lat="45.766254452420334" lon="9.812952876745422"><ele>339.0</ele><time>2026-04-22T15:23:19Z</time></trkpt><trkpt lat="45.76620677511882" lon="9.812890695094652"><ele>339.0</ele><time>2026-04-22T15:23:20Z</time></trkpt><trkpt lat="45.76614967346458" lon="9.812836866584945"><ele>339.0</ele><time>2026-04-22T15:23:21Z</time></trkpt><trkpt lat="45.76604719234661" lon="9.81274149499423"><ele>339.0</ele><time>2026-04-22T15:23:23Z</time></trkpt><trkpt lat="45.76599177980948" lon="9.812689915260078"><ele>339.0</ele><time>2026-04-22T15:23:24Z</time></trkpt><trkpt lat="45.765940177232565" lon="9.812636440034556"><ele>338.6</ele><time>2026-04-22T15:23:25Z</time></trkpt><trkpt lat="45.765836108357256" lon="9.812532013255314"><ele>338.2</ele><time>2026-04-22T15:23:27Z</time></trkpt><trkpt lat="45.765780920504056" lon="9.812487583305844"><ele>337.8</ele><time>2026-04-22T15:23:28Z</time></trkpt><trkpt lat="45.76566649739411" lon="9.812406181408877"><ele>337.40000000000003</ele><time>2026-04-22T15:23:30Z</time></trkpt><trkpt lat="45.76555713477343" lon="9.812319107011106"><ele>337.0</ele><time>2026-04-22T15:23:32Z</time></trkpt><trkpt lat="45.76550914284572" lon="9.81224937308446"><ele>337.0</ele><time>2026-04-22T15:23:33Z</time></trkpt><trkpt lat="45.76546713133769" lon="9.812180418594902"><ele>337.0</ele><time>2026-04-22T15:23:34Z</time></trkpt><trkpt lat="45.76536794954499" lon="9.81208530839523"><ele>337.0</ele><time>2026-04-22T15:23:36Z</time></trkpt><trkpt lat="45.765301355346466" lon="9.81207588859375"><ele>337.0</ele><time>2026-04-22T15:23:37Z</time></trkpt><trkpt lat="45.7652382533761" lon="9.812108499120288"><ele>337.0</ele><time>2026-04-22T15:23:38Z</time></trkpt><trkpt lat="45.76518397894847" lon="9.812171392905789"><ele>337.0</ele><time>2026-04-22T15:23:39Z</time></trkpt><trkpt lat="45.7651305199172" lon="9.812231103350102"><ele>337.20000000000005</ele><time>2026-04-22T15:23:40Z</time></trkpt><trkpt lat="45.765072331948666" lon="9.812282602334463"><ele>337.4</ele><time>2026-04-22T15:23:41Z</time></trkpt><trkpt lat="45.76495125528278" lon="9.812342509459334"><ele>337.6</ele><time>2026-04-22T15:23:43Z</time></trkpt><trkpt lat="45.76488877958844" lon="9.812357162615212"><ele>337.79999999999995</ele><time>2026-04-22T15:23:44Z</time></trkpt><trkpt lat="45.764768946019444" lon="9.812408290581628"><ele>338.0</ele><time>2026-04-22T15:23:46Z</time></trkpt><trkpt lat="45.76465554451308" lon="9.81248374233278"><ele>338.0</ele><time>2026-04-22T15:23:48Z</time></trkpt><trkpt lat="45.76459489547919" lon="9.81251706647416"><ele>338.0</ele><time>2026-04-22T15:23:49Z</time></trkpt><trkpt lat="45.7644798309457" lon="9.81258556409026"><ele>338.0</ele><time>2026-04-22T15:23:51Z</time></trkpt><trkpt lat="45.764363108520335" lon="9.812650880150937"><ele>338.0</ele><time>2026-04-22T15:23:53Z</time></trkpt><trkpt lat="45.76430418943109" lon="9.812690492791994"><ele>338.0</ele><time>2026-04-22T15:23:54Z</time></trkpt><trkpt lat="45.76424396657843" lon="9.812728367491534"><ele>338.0</ele><time>2026-04-22T15:23:55Z</time></trkpt><trkpt lat="45.7641800343855" lon="9.81275561329524"><ele>338.33333333333337</ele><time>2026-04-22T15:23:56Z</time></trkpt><trkpt lat="45.76412116082231" lon="9.812794024297402"><ele>338.6666666666667</ele><time>2026-04-22T15:23:57Z</time></trkpt><trkpt lat="45.76400805025314" lon="9.812861054504783"><ele>339.0</ele><time>2026-04-22T15:23:59Z</time></trkpt><trkpt lat="45.76395227200803" lon="9.812905055491663"><ele>339.3333333333333</ele><time>2026-04-22T15:24:00Z</time></trkpt><trkpt lat="45.763840440572885" lon="9.81297303363831"><ele>339.66666666666663</ele><time>2026-04-22T15:24:02Z</time></trkpt><trkpt lat="45.76377884331261" lon="9.81300392939779"><ele>340.0</ele><time>2026-04-22T15:24:03Z</time></trkpt><trkpt lat="45.76366433693203" lon="9.813070245175274"><ele>340.0</ele><time>2026-04-22T15:24:05Z</time></trkpt><trkpt lat="45.763550284418145" lon="9.813138609260465"><ele>340.0</ele><time>2026-04-22T15:24:07Z</time></trkpt><trkpt lat="45.76343482056455" lon="9.813206114959867"><ele>340.0</ele><time>2026-04-22T15:24:09Z</time></trkpt><trkpt lat="45.763321486912886" lon="9.813268617228529"><ele>340.0</ele><time>2026-04-22T15:24:11Z</time></trkpt><trkpt lat="45.763264112879035" lon="9.813306457439692"><ele>340.0</ele><time>2026-04-22T15:24:12Z</time></trkpt><trkpt lat="45.76314929553524" lon="9.813376817437682"><ele>339.6</ele><time>2026-04-22T15:24:14Z</time></trkpt><trkpt lat="45.76303231275792" lon="9.813442713762944"><ele>339.2</ele><time>2026-04-22T15:24:16Z</time></trkpt><trkpt lat="45.76297444996483" lon="9.813478372537299"><ele>338.79999999999995</ele><time>2026-04-22T15:24:17Z</time></trkpt><trkpt lat="45.76286210105191" lon="9.81355028976725"><ele>338.4</ele><time>2026-04-22T15:24:19Z</time></trkpt><trkpt lat="45.762749722610316" lon="9.813620471838274"><ele>338.0</ele><time>2026-04-22T15:24:21Z</time></trkpt><trkpt lat="45.762641979292376" lon="9.813705431046413"><ele>338.4</ele><time>2026-04-22T15:24:23Z</time></trkpt><trkpt lat="45.76252892237178" lon="9.813754144789058"><ele>338.79999999999995</ele><time>2026-04-22T15:24:25Z</time></trkpt><trkpt lat="45.76246376262896" lon="9.813756704517923"><ele>339.2</ele><time>2026-04-22T15:24:26Z</time></trkpt><trkpt lat="45.762357379889636" lon="9.81365958823401"><ele>339.6</ele><time>2026-04-22T15:24:28Z</time></trkpt><trkpt lat="45.76232690297169" lon="9.813570050861331"><ele>340.0</ele><time>2026-04-22T15:24:29Z</time></trkpt><trkpt lat="45.762314019156115" lon="9.813465631474125"><ele>340.0</ele><time>2026-04-22T15:24:30Z</time></trkpt><trkpt lat="45.762279918031666" lon="9.813282133439198"><ele>340.0</ele><time>2026-04-22T15:24:32Z</time></trkpt><trkpt lat="45.76223723259472" lon="9.813105817765617"><ele>340.0</ele><time>2026-04-22T15:24:34Z</time></trkpt><trkpt lat="45.76221095563522" lon="9.813018790477383"><ele>340.0</ele><time>2026-04-22T15:24:35Z</time></trkpt><trkpt lat="45.76218482239534" lon="9.8129324905919"><ele>340.0</ele><time>2026-04-22T15:24:36Z</time></trkpt><trkpt lat="45.76216428083622" lon="9.812846972614656"><ele>340.0</ele><time>2026-04-22T15:24:37Z</time></trkpt><trkpt lat="45.76214248648052" lon="9.812751618177602"><ele>340.0</ele><time>2026-04-22T15:24:38Z</time></trkpt><trkpt lat="45.762122396288" lon="9.812661796127333"><ele>340.0</ele><time>2026-04-22T15:24:39Z</time></trkpt><trkpt lat="45.762103120881086" lon="9.81256948437329"><ele>340.0</ele><time>2026-04-22T15:24:40Z</time></trkpt><trkpt lat="45.76208317828999" lon="9.812477287773763"><ele>340.0</ele><time>2026-04-22T15:24:41Z</time></trkpt><trkpt lat="45.76206030026012" lon="9.812381710229905"><ele>340.0</ele><time>2026-04-22T15:24:42Z</time></trkpt><trkpt lat="45.762035324532214" lon="9.812290892460151"><ele>340.0</ele><time>2026-04-22T15:24:43Z</time></trkpt><trkpt lat="45.762008488275" lon="9.812195932671061"><ele>339.8571428571429</ele><time>2026-04-22T15:24:44Z</time></trkpt><trkpt lat="45.76197668898015" lon="9.812110268096294"><ele>339.71428571428567</ele><time>2026-04-22T15:24:45Z</time></trkpt><trkpt lat="45.76194085228423" lon="9.81203043738617"><ele>339.57142857142856</ele><time>2026-04-22T15:24:46Z</time></trkpt><trkpt lat="45.76190008074484" lon="9.811939572527997"><ele>339.42857142857144</ele><time>2026-04-22T15:24:47Z</time></trkpt><trkpt lat="45.761854524520544" lon="9.811867145396288"><ele>339.28571428571433</ele><time>2026-04-22T15:24:48Z</time></trkpt><trkpt lat="45.76180208636961" lon="9.811810092143746"><ele>339.1428571428571</ele><time>2026-04-22T15:24:49Z</time></trkpt><trkpt lat="45.76175615485629" lon="9.811735614281703"><ele>339.0</ele><time>2026-04-22T15:24:50Z</time></trkpt><trkpt lat="45.7617087454666" lon="9.81165502004004"><ele>339.2857142857143</ele><time>2026-04-22T15:24:51Z</time></trkpt><trkpt lat="45.761663388847396" lon="9.811577904431966"><ele>339.5714285714286</ele><time>2026-04-22T15:24:52Z</time></trkpt><trkpt lat="45.761616202975155" lon="9.811505051763891"><ele>339.8571428571429</ele><time>2026-04-22T15:24:53Z</time></trkpt><trkpt lat="45.76156723381819" lon="9.811439497677501"><ele>340.1428571428571</ele><time>2026-04-22T15:24:54Z</time></trkpt><trkpt lat="45.76151709995934" lon="9.811377943354291"><ele>340.42857142857144</ele><time>2026-04-22T15:24:55Z</time></trkpt><trkpt lat="45.761469031546575" lon="9.811318237628427"><ele>340.7142857142857</ele><time>2026-04-22T15:24:56Z</time></trkpt><trkpt lat="45.76141997352272" lon="9.811259559040465"><ele>341.0</ele><time>2026-04-22T15:24:57Z</time></trkpt><trkpt lat="45.761366664465214" lon="9.811203366843118"><ele>341.0</ele><time>2026-04-22T15:24:58Z</time></trkpt><trkpt lat="45.761315318142834" lon="9.811145350011225"><ele>341.0</ele><time>2026-04-22T15:24:59Z</time></trkpt><trkpt lat="45.76120842243959" lon="9.811031619677912"><ele>341.0</ele><time>2026-04-22T15:25:01Z</time></trkpt><trkpt lat="45.761118674173396" lon="9.810911355523471"><ele>341.0</ele><time>2026-04-22T15:25:03Z</time></trkpt><trkpt lat="45.761069762438694" lon="9.81085274315946"><ele>341.0</ele><time>2026-04-22T15:25:04Z</time></trkpt><trkpt lat="45.76102375212902" lon="9.810785999858597"><ele>340.7142857142857</ele><time>2026-04-22T15:25:05Z</time></trkpt><trkpt lat="45.7609757285334" lon="9.810723875095476"><ele>340.42857142857144</ele><time>2026-04-22T15:25:06Z</time></trkpt><trkpt lat="45.7609284820426" lon="9.810659164963495"><ele>340.1428571428571</ele><time>2026-04-22T15:25:07Z</time></trkpt><trkpt lat="45.760881353219496" lon="9.810588789804372"><ele>339.8571428571429</ele><time>2026-04-22T15:25:08Z</time></trkpt><trkpt lat="45.76083757146995" lon="9.810515108307442"><ele>339.5714285714286</ele><time>2026-04-22T15:25:09Z</time></trkpt><trkpt lat="45.76079468786413" lon="9.81044569416332"><ele>339.2857142857143</ele><time>2026-04-22T15:25:10Z</time></trkpt><trkpt lat="45.760748673946296" lon="9.810371644128121"><ele>339.0</ele><time>2026-04-22T15:25:11Z</time></trkpt><trkpt lat="45.7607002828298" lon="9.810300326596165"><ele>339.0</ele><time>2026-04-22T15:25:12Z</time></trkpt><trkpt lat="45.760654457395006" lon="9.810225208516405"><ele>339.0</ele><time>2026-04-22T15:25:13Z</time></trkpt><trkpt lat="45.76060721503665" lon="9.810157306157821"><ele>339.0</ele><time>2026-04-22T15:25:14Z</time></trkpt><trkpt lat="45.76055833955187" lon="9.810085452360193"><ele>339.0</ele><time>2026-04-22T15:25:15Z</time></trkpt><trkpt lat="45.76051306079497" lon="9.810012535123933"><ele>339.0</ele><time>2026-04-22T15:25:16Z</time></trkpt><trkpt lat="45.76046521972725" lon="9.80994178081523"><ele>339.0</ele><time>2026-04-22T15:25:17Z</time></trkpt><trkpt lat="45.76041964131611" lon="9.809872692875047"><ele>339.0</ele><time>2026-04-22T15:25:18Z</time></trkpt><trkpt lat="45.76037711754599" lon="9.809799529941733"><ele>338.57142857142856</ele><time>2026-04-22T15:25:19Z</time></trkpt><trkpt lat="45.76032924102843" lon="9.809728005948815"><ele>338.14285714285717</ele><time>2026-04-22T15:25:20Z</time></trkpt><trkpt lat="45.76028837497992" lon="9.80965493354627"><ele>337.7142857142857</ele><time>2026-04-22T15:25:21Z</time></trkpt><trkpt lat="45.76024216081616" lon="9.809585697097237"><ele>337.2857142857143</ele><time>2026-04-22T15:25:22Z</time></trkpt><trkpt lat="45.760197429833326" lon="9.809515880911608"><ele>336.8571428571429</ele><time>2026-04-22T15:25:23Z</time></trkpt><trkpt lat="45.76014903453196" lon="9.809443529948497"><ele>336.42857142857144</ele><time>2026-04-22T15:25:24Z</time></trkpt><trkpt lat="45.76010125256178" lon="9.809374155857258"><ele>336.0</ele><time>2026-04-22T15:25:25Z</time></trkpt><trkpt lat="45.760059054425554" lon="9.809299452207433"><ele>335.5</ele><time>2026-04-22T15:25:26Z</time></trkpt><trkpt lat="45.76000951977056" lon="9.80923355168377"><ele>335.0</ele><time>2026-04-22T15:25:27Z</time></trkpt><trkpt lat="45.75996103829493" lon="9.809173697424528"><ele>334.5</ele><time>2026-04-22T15:25:28Z</time></trkpt><trkpt lat="45.75991406899295" lon="9.809106656864168"><ele>334.0</ele><time>2026-04-22T15:25:29Z</time></trkpt><trkpt lat="45.75986426033764" lon="9.809047254687586"><ele>333.5</ele><time>2026-04-22T15:25:30Z</time></trkpt><trkpt lat="45.759817107267956" lon="9.808983103243849"><ele>333.0</ele><time>2026-04-22T15:25:31Z</time></trkpt><trkpt lat="45.759722911704856" lon="9.808867464161143"><ele>333.0</ele><time>2026-04-22T15:25:33Z</time></trkpt><trkpt lat="45.75962986548633" lon="9.80875923621555"><ele>333.0</ele><time>2026-04-22T15:25:35Z</time></trkpt><trkpt lat="45.75953286911836" lon="9.808652515154117"><ele>333.0</ele><time>2026-04-22T15:25:37Z</time></trkpt><trkpt lat="45.759483393128086" lon="9.808590307784565"><ele>333.0</ele><time>2026-04-22T15:25:38Z</time></trkpt><trkpt lat="45.75943496035015" lon="9.808527626615827"><ele>333.0</ele><time>2026-04-22T15:25:39Z</time></trkpt><trkpt lat="45.75938698996454" lon="9.808459546487715"><ele>333.0</ele><time>2026-04-22T15:25:40Z</time></trkpt><trkpt lat="45.75934117552222" lon="9.808395334354442"><ele>332.79999999999995</ele><time>2026-04-22T15:25:41Z</time></trkpt><trkpt lat="45.7592960730499" lon="9.808329120434061"><ele>332.6</ele><time>2026-04-22T15:25:42Z</time></trkpt><trkpt lat="45.75921549318183" lon="9.808200799692191"><ele>332.4</ele><time>2026-04-22T15:25:44Z</time></trkpt><trkpt lat="45.75913920290617" lon="9.808058381442855"><ele>332.20000000000005</ele><time>2026-04-22T15:25:46Z</time></trkpt><trkpt lat="45.75909932135318" lon="9.807986323739573"><ele>332.0</ele><time>2026-04-22T15:25:47Z</time></trkpt><trkpt lat="45.7590168577646" lon="9.807847449266603"><ele>332.0</ele><time>2026-04-22T15:25:49Z</time></trkpt><trkpt lat="45.758973987714285" lon="9.80777676830688"><ele>332.0</ele><time>2026-04-22T15:25:50Z</time></trkpt><trkpt lat="45.75889287436143" lon="9.807632808276777"><ele>332.0</ele><time>2026-04-22T15:25:52Z</time></trkpt><trkpt lat="45.75881262029294" lon="9.807494857282565"><ele>332.0</ele><time>2026-04-22T15:25:54Z</time></trkpt><trkpt lat="45.758733067992985" lon="9.80735543675312"><ele>332.0</ele><time>2026-04-22T15:25:56Z</time></trkpt><trkpt lat="45.758690105450626" lon="9.807288046660455"><ele>332.0</ele><time>2026-04-22T15:25:57Z</time></trkpt><trkpt lat="45.75864667018003" lon="9.80722173988767"><ele>332.0</ele><time>2026-04-22T15:25:58Z</time></trkpt><trkpt lat="45.75860792325146" lon="9.807144239179166"><ele>332.0</ele><time>2026-04-22T15:25:59Z</time></trkpt><trkpt lat="45.75855970727941" lon="9.807078549053175"><ele>332.0</ele><time>2026-04-22T15:26:00Z</time></trkpt><trkpt lat="45.758510559279074" lon="9.80701439206852"><ele>332.0</ele><time>2026-04-22T15:26:01Z</time></trkpt><trkpt lat="45.75843686459176" lon="9.806869312726302"><ele>332.0</ele><time>2026-04-22T15:26:03Z</time></trkpt><trkpt lat="45.75835782415747" lon="9.806726273070389"><ele>332.0</ele><time>2026-04-22T15:26:05Z</time></trkpt><trkpt lat="45.75827526691161" lon="9.806593307625704"><ele>332.0</ele><time>2026-04-22T15:26:07Z</time></trkpt><trkpt lat="45.75823605658595" lon="9.80651968268627"><ele>332.0</ele><time>2026-04-22T15:26:08Z</time></trkpt><trkpt lat="45.75819927103746" lon="9.806443444131006"><ele>332.0</ele><time>2026-04-22T15:26:09Z</time></trkpt><trkpt lat="45.75816028464256" lon="9.80636365291221"><ele>332.0</ele><time>2026-04-22T15:26:10Z</time></trkpt><trkpt lat="45.75808301260488" lon="9.80621892610167"><ele>332.0</ele><time>2026-04-22T15:26:12Z</time></trkpt><trkpt lat="45.75800456801237" lon="9.80607410944126"><ele>332.0</ele><time>2026-04-22T15:26:14Z</time></trkpt><trkpt lat="45.757962695143924" lon="9.806001638053768"><ele>332.0</ele><time>2026-04-22T15:26:15Z</time></trkpt><trkpt lat="45.757922146764535" lon="9.805928648422078"><ele>332.0</ele><time>2026-04-22T15:26:16Z</time></trkpt><trkpt lat="45.75787620463227" lon="9.805856563661516"><ele>332.0</ele><time>2026-04-22T15:26:17Z</time></trkpt><trkpt lat="45.75783692374866" lon="9.80577994191706"><ele>332.0</ele><time>2026-04-22T15:26:18Z</time></trkpt><trkpt lat="45.75779795214448" lon="9.805707416341866"><ele>332.0</ele><time>2026-04-22T15:26:19Z</time></trkpt><trkpt lat="45.757758495708686" lon="9.805636920096518"><ele>332.0</ele><time>2026-04-22T15:26:20Z</time></trkpt><trkpt lat="45.75771925884922" lon="9.805563549176068"><ele>332.0</ele><time>2026-04-22T15:26:21Z</time></trkpt><trkpt lat="45.757639677834725" lon="9.805440289291045"><ele>332.0</ele><time>2026-04-22T15:26:23Z</time></trkpt><trkpt lat="45.75755529982207" lon="9.805304582436007"><ele>332.0</ele><time>2026-04-22T15:26:25Z</time></trkpt><trkpt lat="45.757476884634194" lon="9.80517037130575"><ele>332.0</ele><time>2026-04-22T15:26:27Z</time></trkpt><trkpt lat="45.757433953593235" lon="9.805098207222898"><ele>332.0</ele><time>2026-04-22T15:26:28Z</time></trkpt><trkpt lat="45.75736250053838" lon="9.804954912490906"><ele>332.0</ele><time>2026-04-22T15:26:30Z</time></trkpt><trkpt lat="45.7573158640667" lon="9.804883026521685"><ele>332.0</ele><time>2026-04-22T15:26:31Z</time></trkpt><trkpt lat="45.7572392713387" lon="9.804738847201172"><ele>332.0</ele><time>2026-04-22T15:26:33Z</time></trkpt><trkpt lat="45.75717228312282" lon="9.80458711985853"><ele>332.0</ele><time>2026-04-22T15:26:35Z</time></trkpt><trkpt lat="45.757115324570584" lon="9.804434557323312"><ele>332.0</ele><time>2026-04-22T15:26:37Z</time></trkpt><trkpt lat="45.75705428225284" lon="9.804280624254455"><ele>331.83333333333337</ele><time>2026-04-22T15:26:39Z</time></trkpt><trkpt lat="45.75702448807173" lon="9.804195766851858"><ele>331.6666666666667</ele><time>2026-04-22T15:26:40Z</time></trkpt><trkpt lat="45.75699171066948" lon="9.804116313012873"><ele>331.5</ele><time>2026-04-22T15:26:41Z</time></trkpt><trkpt lat="45.75693215852553" lon="9.803965532667183"><ele>331.3333333333333</ele><time>2026-04-22T15:26:43Z</time></trkpt><trkpt lat="45.7568993147156" lon="9.803882162702884"><ele>331.16666666666663</ele><time>2026-04-22T15:26:44Z</time></trkpt><trkpt lat="45.75683857352015" lon="9.803727765550079"><ele>331.0</ele><time>2026-04-22T15:26:46Z</time></trkpt><trkpt lat="45.756807196648104" lon="9.803646156472796"><ele>332.5</ele><time>2026-04-22T15:26:47Z</time></trkpt><trkpt lat="45.756736861449234" lon="9.803487324115904"><ele>334.0</ele><time>2026-04-22T15:26:49Z</time></trkpt><trkpt lat="45.75668109789941" lon="9.803330075082878"><ele>335.5</ele><time>2026-04-22T15:26:51Z</time></trkpt><trkpt lat="45.75661781246023" lon="9.80317230779973"><ele>337.0</ele><time>2026-04-22T15:26:53Z</time></trkpt><trkpt lat="45.75658836659574" lon="9.803083846356413"><ele>337.0</ele><time>2026-04-22T15:26:54Z</time></trkpt><trkpt lat="45.75655766634038" lon="9.803004465493562"><ele>337.0</ele><time>2026-04-22T15:26:55Z</time></trkpt><trkpt lat="45.7565303746621" lon="9.802918213465306"><ele>337.0</ele><time>2026-04-22T15:26:56Z</time></trkpt><trkpt lat="45.75650377709298" lon="9.802833469372752"><ele>337.0</ele><time>2026-04-22T15:26:57Z</time></trkpt><trkpt lat="45.756475927955385" lon="9.802748874739558"><ele>337.0</ele><time>2026-04-22T15:26:58Z</time></trkpt><trkpt lat="45.75644734375947" lon="9.802662622355209"><ele>337.0</ele><time>2026-04-22T15:26:59Z</time></trkpt><trkpt lat="45.756387512702645" lon="9.802504988979596"><ele>335.25</ele><time>2026-04-22T15:27:01Z</time></trkpt><trkpt lat="45.75633419761215" lon="9.80234947426664"><ele>333.5</ele><time>2026-04-22T15:27:03Z</time></trkpt><trkpt lat="45.75628269967328" lon="9.802197850381004"><ele>331.75</ele><time>2026-04-22T15:27:05Z</time></trkpt><trkpt lat="45.75624124606889" lon="9.802045670096444"><ele>330.0</ele><time>2026-04-22T15:27:07Z</time></trkpt><trkpt lat="45.756196461160656" lon="9.801883439919916"><ele>330.0</ele><time>2026-04-22T15:27:09Z</time></trkpt><trkpt lat="45.75617014719618" lon="9.801789580123769"><ele>330.0</ele><time>2026-04-22T15:27:10Z</time></trkpt><trkpt lat="45.756147903300516" lon="9.801610535334374"><ele>330.0</ele><time>2026-04-22T15:27:12Z</time></trkpt><trkpt lat="45.756136207681934" lon="9.801517502659163"><ele>330.0</ele><time>2026-04-22T15:27:13Z</time></trkpt><trkpt lat="45.75611264962716" lon="9.801342103587187"><ele>330.0</ele><time>2026-04-22T15:27:15Z</time></trkpt><trkpt lat="45.756101998747575" lon="9.801249187640792"><ele>330.0</ele><time>2026-04-22T15:27:16Z</time></trkpt><trkpt lat="45.756091446815134" lon="9.801155421978516"><ele>330.0</ele><time>2026-04-22T15:27:17Z</time></trkpt><trkpt lat="45.75608291720405" lon="9.801065005805325"><ele>330.0</ele><time>2026-04-22T15:27:18Z</time></trkpt><trkpt lat="45.75605497186518" lon="9.80088543941528"><ele>330.0</ele><time>2026-04-22T15:27:20Z</time></trkpt><trkpt lat="45.75601627429678" lon="9.800713702322412"><ele>330.0</ele><time>2026-04-22T15:27:22Z</time></trkpt><trkpt lat="45.75599532312171" lon="9.800624885452182"><ele>330.4</ele><time>2026-04-22T15:27:23Z</time></trkpt><trkpt lat="45.75596971804451" lon="9.800541648619877"><ele>330.8</ele><time>2026-04-22T15:27:24Z</time></trkpt><trkpt lat="45.755941635098374" lon="9.800453854159874"><ele>331.20000000000005</ele><time>2026-04-22T15:27:25Z</time></trkpt><trkpt lat="45.755892031817446" lon="9.800288374303411"><ele>331.6</ele><time>2026-04-22T15:27:27Z</time></trkpt><trkpt lat="45.7558466759347" lon="9.800121415833242"><ele>332.0</ele><time>2026-04-22T15:27:29Z</time></trkpt><trkpt lat="45.75580536924525" lon="9.799952494081314"><ele>332.0</ele><time>2026-04-22T15:27:31Z</time></trkpt><trkpt lat="45.755790381120306" lon="9.799862894723873"><ele>332.0</ele><time>2026-04-22T15:27:32Z</time></trkpt><trkpt lat="45.75577615744289" lon="9.799774970193639"><ele>332.0</ele><time>2026-04-22T15:27:33Z</time></trkpt><trkpt lat="45.75575441199894" lon="9.799598364131722"><ele>332.0</ele><time>2026-04-22T15:27:35Z</time></trkpt><trkpt lat="45.75574283756958" lon="9.799508321495612"><ele>332.0</ele><time>2026-04-22T15:27:36Z</time></trkpt><trkpt lat="45.75573311491733" lon="9.79941705576797"><ele>332.0</ele><time>2026-04-22T15:27:37Z</time></trkpt><trkpt lat="45.75571053301999" lon="9.799245870939652"><ele>331.20000000000005</ele><time>2026-04-22T15:27:39Z</time></trkpt><trkpt lat="45.755693050780586" lon="9.799081646260444"><ele>330.4</ele><time>2026-04-22T15:27:41Z</time></trkpt><trkpt lat="45.75566945599079" lon="9.79891780759308"><ele>329.6</ele><time>2026-04-22T15:27:43Z</time></trkpt><trkpt lat="45.75565113675939" lon="9.798830107896812"><ele>328.79999999999995</ele><time>2026-04-22T15:27:44Z</time></trkpt><trkpt lat="45.7556356122242" lon="9.79866619242181"><ele>328.0</ele><time>2026-04-22T15:27:46Z</time></trkpt><trkpt lat="45.755636819635924" lon="9.798505195810867"><ele>327.79999999999995</ele><time>2026-04-22T15:27:48Z</time></trkpt><trkpt lat="45.75567285595841" lon="9.798359571486866"><ele>327.6</ele><time>2026-04-22T15:27:50Z</time></trkpt><trkpt lat="45.75572285861083" lon="9.79823371729406"><ele>327.4</ele><time>2026-04-22T15:27:52Z</time></trkpt><trkpt lat="45.755782862005795" lon="9.79813139436042"><ele>327.20000000000005</ele><time>2026-04-22T15:27:54Z</time></trkpt><trkpt lat="45.75584086154292" lon="9.798035644579608"><ele>327.0</ele><time>2026-04-22T15:27:56Z</time></trkpt><trkpt lat="45.75580416227793" lon="9.797886234177776"><ele>327.0</ele><time>2026-04-22T15:27:58Z</time></trkpt><trkpt lat="45.75575811895816" lon="9.797811234550071"><ele>327.0</ele><time>2026-04-22T15:27:59Z</time></trkpt><trkpt lat="45.75572077264872" lon="9.797732322065965"><ele>327.0</ele><time>2026-04-22T15:28:00Z</time></trkpt><trkpt lat="45.75568758832472" lon="9.797650457553306"><ele>327.0</ele><time>2026-04-22T15:28:01Z</time></trkpt><trkpt lat="45.75566040672491" lon="9.797565337644011"><ele>327.0</ele><time>2026-04-22T15:28:02Z</time></trkpt><trkpt lat="45.755638237300076" lon="9.797478393263708"><ele>327.0</ele><time>2026-04-22T15:28:03Z</time></trkpt><trkpt lat="45.75561160425759" lon="9.797390052264305"><ele>327.0</ele><time>2026-04-22T15:28:04Z</time></trkpt><trkpt lat="45.75558890704296" lon="9.79730089210465"><ele>326.75</ele><time>2026-04-22T15:28:05Z</time></trkpt><trkpt lat="45.755563429741684" lon="9.797217668091601"><ele>326.5</ele><time>2026-04-22T15:28:06Z</time></trkpt><trkpt lat="45.75553900513105" lon="9.797133186331022"><ele>326.25</ele><time>2026-04-22T15:28:07Z</time></trkpt><trkpt lat="45.755510465721166" lon="9.797050817276498"><ele>326.0</ele><time>2026-04-22T15:28:08Z</time></trkpt><trkpt lat="45.75548483229879" lon="9.796966354084496"><ele>325.75</ele><time>2026-04-22T15:28:09Z</time></trkpt><trkpt lat="45.755459873329066" lon="9.796882374513832"><ele>325.5</ele><time>2026-04-22T15:28:10Z</time></trkpt><trkpt lat="45.75543538584561" lon="9.796797910472238"><ele>325.25</ele><time>2026-04-22T15:28:11Z</time></trkpt><trkpt lat="45.75540840883341" lon="9.796712819060813"><ele>325.0</ele><time>2026-04-22T15:28:12Z</time></trkpt><trkpt lat="45.75538309440483" lon="9.796628045287624"><ele>324.57142857142856</ele><time>2026-04-22T15:28:13Z</time></trkpt><trkpt lat="45.75535644943785" lon="9.796543077764207"><ele>324.14285714285717</ele><time>2026-04-22T15:28:14Z</time></trkpt><trkpt lat="45.755332641249254" lon="9.796457166314461"><ele>323.7142857142857</ele><time>2026-04-22T15:28:15Z</time></trkpt><trkpt lat="45.75530878575462" lon="9.796370237719545"><ele>323.2857142857143</ele><time>2026-04-22T15:28:16Z</time></trkpt><trkpt lat="45.75528356534892" lon="9.796284986591182"><ele>322.8571428571429</ele><time>2026-04-22T15:28:17Z</time></trkpt><trkpt lat="45.755256907481254" lon="9.79620160906547"><ele>322.42857142857144</ele><time>2026-04-22T15:28:18Z</time></trkpt><trkpt lat="45.75522932292195" lon="9.796118784099512"><ele>322.0</ele><time>2026-04-22T15:28:19Z</time></trkpt><trkpt lat="45.755205692086314" lon="9.796032415954752"><ele>322.85714285714283</ele><time>2026-04-22T15:28:20Z</time></trkpt><trkpt lat="45.75518057462755" lon="9.795947786605911"><ele>323.7142857142857</ele><time>2026-04-22T15:28:21Z</time></trkpt><trkpt lat="45.75515379506192" lon="9.79586300566357"><ele>324.57142857142856</ele><time>2026-04-22T15:28:22Z</time></trkpt><trkpt lat="45.755127784325936" lon="9.795778624151247"><ele>325.42857142857144</ele><time>2026-04-22T15:28:23Z</time></trkpt><trkpt lat="45.75510449398259" lon="9.795693375013728"><ele>326.2857142857143</ele><time>2026-04-22T15:28:24Z</time></trkpt><trkpt lat="45.75505510400774" lon="9.795530633076979"><ele>327.1428571428571</ele><time>2026-04-22T15:28:26Z</time></trkpt><trkpt lat="45.75502650319541" lon="9.79544833372686"><ele>328.0</ele><time>2026-04-22T15:28:27Z</time></trkpt><trkpt lat="45.75499532295004" lon="9.795368911206277"><ele>328.0</ele><time>2026-04-22T15:28:28Z</time></trkpt><trkpt lat="45.754933623317264" lon="9.795211183023824"><ele>328.0</ele><time>2026-04-22T15:28:30Z</time></trkpt><trkpt lat="45.75486036362415" lon="9.795062895842578"><ele>328.0</ele><time>2026-04-22T15:28:32Z</time></trkpt><trkpt lat="45.75482368011806" lon="9.794988264467435"><ele>328.0</ele><time>2026-04-22T15:28:33Z</time></trkpt><trkpt lat="45.754785635253526" lon="9.794912909702628"><ele>328.0</ele><time>2026-04-22T15:28:34Z</time></trkpt><trkpt lat="45.75474937823539" lon="9.794839080147138"><ele>328.0</ele><time>2026-04-22T15:28:35Z</time></trkpt><trkpt lat="45.754680135079816" lon="9.79468887434963"><ele>327.4</ele><time>2026-04-22T15:28:37Z</time></trkpt><trkpt lat="45.75461225729412" lon="9.794537045945228"><ele>326.79999999999995</ele><time>2026-04-22T15:28:39Z</time></trkpt><trkpt lat="45.754550982743474" lon="9.794381416811023"><ele>326.2</ele><time>2026-04-22T15:28:41Z</time></trkpt><trkpt lat="45.7545212246954" lon="9.794301300309863"><ele>325.6</ele><time>2026-04-22T15:28:42Z</time></trkpt><trkpt lat="45.75448775247762" lon="9.794222817941678"><ele>325.0</ele><time>2026-04-22T15:28:43Z</time></trkpt><trkpt lat="45.75441585053341" lon="9.794070203450163"><ele>326.57142857142856</ele><time>2026-04-22T15:28:45Z</time></trkpt><trkpt lat="45.75433852422845" lon="9.793935176828848"><ele>328.14285714285717</ele><time>2026-04-22T15:28:47Z</time></trkpt><trkpt lat="45.75429467588" lon="9.793868395975352"><ele>329.7142857142857</ele><time>2026-04-22T15:28:48Z</time></trkpt><trkpt lat="45.75424868564998" lon="9.79380119053341"><ele>331.2857142857143</ele><time>2026-04-22T15:28:49Z</time></trkpt><trkpt lat="45.75420178516667" lon="9.793736474564145"><ele>332.8571428571429</ele><time>2026-04-22T15:28:50Z</time></trkpt><trkpt lat="45.7541565765985" lon="9.793670464273786"><ele>334.42857142857144</ele><time>2026-04-22T15:28:51Z</time></trkpt><trkpt lat="45.75411311120976" lon="9.793604213618778"><ele>336.0</ele><time>2026-04-22T15:28:52Z</time></trkpt><trkpt lat="45.7540684577921" lon="9.793536941059745"><ele>333.8333333333333</ele><time>2026-04-22T15:28:53Z</time></trkpt><trkpt lat="45.75402468679517" lon="9.793469956776836"><ele>331.6666666666667</ele><time>2026-04-22T15:28:54Z</time></trkpt><trkpt lat="45.7539816030493" lon="9.793401482398874"><ele>329.5</ele><time>2026-04-22T15:28:55Z</time></trkpt><trkpt lat="45.75394036455682" lon="9.79333254564604"><ele>327.33333333333337</ele><time>2026-04-22T15:28:56Z</time></trkpt><trkpt lat="45.75386695290588" lon="9.793186543870213"><ele>325.1666666666667</ele><time>2026-04-22T15:28:58Z</time></trkpt><trkpt lat="45.75379389450136" lon="9.793041418376694"><ele>323.0</ele><time>2026-04-22T15:29:00Z</time></trkpt><trkpt lat="45.75372284545325" lon="9.792895494933214"><ele>323.0</ele><time>2026-04-22T15:29:02Z</time></trkpt><trkpt lat="45.753645881469524" lon="9.792758975044208"><ele>323.0</ele><time>2026-04-22T15:29:04Z</time></trkpt><trkpt lat="45.75355239732823" lon="9.792632229115545"><ele>323.0</ele><time>2026-04-22T15:29:06Z</time></trkpt><trkpt lat="45.75350228569474" lon="9.792573274669463"><ele>323.0</ele><time>2026-04-22T15:29:07Z</time></trkpt><trkpt lat="45.75345418465149" lon="9.79250751324911"><ele>323.0</ele><time>2026-04-22T15:29:08Z</time></trkpt><trkpt lat="45.75340619387607" lon="9.792447798698237"><ele>323.0</ele><time>2026-04-22T15:29:09Z</time></trkpt><trkpt lat="45.75335916565631" lon="9.792387602150747"><ele>323.79999999999995</ele><time>2026-04-22T15:29:10Z</time></trkpt><trkpt lat="45.7532637681177" lon="9.792272889947764"><ele>324.6</ele><time>2026-04-22T15:29:12Z</time></trkpt><trkpt lat="45.753167477836165" lon="9.79215254619012"><ele>325.4</ele><time>2026-04-22T15:29:14Z</time></trkpt><trkpt lat="45.7530720130322" lon="9.79203394736382"><ele>326.20000000000005</ele><time>2026-04-22T15:29:16Z</time></trkpt><trkpt lat="45.75302203539345" lon="9.79197535805074"><ele>327.0</ele><time>2026-04-22T15:29:17Z</time></trkpt><trkpt lat="45.75297279533998" lon="9.791918264034507"><ele>327.0</ele><time>2026-04-22T15:29:18Z</time></trkpt><trkpt lat="45.752923359860176" lon="9.791858382432878"><ele>327.0</ele><time>2026-04-22T15:29:19Z</time></trkpt><trkpt lat="45.75287614921204" lon="9.791796302092651"><ele>327.0</ele><time>2026-04-22T15:29:20Z</time></trkpt><trkpt lat="45.752827902260385" lon="9.791734329250204"><ele>327.0</ele><time>2026-04-22T15:29:21Z</time></trkpt><trkpt lat="45.75277800080218" lon="9.791675028093415"><ele>327.0</ele><time>2026-04-22T15:29:22Z</time></trkpt><trkpt lat="45.752731909685316" lon="9.791609483108568"><ele>327.0</ele><time>2026-04-22T15:29:23Z</time></trkpt><trkpt lat="45.75268653811924" lon="9.791543891332397"><ele>327.0</ele><time>2026-04-22T15:29:24Z</time></trkpt><trkpt lat="45.75264150620488" lon="9.791477563177486"><ele>327.0</ele><time>2026-04-22T15:29:25Z</time></trkpt><trkpt lat="45.752599409223265" lon="9.791404423841605"><ele>327.0</ele><time>2026-04-22T15:29:26Z</time></trkpt><trkpt lat="45.75256207398759" lon="9.791326233245842"><ele>327.0</ele><time>2026-04-22T15:29:27Z</time></trkpt><trkpt lat="45.75252669782493" lon="9.79124929451643"><ele>327.0</ele><time>2026-04-22T15:29:28Z</time></trkpt><trkpt lat="45.7524972317696" lon="9.791164451073938"><ele>327.0</ele><time>2026-04-22T15:29:29Z</time></trkpt><trkpt lat="45.752474519395534" lon="9.791077368523238"><ele>327.0</ele><time>2026-04-22T15:29:30Z</time></trkpt><trkpt lat="45.75245936896545" lon="9.790989177863844"><ele>327.0</ele><time>2026-04-22T15:29:31Z</time></trkpt><trkpt lat="45.75244478230062" lon="9.790899586137629"><ele>327.0</ele><time>2026-04-22T15:29:32Z</time></trkpt><trkpt lat="45.75242962758134" lon="9.790809084346693"><ele>327.0</ele><time>2026-04-22T15:29:33Z</time></trkpt><trkpt lat="45.75239518451249" lon="9.790637384140451"><ele>327.0</ele><time>2026-04-22T15:29:35Z</time></trkpt><trkpt lat="45.75235506388693" lon="9.790465723881287"><ele>327.0</ele><time>2026-04-22T15:29:37Z</time></trkpt><trkpt lat="45.752305432893536" lon="9.790299768091106"><ele>327.0</ele><time>2026-04-22T15:29:39Z</time></trkpt><trkpt lat="45.75225208659351" lon="9.790141842054306"><ele>325.5</ele><time>2026-04-22T15:29:41Z</time></trkpt><trkpt lat="45.75216765709199" lon="9.79001457121938"><ele>324.0</ele><time>2026-04-22T15:29:43Z</time></trkpt><trkpt lat="45.75205421684395" lon="9.789950713660259"><ele>322.5</ele><time>2026-04-22T15:29:45Z</time></trkpt><trkpt lat="45.7519488948665" lon="9.789897596401298"><ele>321.0</ele><time>2026-04-22T15:29:47Z</time></trkpt><trkpt lat="45.75185410374573" lon="9.789844187334102"><ele>323.6</ele><time>2026-04-22T15:29:49Z</time></trkpt><trkpt lat="45.75177658958451" lon="9.78976590235652"><ele>326.20000000000005</ele><time>2026-04-22T15:29:51Z</time></trkpt><trkpt lat="45.75169806541804" lon="9.789701440318188"><ele>328.79999999999995</ele><time>2026-04-22T15:29:53Z</time></trkpt><trkpt lat="45.75159421648073" lon="9.789630676934673"><ele>331.4</ele><time>2026-04-22T15:29:55Z</time></trkpt><trkpt lat="45.75147573600045" lon="9.78957849196741"><ele>334.0</ele><time>2026-04-22T15:29:57Z</time></trkpt><trkpt lat="45.75141495243604" lon="9.78954785651843"><ele>334.0</ele><time>2026-04-22T15:29:58Z</time></trkpt><trkpt lat="45.751355653750394" lon="9.789516432128387"><ele>334.0</ele><time>2026-04-22T15:29:59Z</time></trkpt><trkpt lat="45.751238165893085" lon="9.789463351785963"><ele>334.0</ele><time>2026-04-22T15:30:01Z</time></trkpt><trkpt lat="45.75112126404478" lon="9.789398089425037"><ele>334.0</ele><time>2026-04-22T15:30:03Z</time></trkpt><trkpt lat="45.75100630007396" lon="9.789329368127616"><ele>334.0</ele><time>2026-04-22T15:30:05Z</time></trkpt><trkpt lat="45.750896187658775" lon="9.789244827553096"><ele>333.25</ele><time>2026-04-22T15:30:07Z</time></trkpt><trkpt lat="45.75079057320991" lon="9.789147808053979"><ele>332.5</ele><time>2026-04-22T15:30:09Z</time></trkpt><trkpt lat="45.75068899545077" lon="9.789043789748051"><ele>331.75</ele><time>2026-04-22T15:30:11Z</time></trkpt><trkpt lat="45.750585832020406" lon="9.788941477421321"><ele>331.0</ele><time>2026-04-22T15:30:13Z</time></trkpt><trkpt lat="45.75049101374951" lon="9.788832037943214"><ele>331.0</ele><time>2026-04-22T15:30:15Z</time></trkpt><trkpt lat="45.750418050577316" lon="9.788693899576867"><ele>331.0</ele><time>2026-04-22T15:30:17Z</time></trkpt><trkpt lat="45.750359066001" lon="9.788536109994853"><ele>331.0</ele><time>2026-04-22T15:30:19Z</time></trkpt><trkpt lat="45.750326290637595" lon="9.78845777734836"><ele>331.0</ele><time>2026-04-22T15:30:20Z</time></trkpt><trkpt lat="45.75029193196994" lon="9.788379173946797"><ele>331.0</ele><time>2026-04-22T15:30:21Z</time></trkpt><trkpt lat="45.75025107095765" lon="9.788300717197469"><ele>331.0</ele><time>2026-04-22T15:30:22Z</time></trkpt><trkpt lat="45.75020741884282" lon="9.788228980918554"><ele>331.0</ele><time>2026-04-22T15:30:23Z</time></trkpt><trkpt lat="45.75015798421038" lon="9.788167807407586"><ele>331.0</ele><time>2026-04-22T15:30:24Z</time></trkpt><trkpt lat="45.75010399266927" lon="9.78811239689472"><ele>331.0</ele><time>2026-04-22T15:30:25Z</time></trkpt><trkpt lat="45.75004580390897" lon="9.788066031193388"><ele>331.0</ele><time>2026-04-22T15:30:26Z</time></trkpt><trkpt lat="45.74999241479057" lon="9.788011855558874"><ele>331.0</ele><time>2026-04-22T15:30:27Z</time></trkpt><trkpt lat="45.74994353199908" lon="9.787953532777335"><ele>331.0</ele><time>2026-04-22T15:30:28Z</time></trkpt><trkpt lat="45.74989541893935" lon="9.787895309048789"><ele>331.0</ele><time>2026-04-22T15:30:29Z</time></trkpt><trkpt lat="45.749799328913625" lon="9.787783203285857"><ele>330.4</ele><time>2026-04-22T15:30:31Z</time></trkpt><trkpt lat="45.74970339206156" lon="9.78767351450934"><ele>329.8</ele><time>2026-04-22T15:30:33Z</time></trkpt><trkpt lat="45.74960258092587" lon="9.787568227299623"><ele>329.2</ele><time>2026-04-22T15:30:35Z</time></trkpt><trkpt lat="45.74950773774555" lon="9.787456877830033"><ele>328.59999999999997</ele><time>2026-04-22T15:30:37Z</time></trkpt><trkpt lat="45.749451042380464" lon="9.787408438744512"><ele>328.0</ele><time>2026-04-22T15:30:38Z</time></trkpt><trkpt lat="45.74935255607775" lon="9.787314262272885"><ele>328.0</ele><time>2026-04-22T15:30:40Z</time></trkpt><trkpt lat="45.749294904763396" lon="9.787272840879691"><ele>328.0</ele><time>2026-04-22T15:30:41Z</time></trkpt><trkpt lat="45.74917745250385" lon="9.787213701998118"><ele>328.0</ele><time>2026-04-22T15:30:43Z</time></trkpt><trkpt lat="45.7491147955999" lon="9.78720038111885"><ele>328.0</ele><time>2026-04-22T15:30:44Z</time></trkpt><trkpt lat="45.7489888360577" lon="9.7871895370351"><ele>328.0</ele><time>2026-04-22T15:30:46Z</time></trkpt><trkpt lat="45.74892489798273" lon="9.787180546002453"><ele>328.0</ele><time>2026-04-22T15:30:47Z</time></trkpt><trkpt lat="45.74886219667857" lon="9.787168090291537"><ele>328.0</ele><time>2026-04-22T15:30:48Z</time></trkpt><trkpt lat="45.748794759801065" lon="9.787180046849038"><ele>328.0</ele><time>2026-04-22T15:30:49Z</time></trkpt><trkpt lat="45.74867136093265" lon="9.787190452631139"><ele>328.0</ele><time>2026-04-22T15:30:51Z</time></trkpt><trkpt lat="45.74860595943876" lon="9.78719726035911"><ele>328.0</ele><time>2026-04-22T15:30:52Z</time></trkpt><trkpt lat="45.74849228614383" lon="9.787173810761876"><ele>328.0</ele><time>2026-04-22T15:30:54Z</time></trkpt><trkpt lat="45.74842787943201" lon="9.787175007925125"><ele>328.0</ele><time>2026-04-22T15:30:55Z</time></trkpt><trkpt lat="45.748302361606854" lon="9.78717510571906"><ele>328.4285714285714</ele><time>2026-04-22T15:30:57Z</time></trkpt><trkpt lat="45.7482363693315" lon="9.787155348201967"><ele>328.85714285714283</ele><time>2026-04-22T15:30:58Z</time></trkpt><trkpt lat="45.74817686550983" lon="9.787110243900305"><ele>329.2857142857143</ele><time>2026-04-22T15:30:59Z</time></trkpt><trkpt lat="45.74812581210335" lon="9.787031672045634"><ele>329.71428571428567</ele><time>2026-04-22T15:31:00Z</time></trkpt><trkpt lat="45.74808873101485" lon="9.786946091144676"><ele>330.1428571428571</ele><time>2026-04-22T15:31:01Z</time></trkpt><trkpt lat="45.74806007113019" lon="9.786859800736087"><ele>330.57142857142856</ele><time>2026-04-22T15:31:02Z</time></trkpt><trkpt lat="45.74803496318445" lon="9.786771270387645"><ele>331.0</ele><time>2026-04-22T15:31:03Z</time></trkpt><trkpt lat="45.74801118208777" lon="9.786680904475533"><ele>329.20000000000005</ele><time>2026-04-22T15:31:04Z</time></trkpt><trkpt lat="45.74795779331699" lon="9.786522002548365"><ele>327.40000000000003</ele><time>2026-04-22T15:31:06Z</time></trkpt><trkpt lat="45.74791247558763" lon="9.786376707194714"><ele>325.6</ele><time>2026-04-22T15:31:08Z</time></trkpt><trkpt lat="45.747839471352584" lon="9.786228636180907"><ele>323.8</ele><time>2026-04-22T15:31:10Z</time></trkpt><trkpt lat="45.747801468112" lon="9.786151589742998"><ele>322.0</ele><time>2026-04-22T15:31:11Z</time></trkpt><trkpt lat="45.747770543388356" lon="9.786070078242815"><ele>322.0</ele><time>2026-04-22T15:31:12Z</time></trkpt><trkpt lat="45.747746882642765" lon="9.785986123263447"><ele>322.0</ele><time>2026-04-22T15:31:13Z</time></trkpt><trkpt lat="45.74772150101412" lon="9.785901807176757"><ele>322.0</ele><time>2026-04-22T15:31:14Z</time></trkpt><trkpt lat="45.74769148839062" lon="9.785817791943709"><ele>322.0</ele><time>2026-04-22T15:31:15Z</time></trkpt><trkpt lat="45.747664526375026" lon="9.785731442835376"><ele>322.0</ele><time>2026-04-22T15:31:16Z</time></trkpt><trkpt lat="45.74760034543845" lon="9.785579624544186"><ele>322.0</ele><time>2026-04-22T15:31:18Z</time></trkpt><trkpt lat="45.7475707448116" lon="9.785497774617165"><ele>322.0</ele><time>2026-04-22T15:31:19Z</time></trkpt><trkpt lat="45.74753770170052" lon="9.785419938012799"><ele>322.0</ele><time>2026-04-22T15:31:20Z</time></trkpt><trkpt lat="45.74748543311781" lon="9.785258925693075"><ele>322.0</ele><time>2026-04-22T15:31:22Z</time></trkpt><trkpt lat="45.74745489278109" lon="9.785176277620684"><ele>322.0</ele><time>2026-04-22T15:31:23Z</time></trkpt><trkpt lat="45.74742558857414" lon="9.785089842428773"><ele>322.0</ele><time>2026-04-22T15:31:24Z</time></trkpt><trkpt lat="45.747394934024584" lon="9.785008213349071"><ele>322.0</ele><time>2026-04-22T15:31:25Z</time></trkpt><trkpt lat="45.74736536914594" lon="9.784926413374674"><ele>322.0</ele><time>2026-04-22T15:31:26Z</time></trkpt><trkpt lat="45.747304361525316" lon="9.784769273032913"><ele>321.6</ele><time>2026-04-22T15:31:28Z</time></trkpt><trkpt lat="45.74727851044947" lon="9.78468341751114"><ele>321.20000000000005</ele><time>2026-04-22T15:31:29Z</time></trkpt><trkpt lat="45.7472181053366" lon="9.784528099279765"><ele>320.8</ele><time>2026-04-22T15:31:31Z</time></trkpt><trkpt lat="45.74715843429772" lon="9.78436870058862"><ele>320.4</ele><time>2026-04-22T15:31:33Z</time></trkpt><trkpt lat="45.74710635487964" lon="9.784207457692334"><ele>320.0</ele><time>2026-04-22T15:31:35Z</time></trkpt><trkpt lat="45.747052951150884" lon="9.7840453655827"><ele>319.4</ele><time>2026-04-22T15:31:37Z</time></trkpt><trkpt lat="45.74699822075034" lon="9.783887440933647"><ele>318.8</ele><time>2026-04-22T15:31:39Z</time></trkpt><trkpt lat="45.74697054933798" lon="9.783805475400511"><ele>318.2</ele><time>2026-04-22T15:31:40Z</time></trkpt><trkpt lat="45.7469144613171" lon="9.78364569890134"><ele>317.6</ele><time>2026-04-22T15:31:42Z</time></trkpt><trkpt lat="45.74685839894424" lon="9.783483205606297"><ele>317.0</ele><time>2026-04-22T15:31:44Z</time></trkpt><trkpt lat="45.74682994824597" lon="9.783402662926603"><ele>317.0</ele><time>2026-04-22T15:31:45Z</time></trkpt><trkpt lat="45.746803372485715" lon="9.783314867997996"><ele>317.0</ele><time>2026-04-22T15:31:46Z</time></trkpt><trkpt lat="45.74678091027645" lon="9.783227634327734"><ele>317.0</ele><time>2026-04-22T15:31:47Z</time></trkpt><trkpt lat="45.746749047869216" lon="9.783143250237943"><ele>317.0</ele><time>2026-04-22T15:31:48Z</time></trkpt><trkpt lat="45.74672181264079" lon="9.783057053298558"><ele>317.0</ele><time>2026-04-22T15:31:49Z</time></trkpt><trkpt lat="45.74668983235401" lon="9.782971786715176"><ele>317.0</ele><time>2026-04-22T15:31:50Z</time></trkpt><trkpt lat="45.74666211968278" lon="9.782883561209841"><ele>317.0</ele><time>2026-04-22T15:31:51Z</time></trkpt><trkpt lat="45.74664371544582" lon="9.782793693186003"><ele>317.0</ele><time>2026-04-22T15:31:52Z</time></trkpt><trkpt lat="45.74661911891298" lon="9.78270069039551"><ele>317.0</ele><time>2026-04-22T15:31:53Z</time></trkpt><trkpt lat="45.746596602763695" lon="9.782612520065943"><ele>317.0</ele><time>2026-04-22T15:31:54Z</time></trkpt><trkpt lat="45.74657456041936" lon="9.78252640757659"><ele>317.0</ele><time>2026-04-22T15:31:55Z</time></trkpt><trkpt lat="45.746545870343915" lon="9.78244270699057"><ele>317.0</ele><time>2026-04-22T15:31:56Z</time></trkpt><trkpt lat="45.74652277702963" lon="9.782355521192464"><ele>317.0</ele><time>2026-04-22T15:31:57Z</time></trkpt><trkpt lat="45.74648052752444" lon="9.782184162798083"><ele>316.25</ele><time>2026-04-22T15:31:59Z</time></trkpt><trkpt lat="45.7464401660219" lon="9.782018839284582"><ele>315.5</ele><time>2026-04-22T15:32:01Z</time></trkpt><trkpt lat="45.746395684982396" lon="9.781862832130528"><ele>314.75</ele><time>2026-04-22T15:32:03Z</time></trkpt><trkpt lat="45.74635223150691" lon="9.78171023103036"><ele>314.0</ele><time>2026-04-22T15:32:05Z</time></trkpt><trkpt lat="45.7463136200314" lon="9.781561793561487"><ele>313.8</ele><time>2026-04-22T15:32:07Z</time></trkpt><trkpt lat="45.746272801877375" lon="9.781420697557367"><ele>313.59999999999997</ele><time>2026-04-22T15:32:09Z</time></trkpt><trkpt lat="45.746226933666236" lon="9.781273790897048"><ele>313.4</ele><time>2026-04-22T15:32:11Z</time></trkpt><trkpt lat="45.746204802341886" lon="9.781188390489595"><ele>313.2</ele><time>2026-04-22T15:32:12Z</time></trkpt><trkpt lat="45.74615930481329" lon="9.781018607838776"><ele>313.0</ele><time>2026-04-22T15:32:14Z</time></trkpt><trkpt lat="45.74613249250862" lon="9.780934931009854"><ele>312.8</ele><time>2026-04-22T15:32:15Z</time></trkpt><trkpt lat="45.74607588419131" lon="9.780770357117918"><ele>312.6</ele><time>2026-04-22T15:32:17Z</time></trkpt><trkpt lat="45.7460252711842" lon="9.780606717770391"><ele>312.4</ele><time>2026-04-22T15:32:19Z</time></trkpt><trkpt lat="45.74600104950035" lon="9.780516718526412"><ele>312.2</ele><time>2026-04-22T15:32:20Z</time></trkpt><trkpt lat="45.74598400642256" lon="9.780428262051005"><ele>312.0</ele><time>2026-04-22T15:32:21Z</time></trkpt><trkpt lat="45.7459303195144" lon="9.780264745976751"><ele>312.1666666666667</ele><time>2026-04-22T15:32:23Z</time></trkpt><trkpt lat="45.74589921926798" lon="9.78018440941058"><ele>312.3333333333333</ele><time>2026-04-22T15:32:24Z</time></trkpt><trkpt lat="45.74585645374609" lon="9.7800194278956"><ele>312.5</ele><time>2026-04-22T15:32:26Z</time></trkpt><trkpt lat="45.74582809618472" lon="9.779935052434567"><ele>312.66666666666663</ele><time>2026-04-22T15:32:27Z</time></trkpt><trkpt lat="45.74577623393386" lon="9.779772900454198"><ele>312.8333333333333</ele><time>2026-04-22T15:32:29Z</time></trkpt><trkpt lat="45.74575311840264" lon="9.779687570763459"><ele>313.0</ele><time>2026-04-22T15:32:30Z</time></trkpt><trkpt lat="45.745720021730186" lon="9.779605516544757"><ele>313.0</ele><time>2026-04-22T15:32:31Z</time></trkpt><trkpt lat="45.745694101307755" lon="9.779520889173089"><ele>313.0</ele><time>2026-04-22T15:32:32Z</time></trkpt><trkpt lat="45.745667098604464" lon="9.779439117204323"><ele>313.0</ele><time>2026-04-22T15:32:33Z</time></trkpt><trkpt lat="45.74563898038215" lon="9.779354874731075"><ele>313.0</ele><time>2026-04-22T15:32:34Z</time></trkpt><trkpt lat="45.745613866896555" lon="9.779270914849148"><ele>313.0</ele><time>2026-04-22T15:32:35Z</time></trkpt><trkpt lat="45.745586467682315" lon="9.779187974720125"><ele>313.0</ele><time>2026-04-22T15:32:36Z</time></trkpt><trkpt lat="45.745561565134174" lon="9.779104758373304"><ele>313.0</ele><time>2026-04-22T15:32:37Z</time></trkpt><trkpt lat="45.745533695469184" lon="9.779022244359265"><ele>313.0</ele><time>2026-04-22T15:32:38Z</time></trkpt><trkpt lat="45.745479650730424" lon="9.778864791114895"><ele>313.0</ele><time>2026-04-22T15:32:40Z</time></trkpt><trkpt lat="45.74543838842702" lon="9.778784272056722"><ele>313.0</ele><time>2026-04-22T15:32:41Z</time></trkpt><trkpt lat="45.74536719780189" lon="9.77864257348463"><ele>313.0</ele><time>2026-04-22T15:32:43Z</time></trkpt><trkpt lat="45.74529671297092" lon="9.778498738140389"><ele>313.0</ele><time>2026-04-22T15:32:45Z</time></trkpt><trkpt lat="45.74522161136415" lon="9.778356221713791"><ele>313.0</ele><time>2026-04-22T15:32:47Z</time></trkpt><trkpt lat="45.74515087137772" lon="9.778201527718117"><ele>313.0</ele><time>2026-04-22T15:32:49Z</time></trkpt><trkpt lat="45.74508621729897" lon="9.778048423820962"><ele>313.0</ele><time>2026-04-22T15:32:51Z</time></trkpt><trkpt lat="45.74506653505421" lon="9.777962287877878"><ele>313.0</ele><time>2026-04-22T15:32:52Z</time></trkpt><trkpt lat="45.74504279478464" lon="9.777876334968834"><ele>313.0</ele><time>2026-04-22T15:32:53Z</time></trkpt><trkpt lat="45.7450188480714" lon="9.777792602428043"><ele>313.0</ele><time>2026-04-22T15:32:54Z</time></trkpt><trkpt lat="45.74499281448724" lon="9.777707518805004"><ele>313.0</ele><time>2026-04-22T15:32:55Z</time></trkpt><trkpt lat="45.744965812935455" lon="9.777624509792759"><ele>313.0</ele><time>2026-04-22T15:32:56Z</time></trkpt><trkpt lat="45.744912103033414" lon="9.777462603247251"><ele>312.57142857142856</ele><time>2026-04-22T15:32:58Z</time></trkpt><trkpt lat="45.74488244266007" lon="9.777382336817865"><ele>312.14285714285717</ele><time>2026-04-22T15:32:59Z</time></trkpt><trkpt lat="45.744848538527556" lon="9.777305134954563"><ele>311.7142857142857</ele><time>2026-04-22T15:33:00Z</time></trkpt><trkpt lat="45.74481539671753" lon="9.777226836387804"><ele>311.2857142857143</ele><time>2026-04-22T15:33:01Z</time></trkpt><trkpt lat="45.74477898141837" lon="9.77714981887481"><ele>310.85714285714283</ele><time>2026-04-22T15:33:02Z</time></trkpt><trkpt lat="45.74473753113112" lon="9.777076528173893"><ele>310.42857142857144</ele><time>2026-04-22T15:33:03Z</time></trkpt><trkpt lat="45.74469918970765" lon="9.777002777935403"><ele>310.0</ele><time>2026-04-22T15:33:04Z</time></trkpt><trkpt lat="45.74465905736337" lon="9.776928970753875"><ele>310.0</ele><time>2026-04-22T15:33:05Z</time></trkpt><trkpt lat="45.744611293683214" lon="9.776859115360455"><ele>310.0</ele><time>2026-04-22T15:33:06Z</time></trkpt><trkpt lat="45.74457574685471" lon="9.776783316106776"><ele>310.0</ele><time>2026-04-22T15:33:07Z</time></trkpt><trkpt lat="45.74453282603627" lon="9.776708937310048"><ele>310.0</ele><time>2026-04-22T15:33:08Z</time></trkpt><trkpt lat="45.74448978957713" lon="9.77663876955551"><ele>310.0</ele><time>2026-04-22T15:33:09Z</time></trkpt><trkpt lat="45.74441245172136" lon="9.776499121679985"><ele>310.0</ele><time>2026-04-22T15:33:11Z</time></trkpt><trkpt lat="45.74434695894761" lon="9.776354028765578"><ele>310.0</ele><time>2026-04-22T15:33:13Z</time></trkpt><trkpt lat="45.74430901440654" lon="9.776281098998336"><ele>310.0</ele><time>2026-04-22T15:33:14Z</time></trkpt><trkpt lat="45.74423710223942" lon="9.776141726929897"><ele>310.0</ele><time>2026-04-22T15:33:16Z</time></trkpt><trkpt lat="45.74417205427146" lon="9.776010407699198"><ele>310.0</ele><time>2026-04-22T15:33:18Z</time></trkpt><trkpt lat="45.74410915505083" lon="9.775882938452218"><ele>310.0</ele><time>2026-04-22T15:33:20Z</time></trkpt><trkpt lat="45.74405230533664" lon="9.77575329138307"><ele>310.0</ele><time>2026-04-22T15:33:22Z</time></trkpt><trkpt lat="45.74398248846293" lon="9.775610703973847"><ele>310.0</ele><time>2026-04-22T15:33:24Z</time></trkpt><trkpt lat="45.743918384684385" lon="9.77546077175945"><ele>310.0</ele><time>2026-04-22T15:33:26Z</time></trkpt><trkpt lat="45.743857142030976" lon="9.775304090458409"><ele>310.0</ele><time>2026-04-22T15:33:28Z</time></trkpt><trkpt lat="45.743792229875986" lon="9.775149210470047"><ele>309.66666666666663</ele><time>2026-04-22T15:33:30Z</time></trkpt><trkpt lat="45.743758370624185" lon="9.77507168413"><ele>309.3333333333333</ele><time>2026-04-22T15:33:31Z</time></trkpt><trkpt lat="45.74372644767975" lon="9.774991235823197"><ele>309.0</ele><time>2026-04-22T15:33:32Z</time></trkpt><trkpt lat="45.74366940387038" lon="9.774834352819402"><ele>308.6666666666667</ele><time>2026-04-22T15:33:34Z</time></trkpt><trkpt lat="45.74364418214334" lon="9.774750800927984"><ele>308.33333333333337</ele><time>2026-04-22T15:33:35Z</time></trkpt><trkpt lat="45.743625080877486" lon="9.77465953562052"><ele>308.0</ele><time>2026-04-22T15:33:36Z</time></trkpt><trkpt lat="45.743589426417394" lon="9.77448473831232"><ele>308.0</ele><time>2026-04-22T15:33:38Z</time></trkpt><trkpt lat="45.74357300763995" lon="9.774397211135758"><ele>308.0</ele><time>2026-04-22T15:33:39Z</time></trkpt><trkpt lat="45.743539512275184" lon="9.774225593257727"><ele>308.0</ele><time>2026-04-22T15:33:41Z</time></trkpt><trkpt lat="45.74351399459751" lon="9.774064376379568"><ele>308.0</ele><time>2026-04-22T15:33:43Z</time></trkpt><trkpt lat="45.74347671636592" lon="9.773907279338824"><ele>308.0</ele><time>2026-04-22T15:33:45Z</time></trkpt><trkpt lat="45.74342529659571" lon="9.773826955994735"><ele>308.0</ele><time>2026-04-22T15:33:46Z</time></trkpt><trkpt lat="45.74331722180309" lon="9.773895379352457"><ele>308.0</ele><time>2026-04-22T15:33:48Z</time></trkpt><trkpt lat="45.74325295520043" lon="9.773918240566895"><ele>308.0</ele><time>2026-04-22T15:33:49Z</time></trkpt><trkpt lat="45.743190456369895" lon="9.773934830202071"><ele>308.0</ele><time>2026-04-22T15:33:50Z</time></trkpt><trkpt lat="45.74307604218792" lon="9.773962322148213"><ele>308.0</ele><time>2026-04-22T15:33:53Z</time></trkpt><trkpt lat="45.74296497009543" lon="9.77399806553884"><ele>308.0</ele><time>2026-04-22T15:33:55Z</time></trkpt><trkpt lat="45.74286295948476" lon="9.774014117309092"><ele>308.0</ele><time>2026-04-22T15:33:57Z</time></trkpt><trkpt lat="45.74276718030044" lon="9.774028758831614"><ele>308.0</ele><time>2026-04-22T15:33:59Z</time></trkpt><trkpt lat="45.74266497283608" lon="9.774046164956648"><ele>308.0</ele><time>2026-04-22T15:34:01Z</time></trkpt><trkpt lat="45.7425634615717" lon="9.774060215434309"><ele>308.0</ele><time>2026-04-22T15:34:03Z</time></trkpt><trkpt lat="45.74246590403225" lon="9.774069008839357"><ele>309.0</ele><time>2026-04-22T15:34:05Z</time></trkpt><trkpt lat="45.74237117177097" lon="9.774064573852204"><ele>310.0</ele><time>2026-04-22T15:34:07Z</time></trkpt><trkpt lat="45.742274724144984" lon="9.774062804482584"><ele>311.0</ele><time>2026-04-22T15:34:09Z</time></trkpt><trkpt lat="45.74216483189425" lon="9.774048380300838"><ele>312.0</ele><time>2026-04-22T15:34:11Z</time></trkpt><trkpt lat="45.74205730798753" lon="9.77401346683076"><ele>313.0</ele><time>2026-04-22T15:34:13Z</time></trkpt><trkpt lat="45.741944906509694" lon="9.773991428018048"><ele>314.3333333333333</ele><time>2026-04-22T15:34:15Z</time></trkpt><trkpt lat="45.74186411191886" lon="9.773988338284143"><ele>315.66666666666663</ele><time>2026-04-22T15:34:17Z</time></trkpt><trkpt lat="45.74179226059897" lon="9.773978411652479"><ele>317.0</ele><time>2026-04-22T15:34:19Z</time></trkpt><trkpt lat="45.741693137552005" lon="9.773963876154642"><ele>318.3333333333333</ele><time>2026-04-22T15:34:22Z</time></trkpt><trkpt lat="45.74160770522387" lon="9.773947475547402"><ele>319.6666666666667</ele><time>2026-04-22T15:34:24Z</time></trkpt><trkpt lat="45.74151368865582" lon="9.773930920770994"><ele>321.0</ele><time>2026-04-22T15:34:26Z</time></trkpt><trkpt lat="45.74141804897684" lon="9.773917235333009"><ele>321.0</ele><time>2026-04-22T15:34:28Z</time></trkpt><trkpt lat="45.7413187507923" lon="9.77389698617514"><ele>321.0</ele><time>2026-04-22T15:34:30Z</time></trkpt><trkpt lat="45.741217300244294" lon="9.773875083885034"><ele>321.0</ele><time>2026-04-22T15:34:32Z</time></trkpt><trkpt lat="45.741114737596504" lon="9.773858873513866"><ele>321.0</ele><time>2026-04-22T15:34:34Z</time></trkpt><trkpt lat="45.74102364179564" lon="9.773823926062432"><ele>321.0</ele><time>2026-04-22T15:34:36Z</time></trkpt><trkpt lat="45.74092738088778" lon="9.773783814681584"><ele>322.6</ele><time>2026-04-22T15:34:38Z</time></trkpt><trkpt lat="45.74083276771064" lon="9.773781623811596"><ele>324.20000000000005</ele><time>2026-04-22T15:34:40Z</time></trkpt><trkpt lat="45.74073173056661" lon="9.773779146249252"><ele>325.79999999999995</ele><time>2026-04-22T15:34:42Z</time></trkpt><trkpt lat="45.74062810812604" lon="9.773792512931125"><ele>327.4</ele><time>2026-04-22T15:34:44Z</time></trkpt><trkpt lat="45.740528689817" lon="9.773819111112065"><ele>329.0</ele><time>2026-04-22T15:34:46Z</time></trkpt><trkpt lat="45.74042713485712" lon="9.773843134771546"><ele>329.0</ele><time>2026-04-22T15:34:48Z</time></trkpt><trkpt lat="45.740325904264864" lon="9.773879067483774"><ele>329.0</ele><time>2026-04-22T15:34:50Z</time></trkpt><trkpt lat="45.740221040356445" lon="9.773915605455107"><ele>329.0</ele><time>2026-04-22T15:34:52Z</time></trkpt><trkpt lat="45.74011727487123" lon="9.77394039853915"><ele>329.0</ele><time>2026-04-22T15:34:54Z</time></trkpt><trkpt lat="45.74001647717669" lon="9.773992145356267"><ele>329.0</ele><time>2026-04-22T15:34:56Z</time></trkpt><trkpt lat="45.73991433621912" lon="9.774038270184667"><ele>330.2</ele><time>2026-04-22T15:34:58Z</time></trkpt><trkpt lat="45.73981221212843" lon="9.774095224948338"><ele>331.4</ele><time>2026-04-22T15:35:00Z</time></trkpt><trkpt lat="45.739710319196476" lon="9.774153405286619"><ele>332.6</ele><time>2026-04-22T15:35:02Z</time></trkpt><trkpt lat="45.73961104009875" lon="9.774166037365855"><ele>333.8</ele><time>2026-04-22T15:35:04Z</time></trkpt><trkpt lat="45.7395248069525" lon="9.774116510815405"><ele>335.0</ele><time>2026-04-22T15:35:06Z</time></trkpt><trkpt lat="45.739509822171186" lon="9.773967662832073"><ele>335.0</ele><time>2026-04-22T15:35:08Z</time></trkpt><trkpt lat="45.73952621070924" lon="9.773804689146935"><ele>335.0</ele><time>2026-04-22T15:35:10Z</time></trkpt><trkpt lat="45.73953159857903" lon="9.77364567511714"><ele>335.0</ele><time>2026-04-22T15:35:12Z</time></trkpt><trkpt lat="45.7395232768693" lon="9.77347218955651"><ele>335.0</ele><time>2026-04-22T15:35:14Z</time></trkpt><trkpt lat="45.73951303213837" lon="9.773380850167028"><ele>335.0</ele><time>2026-04-22T15:35:15Z</time></trkpt><trkpt lat="45.73951140293468" lon="9.773206641563359"><ele>335.0</ele><time>2026-04-22T15:35:17Z</time></trkpt><trkpt lat="45.739504806525126" lon="9.773039441267603"><ele>335.0</ele><time>2026-04-22T15:35:19Z</time></trkpt><trkpt lat="45.7394932545272" lon="9.772880605109373"><ele>335.0</ele><time>2026-04-22T15:35:21Z</time></trkpt><trkpt lat="45.73946345828292" lon="9.772732710149423"><ele>335.0</ele><time>2026-04-22T15:35:23Z</time></trkpt><trkpt lat="45.73942855433646" lon="9.772579976181426"><ele>335.0</ele><time>2026-04-22T15:35:25Z</time></trkpt><trkpt lat="45.73939828816357" lon="9.77241266705467"><ele>335.0</ele><time>2026-04-22T15:35:27Z</time></trkpt><trkpt lat="45.739366486365576" lon="9.772226768077699"><ele>335.0</ele><time>2026-04-22T15:35:29Z</time></trkpt><trkpt lat="45.73934465381152" lon="9.772134842712815"><ele>335.0</ele><time>2026-04-22T15:35:30Z</time></trkpt><trkpt lat="45.739328373285446" lon="9.772033135334983"><ele>335.0</ele><time>2026-04-22T15:35:31Z</time></trkpt><trkpt lat="45.73930909217285" lon="9.771934724057708"><ele>335.0</ele><time>2026-04-22T15:35:32Z</time></trkpt><trkpt lat="45.739291593592434" lon="9.771819507260261"><ele>335.0</ele><time>2026-04-22T15:35:33Z</time></trkpt><trkpt lat="45.73926704309174" lon="9.771701067294446"><ele>335.0</ele><time>2026-04-22T15:35:34Z</time></trkpt><trkpt lat="45.73927035723397" lon="9.771566827908"><ele>335.0</ele><time>2026-04-22T15:35:35Z</time></trkpt><trkpt lat="45.73923155461424" lon="9.771448472429089"><ele>335.0</ele><time>2026-04-22T15:35:36Z</time></trkpt><trkpt lat="45.73920711656359" lon="9.771312255858321"><ele>335.0</ele><time>2026-04-22T15:35:37Z</time></trkpt><trkpt lat="45.73916384229871" lon="9.77117979261255"><ele>335.0</ele><time>2026-04-22T15:35:38Z</time></trkpt><trkpt lat="45.73911440778074" lon="9.771043429676212"><ele>334.0</ele><time>2026-04-22T15:35:39Z</time></trkpt><trkpt lat="45.73907642644073" lon="9.770899790345712"><ele>333.0</ele><time>2026-04-22T15:35:40Z</time></trkpt><trkpt lat="45.739021433156566" lon="9.770769024746672"><ele>332.0</ele><time>2026-04-22T15:35:41Z</time></trkpt><trkpt lat="45.73899556333576" lon="9.770629380094821"><ele>331.0</ele><time>2026-04-22T15:35:42Z</time></trkpt><trkpt lat="45.73897621132511" lon="9.770481257288754"><ele>330.0</ele><time>2026-04-22T15:35:43Z</time></trkpt><trkpt lat="45.73897469301198" lon="9.770337161173448"><ele>328.0</ele><time>2026-04-22T15:35:44Z</time></trkpt><trkpt lat="45.73899906376191" lon="9.770190110648254"><ele>326.0</ele><time>2026-04-22T15:35:45Z</time></trkpt><trkpt lat="45.739034834190754" lon="9.770042457896126"><ele>324.0</ele><time>2026-04-22T15:35:46Z</time></trkpt><trkpt lat="45.739070728332955" lon="9.769900123364616"><ele>322.0</ele><time>2026-04-22T15:35:47Z</time></trkpt><trkpt lat="45.73910076813935" lon="9.769765836403785"><ele>320.0</ele><time>2026-04-22T15:35:48Z</time></trkpt><trkpt lat="45.73912012593349" lon="9.769646601619456"><ele>320.0</ele><time>2026-04-22T15:35:49Z</time></trkpt><trkpt lat="45.73913217572116" lon="9.769536458440239"><ele>320.0</ele><time>2026-04-22T15:35:50Z</time></trkpt><trkpt lat="45.73913845406125" lon="9.769412663748085"><ele>320.0</ele><time>2026-04-22T15:35:51Z</time></trkpt><trkpt lat="45.73913690446686" lon="9.769281816296653"><ele>320.0</ele><time>2026-04-22T15:35:52Z</time></trkpt><trkpt lat="45.739126633456785" lon="9.76915136778996"><ele>320.0</ele><time>2026-04-22T15:35:53Z</time></trkpt><trkpt lat="45.739113370017144" lon="9.769021461296878"><ele>320.0</ele><time>2026-04-22T15:35:54Z</time></trkpt><trkpt lat="45.739089211848615" lon="9.76889662591699"><ele>319.33333333333337</ele><time>2026-04-22T15:35:55Z</time></trkpt><trkpt lat="45.739064213967744" lon="9.768782071201606"><ele>318.6666666666667</ele><time>2026-04-22T15:35:56Z</time></trkpt><trkpt lat="45.739040289239234" lon="9.768673676425184"><ele>318.0</ele><time>2026-04-22T15:35:57Z</time></trkpt><trkpt lat="45.7390159888801" lon="9.768557407725213"><ele>317.3333333333333</ele><time>2026-04-22T15:35:58Z</time></trkpt><trkpt lat="45.73899650178233" lon="9.768436942948131"><ele>316.66666666666663</ele><time>2026-04-22T15:35:59Z</time></trkpt><trkpt lat="45.73898871257421" lon="9.768312799059078"><ele>316.0</ele><time>2026-04-22T15:36:00Z</time></trkpt><trkpt lat="45.73899070761176" lon="9.768198075089126"><ele>315.16666666666663</ele><time>2026-04-22T15:36:01Z</time></trkpt><trkpt lat="45.738998683905386" lon="9.768090379449198"><ele>314.3333333333333</ele><time>2026-04-22T15:36:02Z</time></trkpt><trkpt lat="45.73903151734469" lon="9.767947311587603"><ele>313.5</ele><time>2026-04-22T15:36:04Z</time></trkpt><trkpt lat="45.73906803499476" lon="9.767839107365424"><ele>312.6666666666667</ele><time>2026-04-22T15:36:06Z</time></trkpt><trkpt lat="45.73910957171905" lon="9.76770675935032"><ele>311.83333333333337</ele><time>2026-04-22T15:36:08Z</time></trkpt><trkpt lat="45.73911729795885" lon="9.767615436331308"><ele>311.0</ele><time>2026-04-22T15:36:09Z</time></trkpt><trkpt lat="45.73912459961739" lon="9.767511302276203"><ele>310.0</ele><time>2026-04-22T15:36:10Z</time></trkpt><trkpt lat="45.73913245482431" lon="9.767407468722118"><ele>309.0</ele><time>2026-04-22T15:36:11Z</time></trkpt><trkpt lat="45.73914777976669" lon="9.7673061397244"><ele>308.0</ele><time>2026-04-22T15:36:12Z</time></trkpt><trkpt lat="45.73915811090958" lon="9.767207213497706"><ele>307.0</ele><time>2026-04-22T15:36:13Z</time></trkpt><trkpt lat="45.73915495330562" lon="9.767097689226425"><ele>306.0</ele><time>2026-04-22T15:36:14Z</time></trkpt><trkpt lat="45.73914159381205" lon="9.766996825571425"><ele>305.0</ele><time>2026-04-22T15:36:15Z</time></trkpt><trkpt lat="45.739121749020825" lon="9.766896073442602"><ele>304.0</ele><time>2026-04-22T15:36:16Z</time></trkpt><trkpt lat="45.739089738724346" lon="9.766804345980555"><ele>303.5</ele><time>2026-04-22T15:36:17Z</time></trkpt><trkpt lat="45.73905700042839" lon="9.766718357957568"><ele>303.0</ele><time>2026-04-22T15:36:18Z</time></trkpt><trkpt lat="45.739028380959475" lon="9.766634939346522"><ele>302.5</ele><time>2026-04-22T15:36:19Z</time></trkpt><trkpt lat="45.73899847118289" lon="9.76655204181705"><ele>302.0</ele><time>2026-04-22T15:36:20Z</time></trkpt><trkpt lat="45.73897340640563" lon="9.76646806376688"><ele>301.5</ele><time>2026-04-22T15:36:21Z</time></trkpt><trkpt lat="45.738946088592904" lon="9.766381430648465"><ele>301.0</ele><time>2026-04-22T15:36:22Z</time></trkpt><trkpt lat="45.738895017006456" lon="9.766219468918711"><ele>301.0</ele><time>2026-04-22T15:36:24Z</time></trkpt><trkpt lat="45.73886650340702" lon="9.766138201314837"><ele>301.0</ele><time>2026-04-22T15:36:25Z</time></trkpt><trkpt lat="45.73881501268332" lon="9.765975618136464"><ele>301.0</ele><time>2026-04-22T15:36:27Z</time></trkpt><trkpt lat="45.73876193441443" lon="9.76581294650144"><ele>301.0</ele><time>2026-04-22T15:36:29Z</time></trkpt><trkpt lat="45.73872643973299" lon="9.765735495812464"><ele>301.0</ele><time>2026-04-22T15:36:30Z</time></trkpt><trkpt lat="45.7386595049443" lon="9.765580946600592"><ele>300.6</ele><time>2026-04-22T15:36:32Z</time></trkpt><trkpt lat="45.73861049548477" lon="9.76541816822206"><ele>300.20000000000005</ele><time>2026-04-22T15:36:34Z</time></trkpt><trkpt lat="45.73858269268547" lon="9.765334059427477"><ele>299.79999999999995</ele><time>2026-04-22T15:36:35Z</time></trkpt><trkpt lat="45.738524800501054" lon="9.76517133535308"><ele>299.4</ele><time>2026-04-22T15:36:37Z</time></trkpt><trkpt lat="45.738499594469104" lon="9.765004781846011"><ele>299.0</ele><time>2026-04-22T15:36:39Z</time></trkpt><trkpt lat="45.7384629029113" lon="9.764855423915675"><ele>299.0</ele><time>2026-04-22T15:36:41Z</time></trkpt><trkpt lat="45.73842135859243" lon="9.764690821391914"><ele>299.0</ele><time>2026-04-22T15:36:43Z</time></trkpt><trkpt lat="45.73840401093231" lon="9.764515183936018"><ele>299.0</ele><time>2026-04-22T15:36:45Z</time></trkpt><trkpt lat="45.7383884161502" lon="9.76442244936291"><ele>299.0</ele><time>2026-04-22T15:36:46Z</time></trkpt><trkpt lat="45.73836328555038" lon="9.764338056912026"><ele>299.0</ele><time>2026-04-22T15:36:47Z</time></trkpt><trkpt lat="45.738329579318275" lon="9.76425841077486"><ele>299.0</ele><time>2026-04-22T15:36:48Z</time></trkpt><trkpt lat="45.738295801027405" lon="9.764169576171357"><ele>299.0</ele><time>2026-04-22T15:36:49Z</time></trkpt><trkpt lat="45.738258398605666" lon="9.764087016596756"><ele>299.0</ele><time>2026-04-22T15:36:50Z</time></trkpt><trkpt lat="45.73822760349543" lon="9.763993951591253"><ele>299.0</ele><time>2026-04-22T15:36:51Z</time></trkpt><trkpt lat="45.73819475662641" lon="9.763901983688388"><ele>299.0</ele><time>2026-04-22T15:36:52Z</time></trkpt><trkpt lat="45.738164598770716" lon="9.76381175896036"><ele>299.0</ele><time>2026-04-22T15:36:53Z</time></trkpt><trkpt lat="45.73813532830113" lon="9.763722061381381"><ele>299.0</ele><time>2026-04-22T15:36:54Z</time></trkpt><trkpt lat="45.73810400107457" lon="9.763633924824353"><ele>299.0</ele><time>2026-04-22T15:36:55Z</time></trkpt><trkpt lat="45.73807340185779" lon="9.763549840765585"><ele>298.2857142857143</ele><time>2026-04-22T15:36:56Z</time></trkpt><trkpt lat="45.738042005133124" lon="9.76346492011627"><ele>297.57142857142856</ele><time>2026-04-22T15:36:57Z</time></trkpt><trkpt lat="45.73801286218425" lon="9.763379580959244"><ele>296.8571428571429</ele><time>2026-04-22T15:36:58Z</time></trkpt><trkpt lat="45.737981648797295" lon="9.763297299115557"><ele>296.1428571428571</ele><time>2026-04-22T15:36:59Z</time></trkpt><trkpt lat="45.73794957538585" lon="9.763211659619287"><ele>295.42857142857144</ele><time>2026-04-22T15:37:00Z</time></trkpt><trkpt lat="45.737920956126494" lon="9.763127959324317"><ele>294.7142857142857</ele><time>2026-04-22T15:37:01Z</time></trkpt><trkpt lat="45.73789009496958" lon="9.76304428257787"><ele>294.0</ele><time>2026-04-22T15:37:02Z</time></trkpt><trkpt lat="45.73786816683952" lon="9.762958225496426"><ele>294.0</ele><time>2026-04-22T15:37:03Z</time></trkpt><trkpt lat="45.737849820463374" lon="9.762863122834693"><ele>294.0</ele><time>2026-04-22T15:37:04Z</time></trkpt><trkpt lat="45.73782926605653" lon="9.762773104698871"><ele>294.0</ele><time>2026-04-22T15:37:05Z</time></trkpt><trkpt lat="45.73781285541118" lon="9.762676586831182"><ele>294.0</ele><time>2026-04-22T15:37:06Z</time></trkpt><trkpt lat="45.737803275880324" lon="9.762577153569925"><ele>294.0</ele><time>2026-04-22T15:37:07Z</time></trkpt><trkpt lat="45.737796494570034" lon="9.762480195779341"><ele>294.0</ele><time>2026-04-22T15:37:08Z</time></trkpt><trkpt lat="45.73778645621196" lon="9.762383664806315"><ele>294.0</ele><time>2026-04-22T15:37:09Z</time></trkpt><trkpt lat="45.7377829159593" lon="9.762282838915832"><ele>293.7142857142857</ele><time>2026-04-22T15:37:10Z</time></trkpt><trkpt lat="45.73778084388344" lon="9.762183713514693"><ele>293.42857142857144</ele><time>2026-04-22T15:37:11Z</time></trkpt><trkpt lat="45.73778153289463" lon="9.762083365322995"><ele>293.1428571428571</ele><time>2026-04-22T15:37:12Z</time></trkpt><trkpt lat="45.737783822558896" lon="9.761983436315935"><ele>292.8571428571429</ele><time>2026-04-22T15:37:13Z</time></trkpt><trkpt lat="45.73778591487774" lon="9.761883799763936"><ele>292.57142857142856</ele><time>2026-04-22T15:37:14Z</time></trkpt><trkpt lat="45.73778883599775" lon="9.761784596786086"><ele>292.2857142857143</ele><time>2026-04-22T15:37:15Z</time></trkpt><trkpt lat="45.73779252022883" lon="9.761688321393017"><ele>292.0</ele><time>2026-04-22T15:37:16Z</time></trkpt><trkpt lat="45.737791221433525" lon="9.761590322350362"><ele>292.0</ele><time>2026-04-22T15:37:17Z</time></trkpt><trkpt lat="45.73779167926039" lon="9.76149459274868"><ele>292.0</ele><time>2026-04-22T15:37:18Z</time></trkpt><trkpt lat="45.737784154897184" lon="9.761399829984565"><ele>292.0</ele><time>2026-04-22T15:37:19Z</time></trkpt><trkpt lat="45.737776607542195" lon="9.7613100114864"><ele>292.0</ele><time>2026-04-22T15:37:20Z</time></trkpt><trkpt lat="45.737759916107905" lon="9.761217585238027"><ele>292.0</ele><time>2026-04-22T15:37:21Z</time></trkpt><trkpt lat="45.73774881749432" lon="9.76112263598595"><ele>292.0</ele><time>2026-04-22T15:37:22Z</time></trkpt><trkpt lat="45.73773772134054" lon="9.761032813347986"><ele>292.0</ele><time>2026-04-22T15:37:23Z</time></trkpt><trkpt lat="45.737725353154524" lon="9.76094216895823"><ele>293.1428571428571</ele><time>2026-04-22T15:37:24Z</time></trkpt><trkpt lat="45.73771251733748" lon="9.760850797431626"><ele>294.2857142857143</ele><time>2026-04-22T15:37:25Z</time></trkpt><trkpt lat="45.73769887027688" lon="9.76076131578415"><ele>295.42857142857144</ele><time>2026-04-22T15:37:26Z</time></trkpt><trkpt lat="45.73766332542015" lon="9.760585872578666"><ele>296.57142857142856</ele><time>2026-04-22T15:37:28Z</time></trkpt><trkpt lat="45.7376461887164" lon="9.76049767221656"><ele>297.7142857142857</ele><time>2026-04-22T15:37:29Z</time></trkpt><trkpt lat="45.73762705901045" lon="9.760411182146226"><ele>298.85714285714283</ele><time>2026-04-22T15:37:30Z</time></trkpt><trkpt lat="45.737607541695404" lon="9.760324972694901"><ele>300.0</ele><time>2026-04-22T15:37:31Z</time></trkpt><trkpt lat="45.7375871660556" lon="9.760239530279998"><ele>299.57142857142856</ele><time>2026-04-22T15:37:32Z</time></trkpt><trkpt lat="45.73756098677166" lon="9.760154585325846"><ele>299.1428571428571</ele><time>2026-04-22T15:37:33Z</time></trkpt><trkpt lat="45.73753555666961" lon="9.760069763926374"><ele>298.7142857142857</ele><time>2026-04-22T15:37:34Z</time></trkpt><trkpt lat="45.73751112985198" lon="9.759984615667356"><ele>298.2857142857143</ele><time>2026-04-22T15:37:35Z</time></trkpt><trkpt lat="45.737485328038694" lon="9.75990129275683"><ele>297.8571428571429</ele><time>2026-04-22T15:37:36Z</time></trkpt><trkpt lat="45.7374613964702" lon="9.759817137182399"><ele>297.42857142857144</ele><time>2026-04-22T15:37:37Z</time></trkpt><trkpt lat="45.7374373430786" lon="9.75973190179685"><ele>297.0</ele><time>2026-04-22T15:37:38Z</time></trkpt><trkpt lat="45.73741628474788" lon="9.759643497750234"><ele>297.0</ele><time>2026-04-22T15:37:39Z</time></trkpt><trkpt lat="45.73738991005201" lon="9.759559814107375"><ele>297.0</ele><time>2026-04-22T15:37:40Z</time></trkpt><trkpt lat="45.737364555063124" lon="9.759474708780976"><ele>297.0</ele><time>2026-04-22T15:37:41Z</time></trkpt><trkpt lat="45.73733884294875" lon="9.759389299584953"><ele>297.0</ele><time>2026-04-22T15:37:42Z</time></trkpt><trkpt lat="45.73731242052735" lon="9.759305615562957"><ele>297.0</ele><time>2026-04-22T15:37:43Z</time></trkpt><trkpt lat="45.73728552523089" lon="9.759222245621228"><ele>297.0</ele><time>2026-04-22T15:37:44Z</time></trkpt><trkpt lat="45.73726024547721" lon="9.759135428035519"><ele>297.0</ele><time>2026-04-22T15:37:45Z</time></trkpt><trkpt lat="45.73723545699086" lon="9.759050861057423"><ele>296.7142857142857</ele><time>2026-04-22T15:37:46Z</time></trkpt><trkpt lat="45.73720467309421" lon="9.75897130085569"><ele>296.42857142857144</ele><time>2026-04-22T15:37:47Z</time></trkpt><trkpt lat="45.73716981386567" lon="9.758893701637723"><ele>296.14285714285717</ele><time>2026-04-22T15:37:48Z</time></trkpt><trkpt lat="45.73713393506128" lon="9.758818955112208"><ele>295.8571428571429</ele><time>2026-04-22T15:37:49Z</time></trkpt><trkpt lat="45.737097903264335" lon="9.758743389994924"><ele>295.57142857142856</ele><time>2026-04-22T15:37:50Z</time></trkpt><trkpt lat="45.737060800411236" lon="9.758665369917754"><ele>295.28571428571433</ele><time>2026-04-22T15:37:51Z</time></trkpt><trkpt lat="45.73702914209779" lon="9.75858536278074"><ele>295.0</ele><time>2026-04-22T15:37:52Z</time></trkpt><trkpt lat="45.7369938647846" lon="9.758507914259189"><ele>295.0</ele><time>2026-04-22T15:37:53Z</time></trkpt><trkpt lat="45.73695953754915" lon="9.7584318708824"><ele>295.0</ele><time>2026-04-22T15:37:54Z</time></trkpt><trkpt lat="45.736887639294906" lon="9.758279833726535"><ele>295.0</ele><time>2026-04-22T15:37:56Z</time></trkpt><trkpt lat="45.73685185701945" lon="9.758204361139796"><ele>295.0</ele><time>2026-04-22T15:37:57Z</time></trkpt><trkpt lat="45.736780881451075" lon="9.758063903426516"><ele>295.0</ele><time>2026-04-22T15:37:59Z</time></trkpt><trkpt lat="45.73674605388615" lon="9.757982750493255"><ele>295.0</ele><time>2026-04-22T15:38:00Z</time></trkpt><trkpt lat="45.7367101321717" lon="9.757903734131125"><ele>295.2</ele><time>2026-04-22T15:38:01Z</time></trkpt><trkpt lat="45.736675869145536" lon="9.757824445549147"><ele>295.4</ele><time>2026-04-22T15:38:02Z</time></trkpt><trkpt lat="45.73663788441661" lon="9.757749514856075"><ele>295.6</ele><time>2026-04-22T15:38:03Z</time></trkpt><trkpt lat="45.736566374731716" lon="9.757605583417822"><ele>295.8</ele><time>2026-04-22T15:38:05Z</time></trkpt><trkpt lat="45.73649303960676" lon="9.75747429791762"><ele>296.0</ele><time>2026-04-22T15:38:07Z</time></trkpt><trkpt lat="45.736410638902115" lon="9.757369773891803"><ele>296.0</ele><time>2026-04-22T15:38:09Z</time></trkpt><trkpt lat="45.73632671393423" lon="9.757269864639463"><ele>296.0</ele><time>2026-04-22T15:38:11Z</time></trkpt><trkpt lat="45.73622603434929" lon="9.75722018817275"><ele>296.0</ele><time>2026-04-22T15:38:13Z</time></trkpt><trkpt lat="45.73612140698206" lon="9.75725847060874"><ele>296.0</ele><time>2026-04-22T15:38:15Z</time></trkpt><trkpt lat="45.73601552753196" lon="9.757233441920016"><ele>296.0</ele><time>2026-04-22T15:38:17Z</time></trkpt><trkpt lat="45.73589661398439" lon="9.757198422569827"><ele>297.5</ele><time>2026-04-22T15:38:19Z</time></trkpt><trkpt lat="45.735776787086536" lon="9.757181330377978"><ele>299.0</ele><time>2026-04-22T15:38:21Z</time></trkpt><trkpt lat="45.73565741523475" lon="9.757181026390285"><ele>300.5</ele><time>2026-04-22T15:38:23Z</time></trkpt><trkpt lat="45.735534657834265" lon="9.757190883138183"><ele>302.0</ele><time>2026-04-22T15:38:25Z</time></trkpt><trkpt lat="45.73541869136823" lon="9.757200840861668"><ele>302.0</ele><time>2026-04-22T15:38:27Z</time></trkpt><trkpt lat="45.73535317498622" lon="9.757205893659313"><ele>302.0</ele><time>2026-04-22T15:38:28Z</time></trkpt><trkpt lat="45.735228645195974" lon="9.757216837693884"><ele>302.0</ele><time>2026-04-22T15:38:30Z</time></trkpt><trkpt lat="45.7351090397161" lon="9.757224371831597"><ele>302.0</ele><time>2026-04-22T15:38:32Z</time></trkpt><trkpt lat="45.734988073817874" lon="9.75723259690446"><ele>302.0</ele><time>2026-04-22T15:38:34Z</time></trkpt><trkpt lat="45.73487070570146" lon="9.757242375701363"><ele>303.25</ele><time>2026-04-22T15:38:36Z</time></trkpt><trkpt lat="45.73475166951288" lon="9.75724859534467"><ele>304.5</ele><time>2026-04-22T15:38:38Z</time></trkpt><trkpt lat="45.73463080685315" lon="9.757260581815837"><ele>305.75</ele><time>2026-04-22T15:38:40Z</time></trkpt><trkpt lat="45.73450991213629" lon="9.75726822342032"><ele>307.0</ele><time>2026-04-22T15:38:42Z</time></trkpt><trkpt lat="45.73439190785014" lon="9.757277985831438"><ele>307.0</ele><time>2026-04-22T15:38:44Z</time></trkpt><trkpt lat="45.734276891223" lon="9.757306323325798"><ele>307.0</ele><time>2026-04-22T15:38:46Z</time></trkpt><trkpt lat="45.73416405443283" lon="9.757363930669518"><ele>307.0</ele><time>2026-04-22T15:38:48Z</time></trkpt><trkpt lat="45.73405742904424" lon="9.757443670304363"><ele>307.0</ele><time>2026-04-22T15:38:50Z</time></trkpt><trkpt lat="45.733946470034915" lon="9.757521514037142"><ele>307.0</ele><time>2026-04-22T15:38:52Z</time></trkpt><trkpt lat="45.733888542056924" lon="9.7575768937407"><ele>307.0</ele><time>2026-04-22T15:38:53Z</time></trkpt><trkpt lat="45.73376296900181" lon="9.757627189729618"><ele>307.0</ele><time>2026-04-22T15:38:55Z</time></trkpt><trkpt lat="45.73370579598758" lon="9.757669669742489"><ele>307.0</ele><time>2026-04-22T15:38:56Z</time></trkpt><trkpt lat="45.73363962057335" lon="9.75769584050563"><ele>307.0</ele><time>2026-04-22T15:38:57Z</time></trkpt><trkpt lat="45.73357835690893" lon="9.757718683160165"><ele>307.0</ele><time>2026-04-22T15:38:58Z</time></trkpt><trkpt lat="45.733515122744656" lon="9.757755308682107"><ele>306.8333333333333</ele><time>2026-04-22T15:38:59Z</time></trkpt><trkpt lat="45.73345366299631" lon="9.75778285437019"><ele>306.66666666666663</ele><time>2026-04-22T15:39:00Z</time></trkpt><trkpt lat="45.733391776987354" lon="9.757812379766612"><ele>306.5</ele><time>2026-04-22T15:39:01Z</time></trkpt><trkpt lat="45.73327032947685" lon="9.757885641518447"><ele>306.3333333333333</ele><time>2026-04-22T15:39:03Z</time></trkpt><trkpt lat="45.733183242775056" lon="9.757957673502034"><ele>306.1666666666667</ele><time>2026-04-22T15:39:05Z</time></trkpt><trkpt lat="45.73311938163675" lon="9.75800196655739"><ele>306.0</ele><time>2026-04-22T15:39:06Z</time></trkpt><trkpt lat="45.733009002066694" lon="9.758085753509217"><ele>306.0</ele><time>2026-04-22T15:39:08Z</time></trkpt><trkpt lat="45.73288729746412" lon="9.75817759213419"><ele>306.0</ele><time>2026-04-22T15:39:10Z</time></trkpt><trkpt lat="45.73278035738577" lon="9.758251924945014"><ele>306.0</ele><time>2026-04-22T15:39:12Z</time></trkpt><trkpt lat="45.732720095893406" lon="9.758301510616661"><ele>306.0</ele><time>2026-04-22T15:39:13Z</time></trkpt><trkpt lat="45.73260384949264" lon="9.758367434700709"><ele>305.6666666666667</ele><time>2026-04-22T15:39:15Z</time></trkpt><trkpt lat="45.732545596909" lon="9.758412302607399"><ele>305.3333333333333</ele><time>2026-04-22T15:39:16Z</time></trkpt><trkpt lat="45.73248310120076" lon="9.758436808564491"><ele>305.0</ele><time>2026-04-22T15:39:17Z</time></trkpt><trkpt lat="45.7324220502434" lon="9.758463331148839"><ele>304.66666666666663</ele><time>2026-04-22T15:39:18Z</time></trkpt><trkpt lat="45.73235017032932" lon="9.758497590726945"><ele>304.3333333333333</ele><time>2026-04-22T15:39:19Z</time></trkpt><trkpt lat="45.73223200454625" lon="9.75855440882121"><ele>304.0</ele><time>2026-04-22T15:39:21Z</time></trkpt><trkpt lat="45.732107363725156" lon="9.758612176576202"><ele>304.5</ele><time>2026-04-22T15:39:23Z</time></trkpt><trkpt lat="45.731990188272405" lon="9.758656152239402"><ele>305.0</ele><time>2026-04-22T15:39:25Z</time></trkpt><trkpt lat="45.73192471788529" lon="9.758674636387354"><ele>305.5</ele><time>2026-04-22T15:39:26Z</time></trkpt><trkpt lat="45.73186207351983" lon="9.75869690619665"><ele>306.0</ele><time>2026-04-22T15:39:27Z</time></trkpt><trkpt lat="45.73179785567871" lon="9.758718799974282"><ele>306.5</ele><time>2026-04-22T15:39:28Z</time></trkpt><trkpt lat="45.731730181255365" lon="9.75872411146088"><ele>307.0</ele><time>2026-04-22T15:39:29Z</time></trkpt><trkpt lat="45.73166434558394" lon="9.758731701855174"><ele>307.0</ele><time>2026-04-22T15:39:30Z</time></trkpt><trkpt lat="45.73159103769875" lon="9.758757526875248"><ele>307.0</ele><time>2026-04-22T15:39:31Z</time></trkpt><trkpt lat="45.73146327590111" lon="9.758769862201605"><ele>307.0</ele><time>2026-04-22T15:39:33Z</time></trkpt><trkpt lat="45.73134510963725" lon="9.758797395250456"><ele>307.0</ele><time>2026-04-22T15:39:35Z</time></trkpt><trkpt lat="45.73128100265135" lon="9.758807010510415"><ele>307.0</ele><time>2026-04-22T15:39:36Z</time></trkpt><trkpt lat="45.731166943559735" lon="9.758838535474462"><ele>306.75</ele><time>2026-04-22T15:39:38Z</time></trkpt><trkpt lat="45.73104760192532" lon="9.75889237375332"><ele>306.5</ele><time>2026-04-22T15:39:40Z</time></trkpt><trkpt lat="45.73094499726113" lon="9.75895512181699"><ele>306.25</ele><time>2026-04-22T15:39:42Z</time></trkpt><trkpt lat="45.73083570177804" lon="9.759032131779549"><ele>306.0</ele><time>2026-04-22T15:39:44Z</time></trkpt><trkpt lat="45.73073379289286" lon="9.759118845642696"><ele>306.0</ele><time>2026-04-22T15:39:46Z</time></trkpt><trkpt lat="45.73062402819278" lon="9.759163879418722"><ele>306.0</ele><time>2026-04-22T15:39:48Z</time></trkpt><trkpt lat="45.73049825589565" lon="9.759208105139777"><ele>306.0</ele><time>2026-04-22T15:39:50Z</time></trkpt><trkpt lat="45.73038348363193" lon="9.759227066343218"><ele>306.0</ele><time>2026-04-22T15:39:52Z</time></trkpt><trkpt lat="45.73031232316109" lon="9.759248272332474"><ele>306.0</ele><time>2026-04-22T15:39:53Z</time></trkpt><trkpt lat="45.7301962977894" lon="9.759259952081417"><ele>306.0</ele><time>2026-04-22T15:39:55Z</time></trkpt><trkpt lat="45.73007135407684" lon="9.759270760088116"><ele>306.0</ele><time>2026-04-22T15:39:57Z</time></trkpt><trkpt lat="45.72994531888575" lon="9.759280783484495"><ele>306.0</ele><time>2026-04-22T15:39:59Z</time></trkpt><trkpt lat="45.729816497888116" lon="9.759288192878245"><ele>306.0</ele><time>2026-04-22T15:40:01Z</time></trkpt><trkpt lat="45.72969131892293" lon="9.75929659243414"><ele>306.0</ele><time>2026-04-22T15:40:03Z</time></trkpt><trkpt lat="45.729564368620245" lon="9.759294701635964"><ele>306.0</ele><time>2026-04-22T15:40:05Z</time></trkpt><trkpt lat="45.72944673263314" lon="9.759301364281335"><ele>306.0</ele><time>2026-04-22T15:40:07Z</time></trkpt><trkpt lat="45.72931971209653" lon="9.759314012451728"><ele>306.0</ele><time>2026-04-22T15:40:09Z</time></trkpt><trkpt lat="45.72919185598975" lon="9.759339986492533"><ele>305.8</ele><time>2026-04-22T15:40:11Z</time></trkpt><trkpt lat="45.729074174272164" lon="9.759362394299735"><ele>305.6</ele><time>2026-04-22T15:40:13Z</time></trkpt><trkpt lat="45.72900981290497" lon="9.759370668522394"><ele>305.4</ele><time>2026-04-22T15:40:14Z</time></trkpt><trkpt lat="45.728889514608866" lon="9.759414380012775"><ele>305.2</ele><time>2026-04-22T15:40:16Z</time></trkpt><trkpt lat="45.72883109546075" lon="9.75945278910761"><ele>305.0</ele><time>2026-04-22T15:40:17Z</time></trkpt><trkpt lat="45.7287160220019" lon="9.759507325853823"><ele>305.83333333333337</ele><time>2026-04-22T15:40:19Z</time></trkpt><trkpt lat="45.72865504078858" lon="9.7595434136293"><ele>306.6666666666667</ele><time>2026-04-22T15:40:20Z</time></trkpt><trkpt lat="45.72859572293124" lon="9.759574949175317"><ele>307.5</ele><time>2026-04-22T15:40:21Z</time></trkpt><trkpt lat="45.72847585574164" lon="9.759639427404284"><ele>308.3333333333333</ele><time>2026-04-22T15:40:23Z</time></trkpt><trkpt lat="45.72841682972569" lon="9.759674511809395"><ele>309.16666666666663</ele><time>2026-04-22T15:40:24Z</time></trkpt><trkpt lat="45.728298239256034" lon="9.759733876627724"><ele>310.0</ele><time>2026-04-22T15:40:26Z</time></trkpt><trkpt lat="45.728181014639816" lon="9.759796103961893"><ele>310.0</ele><time>2026-04-22T15:40:28Z</time></trkpt><trkpt lat="45.72811974724798" lon="9.759823154144955"><ele>310.0</ele><time>2026-04-22T15:40:29Z</time></trkpt><trkpt lat="45.72800291951312" lon="9.759875388327556"><ele>310.0</ele><time>2026-04-22T15:40:31Z</time></trkpt><trkpt lat="45.72788025043832" lon="9.75993188534988"><ele>310.0</ele><time>2026-04-22T15:40:33Z</time></trkpt><trkpt lat="45.72776268458691" lon="9.759990606354105"><ele>310.0</ele><time>2026-04-22T15:40:35Z</time></trkpt><trkpt lat="45.727650167005905" lon="9.760054032053105"><ele>310.0</ele><time>2026-04-22T15:40:37Z</time></trkpt><trkpt lat="45.727588133253924" lon="9.760090257807251"><ele>310.0</ele><time>2026-04-22T15:40:38Z</time></trkpt><trkpt lat="45.72747204681605" lon="9.760140638715185"><ele>310.0</ele><time>2026-04-22T15:40:40Z</time></trkpt><trkpt lat="45.72735788536235" lon="9.76017890305338"><ele>310.0</ele><time>2026-04-22T15:40:42Z</time></trkpt><trkpt lat="45.72729711392972" lon="9.760211497183148"><ele>310.0</ele><time>2026-04-22T15:40:43Z</time></trkpt><trkpt lat="45.72717452957055" lon="9.76024835355936"><ele>310.75</ele><time>2026-04-22T15:40:45Z</time></trkpt><trkpt lat="45.72705227921759" lon="9.760280886265795"><ele>311.5</ele><time>2026-04-22T15:40:47Z</time></trkpt><trkpt lat="45.72693118168168" lon="9.76031383571149"><ele>312.25</ele><time>2026-04-22T15:40:49Z</time></trkpt><trkpt lat="45.72680800150308" lon="9.760353388329099"><ele>313.0</ele><time>2026-04-22T15:40:51Z</time></trkpt><trkpt lat="45.72668390604738" lon="9.760396478890597"><ele>313.0</ele><time>2026-04-22T15:40:53Z</time></trkpt><trkpt lat="45.72656733452948" lon="9.760444994337671"><ele>313.0</ele><time>2026-04-22T15:40:55Z</time></trkpt><trkpt lat="45.72645280094115" lon="9.760496812120191"><ele>313.0</ele><time>2026-04-22T15:40:57Z</time></trkpt><trkpt lat="45.72638902903519" lon="9.760515498813463"><ele>313.0</ele><time>2026-04-22T15:40:58Z</time></trkpt><trkpt lat="45.7262709847037" lon="9.760563320631853"><ele>313.0</ele><time>2026-04-22T15:41:00Z</time></trkpt><trkpt lat="45.726159015615195" lon="9.76059768100502"><ele>313.0</ele><time>2026-04-22T15:41:02Z</time></trkpt><trkpt lat="45.7260964780544" lon="9.76064088785268"><ele>313.0</ele><time>2026-04-22T15:41:03Z</time></trkpt><trkpt lat="45.72603372140241" lon="9.76066964549482"><ele>313.0</ele><time>2026-04-22T15:41:04Z</time></trkpt><trkpt lat="45.72592166662913" lon="9.76070031678679"><ele>313.0</ele><time>2026-04-22T15:41:06Z</time></trkpt><trkpt lat="45.72585188822401" lon="9.760746681330053"><ele>313.0</ele><time>2026-04-22T15:41:07Z</time></trkpt><trkpt lat="45.725743020908894" lon="9.76076998808224"><ele>313.0</ele><time>2026-04-22T15:41:09Z</time></trkpt><trkpt lat="45.72567759000522" lon="9.760815240279717"><ele>313.3333333333333</ele><time>2026-04-22T15:41:10Z</time></trkpt><trkpt lat="45.725615850022905" lon="9.760845495616538"><ele>313.66666666666663</ele><time>2026-04-22T15:41:11Z</time></trkpt><trkpt lat="45.72549960791458" lon="9.760868397725796"><ele>314.0</ele><time>2026-04-22T15:41:13Z</time></trkpt><trkpt lat="45.725440499924474" lon="9.760913459297337"><ele>314.3333333333333</ele><time>2026-04-22T15:41:14Z</time></trkpt><trkpt lat="45.72537754349106" lon="9.760936208555355"><ele>314.6666666666667</ele><time>2026-04-22T15:41:15Z</time></trkpt><trkpt lat="45.725253379993546" lon="9.761002191342191"><ele>315.0</ele><time>2026-04-22T15:41:17Z</time></trkpt><trkpt lat="45.72514875656841" lon="9.761070739880152"><ele>315.0</ele><time>2026-04-22T15:41:19Z</time></trkpt><trkpt lat="45.72508998462452" lon="9.761107541300067"><ele>315.0</ele><time>2026-04-22T15:41:20Z</time></trkpt><trkpt lat="45.72497796677" lon="9.761179992937505"><ele>315.0</ele><time>2026-04-22T15:41:22Z</time></trkpt><trkpt lat="45.7249201547747" lon="9.761228275160207"><ele>315.0</ele><time>2026-04-22T15:41:23Z</time></trkpt><trkpt lat="45.724826317329814" lon="9.76131760938349"><ele>315.0</ele><time>2026-04-22T15:41:25Z</time></trkpt><trkpt lat="45.72473588480758" lon="9.761430491174343"><ele>315.0</ele><time>2026-04-22T15:41:27Z</time></trkpt><trkpt lat="45.72469186354192" lon="9.761496003637475"><ele>315.0</ele><time>2026-04-22T15:41:28Z</time></trkpt><trkpt lat="45.72461152883989" lon="9.761629150583747"><ele>315.0</ele><time>2026-04-22T15:41:30Z</time></trkpt><trkpt lat="45.72454519055288" lon="9.761774551001409"><ele>315.0</ele><time>2026-04-22T15:41:32Z</time></trkpt><trkpt lat="45.72448754880006" lon="9.761935467626811"><ele>315.0</ele><time>2026-04-22T15:41:34Z</time></trkpt><trkpt lat="45.72442458546341" lon="9.762073857765722"><ele>314.75</ele><time>2026-04-22T15:41:36Z</time></trkpt><trkpt lat="45.72436205708723" lon="9.762216554520235"><ele>314.5</ele><time>2026-04-22T15:41:38Z</time></trkpt><trkpt lat="45.724294887726394" lon="9.762359433034625"><ele>314.25</ele><time>2026-04-22T15:41:40Z</time></trkpt><trkpt lat="45.72422344001023" lon="9.762495237351645"><ele>314.0</ele><time>2026-04-22T15:41:42Z</time></trkpt><trkpt lat="45.72414383143918" lon="9.762624246318742"><ele>314.59999999999997</ele><time>2026-04-22T15:41:44Z</time></trkpt><trkpt lat="45.724047084823525" lon="9.762730823442626"><ele>315.2</ele><time>2026-04-22T15:41:46Z</time></trkpt><trkpt lat="45.723952813374915" lon="9.762839772331423"><ele>315.79999999999995</ele><time>2026-04-22T15:41:48Z</time></trkpt><trkpt lat="45.723852958338654" lon="9.762944655659018"><ele>316.4</ele><time>2026-04-22T15:41:50Z</time></trkpt><trkpt lat="45.72379847055252" lon="9.76299999874235"><ele>317.0</ele><time>2026-04-22T15:41:51Z</time></trkpt><trkpt lat="45.72370295821967" lon="9.763118914843835"><ele>317.0</ele><time>2026-04-22T15:41:53Z</time></trkpt><trkpt lat="45.72360486582998" lon="9.763225684888171"><ele>317.0</ele><time>2026-04-22T15:41:55Z</time></trkpt><trkpt lat="45.723526335720415" lon="9.763354552139464"><ele>317.0</ele><time>2026-04-22T15:41:57Z</time></trkpt><trkpt lat="45.723468484152136" lon="9.763418898864204"><ele>317.0</ele><time>2026-04-22T15:41:58Z</time></trkpt><trkpt lat="45.72338195521896" lon="9.76353781318552"><ele>317.0</ele><time>2026-04-22T15:42:00Z</time></trkpt><trkpt lat="45.72333558015998" lon="9.763602475311806"><ele>316.4</ele><time>2026-04-22T15:42:01Z</time></trkpt><trkpt lat="45.72324451384517" lon="9.763725159532854"><ele>315.79999999999995</ele><time>2026-04-22T15:42:03Z</time></trkpt><trkpt lat="45.72320510915305" lon="9.76379865194671"><ele>315.2</ele><time>2026-04-22T15:42:04Z</time></trkpt><trkpt lat="45.723152566939135" lon="9.76385533111588"><ele>314.59999999999997</ele><time>2026-04-22T15:42:05Z</time></trkpt><trkpt lat="45.7230515866443" lon="9.763975267764074"><ele>314.0</ele><time>2026-04-22T15:42:07Z</time></trkpt><trkpt lat="45.72296207760828" lon="9.764084550491035"><ele>314.0</ele><time>2026-04-22T15:42:09Z</time></trkpt><trkpt lat="45.72291024299649" lon="9.764138079570957"><ele>314.0</ele><time>2026-04-22T15:42:10Z</time></trkpt><trkpt lat="45.72280705397574" lon="9.764241306400983"><ele>314.0</ele><time>2026-04-22T15:42:12Z</time></trkpt><trkpt lat="45.72270912294091" lon="9.764340518751025"><ele>314.0</ele><time>2026-04-22T15:42:14Z</time></trkpt><trkpt lat="45.72260547575285" lon="9.764430302000934"><ele>314.0</ele><time>2026-04-22T15:42:16Z</time></trkpt><trkpt lat="45.72250853289759" lon="9.764531801858835"><ele>315.25</ele><time>2026-04-22T15:42:18Z</time></trkpt><trkpt lat="45.722408018710226" lon="9.764623347557844"><ele>316.5</ele><time>2026-04-22T15:42:20Z</time></trkpt><trkpt lat="45.72230944675955" lon="9.76473154106563"><ele>317.75</ele><time>2026-04-22T15:42:22Z</time></trkpt><trkpt lat="45.72221545426958" lon="9.764817221434011"><ele>319.0</ele><time>2026-04-22T15:42:24Z</time></trkpt><trkpt lat="45.722114757705555" lon="9.764921431402534"><ele>319.0</ele><time>2026-04-22T15:42:26Z</time></trkpt><trkpt lat="45.72202378993733" lon="9.765022516539817"><ele>319.0</ele><time>2026-04-22T15:42:28Z</time></trkpt><trkpt lat="45.721928602278226" lon="9.765119210614715"><ele>319.0</ele><time>2026-04-22T15:42:30Z</time></trkpt><trkpt lat="45.7218243219115" lon="9.765202106145574"><ele>319.0</ele><time>2026-04-22T15:42:32Z</time></trkpt><trkpt lat="45.72172939149785" lon="9.765294859406229"><ele>319.0</ele><time>2026-04-22T15:42:34Z</time></trkpt><trkpt lat="45.72163258470913" lon="9.765380599379004"><ele>319.0</ele><time>2026-04-22T15:42:36Z</time></trkpt><trkpt lat="45.72153738685562" lon="9.765500711885766"><ele>319.0</ele><time>2026-04-22T15:42:38Z</time></trkpt><trkpt lat="45.72144050895436" lon="9.765599851618443"><ele>319.0</ele><time>2026-04-22T15:42:40Z</time></trkpt><trkpt lat="45.721390379974835" lon="9.765655240915166"><ele>319.0</ele><time>2026-04-22T15:42:41Z</time></trkpt><trkpt lat="45.721295943092066" lon="9.765761884626507"><ele>319.0</ele><time>2026-04-22T15:42:43Z</time></trkpt><trkpt lat="45.72119952859978" lon="9.765871824327967"><ele>319.0</ele><time>2026-04-22T15:42:45Z</time></trkpt><trkpt lat="45.72110913578786" lon="9.765977267754966"><ele>319.0</ele><time>2026-04-22T15:42:47Z</time></trkpt><trkpt lat="45.72101593555586" lon="9.76608349416206"><ele>319.0</ele><time>2026-04-22T15:42:49Z</time></trkpt><trkpt lat="45.72092561796852" lon="9.76620096753567"><ele>319.75</ele><time>2026-04-22T15:42:51Z</time></trkpt><trkpt lat="45.72083680208008" lon="9.766315301036384"><ele>320.5</ele><time>2026-04-22T15:42:53Z</time></trkpt><trkpt lat="45.720746798039094" lon="9.766426036435108"><ele>321.25</ele><time>2026-04-22T15:42:55Z</time></trkpt><trkpt lat="45.72065646497693" lon="9.766548887250526"><ele>322.0</ele><time>2026-04-22T15:42:57Z</time></trkpt><trkpt lat="45.720568719672144" lon="9.766655979418958"><ele>322.0</ele><time>2026-04-22T15:42:59Z</time></trkpt><trkpt lat="45.72047503064253" lon="9.766763303420808"><ele>322.0</ele><time>2026-04-22T15:43:01Z</time></trkpt><trkpt lat="45.720375815046516" lon="9.7668588918255"><ele>322.0</ele><time>2026-04-22T15:43:03Z</time></trkpt><trkpt lat="45.72027294821343" lon="9.766950740492202"><ele>322.0</ele><time>2026-04-22T15:43:05Z</time></trkpt><trkpt lat="45.72017233018301" lon="9.767050940903143"><ele>322.66666666666663</ele><time>2026-04-22T15:43:07Z</time></trkpt><trkpt lat="45.72007332078388" lon="9.7671495290825"><ele>323.3333333333333</ele><time>2026-04-22T15:43:09Z</time></trkpt><trkpt lat="45.720016853496006" lon="9.767200463858352"><ele>324.0</ele><time>2026-04-22T15:43:10Z</time></trkpt><trkpt lat="45.71996315500155" lon="9.767252424183571"><ele>324.6666666666667</ele><time>2026-04-22T15:43:11Z</time></trkpt><trkpt lat="45.71991051768772" lon="9.767306123306923"><ele>325.33333333333337</ele><time>2026-04-22T15:43:12Z</time></trkpt><trkpt lat="45.71985638786017" lon="9.76735954986629"><ele>326.0</ele><time>2026-04-22T15:43:13Z</time></trkpt><trkpt lat="45.71975509736071" lon="9.767459668434011"><ele>326.0</ele><time>2026-04-22T15:43:15Z</time></trkpt><trkpt lat="45.71964928910053" lon="9.767559062473815"><ele>326.0</ele><time>2026-04-22T15:43:17Z</time></trkpt><trkpt lat="45.71955977327037" lon="9.767665814112547"><ele>326.0</ele><time>2026-04-22T15:43:19Z</time></trkpt><trkpt lat="45.71945846034783" lon="9.767761826759253"><ele>326.0</ele><time>2026-04-22T15:43:21Z</time></trkpt><trkpt lat="45.71936226444546" lon="9.767861684314763"><ele>325.4</ele><time>2026-04-22T15:43:23Z</time></trkpt><trkpt lat="45.71926407530135" lon="9.767967092471771"><ele>324.8</ele><time>2026-04-22T15:43:25Z</time></trkpt><trkpt lat="45.71916710479157" lon="9.768057092849755"><ele>324.2</ele><time>2026-04-22T15:43:27Z</time></trkpt><trkpt lat="45.71911328029242" lon="9.768110899387471"><ele>323.59999999999997</ele><time>2026-04-22T15:43:28Z</time></trkpt><trkpt lat="45.7190158845454" lon="9.768204546258046"><ele>323.0</ele><time>2026-04-22T15:43:30Z</time></trkpt><trkpt lat="45.71896367394213" lon="9.768257928489316"><ele>323.0</ele><time>2026-04-22T15:43:31Z</time></trkpt><trkpt lat="45.718855216502085" lon="9.76836309010741"><ele>323.0</ele><time>2026-04-22T15:43:33Z</time></trkpt><trkpt lat="45.71875898837296" lon="9.768457443824348"><ele>323.0</ele><time>2026-04-22T15:43:35Z</time></trkpt><trkpt lat="45.71865706443265" lon="9.768556010610792"><ele>323.0</ele><time>2026-04-22T15:43:37Z</time></trkpt><trkpt lat="45.718556624730766" lon="9.76864736369093"><ele>322.79999999999995</ele><time>2026-04-22T15:43:39Z</time></trkpt><trkpt lat="45.71845608918732" lon="9.768743696836795"><ele>322.6</ele><time>2026-04-22T15:43:41Z</time></trkpt><trkpt lat="45.71840489619523" lon="9.768801389899673"><ele>322.4</ele><time>2026-04-22T15:43:42Z</time></trkpt><trkpt lat="45.718307399033606" lon="9.768900052070755"><ele>322.20000000000005</ele><time>2026-04-22T15:43:44Z</time></trkpt><trkpt lat="45.71821762360674" lon="9.769013134035125"><ele>322.0</ele><time>2026-04-22T15:43:46Z</time></trkpt><trkpt lat="45.71812530876192" lon="9.769133333422479"><ele>322.0</ele><time>2026-04-22T15:43:48Z</time></trkpt><trkpt lat="45.71803990086884" lon="9.769262757963876"><ele>322.0</ele><time>2026-04-22T15:43:50Z</time></trkpt><trkpt lat="45.717960018871615" lon="9.769397505533423"><ele>322.0</ele><time>2026-04-22T15:43:52Z</time></trkpt><trkpt lat="45.71788900374604" lon="9.76953659394592"><ele>322.0</ele><time>2026-04-22T15:43:54Z</time></trkpt><trkpt lat="45.717819289135306" lon="9.769686600909925"><ele>322.20000000000005</ele><time>2026-04-22T15:43:56Z</time></trkpt><trkpt lat="45.717744134357886" lon="9.769818337352504"><ele>322.4</ele><time>2026-04-22T15:43:58Z</time></trkpt><trkpt lat="45.71770625320457" lon="9.769892796958917"><ele>322.6</ele><time>2026-04-22T15:43:59Z</time></trkpt><trkpt lat="45.71762337239548" lon="9.770020398610026"><ele>322.79999999999995</ele><time>2026-04-22T15:44:01Z</time></trkpt><trkpt lat="45.717540299919854" lon="9.77015116934578"><ele>323.0</ele><time>2026-04-22T15:44:03Z</time></trkpt><trkpt lat="45.71746076299296" lon="9.770275437763654"><ele>323.59999999999997</ele><time>2026-04-22T15:44:05Z</time></trkpt><trkpt lat="45.71737893080804" lon="9.770403403812848"><ele>324.2</ele><time>2026-04-22T15:44:07Z</time></trkpt><trkpt lat="45.717323544881225" lon="9.770531353544047"><ele>324.8</ele><time>2026-04-22T15:44:09Z</time></trkpt><trkpt lat="45.717253677585134" lon="9.770637579406486"><ele>325.4</ele><time>2026-04-22T15:44:11Z</time></trkpt><trkpt lat="45.71717351283165" lon="9.77075977151685"><ele>326.0</ele><time>2026-04-22T15:44:13Z</time></trkpt><trkpt lat="45.71710580972067" lon="9.770867880975267"><ele>326.0</ele><time>2026-04-22T15:44:15Z</time></trkpt><trkpt lat="45.717045468027834" lon="9.77096652216207"><ele>326.0</ele><time>2026-04-22T15:44:17Z</time></trkpt><trkpt lat="45.71699555918369" lon="9.77105518366735"><ele>326.0</ele><time>2026-04-22T15:44:19Z</time></trkpt><trkpt lat="45.71698632837086" lon="9.771175574978127"><ele>326.0</ele><time>2026-04-22T15:44:21Z</time></trkpt><trkpt lat="45.716954409289606" lon="9.771296921904451"><ele>326.0</ele><time>2026-04-22T15:44:23Z</time></trkpt><trkpt lat="45.71701000522135" lon="9.771381132778918"><ele>326.0</ele><time>2026-04-22T15:44:25Z</time></trkpt><trkpt lat="45.71710848020533" lon="9.771409363579354"><ele>326.5</ele><time>2026-04-22T15:44:27Z</time></trkpt><trkpt lat="45.71720465638753" lon="9.77142999526709"><ele>327.0</ele><time>2026-04-22T15:44:29Z</time></trkpt><trkpt lat="45.717297534021434" lon="9.771461860832517"><ele>327.5</ele><time>2026-04-22T15:44:31Z</time></trkpt><trkpt lat="45.717380778374505" lon="9.771495979999143"><ele>328.0</ele><time>2026-04-22T15:44:33Z</time></trkpt><trkpt lat="45.717463561055574" lon="9.771495619547531"><ele>328.5</ele><time>2026-04-22T15:44:35Z</time></trkpt><trkpt lat="45.71751558670211" lon="9.771399383779373"><ele>329.0</ele><time>2026-04-22T15:44:37Z</time></trkpt><trkpt lat="45.717546971541225" lon="9.77127765780315"><ele>329.0</ele><time>2026-04-22T15:44:39Z</time></trkpt><trkpt lat="45.71757463448285" lon="9.771120072138695"><ele>329.0</ele><time>2026-04-22T15:44:41Z</time></trkpt><trkpt lat="45.71760573683751" lon="9.77099543254988"><ele>329.0</ele><time>2026-04-22T15:44:43Z</time></trkpt><trkpt lat="45.71766209053231" lon="9.770888455963465"><ele>329.0</ele><time>2026-04-22T15:44:45Z</time></trkpt><trkpt lat="45.71771647821729" lon="9.770805467532766"><ele>329.0</ele><time>2026-04-22T15:44:47Z</time></trkpt><trkpt lat="45.71776566582822" lon="9.770731202500027"><ele>329.6666666666667</ele><time>2026-04-22T15:44:49Z</time></trkpt><trkpt lat="45.71783403463868" lon="9.770654566311133"><ele>330.33333333333337</ele><time>2026-04-22T15:44:51Z</time></trkpt><trkpt lat="45.717903707906174" lon="9.77058004116381"><ele>331.0</ele><time>2026-04-22T15:44:53Z</time></trkpt><trkpt lat="45.71799183824332" lon="9.770588236878694"><ele>331.6666666666667</ele><time>2026-04-22T15:44:55Z</time></trkpt><trkpt lat="45.71806613008609" lon="9.77065615170648"><ele>332.3333333333333</ele><time>2026-04-22T15:44:57Z</time></trkpt><trkpt lat="45.718135167316355" lon="9.770702133700963"><ele>333.0</ele><time>2026-04-22T15:44:59Z</time></trkpt><trkpt lat="45.71819597649744" lon="9.770741005873534"><ele>333.0</ele><time>2026-04-22T15:45:01Z</time></trkpt><trkpt lat="45.71825693175755" lon="9.770767876341276"><ele>333.0</ele><time>2026-04-22T15:45:03Z</time></trkpt><trkpt lat="45.71830793616069" lon="9.770823830012766"><ele>333.0</ele><time>2026-04-22T15:45:05Z</time></trkpt><trkpt lat="45.71837455455683" lon="9.770898182615504"><ele>333.0</ele><time>2026-04-22T15:45:08Z</time></trkpt><trkpt lat="45.71845162258843" lon="9.770940510876985"><ele>333.0</ele><time>2026-04-22T15:45:11Z</time></trkpt><trkpt lat="45.718519203819874" lon="9.770954125361623"><ele>333.0</ele><time>2026-04-22T15:45:14Z</time></trkpt><trkpt lat="45.7185863754295" lon="9.770895413873646"><ele>343.0</ele><time>2026-04-22T15:45:18Z</time></trkpt></trkseg></trk></gpx>